<?xml version='1.0' encoding='UTF-8'?><gpx version="1.1" creator="JPX - https://github.com/jenetics/jpx" xmlns="http://www.topografix.com/GPX/1/1"><trk><trkseg><trkpt lat="46.6000785" lon="12.4743373"><ele>1270.0</ele><time>2026-04-23T15:21:47.949Z</time></trkpt><trkpt lat="46.6001781" lon="12.4742471"><ele>1270.0</ele><time>2026-04-23T15:21:49.949Z</time></trkpt><trkpt lat="46.6002942" lon="12.474204"><ele>1270.0</ele><time>2026-04-23T15:21:51.949Z</time></trkpt><trkpt lat="46.6004065" lon="12.4742418"><ele>1270.0</ele><time>2026-04-23T15:21:53.949Z</time></trkpt><trkpt lat="46.6005297" lon="12.4743046"><ele>1269.7142857142856</ele><time>2026-04-23T15:21:55.949Z</time></trkpt><trkpt lat="46.6005882" lon="12.4743534"><ele>1269.4285714285713</ele><time>2026-04-23T15:21:56.949Z</time></trkpt><trkpt lat="46.6006368" lon="12.4744199"><ele>1269.142857142857</ele><time>2026-04-23T15:21:57.949Z</time></trkpt><trkpt lat="46.6006741" lon="12.4745054"><ele>1268.8571428571427</ele><time>2026-04-23T15:21:58.949Z</time></trkpt><trkpt lat="46.6007025" lon="12.4745935"><ele>1268.5714285714284</ele><time>2026-04-23T15:21:59.949Z</time></trkpt><trkpt lat="46.6007376" lon="12.4746698"><ele>1268.2857142857142</ele><time>2026-04-23T15:22:00.949Z</time></trkpt><trkpt lat="46.6007573" lon="12.4747578"><ele>1268.0</ele><time>2026-04-23T15:22:01.949Z</time></trkpt><trkpt lat="46.6007614" lon="12.474928"><ele>1268.0</ele><time>2026-04-23T15:22:03.949Z</time></trkpt><trkpt lat="46.6007573" lon="12.475022"><ele>1268.0</ele><time>2026-04-23T15:22:04.949Z</time></trkpt><trkpt lat="46.6007451" lon="12.4751191"><ele>1268.0</ele><time>2026-04-23T15:22:05.95Z</time></trkpt><trkpt lat="46.6007234" lon="12.4752124"><ele>1268.0</ele><time>2026-04-23T15:22:06.949Z</time></trkpt><trkpt lat="46.6007022" lon="12.4753839"><ele>1268.0</ele><time>2026-04-23T15:22:08.949Z</time></trkpt><trkpt lat="46.6007281" lon="12.4755211"><ele>1268.0</ele><time>2026-04-23T15:22:10.949Z</time></trkpt><trkpt lat="46.6008089" lon="12.4755801"><ele>1268.0</ele><time>2026-04-23T15:22:12.949Z</time></trkpt><trkpt lat="46.6009234" lon="12.4755232"><ele>1268.0</ele><time>2026-04-23T15:22:14.949Z</time></trkpt><trkpt lat="46.6009714" lon="12.4754569"><ele>1268.0</ele><time>2026-04-23T15:22:15.949Z</time></trkpt><trkpt lat="46.6010211" lon="12.4753672"><ele>1268.0</ele><time>2026-04-23T15:22:16.949Z</time></trkpt><trkpt lat="46.6010741" lon="12.4752664"><ele>1268.0</ele><time>2026-04-23T15:22:17.949Z</time></trkpt><trkpt lat="46.6011355" lon="12.475185"><ele>1268.0</ele><time>2026-04-23T15:22:18.95Z</time></trkpt><trkpt lat="46.6012039" lon="12.4751044"><ele>1268.8333333333335</ele><time>2026-04-23T15:22:19.948Z</time></trkpt><trkpt lat="46.6012833" lon="12.4750758"><ele>1269.6666666666667</ele><time>2026-04-23T15:22:20.949Z</time></trkpt><trkpt lat="46.6013655" lon="12.475055"><ele>1270.5</ele><time>2026-04-23T15:22:21.949Z</time></trkpt><trkpt lat="46.6014478" lon="12.4750642"><ele>1271.3333333333333</ele><time>2026-04-23T15:22:22.948Z</time></trkpt><trkpt lat="46.6015201" lon="12.4750586"><ele>1272.1666666666665</ele><time>2026-04-23T15:22:23.95Z</time></trkpt><trkpt lat="46.6015906" lon="12.4750444"><ele>1273.0</ele><time>2026-04-23T15:22:24.949Z</time></trkpt><trkpt lat="46.6017038" lon="12.4750255"><ele>1273.0</ele><time>2026-04-23T15:22:26.948Z</time></trkpt><trkpt lat="46.6017586" lon="12.4749774"><ele>1273.0</ele><time>2026-04-23T15:22:27.949Z</time></trkpt><trkpt lat="46.6018115" lon="12.4748406"><ele>1273.0</ele><time>2026-04-23T15:22:29.949Z</time></trkpt><trkpt lat="46.6018596" lon="12.4747487"><ele>1273.0</ele><time>2026-04-23T15:22:32.95Z</time></trkpt><trkpt lat="46.6018001" lon="12.4747106"><ele>1273.0</ele><time>2026-04-23T15:22:43.95Z</time></trkpt><trkpt lat="46.6017036" lon="12.4747093"><ele>1273.0</ele><time>2026-04-23T15:22:45.949Z</time></trkpt><trkpt lat="46.6016373" lon="12.4746767"><ele>1273.0</ele><time>2026-04-23T15:22:48.949Z</time></trkpt><trkpt lat="46.6015763" lon="12.4747031"><ele>1273.0</ele><time>2026-04-23T15:22:52.95Z</time></trkpt><trkpt lat="46.6015721" lon="12.4745726"><ele>1273.0</ele><time>2026-04-23T15:22:56.949Z</time></trkpt><trkpt lat="46.6015275" lon="12.4744924"><ele>1273.0</ele><time>2026-04-23T15:23:04.983Z</time></trkpt><trkpt lat="46.6014898" lon="12.4744099"><ele>1273.0</ele><time>2026-04-23T15:23:08.949Z</time></trkpt><trkpt lat="46.601452" lon="12.4743363"><ele>1273.0</ele><time>2026-04-23T15:23:12.945Z</time></trkpt><trkpt lat="46.6014263" lon="12.4742283"><ele>1273.0</ele><time>2026-04-23T15:23:16.943Z</time></trkpt><trkpt lat="46.6014051" lon="12.4741202"><ele>1276.6666666666665</ele><time>2026-04-23T15:23:22.946Z</time></trkpt><trkpt lat="46.6013586" lon="12.4740222"><ele>1280.3333333333333</ele><time>2026-04-23T15:23:26.951Z</time></trkpt><trkpt lat="46.6013073" lon="12.473933"><ele>1284.0</ele><time>2026-04-23T15:23:29.945Z</time></trkpt><trkpt lat="46.6013057" lon="12.4737988"><ele>1287.6666666666667</ele><time>2026-04-23T15:23:32.985Z</time></trkpt><trkpt lat="46.6012783" lon="12.4736789"><ele>1291.3333333333335</ele><time>2026-04-23T15:23:34.949Z</time></trkpt><trkpt lat="46.6012216" lon="12.4735527"><ele>1295.0</ele><time>2026-04-23T15:23:35.949Z</time></trkpt><trkpt lat="46.6012031" lon="12.4734626"><ele>1298.4</ele><time>2026-04-23T15:23:36.949Z</time></trkpt><trkpt lat="46.6011632" lon="12.4733418"><ele>1301.8</ele><time>2026-04-23T15:23:38.949Z</time></trkpt><trkpt lat="46.6011625" lon="12.4732041"><ele>1305.1999999999998</ele><time>2026-04-23T15:23:40.949Z</time></trkpt><trkpt lat="46.6011598" lon="12.4730604"><ele>1308.6</ele><time>2026-04-23T15:23:42.949Z</time></trkpt><trkpt lat="46.601161" lon="12.4729393"><ele>1312.0</ele><time>2026-04-23T15:23:44.949Z</time></trkpt><trkpt lat="46.6011645" lon="12.4728213"><ele>1315.1999999999998</ele><time>2026-04-23T15:23:48.944Z</time></trkpt><trkpt lat="46.6011807" lon="12.4727187"><ele>1318.4</ele><time>2026-04-23T15:23:52.951Z</time></trkpt><trkpt lat="46.6012621" lon="12.4726755"><ele>1321.6</ele><time>2026-04-23T15:24:18.948Z</time></trkpt><trkpt lat="46.6011721" lon="12.472526"><ele>1324.8000000000002</ele><time>2026-04-23T15:24:21.977Z</time></trkpt><trkpt lat="46.6011045" lon="12.4724137"><ele>1328.0</ele><time>2026-04-23T15:24:23.947Z</time></trkpt><trkpt lat="46.6011025" lon="12.4722432"><ele>1333.2</ele><time>2026-04-23T15:24:24.949Z</time></trkpt><trkpt lat="46.6010789" lon="12.4720938"><ele>1338.4</ele><time>2026-04-23T15:24:26.949Z</time></trkpt><trkpt lat="46.6010454" lon="12.471948"><ele>1343.6000000000001</ele><time>2026-04-23T15:24:28.95Z</time></trkpt><trkpt lat="46.6010314" lon="12.4718005"><ele>1348.8000000000002</ele><time>2026-04-23T15:24:30.949Z</time></trkpt><trkpt lat="46.6010237" lon="12.4716512"><ele>1354.0</ele><time>2026-04-23T15:24:32.949Z</time></trkpt><trkpt lat="46.6010098" lon="12.4715327"><ele>1354.0</ele><time>2026-04-23T15:24:33.949Z</time></trkpt><trkpt lat="46.6010021" lon="12.4714087"><ele>1354.0</ele><time>2026-04-23T15:24:34.95Z</time></trkpt><trkpt lat="46.6009784" lon="12.4712711"><ele>1354.0</ele><time>2026-04-23T15:24:36.95Z</time></trkpt><trkpt lat="46.6009539" lon="12.4711586"><ele>1354.0</ele><time>2026-04-23T15:24:39.99Z</time></trkpt><trkpt lat="46.6009275" lon="12.4710614"><ele>1354.0</ele><time>2026-04-23T15:24:41.947Z</time></trkpt><trkpt lat="46.6008881" lon="12.4709475"><ele>1354.0</ele><time>2026-04-23T15:24:43.98Z</time></trkpt><trkpt lat="46.6008279" lon="12.4708562"><ele>1358.6</ele><time>2026-04-23T15:24:45.947Z</time></trkpt><trkpt lat="46.6007526" lon="12.4708317"><ele>1363.2</ele><time>2026-04-23T15:24:47.945Z</time></trkpt><trkpt lat="46.6006035" lon="12.4709382"><ele>1367.8</ele><time>2026-04-23T15:24:49.949Z</time></trkpt><trkpt lat="46.6005205" lon="12.4709816"><ele>1372.3999999999999</ele><time>2026-04-23T15:24:51.949Z</time></trkpt><trkpt lat="46.6005333" lon="12.4708564"><ele>1377.0</ele><time>2026-04-23T15:24:54.949Z</time></trkpt><trkpt lat="46.6005573" lon="12.4707328"><ele>1377.0</ele><time>2026-04-23T15:24:56.949Z</time></trkpt><trkpt lat="46.600579" lon="12.470583"><ele>1377.0</ele><time>2026-04-23T15:24:58.949Z</time></trkpt><trkpt lat="46.6005812" lon="12.4703908"><ele>1377.0</ele><time>2026-04-23T15:25:01.95Z</time></trkpt><trkpt lat="46.6005888" lon="12.4702998"><ele>1377.0</ele><time>2026-04-23T15:25:02.949Z</time></trkpt><trkpt lat="46.6006068" lon="12.4701744"><ele>1377.0</ele><time>2026-04-23T15:25:04.949Z</time></trkpt><trkpt lat="46.6006489" lon="12.4700964"><ele>1380.5</ele><time>2026-04-23T15:25:07.949Z</time></trkpt><trkpt lat="46.6007236" lon="12.4700711"><ele>1384.0</ele><time>2026-04-23T15:25:09.95Z</time></trkpt><trkpt lat="46.6007858" lon="12.4700404"><ele>1387.5</ele><time>2026-04-23T15:25:10.948Z</time></trkpt><trkpt lat="46.6008719" lon="12.4700138"><ele>1391.0</ele><time>2026-04-23T15:25:11.949Z</time></trkpt><trkpt lat="46.6009585" lon="12.4699904"><ele>1394.5</ele><time>2026-04-23T15:25:12.949Z</time></trkpt><trkpt lat="46.6010456" lon="12.469992"><ele>1398.0</ele><time>2026-04-23T15:25:13.949Z</time></trkpt><trkpt lat="46.6011262" lon="12.4699888"><ele>1399.3333333333333</ele><time>2026-04-23T15:25:14.95Z</time></trkpt><trkpt lat="46.6012087" lon="12.4699982"><ele>1400.6666666666667</ele><time>2026-04-23T15:25:15.95Z</time></trkpt><trkpt lat="46.6012752" lon="12.4699953"><ele>1402.0</ele><time>2026-04-23T15:25:16.948Z</time></trkpt><trkpt lat="46.601339" lon="12.4699767"><ele>1403.3333333333335</ele><time>2026-04-23T15:25:17.949Z</time></trkpt><trkpt lat="46.601399" lon="12.469908"><ele>1404.6666666666667</ele><time>2026-04-23T15:25:18.949Z</time></trkpt><trkpt lat="46.6014954" lon="12.4697762"><ele>1406.0</ele><time>2026-04-23T15:25:20.949Z</time></trkpt><trkpt lat="46.6015824" lon="12.4697674"><ele>1406.0</ele><time>2026-04-23T15:25:23.949Z</time></trkpt><trkpt lat="46.6016661" lon="12.4696979"><ele>1406.0</ele><time>2026-04-23T15:25:25.943Z</time></trkpt><trkpt lat="46.6017311" lon="12.4696296"><ele>1406.0</ele><time>2026-04-23T15:25:26.949Z</time></trkpt><trkpt lat="46.6018201" lon="12.4695913"><ele>1406.0</ele><time>2026-04-23T15:25:29.949Z</time></trkpt><trkpt lat="46.6018778" lon="12.46948"><ele>1406.0</ele><time>2026-04-23T15:25:31.949Z</time></trkpt><trkpt lat="46.6019214" lon="12.4693997"><ele>1406.0</ele><time>2026-04-23T15:25:32.949Z</time></trkpt><trkpt lat="46.6019872" lon="12.4692804"><ele>1410.1999999999998</ele><time>2026-04-23T15:25:33.948Z</time></trkpt><trkpt lat="46.60205" lon="12.469158"><ele>1414.3999999999999</ele><time>2026-04-23T15:25:34.948Z</time></trkpt><trkpt lat="46.6021028" lon="12.4690472"><ele>1418.6</ele><time>2026-04-23T15:25:35.949Z</time></trkpt><trkpt lat="46.6021643" lon="12.4689456"><ele>1422.8</ele><time>2026-04-23T15:25:36.948Z</time></trkpt><trkpt lat="46.6022204" lon="12.4688534"><ele>1427.0</ele><time>2026-04-23T15:25:37.949Z</time></trkpt><trkpt lat="46.6022744" lon="12.468742"><ele>1429.8</ele><time>2026-04-23T15:25:38.95Z</time></trkpt><trkpt lat="46.6023336" lon="12.468621"><ele>1432.6</ele><time>2026-04-23T15:25:39.949Z</time></trkpt><trkpt lat="46.602388" lon="12.468502"><ele>1435.3999999999999</ele><time>2026-04-23T15:25:40.949Z</time></trkpt><trkpt lat="46.6024452" lon="12.4683791"><ele>1438.1999999999998</ele><time>2026-04-23T15:25:41.948Z</time></trkpt><trkpt lat="46.6025085" lon="12.4682529"><ele>1441.0</ele><time>2026-04-23T15:25:42.949Z</time></trkpt><trkpt lat="46.6026131" lon="12.4679904"><ele>1444.25</ele><time>2026-04-23T15:25:44.949Z</time></trkpt><trkpt lat="46.6026707" lon="12.4678876"><ele>1447.5</ele><time>2026-04-23T15:25:45.948Z</time></trkpt><trkpt lat="46.6027258" lon="12.4677438"><ele>1450.75</ele><time>2026-04-23T15:25:46.949Z</time></trkpt><trkpt lat="46.6027884" lon="12.4675898"><ele>1454.0</ele><time>2026-04-23T15:25:47.949Z</time></trkpt><trkpt lat="46.6028781" lon="12.467421"><ele>1456.5</ele><time>2026-04-23T15:25:48.949Z</time></trkpt><trkpt lat="46.6029586" lon="12.4673012"><ele>1459.0</ele><time>2026-04-23T15:25:49.949Z</time></trkpt><trkpt lat="46.6030332" lon="12.4672185"><ele>1461.5</ele><time>2026-04-23T15:25:50.949Z</time></trkpt><trkpt lat="46.6031163" lon="12.4671708"><ele>1464.0</ele><time>2026-04-23T15:25:51.949Z</time></trkpt><trkpt lat="46.6033167" lon="12.4670795"><ele>1466.25</ele><time>2026-04-23T15:25:53.949Z</time></trkpt><trkpt lat="46.6034386" lon="12.4670419"><ele>1468.5</ele><time>2026-04-23T15:25:54.948Z</time></trkpt><trkpt lat="46.6035456" lon="12.4670038"><ele>1470.75</ele><time>2026-04-23T15:25:55.949Z</time></trkpt><trkpt lat="46.6036832" lon="12.4670122"><ele>1473.0</ele><time>2026-04-23T15:25:56.95Z</time></trkpt><trkpt lat="46.6038104" lon="12.4670097"><ele>1474.25</ele><time>2026-04-23T15:25:57.948Z</time></trkpt><trkpt lat="46.6039179" lon="12.4669928"><ele>1475.5</ele><time>2026-04-23T15:25:58.948Z</time></trkpt><trkpt lat="46.6041009" lon="12.4669941"><ele>1476.75</ele><time>2026-04-23T15:26:00.949Z</time></trkpt><trkpt lat="46.6041828" lon="12.4670167"><ele>1478.0</ele><time>2026-04-23T15:26:01.948Z</time></trkpt><trkpt lat="46.6042695" lon="12.4670518"><ele>1478.0</ele><time>2026-04-23T15:26:02.949Z</time></trkpt><trkpt lat="46.6043434" lon="12.46709"><ele>1478.0</ele><time>2026-04-23T15:26:03.95Z</time></trkpt><trkpt lat="46.6044514" lon="12.4671649"><ele>1478.0</ele><time>2026-04-23T15:26:05.949Z</time></trkpt><trkpt lat="46.6045394" lon="12.4672474"><ele>1478.0</ele><time>2026-04-23T15:26:07.949Z</time></trkpt><trkpt lat="46.604625" lon="12.467358"><ele>1478.0</ele><time>2026-04-23T15:26:10.948Z</time></trkpt><trkpt lat="46.6046304" lon="12.4674721"><ele>1474.6666666666667</ele><time>2026-04-23T15:26:13.949Z</time></trkpt><trkpt lat="46.6046453" lon="12.4675624"><ele>1471.3333333333335</ele><time>2026-04-23T15:26:15.949Z</time></trkpt><trkpt lat="46.6046574" lon="12.4676814"><ele>1468.0</ele><time>2026-04-23T15:26:17.949Z</time></trkpt><trkpt lat="46.604659" lon="12.4678108"><ele>1464.6666666666667</ele><time>2026-04-23T15:26:19.949Z</time></trkpt><trkpt lat="46.6047092" lon="12.467937"><ele>1461.3333333333333</ele><time>2026-04-23T15:26:22.95Z</time></trkpt><trkpt lat="46.6047212" lon="12.4680428"><ele>1458.0</ele><time>2026-04-23T15:26:24.949Z</time></trkpt><trkpt lat="46.6046569" lon="12.468141"><ele>1454.1666666666667</ele><time>2026-04-23T15:26:26.949Z</time></trkpt><trkpt lat="46.6046146" lon="12.4682228"><ele>1450.3333333333333</ele><time>2026-04-23T15:26:29.947Z</time></trkpt><trkpt lat="46.6045871" lon="12.4683151"><ele>1446.5</ele><time>2026-04-23T15:26:31.979Z</time></trkpt><trkpt lat="46.6045866" lon="12.4684207"><ele>1442.6666666666665</ele><time>2026-04-23T15:26:33.948Z</time></trkpt><trkpt lat="46.6045519" lon="12.4685558"><ele>1438.8333333333333</ele><time>2026-04-23T15:26:36.956Z</time></trkpt><trkpt lat="46.6045973" lon="12.468724"><ele>1435.0</ele><time>2026-04-23T15:26:37.948Z</time></trkpt><trkpt lat="46.60461" lon="12.4688268"><ele>1431.2</ele><time>2026-04-23T15:26:38.948Z</time></trkpt><trkpt lat="46.6046204" lon="12.4689259"><ele>1427.4</ele><time>2026-04-23T15:26:39.949Z</time></trkpt><trkpt lat="46.6046384" lon="12.4690474"><ele>1423.6</ele><time>2026-04-23T15:26:41.948Z</time></trkpt><trkpt lat="46.6047003" lon="12.4691568"><ele>1419.8</ele><time>2026-04-23T15:26:43.949Z</time></trkpt><trkpt lat="46.6047097" lon="12.4693016"><ele>1416.0</ele><time>2026-04-23T15:26:45.949Z</time></trkpt><trkpt lat="46.6046404" lon="12.4694076"><ele>1416.0</ele><time>2026-04-23T15:26:47.95Z</time></trkpt><trkpt lat="46.6045319" lon="12.4694582"><ele>1416.0</ele><time>2026-04-23T15:26:49.949Z</time></trkpt><trkpt lat="46.6044551" lon="12.4695291"><ele>1416.0</ele><time>2026-04-23T15:26:51.948Z</time></trkpt><trkpt lat="46.6044329" lon="12.4696429"><ele>1416.0</ele><time>2026-04-23T15:26:53.949Z</time></trkpt><trkpt lat="46.6045539" lon="12.4697439"><ele>1416.0</ele><time>2026-04-23T15:26:56.949Z</time></trkpt><trkpt lat="46.6045604" lon="12.4698607"><ele>1414.0</ele><time>2026-04-23T15:27:00.95Z</time></trkpt><trkpt lat="46.6046072" lon="12.4699878"><ele>1412.0</ele><time>2026-04-23T15:27:01.949Z</time></trkpt><trkpt lat="46.6046755" lon="12.4700658"><ele>1410.0</ele><time>2026-04-23T15:27:03.949Z</time></trkpt><trkpt lat="46.6047437" lon="12.4701216"><ele>1408.0</ele><time>2026-04-23T15:27:06.949Z</time></trkpt><trkpt lat="46.6047988" lon="12.470195"><ele>1406.0</ele><time>2026-04-23T15:27:08.962Z</time></trkpt><trkpt lat="46.6048613" lon="12.4702143"><ele>1404.0</ele><time>2026-04-23T15:27:10.944Z</time></trkpt><trkpt lat="46.6049289" lon="12.470192"><ele>1404.0</ele><time>2026-04-23T15:27:14.979Z</time></trkpt><trkpt lat="46.6049958" lon="12.4701378"><ele>1404.0</ele><time>2026-04-23T15:27:20.952Z</time></trkpt><trkpt lat="46.6052191" lon="12.4701723"><ele>1404.0</ele><time>2026-04-23T15:27:24.949Z</time></trkpt><trkpt lat="46.605272" lon="12.4702606"><ele>1404.0</ele><time>2026-04-23T15:27:26.949Z</time></trkpt><trkpt lat="46.6052802" lon="12.4703882"><ele>1399.4</ele><time>2026-04-23T15:27:29.948Z</time></trkpt><trkpt lat="46.6052759" lon="12.4705136"><ele>1394.8000000000002</ele><time>2026-04-23T15:27:31.949Z</time></trkpt><trkpt lat="46.6050941" lon="12.4706094"><ele>1390.1999999999998</ele><time>2026-04-23T15:27:35.948Z</time></trkpt><trkpt lat="46.60503" lon="12.4706326"><ele>1385.6</ele><time>2026-04-23T15:27:36.949Z</time></trkpt><trkpt lat="46.6049636" lon="12.4706101"><ele>1381.0</ele><time>2026-04-23T15:27:38.949Z</time></trkpt><trkpt lat="46.6050507" lon="12.4706156"><ele>1381.0</ele><time>2026-04-23T15:27:39.948Z</time></trkpt><trkpt lat="46.6051474" lon="12.4705914"><ele>1381.0</ele><time>2026-04-23T15:27:41.949Z</time></trkpt><trkpt lat="46.6052089" lon="12.4705605"><ele>1381.0</ele><time>2026-04-23T15:27:42.949Z</time></trkpt><trkpt lat="46.6052777" lon="12.4704948"><ele>1381.0</ele><time>2026-04-23T15:27:44.949Z</time></trkpt><trkpt lat="46.605346" lon="12.4704814"><ele>1381.0</ele><time>2026-04-23T15:27:47.949Z</time></trkpt><trkpt lat="46.6054207" lon="12.4704494"><ele>1381.0</ele><time>2026-04-23T15:27:50.949Z</time></trkpt><trkpt lat="46.6054713" lon="12.4705197"><ele>1376.0</ele><time>2026-04-23T15:27:51.952Z</time></trkpt><trkpt lat="46.6055266" lon="12.4705708"><ele>1371.0</ele><time>2026-04-23T15:27:53.949Z</time></trkpt><trkpt lat="46.6055618" lon="12.4706727"><ele>1366.0</ele><time>2026-04-23T15:27:56.945Z</time></trkpt><trkpt lat="46.6054245" lon="12.4707068"><ele>1361.0</ele><time>2026-04-23T15:27:57.95Z</time></trkpt><trkpt lat="46.6053458" lon="12.4707581"><ele>1356.0</ele><time>2026-04-23T15:27:59.948Z</time></trkpt><trkpt lat="46.6053332" lon="12.4708631"><ele>1351.0</ele><time>2026-04-23T15:28:01.945Z</time></trkpt><trkpt lat="46.6053416" lon="12.4709743"><ele>1346.5</ele><time>2026-04-23T15:28:05.949Z</time></trkpt><trkpt lat="46.6053048" lon="12.471052"><ele>1342.0</ele><time>2026-04-23T15:28:09.956Z</time></trkpt><trkpt lat="46.6052904" lon="12.4711423"><ele>1337.5</ele><time>2026-04-23T15:28:13.975Z</time></trkpt><trkpt lat="46.605299" lon="12.4712393"><ele>1333.0</ele><time>2026-04-23T15:28:18.977Z</time></trkpt><trkpt lat="46.6054351" lon="12.4713667"><ele>1328.5</ele><time>2026-04-23T15:28:21.946Z</time></trkpt><trkpt lat="46.6055088" lon="12.4714249"><ele>1324.0</ele><time>2026-04-23T15:28:23.976Z</time></trkpt><trkpt lat="46.6055507" lon="12.4715021"><ele>1324.0</ele><time>2026-04-23T15:28:26.943Z</time></trkpt><trkpt lat="46.605568" lon="12.4716154"><ele>1324.0</ele><time>2026-04-23T15:28:30.971Z</time></trkpt><trkpt lat="46.605632" lon="12.4718481"><ele>1324.0</ele><time>2026-04-23T15:28:32.95Z</time></trkpt><trkpt lat="46.6056532" lon="12.4719509"><ele>1324.0</ele><time>2026-04-23T15:28:33.95Z</time></trkpt><trkpt lat="46.6057304" lon="12.4721026"><ele>1317.4</ele><time>2026-04-23T15:28:35.95Z</time></trkpt><trkpt lat="46.6057464" lon="12.4722595"><ele>1310.8000000000002</ele><time>2026-04-23T15:28:38.949Z</time></trkpt><trkpt lat="46.6057781" lon="12.4723905"><ele>1304.1999999999998</ele><time>2026-04-23T15:28:40.949Z</time></trkpt><trkpt lat="46.6058459" lon="12.4724778"><ele>1297.6</ele><time>2026-04-23T15:28:42.949Z</time></trkpt><trkpt lat="46.6059181" lon="12.4725375"><ele>1291.0</ele><time>2026-04-23T15:28:44.949Z</time></trkpt><trkpt lat="46.6060019" lon="12.4726126"><ele>1291.0</ele><time>2026-04-23T15:28:46.949Z</time></trkpt><trkpt lat="46.6060565" lon="12.4727813"><ele>1291.0</ele><time>2026-04-23T15:28:48.948Z</time></trkpt><trkpt lat="46.606089" lon="12.4728733"><ele>1291.0</ele><time>2026-04-23T15:28:49.95Z</time></trkpt><trkpt lat="46.6061217" lon="12.4729551"><ele>1291.0</ele><time>2026-04-23T15:28:50.949Z</time></trkpt><trkpt lat="46.606151" lon="12.4730455"><ele>1291.0</ele><time>2026-04-23T15:28:51.949Z</time></trkpt><trkpt lat="46.60618" lon="12.473142"><ele>1291.0</ele><time>2026-04-23T15:28:52.949Z</time></trkpt><trkpt lat="46.606205" lon="12.4732389"><ele>1286.0</ele><time>2026-04-23T15:28:53.95Z</time></trkpt><trkpt lat="46.6062149" lon="12.4733506"><ele>1281.0</ele><time>2026-04-23T15:28:54.949Z</time></trkpt><trkpt lat="46.6062246" lon="12.4734579"><ele>1276.0</ele><time>2026-04-23T15:28:55.948Z</time></trkpt><trkpt lat="46.6062505" lon="12.4735707"><ele>1271.0</ele><time>2026-04-23T15:28:56.949Z</time></trkpt><trkpt lat="46.6062792" lon="12.4736696"><ele>1266.0</ele><time>2026-04-23T15:28:57.949Z</time></trkpt><trkpt lat="46.6063478" lon="12.4737758"><ele>1261.0</ele><time>2026-04-23T15:28:59.949Z</time></trkpt><trkpt lat="46.6064526" lon="12.473747"><ele>1261.0</ele><time>2026-04-23T15:29:01.949Z</time></trkpt><trkpt lat="46.6065129" lon="12.4736855"><ele>1261.0</ele><time>2026-04-23T15:29:02.949Z</time></trkpt><trkpt lat="46.6065678" lon="12.4736074"><ele>1261.0</ele><time>2026-04-23T15:29:03.95Z</time></trkpt><trkpt lat="46.6066234" lon="12.4735219"><ele>1261.0</ele><time>2026-04-23T15:29:04.949Z</time></trkpt><trkpt lat="46.6066845" lon="12.4734283"><ele>1261.0</ele><time>2026-04-23T15:29:05.949Z</time></trkpt><trkpt lat="46.6067533" lon="12.4733539"><ele>1261.0</ele><time>2026-04-23T15:29:06.948Z</time></trkpt><trkpt lat="46.6068349" lon="12.4733013"><ele>1261.0</ele><time>2026-04-23T15:29:07.95Z</time></trkpt><trkpt lat="46.6069215" lon="12.4732565"><ele>1261.0</ele><time>2026-04-23T15:29:08.949Z</time></trkpt><trkpt lat="46.6070125" lon="12.4732552"><ele>1261.0</ele><time>2026-04-23T15:29:09.948Z</time></trkpt><trkpt lat="46.6071067" lon="12.4732389"><ele>1261.0</ele><time>2026-04-23T15:29:10.949Z</time></trkpt><trkpt lat="46.607202" lon="12.4732143"><ele>1261.0</ele><time>2026-04-23T15:29:11.949Z</time></trkpt><trkpt lat="46.6072959" lon="12.4732052"><ele>1262.5</ele><time>2026-04-23T15:29:12.948Z</time></trkpt><trkpt lat="46.6074052" lon="12.4731687"><ele>1264.0</ele><time>2026-04-23T15:29:13.949Z</time></trkpt><trkpt lat="46.6075071" lon="12.4731366"><ele>1265.5</ele><time>2026-04-23T15:29:14.949Z</time></trkpt><trkpt lat="46.6077229" lon="12.4730827"><ele>1267.0</ele><time>2026-04-23T15:29:16.95Z</time></trkpt><trkpt lat="46.6079573" lon="12.4730023"><ele>1267.75</ele><time>2026-04-23T15:29:18.949Z</time></trkpt><trkpt lat="46.6080857" lon="12.4729684"><ele>1268.5</ele><time>2026-04-23T15:29:19.949Z</time></trkpt><trkpt lat="46.6082106" lon="12.4729288"><ele>1269.25</ele><time>2026-04-23T15:29:20.948Z</time></trkpt><trkpt lat="46.6083252" lon="12.4728963"><ele>1270.0</ele><time>2026-04-23T15:29:21.95Z</time></trkpt><trkpt lat="46.6084289" lon="12.4728723"><ele>1270.0</ele><time>2026-04-23T15:29:22.949Z</time></trkpt><trkpt lat="46.6085313" lon="12.4728476"><ele>1270.0</ele><time>2026-04-23T15:29:23.95Z</time></trkpt><trkpt lat="46.6086305" lon="12.472831"><ele>1270.0</ele><time>2026-04-23T15:29:24.949Z</time></trkpt><trkpt lat="46.6087262" lon="12.47281"><ele>1270.0</ele><time>2026-04-23T15:29:25.949Z</time></trkpt><trkpt lat="46.6088257" lon="12.4727794"><ele>1270.0</ele><time>2026-04-23T15:29:26.949Z</time></trkpt><trkpt lat="46.6089167" lon="12.4727038"><ele>1269.0</ele><time>2026-04-23T15:29:27.949Z</time></trkpt><trkpt lat="46.609012" lon="12.4726197"><ele>1268.0</ele><time>2026-04-23T15:29:28.948Z</time></trkpt><trkpt lat="46.6091127" lon="12.4725199"><ele>1267.0</ele><time>2026-04-23T15:29:29.949Z</time></trkpt><trkpt lat="46.6091931" lon="12.4724157"><ele>1266.0</ele><time>2026-04-23T15:29:30.949Z</time></trkpt><trkpt lat="46.6092653" lon="12.4722926"><ele>1266.0</ele><time>2026-04-23T15:29:31.949Z</time></trkpt><trkpt lat="46.6093316" lon="12.4721631"><ele>1266.0</ele><time>2026-04-23T15:29:32.949Z</time></trkpt><trkpt lat="46.6093542" lon="12.4719922"><ele>1266.0</ele><time>2026-04-23T15:29:33.949Z</time></trkpt><trkpt lat="46.6093671" lon="12.47182"><ele>1266.0</ele><time>2026-04-23T15:29:34.948Z</time></trkpt><trkpt lat="46.6093797" lon="12.4716475"><ele>1268.0</ele><time>2026-04-23T15:29:35.949Z</time></trkpt><trkpt lat="46.6093907" lon="12.4714548"><ele>1270.0</ele><time>2026-04-23T15:29:36.949Z</time></trkpt><trkpt lat="46.6093992" lon="12.4712608"><ele>1272.0</ele><time>2026-04-23T15:29:37.949Z</time></trkpt><trkpt lat="46.6094001" lon="12.4711028"><ele>1274.0</ele><time>2026-04-23T15:29:38.949Z</time></trkpt><trkpt lat="46.6094059" lon="12.4709819"><ele>1276.75</ele><time>2026-04-23T15:29:39.95Z</time></trkpt><trkpt lat="46.6094266" lon="12.47088"><ele>1279.5</ele><time>2026-04-23T15:29:40.948Z</time></trkpt><trkpt lat="46.6094584" lon="12.4707694"><ele>1282.25</ele><time>2026-04-23T15:29:41.949Z</time></trkpt><trkpt lat="46.6096189" lon="12.4706192"><ele>1285.0</ele><time>2026-04-23T15:29:43.949Z</time></trkpt><trkpt lat="46.6097159" lon="12.4705433"><ele>1286.6</ele><time>2026-04-23T15:29:44.95Z</time></trkpt><trkpt lat="46.60981" lon="12.4704495"><ele>1288.2</ele><time>2026-04-23T15:29:45.949Z</time></trkpt><trkpt lat="46.6098914" lon="12.4703549"><ele>1289.8000000000002</ele><time>2026-04-23T15:29:46.948Z</time></trkpt><trkpt lat="46.6099733" lon="12.4702563"><ele>1291.4</ele><time>2026-04-23T15:29:47.949Z</time></trkpt><trkpt lat="46.6100636" lon="12.4701582"><ele>1293.0</ele><time>2026-04-23T15:29:48.95Z</time></trkpt><trkpt lat="46.6101675" lon="12.4700584"><ele>1294.25</ele><time>2026-04-23T15:29:49.95Z</time></trkpt><trkpt lat="46.6102705" lon="12.4699546"><ele>1295.5</ele><time>2026-04-23T15:29:50.949Z</time></trkpt><trkpt lat="46.6103672" lon="12.4698673"><ele>1296.75</ele><time>2026-04-23T15:29:51.95Z</time></trkpt><trkpt lat="46.6104765" lon="12.4698007"><ele>1298.0</ele><time>2026-04-23T15:29:52.95Z</time></trkpt><trkpt lat="46.610545" lon="12.4696938"><ele>1300.6666666666667</ele><time>2026-04-23T15:29:53.95Z</time></trkpt><trkpt lat="46.6106155" lon="12.4695967"><ele>1303.3333333333335</ele><time>2026-04-23T15:29:54.95Z</time></trkpt><trkpt lat="46.610678" lon="12.4695094"><ele>1306.0</ele><time>2026-04-23T15:29:55.95Z</time></trkpt><trkpt lat="46.610715" lon="12.4694321"><ele>1308.6666666666667</ele><time>2026-04-23T15:29:56.951Z</time></trkpt><trkpt lat="46.6107337" lon="12.469337"><ele>1311.3333333333333</ele><time>2026-04-23T15:29:57.95Z</time></trkpt><trkpt lat="46.6107423" lon="12.469236"><ele>1314.0</ele><time>2026-04-23T15:29:58.95Z</time></trkpt><trkpt lat="46.6107297" lon="12.4691339"><ele>1314.0</ele><time>2026-04-23T15:29:59.95Z</time></trkpt><trkpt lat="46.6106323" lon="12.4690204"><ele>1314.0</ele><time>2026-04-23T15:30:01.951Z</time></trkpt><trkpt lat="46.6105564" lon="12.4690015"><ele>1314.0</ele><time>2026-04-23T15:30:02.95Z</time></trkpt><trkpt lat="46.6104738" lon="12.4689706"><ele>1314.0</ele><time>2026-04-23T15:30:03.95Z</time></trkpt><trkpt lat="46.6103652" lon="12.4689656"><ele>1314.0</ele><time>2026-04-23T15:30:04.95Z</time></trkpt><trkpt lat="46.6102581" lon="12.4689825"><ele>1313.8333333333333</ele><time>2026-04-23T15:30:05.95Z</time></trkpt><trkpt lat="46.6101523" lon="12.469"><ele>1313.6666666666667</ele><time>2026-04-23T15:30:06.95Z</time></trkpt><trkpt lat="46.6100673" lon="12.4690053"><ele>1313.5</ele><time>2026-04-23T15:30:07.95Z</time></trkpt><trkpt lat="46.609988" lon="12.4690137"><ele>1313.3333333333335</ele><time>2026-04-23T15:30:08.951Z</time></trkpt><trkpt lat="46.6099296" lon="12.4689174"><ele>1313.1666666666667</ele><time>2026-04-23T15:30:10.95Z</time></trkpt><trkpt lat="46.6099253" lon="12.4688009"><ele>1313.0</ele><time>2026-04-23T15:30:11.949Z</time></trkpt><trkpt lat="46.6099211" lon="12.4686936"><ele>1317.8000000000002</ele><time>2026-04-23T15:30:12.951Z</time></trkpt><trkpt lat="46.6099082" lon="12.4685692"><ele>1322.6</ele><time>2026-04-23T15:30:13.95Z</time></trkpt><trkpt lat="46.609862" lon="12.4684489"><ele>1327.4</ele><time>2026-04-23T15:30:14.95Z</time></trkpt><trkpt lat="46.6098133" lon="12.468338"><ele>1332.1999999999998</ele><time>2026-04-23T15:30:15.95Z</time></trkpt><trkpt lat="46.6097484" lon="12.4682135"><ele>1337.0</ele><time>2026-04-23T15:30:16.949Z</time></trkpt><trkpt lat="46.6096822" lon="12.4680917"><ele>1337.0</ele><time>2026-04-23T15:30:17.951Z</time></trkpt><trkpt lat="46.6096187" lon="12.4679485"><ele>1337.0</ele><time>2026-04-23T15:30:18.949Z</time></trkpt><trkpt lat="46.6095541" lon="12.4678247"><ele>1337.0</ele><time>2026-04-23T15:30:19.949Z</time></trkpt><trkpt lat="46.6094956" lon="12.4677031"><ele>1337.0</ele><time>2026-04-23T15:30:20.951Z</time></trkpt><trkpt lat="46.6094197" lon="12.4675735"><ele>1337.0</ele><time>2026-04-23T15:30:21.95Z</time></trkpt><trkpt lat="46.6093819" lon="12.4674534"><ele>1343.1999999999998</ele><time>2026-04-23T15:30:22.951Z</time></trkpt><trkpt lat="46.6093597" lon="12.4673047"><ele>1349.4</ele><time>2026-04-23T15:30:24.95Z</time></trkpt><trkpt lat="46.6092915" lon="12.4672071"><ele>1355.6</ele><time>2026-04-23T15:30:25.951Z</time></trkpt><trkpt lat="46.6092358" lon="12.4670878"><ele>1361.8000000000002</ele><time>2026-04-23T15:30:26.95Z</time></trkpt><trkpt lat="46.609183" lon="12.4669884"><ele>1368.0</ele><time>2026-04-23T15:30:27.95Z</time></trkpt><trkpt lat="46.6091938" lon="12.4668221"><ele>1372.0</ele><time>2026-04-23T15:30:29.949Z</time></trkpt><trkpt lat="46.6091594" lon="12.4666527"><ele>1376.0</ele><time>2026-04-23T15:30:31.95Z</time></trkpt><trkpt lat="46.6091319" lon="12.4665181"><ele>1380.0</ele><time>2026-04-23T15:30:33.95Z</time></trkpt><trkpt lat="46.6090952" lon="12.4663918"><ele>1384.0</ele><time>2026-04-23T15:30:35.95Z</time></trkpt><trkpt lat="46.6090923" lon="12.4662682"><ele>1388.0</ele><time>2026-04-23T15:30:37.95Z</time></trkpt><trkpt lat="46.609096" lon="12.4661597"><ele>1389.5714285714287</ele><time>2026-04-23T15:30:39.95Z</time></trkpt><trkpt lat="46.6091254" lon="12.4660535"><ele>1391.142857142857</ele><time>2026-04-23T15:30:41.95Z</time></trkpt><trkpt lat="46.6091749" lon="12.465975"><ele>1392.7142857142858</ele><time>2026-04-23T15:30:43.95Z</time></trkpt><trkpt lat="46.6091653" lon="12.465884"><ele>1394.2857142857142</ele><time>2026-04-23T15:30:46.036Z</time></trkpt><trkpt lat="46.6092067" lon="12.4657702"><ele>1395.857142857143</ele><time>2026-04-23T15:30:47.951Z</time></trkpt><trkpt lat="46.6092736" lon="12.465713"><ele>1397.4285714285713</ele><time>2026-04-23T15:30:49.948Z</time></trkpt><trkpt lat="46.6093361" lon="12.465731"><ele>1399.0</ele><time>2026-04-23T15:30:52.947Z</time></trkpt><trkpt lat="46.6093124" lon="12.4658181"><ele>1399.0</ele><time>2026-04-23T15:30:57.95Z</time></trkpt><trkpt lat="46.6091786" lon="12.4657996"><ele>1399.0</ele><time>2026-04-23T15:31:00.949Z</time></trkpt><trkpt lat="46.6090868" lon="12.4657825"><ele>1399.0</ele><time>2026-04-23T15:31:03.986Z</time></trkpt><trkpt lat="46.6090316" lon="12.465737"><ele>1399.0</ele><time>2026-04-23T15:31:07.974Z</time></trkpt><trkpt lat="46.6090139" lon="12.4656374"><ele>1399.0</ele><time>2026-04-23T15:31:12.964Z</time></trkpt><trkpt lat="46.6090162" lon="12.4655452"><ele>1399.0</ele><time>2026-04-23T15:31:16.942Z</time></trkpt><trkpt lat="46.6089982" lon="12.465258"><ele>1400.7142857142858</ele><time>2026-04-23T15:31:19.95Z</time></trkpt><trkpt lat="46.6089804" lon="12.4651577"><ele>1402.4285714285716</ele><time>2026-04-23T15:31:20.95Z</time></trkpt><trkpt lat="46.6089757" lon="12.4650628"><ele>1404.1428571428573</ele><time>2026-04-23T15:31:22.95Z</time></trkpt><trkpt lat="46.6089789" lon="12.4649662"><ele>1405.857142857143</ele><time>2026-04-23T15:31:24.95Z</time></trkpt><trkpt lat="46.6089731" lon="12.4648738"><ele>1407.5714285714287</ele><time>2026-04-23T15:31:26.95Z</time></trkpt><trkpt lat="46.6089586" lon="12.4647775"><ele>1409.2857142857144</ele><time>2026-04-23T15:31:31.981Z</time></trkpt><trkpt lat="46.6089742" lon="12.4646795"><ele>1411.0</ele><time>2026-04-23T15:31:33.944Z</time></trkpt><trkpt lat="46.608981" lon="12.4645746"><ele>1412.5714285714287</ele><time>2026-04-23T15:31:38.95Z</time></trkpt><trkpt lat="46.6089806" lon="12.4644781"><ele>1414.142857142857</ele><time>2026-04-23T15:31:42.949Z</time></trkpt><trkpt lat="46.608997" lon="12.4643779"><ele>1415.7142857142858</ele><time>2026-04-23T15:31:46.949Z</time></trkpt><trkpt lat="46.6090145" lon="12.4642656"><ele>1417.2857142857142</ele><time>2026-04-23T15:31:50.932Z</time></trkpt><trkpt lat="46.6090323" lon="12.4641777"><ele>1418.857142857143</ele><time>2026-04-23T15:31:54.951Z</time></trkpt><trkpt lat="46.6089962" lon="12.4640566"><ele>1420.4285714285716</ele><time>2026-04-23T15:31:57.95Z</time></trkpt><trkpt lat="46.6089875" lon="12.4639652"><ele>1422.0</ele><time>2026-04-23T15:31:59.949Z</time></trkpt><trkpt lat="46.6089462" lon="12.4638787"><ele>1422.0</ele><time>2026-04-23T15:32:03.951Z</time></trkpt><trkpt lat="46.6089199" lon="12.4637883"><ele>1422.0</ele><time>2026-04-23T15:32:06.95Z</time></trkpt><trkpt lat="46.6088634" lon="12.4636916"><ele>1422.0</ele><time>2026-04-23T15:32:10.95Z</time></trkpt><trkpt lat="46.6088228" lon="12.4636214"><ele>1422.0</ele><time>2026-04-23T15:32:12.95Z</time></trkpt><trkpt lat="46.6087847" lon="12.4635358"><ele>1422.0</ele><time>2026-04-23T15:32:14.951Z</time></trkpt><trkpt lat="46.6086801" lon="12.4634481"><ele>1422.0</ele><time>2026-04-23T15:32:17.95Z</time></trkpt><trkpt lat="46.6086121" lon="12.4634071"><ele>1428.2857142857142</ele><time>2026-04-23T15:32:19.951Z</time></trkpt><trkpt lat="46.6085604" lon="12.4633523"><ele>1434.5714285714284</ele><time>2026-04-23T15:32:21.95Z</time></trkpt><trkpt lat="46.6084981" lon="12.4633249"><ele>1440.8571428571427</ele><time>2026-04-23T15:32:29.95Z</time></trkpt><trkpt lat="46.608435" lon="12.4633347"><ele>1447.142857142857</ele><time>2026-04-23T15:32:36.95Z</time></trkpt><trkpt lat="46.6083682" lon="12.4633308"><ele>1453.4285714285713</ele><time>2026-04-23T15:32:43.95Z</time></trkpt><trkpt lat="46.6083191" lon="12.4632603"><ele>1459.7142857142856</ele><time>2026-04-23T15:32:45.95Z</time></trkpt><trkpt lat="46.6082773" lon="12.4631764"><ele>1466.0</ele><time>2026-04-23T15:32:47.951Z</time></trkpt><trkpt lat="46.6082277" lon="12.463098"><ele>1465.9999999999998</ele><time>2026-04-23T15:32:49.95Z</time></trkpt><trkpt lat="46.6081613" lon="12.4630934"><ele>1466.0</ele><time>2026-04-23T15:32:54.95Z</time></trkpt><trkpt lat="46.6080989" lon="12.4631701"><ele>1466.0</ele><time>2026-04-23T15:33:03.95Z</time></trkpt><trkpt lat="46.6080477" lon="12.4632298"><ele>1466.0</ele><time>2026-04-23T15:33:07.95Z</time></trkpt><trkpt lat="46.6079854" lon="12.4631638"><ele>1466.0</ele><time>2026-04-23T15:33:18.95Z</time></trkpt><trkpt lat="46.6079264" lon="12.463106"><ele>1465.9999999999998</ele><time>2026-04-23T15:33:21.951Z</time></trkpt><trkpt lat="46.6078538" lon="12.4630819"><ele>1466.0</ele><time>2026-04-23T15:33:23.949Z</time></trkpt><trkpt lat="46.6077752" lon="12.4630342"><ele>1468.8333333333335</ele><time>2026-04-23T15:33:26.95Z</time></trkpt><trkpt lat="46.6077197" lon="12.4629848"><ele>1471.6666666666667</ele><time>2026-04-23T15:33:28.95Z</time></trkpt><trkpt lat="46.6076529" lon="12.4629368"><ele>1474.5</ele><time>2026-04-23T15:33:31.949Z</time></trkpt><trkpt lat="46.6075842" lon="12.4628709"><ele>1477.3333333333333</ele><time>2026-04-23T15:33:34.95Z</time></trkpt><trkpt lat="46.6075337" lon="12.4627894"><ele>1480.1666666666665</ele><time>2026-04-23T15:33:36.95Z</time></trkpt><trkpt lat="46.6074702" lon="12.4627652"><ele>1483.0</ele><time>2026-04-23T15:33:37.949Z</time></trkpt><trkpt lat="46.6073849" lon="12.4627388"><ele>1483.5</ele><time>2026-04-23T15:33:40.95Z</time></trkpt><trkpt lat="46.6073048" lon="12.4627326"><ele>1484.0</ele><time>2026-04-23T15:33:50.949Z</time></trkpt><trkpt lat="46.607243" lon="12.4626926"><ele>1484.5</ele><time>2026-04-23T15:34:41.95Z</time></trkpt><trkpt lat="46.6071998" lon="12.4625924"><ele>1485.0</ele><time>2026-04-23T15:35:10.951Z</time></trkpt><trkpt lat="46.6071313" lon="12.4625374"><ele>1485.5</ele><time>2026-04-23T15:35:15.95Z</time></trkpt><trkpt lat="46.6070751" lon="12.4624606"><ele>1486.0</ele><time>2026-04-23T15:35:18.95Z</time></trkpt><trkpt lat="46.606994" lon="12.4623454"><ele>1491.4</ele><time>2026-04-23T15:35:21.949Z</time></trkpt><trkpt lat="46.6068973" lon="12.4621757"><ele>1496.8</ele><time>2026-04-23T15:35:24.95Z</time></trkpt><trkpt lat="46.6068222" lon="12.4621497"><ele>1502.2</ele><time>2026-04-23T15:35:27.95Z</time></trkpt><trkpt lat="46.6067502" lon="12.4621022"><ele>1507.6000000000001</ele><time>2026-04-23T15:35:29.95Z</time></trkpt><trkpt lat="46.6066783" lon="12.4620243"><ele>1513.0</ele><time>2026-04-23T15:35:32.949Z</time></trkpt><trkpt lat="46.6066078" lon="12.461967"><ele>1515.2857142857142</ele><time>2026-04-23T15:35:34.949Z</time></trkpt><trkpt lat="46.60656" lon="12.4619014"><ele>1517.5714285714287</ele><time>2026-04-23T15:35:36.95Z</time></trkpt><trkpt lat="46.6065212" lon="12.4618276"><ele>1519.8571428571427</ele><time>2026-04-23T15:35:40.95Z</time></trkpt><trkpt lat="46.6065208" lon="12.461725"><ele>1522.142857142857</ele><time>2026-04-23T15:35:43.95Z</time></trkpt><trkpt lat="46.606501" lon="12.4616246"><ele>1524.4285714285713</ele><time>2026-04-23T15:35:45.951Z</time></trkpt><trkpt lat="46.606475" lon="12.4615309"><ele>1526.7142857142856</ele><time>2026-04-23T15:35:48.95Z</time></trkpt><trkpt lat="46.6064243" lon="12.4614147"><ele>1529.0</ele><time>2026-04-23T15:35:51.95Z</time></trkpt><trkpt lat="46.6063855" lon="12.4613088"><ele>1532.4285714285713</ele><time>2026-04-23T15:35:53.95Z</time></trkpt><trkpt lat="46.6063474" lon="12.46123"><ele>1535.857142857143</ele><time>2026-04-23T15:35:55.951Z</time></trkpt><trkpt lat="46.6063088" lon="12.4611462"><ele>1539.2857142857142</ele><time>2026-04-23T15:35:58.951Z</time></trkpt><trkpt lat="46.6062797" lon="12.4610437"><ele>1542.7142857142858</ele><time>2026-04-23T15:36:00.951Z</time></trkpt><trkpt lat="46.6062366" lon="12.4609561"><ele>1546.142857142857</ele><time>2026-04-23T15:36:02.95Z</time></trkpt><trkpt lat="46.6061975" lon="12.460875"><ele>1549.5714285714284</ele><time>2026-04-23T15:36:04.95Z</time></trkpt><trkpt lat="46.6061786" lon="12.4607608"><ele>1553.0</ele><time>2026-04-23T15:36:06.951Z</time></trkpt><trkpt lat="46.6062076" lon="12.4606429"><ele>1552.9999999999998</ele><time>2026-04-23T15:36:08.949Z</time></trkpt><trkpt lat="46.6062671" lon="12.4605279"><ele>1553.0</ele><time>2026-04-23T15:36:10.95Z</time></trkpt><trkpt lat="46.6063567" lon="12.4604171"><ele>1553.0</ele><time>2026-04-23T15:36:12.95Z</time></trkpt><trkpt lat="46.6063978" lon="12.460339"><ele>1553.0</ele><time>2026-04-23T15:36:14.95Z</time></trkpt><trkpt lat="46.6064528" lon="12.4602755"><ele>1552.9999999999998</ele><time>2026-04-23T15:36:39.95Z</time></trkpt><trkpt lat="46.6064737" lon="12.4601851"><ele>1553.0</ele><time>2026-04-23T15:36:41.95Z</time></trkpt><trkpt lat="46.6065649" lon="12.4600894"><ele>1557.8333333333333</ele><time>2026-04-23T15:36:43.95Z</time></trkpt><trkpt lat="46.6066485" lon="12.4600181"><ele>1562.6666666666665</ele><time>2026-04-23T15:36:45.949Z</time></trkpt><trkpt lat="46.6067047" lon="12.4599473"><ele>1567.5</ele><time>2026-04-23T15:36:47.951Z</time></trkpt><trkpt lat="46.6067358" lon="12.459841"><ele>1572.3333333333335</ele><time>2026-04-23T15:36:50.949Z</time></trkpt><trkpt lat="46.6066529" lon="12.4597386"><ele>1577.1666666666667</ele><time>2026-04-23T15:36:52.95Z</time></trkpt><trkpt lat="46.6065872" lon="12.4597076"><ele>1582.0</ele><time>2026-04-23T15:36:56.95Z</time></trkpt><trkpt lat="46.606511" lon="12.4596304"><ele>1582.0</ele><time>2026-04-23T15:37:04.95Z</time></trkpt><trkpt lat="46.6065224" lon="12.4595396"><ele>1582.0</ele><time>2026-04-23T15:37:07.949Z</time></trkpt><trkpt lat="46.6065808" lon="12.4595877"><ele>1582.0</ele><time>2026-04-23T15:37:09.95Z</time></trkpt><trkpt lat="46.6065959" lon="12.459699"><ele>1582.0</ele><time>2026-04-23T15:37:12.951Z</time></trkpt><trkpt lat="46.6066269" lon="12.4597822"><ele>1582.0</ele><time>2026-04-23T15:37:24.95Z</time></trkpt><trkpt lat="46.606695" lon="12.4598983"><ele>1582.0</ele><time>2026-04-23T15:37:26.95Z</time></trkpt><trkpt lat="46.6066571" lon="12.4599829"><ele>1582.0</ele><time>2026-04-23T15:37:28.949Z</time></trkpt><trkpt lat="46.6065804" lon="12.4600585"><ele>1582.0</ele><time>2026-04-23T15:37:31.95Z</time></trkpt><trkpt lat="46.6065152" lon="12.460185"><ele>1582.0</ele><time>2026-04-23T15:37:33.949Z</time></trkpt><trkpt lat="46.6064678" lon="12.4602792"><ele>1582.0</ele><time>2026-04-23T15:37:35.95Z</time></trkpt><trkpt lat="46.6064204" lon="12.4603452"><ele>1582.0</ele><time>2026-04-23T15:37:39.949Z</time></trkpt><trkpt lat="46.6063371" lon="12.4604077"><ele>1582.0</ele><time>2026-04-23T15:37:42.95Z</time></trkpt><trkpt lat="46.606267" lon="12.4605355"><ele>1581.1666666666667</ele><time>2026-04-23T15:37:44.95Z</time></trkpt><trkpt lat="46.6062152" lon="12.4606738"><ele>1580.3333333333335</ele><time>2026-04-23T15:37:46.951Z</time></trkpt><trkpt lat="46.6061537" lon="12.4607495"><ele>1579.5</ele><time>2026-04-23T15:37:48.95Z</time></trkpt><trkpt lat="46.6061631" lon="12.4608483"><ele>1578.6666666666665</ele><time>2026-04-23T15:37:50.949Z</time></trkpt><trkpt lat="46.6062003" lon="12.4609567"><ele>1577.8333333333333</ele><time>2026-04-23T15:37:52.951Z</time></trkpt><trkpt lat="46.6062456" lon="12.4610302"><ele>1577.0</ele><time>2026-04-23T15:37:54.95Z</time></trkpt><trkpt lat="46.6062818" lon="12.4611656"><ele>1572.9999999999998</ele><time>2026-04-23T15:37:56.949Z</time></trkpt><trkpt lat="46.6063222" lon="12.4612451"><ele>1569.0</ele><time>2026-04-23T15:37:58.95Z</time></trkpt><trkpt lat="46.6063913" lon="12.4613513"><ele>1565.0</ele><time>2026-04-23T15:38:00.95Z</time></trkpt><trkpt lat="46.6064455" lon="12.4614453"><ele>1561.0</ele><time>2026-04-23T15:38:02.95Z</time></trkpt><trkpt lat="46.6064644" lon="12.4615682"><ele>1556.9999999999998</ele><time>2026-04-23T15:38:05.95Z</time></trkpt><trkpt lat="46.6064819" lon="12.4616671"><ele>1553.0</ele><time>2026-04-23T15:38:07.95Z</time></trkpt><trkpt lat="46.6064967" lon="12.4617818"><ele>1549.5714285714284</ele><time>2026-04-23T15:38:10.949Z</time></trkpt><trkpt lat="46.6065344" lon="12.4618687"><ele>1546.142857142857</ele><time>2026-04-23T15:38:13.95Z</time></trkpt><trkpt lat="46.6065771" lon="12.4619432"><ele>1542.7142857142858</ele><time>2026-04-23T15:38:15.95Z</time></trkpt><trkpt lat="46.6066338" lon="12.4620057"><ele>1539.2857142857142</ele><time>2026-04-23T15:38:17.95Z</time></trkpt><trkpt lat="46.6067129" lon="12.4620548"><ele>1535.857142857143</ele><time>2026-04-23T15:38:19.95Z</time></trkpt><trkpt lat="46.6067801" lon="12.46211"><ele>1532.4285714285713</ele><time>2026-04-23T15:38:21.951Z</time></trkpt><trkpt lat="46.6068455" lon="12.4621428"><ele>1529.0</ele><time>2026-04-23T15:38:24.95Z</time></trkpt><trkpt lat="46.6069379" lon="12.4621946"><ele>1521.8333333333335</ele><time>2026-04-23T15:38:27.95Z</time></trkpt><trkpt lat="46.6070028" lon="12.4622877"><ele>1514.6666666666667</ele><time>2026-04-23T15:38:29.95Z</time></trkpt><trkpt lat="46.6070796" lon="12.4623807"><ele>1507.5</ele><time>2026-04-23T15:38:31.95Z</time></trkpt><trkpt lat="46.6071486" lon="12.4624906"><ele>1500.3333333333333</ele><time>2026-04-23T15:38:34.949Z</time></trkpt><trkpt lat="46.6072002" lon="12.4625745"><ele>1493.1666666666665</ele><time>2026-04-23T15:38:37.95Z</time></trkpt><trkpt lat="46.6072602" lon="12.4626054"><ele>1486.0</ele><time>2026-04-23T15:38:43.95Z</time></trkpt><trkpt lat="46.6072708" lon="12.4627045"><ele>1486.0</ele><time>2026-04-23T15:39:01.951Z</time></trkpt><trkpt lat="46.6073379" lon="12.4627319"><ele>1486.0</ele><time>2026-04-23T15:39:07.95Z</time></trkpt><trkpt lat="46.607407" lon="12.4627126"><ele>1486.0</ele><time>2026-04-23T15:39:17.95Z</time></trkpt><trkpt lat="46.6074821" lon="12.4627119"><ele>1486.0</ele><time>2026-04-23T15:39:22.949Z</time></trkpt><trkpt lat="46.6075498" lon="12.462786"><ele>1486.0</ele><time>2026-04-23T15:39:25.95Z</time></trkpt><trkpt lat="46.607593" lon="12.4628536"><ele>1486.0</ele><time>2026-04-23T15:39:27.95Z</time></trkpt><trkpt lat="46.6076425" lon="12.4629252"><ele>1486.0</ele><time>2026-04-23T15:39:30.95Z</time></trkpt><trkpt lat="46.6077079" lon="12.4629895"><ele>1485.5</ele><time>2026-04-23T15:39:33.95Z</time></trkpt><trkpt lat="46.607773" lon="12.4630362"><ele>1485.0</ele><time>2026-04-23T15:39:35.95Z</time></trkpt><trkpt lat="46.6078355" lon="12.4630763"><ele>1484.5</ele><time>2026-04-23T15:39:37.95Z</time></trkpt><trkpt lat="46.6079113" lon="12.4631045"><ele>1484.0</ele><time>2026-04-23T15:39:39.949Z</time></trkpt><trkpt lat="46.6079832" lon="12.4631479"><ele>1483.5</ele><time>2026-04-23T15:39:41.951Z</time></trkpt><trkpt lat="46.6080273" lon="12.4632622"><ele>1483.0</ele><time>2026-04-23T15:39:44.951Z</time></trkpt><trkpt lat="46.6080934" lon="12.4633458"><ele>1480.5714285714284</ele><time>2026-04-23T15:39:47.95Z</time></trkpt><trkpt lat="46.6081542" lon="12.4632779"><ele>1478.142857142857</ele><time>2026-04-23T15:39:50.95Z</time></trkpt><trkpt lat="46.6081955" lon="12.4631721"><ele>1475.7142857142858</ele><time>2026-04-23T15:39:53.95Z</time></trkpt><trkpt lat="46.6082372" lon="12.4630883"><ele>1473.2857142857142</ele><time>2026-04-23T15:39:56.949Z</time></trkpt><trkpt lat="46.608298" lon="12.463136"><ele>1470.857142857143</ele><time>2026-04-23T15:39:59.95Z</time></trkpt><trkpt lat="46.608305" lon="12.4632376"><ele>1468.4285714285713</ele><time>2026-04-23T15:40:01.95Z</time></trkpt><trkpt lat="46.6083235" lon="12.4633379"><ele>1466.0</ele><time>2026-04-23T15:40:03.95Z</time></trkpt><trkpt lat="46.6083833" lon="12.4634095"><ele>1466.0</ele><time>2026-04-23T15:40:06.95Z</time></trkpt><trkpt lat="46.608435" lon="12.4635361"><ele>1466.0</ele><time>2026-04-23T15:40:09.95Z</time></trkpt><trkpt lat="46.6084978" lon="12.4636568"><ele>1466.0</ele><time>2026-04-23T15:40:11.949Z</time></trkpt><trkpt lat="46.6085758" lon="12.4637542"><ele>1466.0</ele><time>2026-04-23T15:40:13.95Z</time></trkpt><trkpt lat="46.6086546" lon="12.4637955"><ele>1466.0</ele><time>2026-04-23T15:40:15.949Z</time></trkpt><trkpt lat="46.6087273" lon="12.4638716"><ele>1457.1999999999998</ele><time>2026-04-23T15:40:17.95Z</time></trkpt><trkpt lat="46.6087658" lon="12.4639835"><ele>1448.3999999999999</ele><time>2026-04-23T15:40:19.95Z</time></trkpt><trkpt lat="46.6087784" lon="12.4641581"><ele>1439.6</ele><time>2026-04-23T15:40:21.95Z</time></trkpt><trkpt lat="46.6088103" lon="12.464238"><ele>1430.8</ele><time>2026-04-23T15:40:22.95Z</time></trkpt><trkpt lat="46.6088622" lon="12.4643635"><ele>1422.0</ele><time>2026-04-23T15:40:24.95Z</time></trkpt><trkpt lat="46.6089002" lon="12.4645086"><ele>1422.0</ele><time>2026-04-23T15:40:26.949Z</time></trkpt><trkpt lat="46.6089212" lon="12.4646123"><ele>1422.0</ele><time>2026-04-23T15:40:28.95Z</time></trkpt><trkpt lat="46.608932" lon="12.4647076"><ele>1422.0</ele><time>2026-04-23T15:40:30.949Z</time></trkpt><trkpt lat="46.6089396" lon="12.4648126"><ele>1422.0</ele><time>2026-04-23T15:40:32.95Z</time></trkpt><trkpt lat="46.6089668" lon="12.4649195"><ele>1422.0</ele><time>2026-04-23T15:40:34.95Z</time></trkpt><trkpt lat="46.6090302" lon="12.4650556"><ele>1422.0</ele><time>2026-04-23T15:40:36.95Z</time></trkpt><trkpt lat="46.6090179" lon="12.465178"><ele>1420.1666666666667</ele><time>2026-04-23T15:40:40.95Z</time></trkpt><trkpt lat="46.6090489" lon="12.4653072"><ele>1418.3333333333333</ele><time>2026-04-23T15:40:42.95Z</time></trkpt><trkpt lat="46.6090786" lon="12.4654231"><ele>1416.5</ele><time>2026-04-23T15:40:44.95Z</time></trkpt><trkpt lat="46.6090911" lon="12.4655265"><ele>1414.6666666666665</ele><time>2026-04-23T15:40:46.949Z</time></trkpt><trkpt lat="46.6090959" lon="12.4656588"><ele>1412.8333333333333</ele><time>2026-04-23T15:40:50.949Z</time></trkpt><trkpt lat="46.6091053" lon="12.4657529"><ele>1411.0</ele><time>2026-04-23T15:40:55.95Z</time></trkpt><trkpt lat="46.6091677" lon="12.4657728"><ele>1409.0</ele><time>2026-04-23T15:40:57.949Z</time></trkpt><trkpt lat="46.6092443" lon="12.4658116"><ele>1407.0</ele><time>2026-04-23T15:40:59.949Z</time></trkpt><trkpt lat="46.6092309" lon="12.4659139"><ele>1405.0</ele><time>2026-04-23T15:41:01.95Z</time></trkpt><trkpt lat="46.6091872" lon="12.4660265"><ele>1403.0</ele><time>2026-04-23T15:41:03.95Z</time></trkpt><trkpt lat="46.6091332" lon="12.4661003"><ele>1401.0</ele><time>2026-04-23T15:41:05.949Z</time></trkpt><trkpt lat="46.6091094" lon="12.4662027"><ele>1399.0</ele><time>2026-04-23T15:41:07.95Z</time></trkpt><trkpt lat="46.6091195" lon="12.4663354"><ele>1396.8000000000002</ele><time>2026-04-23T15:41:10.95Z</time></trkpt><trkpt lat="46.6091478" lon="12.4664971"><ele>1394.6000000000001</ele><time>2026-04-23T15:41:12.951Z</time></trkpt><trkpt lat="46.6092047" lon="12.4666161"><ele>1392.4</ele><time>2026-04-23T15:41:14.95Z</time></trkpt><trkpt lat="46.6092479" lon="12.4668016"><ele>1390.2</ele><time>2026-04-23T15:41:16.95Z</time></trkpt><trkpt lat="46.6092653" lon="12.4669124"><ele>1388.0</ele><time>2026-04-23T15:41:18.951Z</time></trkpt><trkpt lat="46.6092742" lon="12.4670952"><ele>1384.0</ele><time>2026-04-23T15:41:20.951Z</time></trkpt><trkpt lat="46.6092862" lon="12.467197"><ele>1380.0</ele><time>2026-04-23T15:41:21.951Z</time></trkpt><trkpt lat="46.6093181" lon="12.4672871"><ele>1376.0</ele><time>2026-04-23T15:41:22.951Z</time></trkpt><trkpt lat="46.609414" lon="12.4673939"><ele>1372.0</ele><time>2026-04-23T15:41:24.952Z</time></trkpt><trkpt lat="46.6094618" lon="12.4675302"><ele>1368.0</ele><time>2026-04-23T15:41:26.952Z</time></trkpt><trkpt lat="46.6095292" lon="12.4676697"><ele>1365.8333333333333</ele><time>2026-04-23T15:41:28.951Z</time></trkpt><trkpt lat="46.6095631" lon="12.4677507"><ele>1363.6666666666667</ele><time>2026-04-23T15:41:29.951Z</time></trkpt><trkpt lat="46.6096018" lon="12.4678502"><ele>1361.5</ele><time>2026-04-23T15:41:30.951Z</time></trkpt><trkpt lat="46.6096311" lon="12.4679457"><ele>1359.3333333333335</ele><time>2026-04-23T15:41:31.951Z</time></trkpt><trkpt lat="46.6096661" lon="12.4680502"><ele>1357.1666666666667</ele><time>2026-04-23T15:41:32.951Z</time></trkpt><trkpt lat="46.6097194" lon="12.4681559"><ele>1355.0</ele><time>2026-04-23T15:41:33.95Z</time></trkpt><trkpt lat="46.6097763" lon="12.4682588"><ele>1352.0</ele><time>2026-04-23T15:41:34.951Z</time></trkpt><trkpt lat="46.6098317" lon="12.4683528"><ele>1349.0</ele><time>2026-04-23T15:41:35.951Z</time></trkpt><trkpt lat="46.6098858" lon="12.4684447"><ele>1346.0</ele><time>2026-04-23T15:41:36.95Z</time></trkpt><trkpt lat="46.6099318" lon="12.4685441"><ele>1343.0</ele><time>2026-04-23T15:41:37.951Z</time></trkpt><trkpt lat="46.6099285" lon="12.4686496"><ele>1340.0</ele><time>2026-04-23T15:41:38.95Z</time></trkpt><trkpt lat="46.6099489" lon="12.4687541"><ele>1337.0</ele><time>2026-04-23T15:41:39.952Z</time></trkpt><trkpt lat="46.6099616" lon="12.4688672"><ele>1332.3999999999999</ele><time>2026-04-23T15:41:40.95Z</time></trkpt><trkpt lat="46.6099682" lon="12.4689695"><ele>1327.8</ele><time>2026-04-23T15:41:41.951Z</time></trkpt><trkpt lat="46.6100463" lon="12.4690515"><ele>1323.2</ele><time>2026-04-23T15:41:43.952Z</time></trkpt><trkpt lat="46.6101842" lon="12.4689776"><ele>1318.6</ele><time>2026-04-23T15:41:45.952Z</time></trkpt><trkpt lat="46.6102933" lon="12.4689484"><ele>1314.0</ele><time>2026-04-23T15:41:46.951Z</time></trkpt><trkpt lat="46.6104148" lon="12.468945"><ele>1314.0</ele><time>2026-04-23T15:41:47.952Z</time></trkpt><trkpt lat="46.6105165" lon="12.4689524"><ele>1314.0</ele><time>2026-04-23T15:41:48.951Z</time></trkpt><trkpt lat="46.6105977" lon="12.4689704"><ele>1314.0</ele><time>2026-04-23T15:41:49.95Z</time></trkpt><trkpt lat="46.6106691" lon="12.468995"><ele>1314.0</ele><time>2026-04-23T15:41:50.951Z</time></trkpt><trkpt lat="46.6107404" lon="12.4690563"><ele>1314.0</ele><time>2026-04-23T15:41:51.951Z</time></trkpt><trkpt lat="46.6107746" lon="12.4691561"><ele>1314.0</ele><time>2026-04-23T15:41:52.951Z</time></trkpt><trkpt lat="46.6107825" lon="12.4692602"><ele>1314.0</ele><time>2026-04-23T15:41:53.95Z</time></trkpt><trkpt lat="46.6107695" lon="12.4693714"><ele>1314.0</ele><time>2026-04-23T15:41:54.95Z</time></trkpt><trkpt lat="46.6107355" lon="12.469483"><ele>1314.0</ele><time>2026-04-23T15:41:55.951Z</time></trkpt><trkpt lat="46.6106989" lon="12.4696005"><ele>1314.0</ele><time>2026-04-23T15:41:56.951Z</time></trkpt><trkpt lat="46.6106397" lon="12.4697045"><ele>1314.0</ele><time>2026-04-23T15:41:57.951Z</time></trkpt><trkpt lat="46.6105801" lon="12.4698201"><ele>1314.0</ele><time>2026-04-23T15:41:58.951Z</time></trkpt><trkpt lat="46.6104908" lon="12.4698622"><ele>1313.3333333333333</ele><time>2026-04-23T15:41:59.952Z</time></trkpt><trkpt lat="46.6104109" lon="12.4699021"><ele>1312.6666666666667</ele><time>2026-04-23T15:42:00.951Z</time></trkpt><trkpt lat="46.6103404" lon="12.4699424"><ele>1312.0</ele><time>2026-04-23T15:42:01.951Z</time></trkpt><trkpt lat="46.6102751" lon="12.4699949"><ele>1311.3333333333335</ele><time>2026-04-23T15:42:02.951Z</time></trkpt><trkpt lat="46.6102092" lon="12.4700482"><ele>1310.6666666666667</ele><time>2026-04-23T15:42:03.951Z</time></trkpt><trkpt lat="46.6101492" lon="12.4701046"><ele>1310.0</ele><time>2026-04-23T15:42:04.95Z</time></trkpt><trkpt lat="46.6100905" lon="12.4701646"><ele>1308.0</ele><time>2026-04-23T15:42:05.951Z</time></trkpt><trkpt lat="46.6100312" lon="12.4702263"><ele>1306.0</ele><time>2026-04-23T15:42:06.951Z</time></trkpt><trkpt lat="46.6099668" lon="12.4702992"><ele>1304.0</ele><time>2026-04-23T15:42:07.952Z</time></trkpt><trkpt lat="46.6098987" lon="12.470378"><ele>1302.0</ele><time>2026-04-23T15:42:08.951Z</time></trkpt><trkpt lat="46.6098257" lon="12.4704521"><ele>1300.0</ele><time>2026-04-23T15:42:09.95Z</time></trkpt><trkpt lat="46.6097537" lon="12.4705322"><ele>1298.0</ele><time>2026-04-23T15:42:10.951Z</time></trkpt><trkpt lat="46.6096853" lon="12.4706028"><ele>1297.1666666666667</ele><time>2026-04-23T15:42:11.951Z</time></trkpt><trkpt lat="46.6096109" lon="12.4706792"><ele>1296.3333333333335</ele><time>2026-04-23T15:42:12.951Z</time></trkpt><trkpt lat="46.6095373" lon="12.4707582"><ele>1295.5</ele><time>2026-04-23T15:42:13.951Z</time></trkpt><trkpt lat="46.609484" lon="12.4708096"><ele>1294.6666666666667</ele><time>2026-04-23T15:42:14.952Z</time></trkpt><trkpt lat="46.6094354" lon="12.4709711"><ele>1293.8333333333333</ele><time>2026-04-23T15:42:16.951Z</time></trkpt><trkpt lat="46.6094348" lon="12.471071"><ele>1293.0</ele><time>2026-04-23T15:42:17.952Z</time></trkpt><trkpt lat="46.609435" lon="12.4711748"><ele>1289.8333333333333</ele><time>2026-04-23T15:42:18.951Z</time></trkpt><trkpt lat="46.6094317" lon="12.4712826"><ele>1286.6666666666667</ele><time>2026-04-23T15:42:19.951Z</time></trkpt><trkpt lat="46.609425" lon="12.4713928"><ele>1283.5</ele><time>2026-04-23T15:42:20.95Z</time></trkpt><trkpt lat="46.6094209" lon="12.4715017"><ele>1280.3333333333335</ele><time>2026-04-23T15:42:21.951Z</time></trkpt><trkpt lat="46.609416" lon="12.4716321"><ele>1277.1666666666667</ele><time>2026-04-23T15:42:22.951Z</time></trkpt><trkpt lat="46.6094137" lon="12.4717565"><ele>1274.0</ele><time>2026-04-23T15:42:23.95Z</time></trkpt><trkpt lat="46.6094118" lon="12.4718862"><ele>1274.0</ele><time>2026-04-23T15:42:24.951Z</time></trkpt><trkpt lat="46.6093996" lon="12.4720131"><ele>1274.0</ele><time>2026-04-23T15:42:25.951Z</time></trkpt><trkpt lat="46.6093835" lon="12.4721111"><ele>1274.0</ele><time>2026-04-23T15:42:26.951Z</time></trkpt><trkpt lat="46.6093579" lon="12.4722146"><ele>1274.0</ele><time>2026-04-23T15:42:27.951Z</time></trkpt><trkpt lat="46.6093257" lon="12.4723139"><ele>1274.0</ele><time>2026-04-23T15:42:28.951Z</time></trkpt><trkpt lat="46.6092894" lon="12.4724002"><ele>1274.0</ele><time>2026-04-23T15:42:29.951Z</time></trkpt><trkpt lat="46.6092606" lon="12.4724824"><ele>1274.0</ele><time>2026-04-23T15:42:30.951Z</time></trkpt><trkpt lat="46.6092526" lon="12.4726121"><ele>1272.8</ele><time>2026-04-23T15:42:32.952Z</time></trkpt><trkpt lat="46.6093024" lon="12.4727709"><ele>1271.6000000000001</ele><time>2026-04-23T15:42:34.952Z</time></trkpt><trkpt lat="46.6093566" lon="12.4728995"><ele>1270.4</ele><time>2026-04-23T15:42:36.951Z</time></trkpt><trkpt lat="46.6094576" lon="12.4729182"><ele>1269.2</ele><time>2026-04-23T15:42:38.95Z</time></trkpt><trkpt lat="46.6095256" lon="12.4728866"><ele>1268.0</ele><time>2026-04-23T15:42:39.951Z</time></trkpt><trkpt lat="46.6096047" lon="12.4728616"><ele>1268.0</ele><time>2026-04-23T15:42:40.951Z</time></trkpt><trkpt lat="46.6096886" lon="12.4728567"><ele>1268.0</ele><time>2026-04-23T15:42:41.951Z</time></trkpt><trkpt lat="46.6097686" lon="12.4728685"><ele>1268.0</ele><time>2026-04-23T15:42:42.95Z</time></trkpt><trkpt lat="46.6098444" lon="12.4728813"><ele>1268.0</ele><time>2026-04-23T15:42:43.951Z</time></trkpt><trkpt lat="46.6099199" lon="12.4728865"><ele>1268.0</ele><time>2026-04-23T15:42:44.951Z</time></trkpt><trkpt lat="46.6099972" lon="12.4728722"><ele>1268.0</ele><time>2026-04-23T15:42:45.95Z</time></trkpt><trkpt lat="46.6100717" lon="12.4728435"><ele>1268.0</ele><time>2026-04-23T15:42:46.951Z</time></trkpt><trkpt lat="46.610146" lon="12.4728058"><ele>1268.0</ele><time>2026-04-23T15:42:47.952Z</time></trkpt><trkpt lat="46.6102301" lon="12.4727698"><ele>1268.0</ele><time>2026-04-23T15:42:48.951Z</time></trkpt><trkpt lat="46.6103241" lon="12.472729"><ele>1268.0</ele><time>2026-04-23T15:42:49.952Z</time></trkpt><trkpt lat="46.6104166" lon="12.4726772"><ele>1268.0</ele><time>2026-04-23T15:42:50.951Z</time></trkpt><trkpt lat="46.6104951" lon="12.4726211"><ele>1268.6666666666667</ele><time>2026-04-23T15:42:51.951Z</time></trkpt><trkpt lat="46.6105587" lon="12.4725503"><ele>1269.3333333333335</ele><time>2026-04-23T15:42:52.951Z</time></trkpt><trkpt lat="46.6106181" lon="12.4724526"><ele>1270.0</ele><time>2026-04-23T15:42:53.951Z</time></trkpt><trkpt lat="46.6106771" lon="12.4723577"><ele>1270.6666666666667</ele><time>2026-04-23T15:42:54.951Z</time></trkpt><trkpt lat="46.6107267" lon="12.4722922"><ele>1271.3333333333333</ele><time>2026-04-23T15:42:55.951Z</time></trkpt><trkpt lat="46.6107744" lon="12.4722258"><ele>1272.0</ele><time>2026-04-23T15:42:56.952Z</time></trkpt><trkpt lat="46.6108344" lon="12.4721835"><ele>1272.0</ele><time>2026-04-23T15:42:57.952Z</time></trkpt><trkpt lat="46.6109502" lon="12.4722262"><ele>1272.0</ele><time>2026-04-23T15:42:58.951Z</time></trkpt><trkpt lat="46.6110513" lon="12.4722568"><ele>1272.0</ele><time>2026-04-23T15:42:59.951Z</time></trkpt><trkpt lat="46.6111185" lon="12.4722811"><ele>1272.0</ele><time>2026-04-23T15:43:00.951Z</time></trkpt><trkpt lat="46.6111863" lon="12.4723053"><ele>1272.0</ele><time>2026-04-23T15:43:01.951Z</time></trkpt><trkpt lat="46.6112555" lon="12.4722939"><ele>1272.0</ele><time>2026-04-23T15:43:02.95Z</time></trkpt><trkpt lat="46.6113187" lon="12.4722739"><ele>1270.4</ele><time>2026-04-23T15:43:03.95Z</time></trkpt><trkpt lat="46.6114126" lon="12.472204"><ele>1268.8000000000002</ele><time>2026-04-23T15:43:04.95Z</time></trkpt><trkpt lat="46.6115183" lon="12.472142"><ele>1267.2</ele><time>2026-04-23T15:43:05.951Z</time></trkpt><trkpt lat="46.6116215" lon="12.472084"><ele>1265.6000000000001</ele><time>2026-04-23T15:43:06.951Z</time></trkpt><trkpt lat="46.6117223" lon="12.4720174"><ele>1264.0</ele><time>2026-04-23T15:43:07.951Z</time></trkpt><trkpt lat="46.6118285" lon="12.4719354"><ele>1267.0</ele><time>2026-04-23T15:43:08.951Z</time></trkpt><trkpt lat="46.6119467" lon="12.4718645"><ele>1270.0</ele><time>2026-04-23T15:43:09.951Z</time></trkpt><trkpt lat="46.6120884" lon="12.471809"><ele>1273.0</ele><time>2026-04-23T15:43:10.951Z</time></trkpt><trkpt lat="46.612218" lon="12.4717578"><ele>1276.0</ele><time>2026-04-23T15:43:11.951Z</time></trkpt><trkpt lat="46.6123444" lon="12.4717028"><ele>1276.0</ele><time>2026-04-23T15:43:12.951Z</time></trkpt><trkpt lat="46.6124767" lon="12.471613"><ele>1276.0</ele><time>2026-04-23T15:43:13.951Z</time></trkpt><trkpt lat="46.6126266" lon="12.4715263"><ele>1276.0</ele><time>2026-04-23T15:43:14.951Z</time></trkpt><trkpt lat="46.6127644" lon="12.4714541"><ele>1275.5</ele><time>2026-04-23T15:43:15.951Z</time></trkpt><trkpt lat="46.6128963" lon="12.4713706"><ele>1275.0</ele><time>2026-04-23T15:43:16.951Z</time></trkpt><trkpt lat="46.6130021" lon="12.4712676"><ele>1274.5</ele><time>2026-04-23T15:43:17.951Z</time></trkpt><trkpt lat="46.6131075" lon="12.4711926"><ele>1274.0</ele><time>2026-04-23T15:43:18.951Z</time></trkpt><trkpt lat="46.6132057" lon="12.4711244"><ele>1274.0</ele><time>2026-04-23T15:43:19.951Z</time></trkpt><trkpt lat="46.6132904" lon="12.471071"><ele>1274.0</ele><time>2026-04-23T15:43:20.951Z</time></trkpt><trkpt lat="46.6132986" lon="12.47095"><ele>1274.0</ele><time>2026-04-23T15:43:21.951Z</time></trkpt><trkpt lat="46.6133129" lon="12.4707577"><ele>1274.0</ele><time>2026-04-23T15:43:23.951Z</time></trkpt><trkpt lat="46.6133231" lon="12.4706213"><ele>1274.0</ele><time>2026-04-23T15:43:24.951Z</time></trkpt><trkpt lat="46.6133392" lon="12.4705114"><ele>1275.3333333333335</ele><time>2026-04-23T15:43:25.95Z</time></trkpt><trkpt lat="46.6133721" lon="12.4704121"><ele>1276.6666666666667</ele><time>2026-04-23T15:43:26.95Z</time></trkpt><trkpt lat="46.6134027" lon="12.4703151"><ele>1278.0</ele><time>2026-04-23T15:43:27.95Z</time></trkpt><trkpt lat="46.6134284" lon="12.4702281"><ele>1279.3333333333333</ele><time>2026-04-23T15:43:28.951Z</time></trkpt><trkpt lat="46.6135598" lon="12.4701705"><ele>1280.6666666666665</ele><time>2026-04-23T15:43:30.952Z</time></trkpt><trkpt lat="46.6136415" lon="12.4701754"><ele>1282.0</ele><time>2026-04-23T15:43:31.951Z</time></trkpt><trkpt lat="46.6137265" lon="12.470193"><ele>1282.0</ele><time>2026-04-23T15:43:32.952Z</time></trkpt><trkpt lat="46.6138074" lon="12.4702173"><ele>1282.0</ele><time>2026-04-23T15:43:33.951Z</time></trkpt><trkpt lat="46.6138643" lon="12.4702738"><ele>1282.0</ele><time>2026-04-23T15:43:34.952Z</time></trkpt><trkpt lat="46.6139144" lon="12.4703324"><ele>1282.0</ele><time>2026-04-23T15:43:35.95Z</time></trkpt><trkpt lat="46.6140119" lon="12.4703747"><ele>1282.0</ele><time>2026-04-23T15:43:37.95Z</time></trkpt><trkpt lat="46.6141195" lon="12.47026"><ele>1282.0</ele><time>2026-04-23T15:43:39.952Z</time></trkpt><trkpt lat="46.6141753" lon="12.4701656"><ele>1282.0</ele><time>2026-04-23T15:43:40.951Z</time></trkpt><trkpt lat="46.6142345" lon="12.470093"><ele>1282.0</ele><time>2026-04-23T15:43:41.952Z</time></trkpt><trkpt lat="46.6143127" lon="12.4700249"><ele>1282.0</ele><time>2026-04-23T15:43:42.952Z</time></trkpt><trkpt lat="46.6143922" lon="12.4699506"><ele>1282.0</ele><time>2026-04-23T15:43:43.952Z</time></trkpt><trkpt lat="46.6144806" lon="12.4698479"><ele>1281.1999999999998</ele><time>2026-04-23T15:43:44.951Z</time></trkpt><trkpt lat="46.6145688" lon="12.4697372"><ele>1280.3999999999999</ele><time>2026-04-23T15:43:45.95Z</time></trkpt><trkpt lat="46.6146435" lon="12.4696143"><ele>1279.6</ele><time>2026-04-23T15:43:46.951Z</time></trkpt><trkpt lat="46.6146844" lon="12.4694652"><ele>1278.8</ele><time>2026-04-23T15:43:47.951Z</time></trkpt><trkpt lat="46.614731" lon="12.4693584"><ele>1278.0</ele><time>2026-04-23T15:43:48.952Z</time></trkpt><trkpt lat="46.6147775" lon="12.4692643"><ele>1278.0</ele><time>2026-04-23T15:43:49.951Z</time></trkpt><trkpt lat="46.6148695" lon="12.4691914"><ele>1278.0</ele><time>2026-04-23T15:43:50.951Z</time></trkpt><trkpt lat="46.6150064" lon="12.4691527"><ele>1278.0</ele><time>2026-04-23T15:43:51.951Z</time></trkpt><trkpt lat="46.6151423" lon="12.4691234"><ele>1278.0</ele><time>2026-04-23T15:43:52.95Z</time></trkpt><trkpt lat="46.6152719" lon="12.4690872"><ele>1275.75</ele><time>2026-04-23T15:43:53.952Z</time></trkpt><trkpt lat="46.6154134" lon="12.469086"><ele>1273.5</ele><time>2026-04-23T15:43:54.95Z</time></trkpt><trkpt lat="46.6155535" lon="12.4690935"><ele>1271.25</ele><time>2026-04-23T15:43:55.951Z</time></trkpt><trkpt lat="46.6156887" lon="12.4690757"><ele>1269.0</ele><time>2026-04-23T15:43:56.951Z</time></trkpt><trkpt lat="46.6158317" lon="12.4690484"><ele>1269.0</ele><time>2026-04-23T15:43:57.951Z</time></trkpt><trkpt lat="46.6159723" lon="12.4690216"><ele>1269.0</ele><time>2026-04-23T15:43:58.951Z</time></trkpt><trkpt lat="46.6161044" lon="12.469005"><ele>1269.0</ele><time>2026-04-23T15:43:59.95Z</time></trkpt><trkpt lat="46.6162282" lon="12.4689778"><ele>1269.0</ele><time>2026-04-23T15:44:00.951Z</time></trkpt><trkpt lat="46.61631" lon="12.4689433"><ele>1267.75</ele><time>2026-04-23T15:44:01.951Z</time></trkpt><trkpt lat="46.6164157" lon="12.4688575"><ele>1266.5</ele><time>2026-04-23T15:44:02.951Z</time></trkpt><trkpt lat="46.6165251" lon="12.4687665"><ele>1265.25</ele><time>2026-04-23T15:44:03.951Z</time></trkpt><trkpt lat="46.6166415" lon="12.4686592"><ele>1264.0</ele><time>2026-04-23T15:44:04.951Z</time></trkpt><trkpt lat="46.61675" lon="12.4685364"><ele>1265.0</ele><time>2026-04-23T15:44:05.95Z</time></trkpt><trkpt lat="46.6168673" lon="12.4684373"><ele>1266.0</ele><time>2026-04-23T15:44:06.951Z</time></trkpt><trkpt lat="46.6169798" lon="12.4683496"><ele>1267.0</ele><time>2026-04-23T15:44:07.951Z</time></trkpt><trkpt lat="46.617087" lon="12.4682917"><ele>1268.0</ele><time>2026-04-23T15:44:08.951Z</time></trkpt><trkpt lat="46.6171859" lon="12.468231"><ele>1268.0</ele><time>2026-04-23T15:44:09.951Z</time></trkpt><trkpt lat="46.6172522" lon="12.4681425"><ele>1268.0</ele><time>2026-04-23T15:44:10.95Z</time></trkpt><trkpt lat="46.6173244" lon="12.4680359"><ele>1268.0</ele><time>2026-04-23T15:44:11.951Z</time></trkpt><trkpt lat="46.6173912" lon="12.4679316"><ele>1268.0</ele><time>2026-04-23T15:44:12.951Z</time></trkpt><trkpt lat="46.6174683" lon="12.4678502"><ele>1268.0</ele><time>2026-04-23T15:44:13.951Z</time></trkpt><trkpt lat="46.6175388" lon="12.4677849"><ele>1268.4</ele><time>2026-04-23T15:44:14.95Z</time></trkpt><trkpt lat="46.6176107" lon="12.4677189"><ele>1268.8</ele><time>2026-04-23T15:44:15.951Z</time></trkpt><trkpt lat="46.6176957" lon="12.4676588"><ele>1269.2</ele><time>2026-04-23T15:44:16.95Z</time></trkpt><trkpt lat="46.6177797" lon="12.4675872"><ele>1269.6</ele><time>2026-04-23T15:44:17.951Z</time></trkpt><trkpt lat="46.6178992" lon="12.4675239"><ele>1270.0</ele><time>2026-04-23T15:44:19.95Z</time></trkpt><trkpt lat="46.6180027" lon="12.4675556"><ele>1270.0</ele><time>2026-04-23T15:44:21.951Z</time></trkpt><trkpt lat="46.6179644" lon="12.4677413"><ele>1270.0</ele><time>2026-04-23T15:44:23.951Z</time></trkpt><trkpt lat="46.6178442" lon="12.4678727"><ele>1270.0</ele><time>2026-04-23T15:44:24.951Z</time></trkpt><trkpt lat="46.6177285" lon="12.4680221"><ele>1270.0</ele><time>2026-04-23T15:44:25.951Z</time></trkpt><trkpt lat="46.617594" lon="12.4681917"><ele>1269.5</ele><time>2026-04-23T15:44:26.951Z</time></trkpt><trkpt lat="46.6174976" lon="12.4683537"><ele>1269.0</ele><time>2026-04-23T15:44:27.951Z</time></trkpt><trkpt lat="46.6174172" lon="12.4685153"><ele>1268.5</ele><time>2026-04-23T15:44:28.951Z</time></trkpt><trkpt lat="46.6173389" lon="12.4686729"><ele>1268.0</ele><time>2026-04-23T15:44:29.952Z</time></trkpt><trkpt lat="46.6172642" lon="12.4687843"><ele>1268.0</ele><time>2026-04-23T15:44:30.951Z</time></trkpt><trkpt lat="46.6172196" lon="12.4688666"><ele>1268.0</ele><time>2026-04-23T15:44:31.951Z</time></trkpt><trkpt lat="46.6172115" lon="12.4689856"><ele>1268.0</ele><time>2026-04-23T15:44:33.951Z</time></trkpt><trkpt lat="46.6172728" lon="12.4690087"><ele>1268.0</ele><time>2026-04-23T15:44:35.952Z</time></trkpt><trkpt lat="46.6173834" lon="12.4688993"><ele>1268.0</ele><time>2026-04-23T15:44:36.952Z</time></trkpt><trkpt lat="46.6175293" lon="12.4687754"><ele>1268.0</ele><time>2026-04-23T15:44:37.952Z</time></trkpt><trkpt lat="46.6176471" lon="12.4686748"><ele>1268.0</ele><time>2026-04-23T15:44:38.952Z</time></trkpt><trkpt lat="46.6177466" lon="12.4685902"><ele>1268.0</ele><time>2026-04-23T15:44:39.951Z</time></trkpt><trkpt lat="46.6178604" lon="12.4685173"><ele>1268.0</ele><time>2026-04-23T15:44:40.951Z</time></trkpt><trkpt lat="46.6179699" lon="12.4684439"><ele>1263.75</ele><time>2026-04-23T15:44:41.951Z</time></trkpt><trkpt lat="46.61809" lon="12.4683705"><ele>1259.5</ele><time>2026-04-23T15:44:42.951Z</time></trkpt><trkpt lat="46.6182111" lon="12.4683013"><ele>1255.25</ele><time>2026-04-23T15:44:43.951Z</time></trkpt><trkpt lat="46.618298" lon="12.4681762"><ele>1251.0</ele><time>2026-04-23T15:44:44.951Z</time></trkpt><trkpt lat="46.6183907" lon="12.4680879"><ele>1251.0</ele><time>2026-04-23T15:44:45.95Z</time></trkpt><trkpt lat="46.6184893" lon="12.468002"><ele>1251.0</ele><time>2026-04-23T15:44:46.951Z</time></trkpt><trkpt lat="46.6185924" lon="12.4679264"><ele>1251.0</ele><time>2026-04-23T15:44:47.951Z</time></trkpt><trkpt lat="46.618693" lon="12.4678464"><ele>1251.0</ele><time>2026-04-23T15:44:48.952Z</time></trkpt><trkpt lat="46.6187846" lon="12.4677337"><ele>1248.75</ele><time>2026-04-23T15:44:49.951Z</time></trkpt><trkpt lat="46.6188862" lon="12.4676226"><ele>1246.5</ele><time>2026-04-23T15:44:50.951Z</time></trkpt><trkpt lat="46.6190027" lon="12.467574"><ele>1244.25</ele><time>2026-04-23T15:44:51.952Z</time></trkpt><trkpt lat="46.6191262" lon="12.4675167"><ele>1242.0</ele><time>2026-04-23T15:44:52.951Z</time></trkpt><trkpt lat="46.6192768" lon="12.4674681"><ele>1242.0</ele><time>2026-04-23T15:44:53.951Z</time></trkpt><trkpt lat="46.6194142" lon="12.4674138"><ele>1242.0</ele><time>2026-04-23T15:44:54.95Z</time></trkpt><trkpt lat="46.619542" lon="12.4673532"><ele>1242.0</ele><time>2026-04-23T15:44:55.951Z</time></trkpt><trkpt lat="46.6196564" lon="12.4672923"><ele>1242.0</ele><time>2026-04-23T15:44:56.95Z</time></trkpt><trkpt lat="46.6197588" lon="12.4672268"><ele>1240.25</ele><time>2026-04-23T15:44:57.951Z</time></trkpt><trkpt lat="46.6198643" lon="12.467144"><ele>1238.5</ele><time>2026-04-23T15:44:58.951Z</time></trkpt><trkpt lat="46.6199529" lon="12.4670369"><ele>1236.75</ele><time>2026-04-23T15:44:59.951Z</time></trkpt><trkpt lat="46.6200078" lon="12.4668698"><ele>1235.0</ele><time>2026-04-23T15:45:00.951Z</time></trkpt><trkpt lat="46.6200824" lon="12.4667498"><ele>1236.4</ele><time>2026-04-23T15:45:01.951Z</time></trkpt><trkpt lat="46.6201511" lon="12.4666392"><ele>1237.8</ele><time>2026-04-23T15:45:02.95Z</time></trkpt><trkpt lat="46.6202343" lon="12.4665587"><ele>1239.2</ele><time>2026-04-23T15:45:03.951Z</time></trkpt><trkpt lat="46.6203126" lon="12.4664866"><ele>1240.6</ele><time>2026-04-23T15:45:04.952Z</time></trkpt><trkpt lat="46.62039" lon="12.4664808"><ele>1242.0</ele><time>2026-04-23T15:45:05.951Z</time></trkpt><trkpt lat="46.620504" lon="12.4665583"><ele>1242.0</ele><time>2026-04-23T15:45:06.951Z</time></trkpt><trkpt lat="46.6206182" lon="12.4666578"><ele>1242.0</ele><time>2026-04-23T15:45:07.95Z</time></trkpt><trkpt lat="46.6207188" lon="12.4667534"><ele>1242.0</ele><time>2026-04-23T15:45:08.951Z</time></trkpt><trkpt lat="46.6208098" lon="12.4668359"><ele>1242.0</ele><time>2026-04-23T15:45:09.952Z</time></trkpt><trkpt lat="46.6209247" lon="12.4668807"><ele>1242.0</ele><time>2026-04-23T15:45:10.951Z</time></trkpt><trkpt lat="46.6210427" lon="12.4669049"><ele>1242.0</ele><time>2026-04-23T15:45:11.951Z</time></trkpt><trkpt lat="46.6211421" lon="12.4669251"><ele>1242.0</ele><time>2026-04-23T15:45:12.95Z</time></trkpt><trkpt lat="46.6212302" lon="12.4669359"><ele>1242.0</ele><time>2026-04-23T15:45:13.95Z</time></trkpt><trkpt lat="46.6213378" lon="12.4669212"><ele>1242.0</ele><time>2026-04-23T15:45:14.95Z</time></trkpt><trkpt lat="46.6214472" lon="12.4668967"><ele>1240.75</ele><time>2026-04-23T15:45:15.951Z</time></trkpt><trkpt lat="46.6215692" lon="12.4668814"><ele>1239.5</ele><time>2026-04-23T15:45:16.951Z</time></trkpt><trkpt lat="46.6216872" lon="12.4668883"><ele>1238.25</ele><time>2026-04-23T15:45:17.951Z</time></trkpt><trkpt lat="46.621816" lon="12.4669242"><ele>1237.0</ele><time>2026-04-23T15:45:18.95Z</time></trkpt><trkpt lat="46.62195" lon="12.4669776"><ele>1238.0</ele><time>2026-04-23T15:45:19.95Z</time></trkpt><trkpt lat="46.6220815" lon="12.4670456"><ele>1239.0</ele><time>2026-04-23T15:45:20.95Z</time></trkpt><trkpt lat="46.6222237" lon="12.4671135"><ele>1240.0</ele><time>2026-04-23T15:45:21.952Z</time></trkpt><trkpt lat="46.6223614" lon="12.467176"><ele>1241.0</ele><time>2026-04-23T15:45:22.95Z</time></trkpt><trkpt lat="46.6224805" lon="12.4672403"><ele>1241.0</ele><time>2026-04-23T15:45:23.95Z</time></trkpt><trkpt lat="46.6225899" lon="12.4673201"><ele>1241.0</ele><time>2026-04-23T15:45:24.951Z</time></trkpt><trkpt lat="46.6227044" lon="12.4674271"><ele>1241.0</ele><time>2026-04-23T15:45:25.951Z</time></trkpt><trkpt lat="46.6228143" lon="12.4675627"><ele>1241.0</ele><time>2026-04-23T15:45:26.951Z</time></trkpt><trkpt lat="46.6229329" lon="12.4677245"><ele>1241.0</ele><time>2026-04-23T15:45:27.951Z</time></trkpt><trkpt lat="46.6230564" lon="12.4678865"><ele>1241.0</ele><time>2026-04-23T15:45:28.95Z</time></trkpt><trkpt lat="46.623192" lon="12.4680529"><ele>1241.0</ele><time>2026-04-23T15:45:29.951Z</time></trkpt><trkpt lat="46.6233163" lon="12.4681877"><ele>1242.3333333333335</ele><time>2026-04-23T15:45:30.951Z</time></trkpt><trkpt lat="46.6234398" lon="12.4682876"><ele>1243.6666666666667</ele><time>2026-04-23T15:45:31.951Z</time></trkpt><trkpt lat="46.6235737" lon="12.468374"><ele>1245.0</ele><time>2026-04-23T15:45:32.951Z</time></trkpt><trkpt lat="46.6237382" lon="12.4684374"><ele>1245.5</ele><time>2026-04-23T15:45:33.95Z</time></trkpt><trkpt lat="46.6238801" lon="12.4685115"><ele>1246.0</ele><time>2026-04-23T15:45:34.951Z</time></trkpt><trkpt lat="46.624007" lon="12.4685955"><ele>1246.5</ele><time>2026-04-23T15:45:35.951Z</time></trkpt><trkpt lat="46.6241286" lon="12.4686823"><ele>1247.0</ele><time>2026-04-23T15:45:36.951Z</time></trkpt><trkpt lat="46.6242373" lon="12.4687052"><ele>1247.0</ele><time>2026-04-23T15:45:37.951Z</time></trkpt><trkpt lat="46.6243392" lon="12.4687019"><ele>1247.0</ele><time>2026-04-23T15:45:38.95Z</time></trkpt><trkpt lat="46.62445" lon="12.4686593"><ele>1247.0</ele><time>2026-04-23T15:45:39.951Z</time></trkpt><trkpt lat="46.6245719" lon="12.4686045"><ele>1247.0</ele><time>2026-04-23T15:45:40.951Z</time></trkpt><trkpt lat="46.6246846" lon="12.4685659"><ele>1248.2</ele><time>2026-04-23T15:45:41.951Z</time></trkpt><trkpt lat="46.6247807" lon="12.4685355"><ele>1249.4</ele><time>2026-04-23T15:45:42.951Z</time></trkpt><trkpt lat="46.6248628" lon="12.4684482"><ele>1250.6</ele><time>2026-04-23T15:45:43.95Z</time></trkpt><trkpt lat="46.6249554" lon="12.4683319"><ele>1251.8</ele><time>2026-04-23T15:45:44.95Z</time></trkpt><trkpt lat="46.6250428" lon="12.4682005"><ele>1253.0</ele><time>2026-04-23T15:45:45.95Z</time></trkpt><trkpt lat="46.6251354" lon="12.4680682"><ele>1253.5</ele><time>2026-04-23T15:45:46.951Z</time></trkpt><trkpt lat="46.6252324" lon="12.4679226"><ele>1254.0</ele><time>2026-04-23T15:45:47.952Z</time></trkpt><trkpt lat="46.6253345" lon="12.4677667"><ele>1254.5</ele><time>2026-04-23T15:45:48.951Z</time></trkpt><trkpt lat="46.6254374" lon="12.467602"><ele>1255.0</ele><time>2026-04-23T15:45:49.951Z</time></trkpt><trkpt lat="46.6255429" lon="12.4674152"><ele>1255.0</ele><time>2026-04-23T15:45:50.95Z</time></trkpt><trkpt lat="46.6256327" lon="12.4672327"><ele>1255.0</ele><time>2026-04-23T15:45:51.951Z</time></trkpt><trkpt lat="46.6257056" lon="12.4670679"><ele>1255.0</ele><time>2026-04-23T15:45:52.951Z</time></trkpt><trkpt lat="46.6257731" lon="12.4669025"><ele>1255.0</ele><time>2026-04-23T15:45:53.95Z</time></trkpt><trkpt lat="46.6258359" lon="12.4667319"><ele>1255.5</ele><time>2026-04-23T15:45:54.951Z</time></trkpt><trkpt lat="46.625904" lon="12.4665679"><ele>1256.0</ele><time>2026-04-23T15:45:55.951Z</time></trkpt><trkpt lat="46.6259694" lon="12.4664134"><ele>1256.5</ele><time>2026-04-23T15:45:56.95Z</time></trkpt><trkpt lat="46.6260258" lon="12.4662777"><ele>1257.0</ele><time>2026-04-23T15:45:57.952Z</time></trkpt><trkpt lat="46.6260828" lon="12.4661729"><ele>1259.6</ele><time>2026-04-23T15:45:58.951Z</time></trkpt><trkpt lat="46.6261457" lon="12.4660809"><ele>1262.2</ele><time>2026-04-23T15:45:59.951Z</time></trkpt><trkpt lat="46.6262345" lon="12.4659884"><ele>1264.8</ele><time>2026-04-23T15:46:00.951Z</time></trkpt><trkpt lat="46.6263243" lon="12.4658744"><ele>1267.4</ele><time>2026-04-23T15:46:01.951Z</time></trkpt><trkpt lat="46.6264173" lon="12.4657449"><ele>1270.0</ele><time>2026-04-23T15:46:02.951Z</time></trkpt><trkpt lat="46.6265148" lon="12.46562"><ele>1270.0</ele><time>2026-04-23T15:46:03.951Z</time></trkpt><trkpt lat="46.626604" lon="12.4655042"><ele>1270.0</ele><time>2026-04-23T15:46:04.952Z</time></trkpt><trkpt lat="46.6266735" lon="12.4653992"><ele>1270.0</ele><time>2026-04-23T15:46:05.951Z</time></trkpt><trkpt lat="46.626721" lon="12.4653023"><ele>1270.0</ele><time>2026-04-23T15:46:06.951Z</time></trkpt><trkpt lat="46.6267681" lon="12.4652153"><ele>1270.0</ele><time>2026-04-23T15:46:07.951Z</time></trkpt><trkpt lat="46.6268223" lon="12.4651202"><ele>1270.8333333333333</ele><time>2026-04-23T15:46:08.951Z</time></trkpt><trkpt lat="46.6268731" lon="12.4650104"><ele>1271.6666666666665</ele><time>2026-04-23T15:46:09.951Z</time></trkpt><trkpt lat="46.6269229" lon="12.4649247"><ele>1272.5</ele><time>2026-04-23T15:46:10.951Z</time></trkpt><trkpt lat="46.6269969" lon="12.4648855"><ele>1273.3333333333333</ele><time>2026-04-23T15:46:11.951Z</time></trkpt><trkpt lat="46.6270695" lon="12.4648543"><ele>1274.1666666666667</ele><time>2026-04-23T15:46:12.951Z</time></trkpt><trkpt lat="46.627152" lon="12.4648412"><ele>1275.0</ele><time>2026-04-23T15:46:13.95Z</time></trkpt><trkpt lat="46.627234" lon="12.4648235"><ele>1278.6</ele><time>2026-04-23T15:46:14.951Z</time></trkpt><trkpt lat="46.627316" lon="12.464808"><ele>1282.2</ele><time>2026-04-23T15:46:15.951Z</time></trkpt><trkpt lat="46.6274064" lon="12.4647863"><ele>1285.8000000000002</ele><time>2026-04-23T15:46:16.952Z</time></trkpt><trkpt lat="46.6275095" lon="12.4647344"><ele>1289.4</ele><time>2026-04-23T15:46:17.951Z</time></trkpt><trkpt lat="46.6276095" lon="12.4646638"><ele>1293.0</ele><time>2026-04-23T15:46:18.951Z</time></trkpt><trkpt lat="46.6277373" lon="12.4645681"><ele>1295.5</ele><time>2026-04-23T15:46:19.95Z</time></trkpt><trkpt lat="46.6278314" lon="12.4644049"><ele>1298.0</ele><time>2026-04-23T15:46:20.95Z</time></trkpt><trkpt lat="46.6279304" lon="12.464277"><ele>1300.5</ele><time>2026-04-23T15:46:21.952Z</time></trkpt><trkpt lat="46.628031" lon="12.4641519"><ele>1303.0</ele><time>2026-04-23T15:46:22.951Z</time></trkpt><trkpt lat="46.6281145" lon="12.4639957"><ele>1302.6666666666665</ele><time>2026-04-23T15:46:23.951Z</time></trkpt><trkpt lat="46.6283403" lon="12.4637547"><ele>1302.3333333333333</ele><time>2026-04-23T15:46:25.95Z</time></trkpt><trkpt lat="46.6284523" lon="12.4636417"><ele>1302.0</ele><time>2026-04-23T15:46:26.951Z</time></trkpt><trkpt lat="46.6285443" lon="12.4635571"><ele>1302.0</ele><time>2026-04-23T15:46:27.951Z</time></trkpt><trkpt lat="46.6286299" lon="12.4634871"><ele>1302.0</ele><time>2026-04-23T15:46:28.951Z</time></trkpt><trkpt lat="46.6286552" lon="12.4633667"><ele>1302.0</ele><time>2026-04-23T15:46:30.951Z</time></trkpt><trkpt lat="46.628654" lon="12.4631838"><ele>1302.0</ele><time>2026-04-23T15:46:32.951Z</time></trkpt><trkpt lat="46.6286592" lon="12.4630778"><ele>1302.0</ele><time>2026-04-23T15:46:33.95Z</time></trkpt><trkpt lat="46.6286667" lon="12.4628713"><ele>1300.8333333333333</ele><time>2026-04-23T15:46:35.95Z</time></trkpt><trkpt lat="46.6286577" lon="12.4627482"><ele>1299.6666666666667</ele><time>2026-04-23T15:46:36.95Z</time></trkpt><trkpt lat="46.6286483" lon="12.4626421"><ele>1298.5</ele><time>2026-04-23T15:46:37.951Z</time></trkpt><trkpt lat="46.6286231" lon="12.4625009"><ele>1297.3333333333335</ele><time>2026-04-23T15:46:39.951Z</time></trkpt><trkpt lat="46.6285766" lon="12.4623516"><ele>1296.1666666666667</ele><time>2026-04-23T15:46:41.951Z</time></trkpt><trkpt lat="46.6285384" lon="12.4622722"><ele>1295.0</ele><time>2026-04-23T15:46:42.95Z</time></trkpt><trkpt lat="46.6284893" lon="12.4621252"><ele>1293.8</ele><time>2026-04-23T15:46:44.951Z</time></trkpt><trkpt lat="46.6284959" lon="12.4619573"><ele>1292.6</ele><time>2026-04-23T15:46:46.952Z</time></trkpt><trkpt lat="46.6285238" lon="12.4617515"><ele>1291.4</ele><time>2026-04-23T15:46:48.951Z</time></trkpt><trkpt lat="46.6285232" lon="12.4616346"><ele>1290.2</ele><time>2026-04-23T15:46:49.95Z</time></trkpt><trkpt lat="46.6285257" lon="12.4615398"><ele>1289.0</ele><time>2026-04-23T15:46:50.95Z</time></trkpt><trkpt lat="46.6285326" lon="12.4613819"><ele>1288.0</ele><time>2026-04-23T15:46:52.951Z</time></trkpt><trkpt lat="46.6286018" lon="12.4612105"><ele>1287.0</ele><time>2026-04-23T15:46:54.952Z</time></trkpt><trkpt lat="46.6286601" lon="12.4611111"><ele>1286.0</ele><time>2026-04-23T15:46:55.95Z</time></trkpt><trkpt lat="46.6287233" lon="12.461008"><ele>1285.0</ele><time>2026-04-23T15:46:56.95Z</time></trkpt><trkpt lat="46.6287956" lon="12.4609079"><ele>1284.0</ele><time>2026-04-23T15:46:57.951Z</time></trkpt><trkpt lat="46.62887" lon="12.4608105"><ele>1287.5</ele><time>2026-04-23T15:46:58.951Z</time></trkpt><trkpt lat="46.6289299" lon="12.4607272"><ele>1291.0</ele><time>2026-04-23T15:46:59.951Z</time></trkpt><trkpt lat="46.6290438" lon="12.4606795"><ele>1294.5</ele><time>2026-04-23T15:47:01.951Z</time></trkpt><trkpt lat="46.6291067" lon="12.460645"><ele>1298.0</ele><time>2026-04-23T15:47:02.95Z</time></trkpt><trkpt lat="46.6291756" lon="12.4605761"><ele>1301.5</ele><time>2026-04-23T15:47:03.951Z</time></trkpt><trkpt lat="46.629255" lon="12.4605136"><ele>1305.0</ele><time>2026-04-23T15:47:04.951Z</time></trkpt><trkpt lat="46.6293377" lon="12.4604734"><ele>1304.4285714285713</ele><time>2026-04-23T15:47:05.95Z</time></trkpt><trkpt lat="46.6294084" lon="12.460446"><ele>1303.857142857143</ele><time>2026-04-23T15:47:06.951Z</time></trkpt><trkpt lat="46.6294719" lon="12.4604098"><ele>1303.2857142857142</ele><time>2026-04-23T15:47:07.951Z</time></trkpt><trkpt lat="46.6295378" lon="12.4603492"><ele>1302.7142857142858</ele><time>2026-04-23T15:47:08.95Z</time></trkpt><trkpt lat="46.6296161" lon="12.4603079"><ele>1302.142857142857</ele><time>2026-04-23T15:47:09.951Z</time></trkpt><trkpt lat="46.6296823" lon="12.4602714"><ele>1301.5714285714284</ele><time>2026-04-23T15:47:10.951Z</time></trkpt><trkpt lat="46.6297478" lon="12.4602156"><ele>1301.0</ele><time>2026-04-23T15:47:11.951Z</time></trkpt><trkpt lat="46.6297917" lon="12.4601227"><ele>1304.0</ele><time>2026-04-23T15:47:12.951Z</time></trkpt><trkpt lat="46.6298394" lon="12.4600287"><ele>1307.0</ele><time>2026-04-23T15:47:13.951Z</time></trkpt><trkpt lat="46.6298939" lon="12.4599035"><ele>1310.0</ele><time>2026-04-23T15:47:14.951Z</time></trkpt><trkpt lat="46.6299499" lon="12.4597911"><ele>1313.0</ele><time>2026-04-23T15:47:15.951Z</time></trkpt><trkpt lat="46.6299895" lon="12.4596365"><ele>1316.0</ele><time>2026-04-23T15:47:16.951Z</time></trkpt><trkpt lat="46.6300306" lon="12.4595022"><ele>1316.0</ele><time>2026-04-23T15:47:17.951Z</time></trkpt><trkpt lat="46.6300698" lon="12.4593584"><ele>1316.0</ele><time>2026-04-23T15:47:18.951Z</time></trkpt><trkpt lat="46.6301087" lon="12.4591901"><ele>1316.0</ele><time>2026-04-23T15:47:19.952Z</time></trkpt><trkpt lat="46.6301462" lon="12.4590625"><ele>1316.0</ele><time>2026-04-23T15:47:20.951Z</time></trkpt><trkpt lat="46.6301792" lon="12.4589677"><ele>1316.0</ele><time>2026-04-23T15:47:21.951Z</time></trkpt><trkpt lat="46.6302136" lon="12.4588709"><ele>1316.0</ele><time>2026-04-23T15:47:22.951Z</time></trkpt><trkpt lat="46.6302855" lon="12.4587985"><ele>1316.0</ele><time>2026-04-23T15:47:23.951Z</time></trkpt><trkpt lat="46.6303539" lon="12.4587289"><ele>1316.0</ele><time>2026-04-23T15:47:24.95Z</time></trkpt><trkpt lat="46.6304295" lon="12.4586685"><ele>1316.0</ele><time>2026-04-23T15:47:25.951Z</time></trkpt><trkpt lat="46.6305068" lon="12.4586222"><ele>1316.0</ele><time>2026-04-23T15:47:26.951Z</time></trkpt><trkpt lat="46.6305821" lon="12.4585834"><ele>1316.0</ele><time>2026-04-23T15:47:27.95Z</time></trkpt><trkpt lat="46.6305678" lon="12.4583334"><ele>1318.0</ele><time>2026-04-23T15:47:30.951Z</time></trkpt><trkpt lat="46.6305602" lon="12.4582385"><ele>1320.0</ele><time>2026-04-23T15:47:31.951Z</time></trkpt><trkpt lat="46.6305709" lon="12.4581458"><ele>1322.0</ele><time>2026-04-23T15:47:32.951Z</time></trkpt><trkpt lat="46.630598" lon="12.4580381"><ele>1324.0</ele><time>2026-04-23T15:47:33.951Z</time></trkpt><trkpt lat="46.6306526" lon="12.4579118"><ele>1326.0</ele><time>2026-04-23T15:47:34.95Z</time></trkpt><trkpt lat="46.6306943" lon="12.4577904"><ele>1328.0</ele><time>2026-04-23T15:47:35.951Z</time></trkpt><trkpt lat="46.6307335" lon="12.4576806"><ele>1328.6666666666667</ele><time>2026-04-23T15:47:36.951Z</time></trkpt><trkpt lat="46.6307639" lon="12.4575906"><ele>1329.3333333333335</ele><time>2026-04-23T15:47:37.951Z</time></trkpt><trkpt lat="46.6308072" lon="12.4575227"><ele>1330.0</ele><time>2026-04-23T15:47:38.95Z</time></trkpt><trkpt lat="46.6308562" lon="12.4574644"><ele>1330.6666666666667</ele><time>2026-04-23T15:47:39.95Z</time></trkpt><trkpt lat="46.6309553" lon="12.4573714"><ele>1331.3333333333333</ele><time>2026-04-23T15:47:41.951Z</time></trkpt><trkpt lat="46.631023" lon="12.4572355"><ele>1332.0</ele><time>2026-04-23T15:47:43.952Z</time></trkpt><trkpt lat="46.6310552" lon="12.4571507"><ele>1332.0</ele><time>2026-04-23T15:47:44.95Z</time></trkpt><trkpt lat="46.6310923" lon="12.4570733"><ele>1332.0</ele><time>2026-04-23T15:47:45.951Z</time></trkpt><trkpt lat="46.6311724" lon="12.4569702"><ele>1332.0</ele><time>2026-04-23T15:47:47.951Z</time></trkpt><trkpt lat="46.6312697" lon="12.4568774"><ele>1332.0</ele><time>2026-04-23T15:47:49.951Z</time></trkpt><trkpt lat="46.6313264" lon="12.4568117"><ele>1332.0</ele><time>2026-04-23T15:47:50.951Z</time></trkpt><trkpt lat="46.6313688" lon="12.4567159"><ele>1332.0</ele><time>2026-04-23T15:47:51.951Z</time></trkpt><trkpt lat="46.6314436" lon="12.4566528"><ele>1333.6666666666667</ele><time>2026-04-23T15:47:52.951Z</time></trkpt><trkpt lat="46.6315195" lon="12.4565922"><ele>1335.3333333333333</ele><time>2026-04-23T15:47:53.951Z</time></trkpt><trkpt lat="46.6315871" lon="12.4565305"><ele>1337.0</ele><time>2026-04-23T15:47:54.951Z</time></trkpt><trkpt lat="46.6316546" lon="12.4564648"><ele>1338.6666666666665</ele><time>2026-04-23T15:47:55.95Z</time></trkpt><trkpt lat="46.6317264" lon="12.4564054"><ele>1340.3333333333333</ele><time>2026-04-23T15:47:56.95Z</time></trkpt><trkpt lat="46.6318012" lon="12.4563281"><ele>1342.0</ele><time>2026-04-23T15:47:57.95Z</time></trkpt><trkpt lat="46.6318834" lon="12.4562314"><ele>1345.25</ele><time>2026-04-23T15:47:58.952Z</time></trkpt><trkpt lat="46.6320516" lon="12.4560139"><ele>1348.5</ele><time>2026-04-23T15:48:00.951Z</time></trkpt><trkpt lat="46.6321305" lon="12.4559208"><ele>1351.75</ele><time>2026-04-23T15:48:01.951Z</time></trkpt><trkpt lat="46.6321978" lon="12.4558235"><ele>1355.0</ele><time>2026-04-23T15:48:02.95Z</time></trkpt><trkpt lat="46.6322575" lon="12.4557512"><ele>1355.0</ele><time>2026-04-23T15:48:03.951Z</time></trkpt><trkpt lat="46.6322826" lon="12.4556243"><ele>1355.0</ele><time>2026-04-23T15:48:05.951Z</time></trkpt><trkpt lat="46.6323135" lon="12.4557812"><ele>1355.0</ele><time>2026-04-23T15:48:11.951Z</time></trkpt><trkpt lat="46.6323325" lon="12.4558788"><ele>1355.0</ele><time>2026-04-23T15:48:12.951Z</time></trkpt><trkpt lat="46.6323793" lon="12.4559887"><ele>1355.0</ele><time>2026-04-23T15:48:14.951Z</time></trkpt><trkpt lat="46.6324155" lon="12.4560752"><ele>1355.0</ele><time>2026-04-23T15:48:16.952Z</time></trkpt><trkpt lat="46.6324543" lon="12.4561495"><ele>1355.0000000000002</ele><time>2026-04-23T15:48:18.951Z</time></trkpt><trkpt lat="46.6325369" lon="12.4561861"><ele>1355.0</ele><time>2026-04-23T15:48:21.951Z</time></trkpt><trkpt lat="46.632552" lon="12.4560964"><ele>1355.0</ele><time>2026-04-23T15:48:26.952Z</time></trkpt><trkpt lat="46.6324864" lon="12.4560361"><ele>1355.0</ele><time>2026-04-23T15:48:31.952Z</time></trkpt><trkpt lat="46.6324299" lon="12.4559944"><ele>1355.0</ele><time>2026-04-23T15:48:33.951Z</time></trkpt><trkpt lat="46.6323556" lon="12.4559466"><ele>1355.0000000000002</ele><time>2026-04-23T15:48:35.951Z</time></trkpt><trkpt lat="46.6323207" lon="12.4558634"><ele>1355.0</ele><time>2026-04-23T15:48:37.951Z</time></trkpt><trkpt lat="46.6323166" lon="12.4557608"><ele>1355.0</ele><time>2026-04-23T15:48:39.951Z</time></trkpt><trkpt lat="46.6322941" lon="12.4556692"><ele>1355.0</ele><time>2026-04-23T15:48:43.951Z</time></trkpt><trkpt lat="46.6322247" lon="12.4555795"><ele>1355.0</ele><time>2026-04-23T15:48:50.95Z</time></trkpt><trkpt lat="46.632178" lon="12.4555071"><ele>1355.0</ele><time>2026-04-23T15:48:52.951Z</time></trkpt><trkpt lat="46.6321615" lon="12.4554101"><ele>1355.0</ele><time>2026-04-23T15:48:55.951Z</time></trkpt><trkpt lat="46.6321172" lon="12.4553125"><ele>1355.0</ele><time>2026-04-23T15:48:57.951Z</time></trkpt><trkpt lat="46.6321" lon="12.4552082"><ele>1355.1666666666667</ele><time>2026-04-23T15:49:00.951Z</time></trkpt><trkpt lat="46.6321277" lon="12.4551175"><ele>1355.3333333333335</ele><time>2026-04-23T15:49:02.95Z</time></trkpt><trkpt lat="46.6321829" lon="12.4550347"><ele>1355.5</ele><time>2026-04-23T15:49:04.952Z</time></trkpt><trkpt lat="46.6322438" lon="12.4549444"><ele>1355.6666666666667</ele><time>2026-04-23T15:49:06.951Z</time></trkpt><trkpt lat="46.6322878" lon="12.4548322"><ele>1355.8333333333333</ele><time>2026-04-23T15:49:09.951Z</time></trkpt><trkpt lat="46.6323782" lon="12.4547522"><ele>1356.0</ele><time>2026-04-23T15:49:11.951Z</time></trkpt><trkpt lat="46.632441" lon="12.4547245"><ele>1356.0</ele><time>2026-04-23T15:49:13.95Z</time></trkpt><trkpt lat="46.6325236" lon="12.4546588"><ele>1356.0</ele><time>2026-04-23T15:49:15.951Z</time></trkpt><trkpt lat="46.6325761" lon="12.4545493"><ele>1356.0</ele><time>2026-04-23T15:49:17.951Z</time></trkpt><trkpt lat="46.6326015" lon="12.454398"><ele>1356.0</ele><time>2026-04-23T15:49:19.951Z</time></trkpt><trkpt lat="46.6326168" lon="12.4542872"><ele>1356.0</ele><time>2026-04-23T15:49:20.95Z</time></trkpt><trkpt lat="46.6326411" lon="12.4541946"><ele>1356.0</ele><time>2026-04-23T15:49:21.951Z</time></trkpt><trkpt lat="46.6326546" lon="12.4541021"><ele>1355.6666666666667</ele><time>2026-04-23T15:49:22.951Z</time></trkpt><trkpt lat="46.632695" lon="12.453966"><ele>1355.3333333333333</ele><time>2026-04-23T15:49:24.951Z</time></trkpt><trkpt lat="46.6327471" lon="12.4538543"><ele>1355.0</ele><time>2026-04-23T15:49:26.952Z</time></trkpt><trkpt lat="46.6327997" lon="12.4537907"><ele>1354.6666666666665</ele><time>2026-04-23T15:49:28.951Z</time></trkpt><trkpt lat="46.6328486" lon="12.4536731"><ele>1354.3333333333333</ele><time>2026-04-23T15:49:30.951Z</time></trkpt><trkpt lat="46.6329192" lon="12.4536028"><ele>1354.0</ele><time>2026-04-23T15:49:32.95Z</time></trkpt><trkpt lat="46.6330094" lon="12.4536113"><ele>1357.6</ele><time>2026-04-23T15:49:34.951Z</time></trkpt><trkpt lat="46.6330825" lon="12.4536144"><ele>1361.2</ele><time>2026-04-23T15:49:36.951Z</time></trkpt><trkpt lat="46.6331974" lon="12.4536347"><ele>1364.8</ele><time>2026-04-23T15:49:41.951Z</time></trkpt><trkpt lat="46.6332727" lon="12.4535838"><ele>1368.3999999999999</ele><time>2026-04-23T15:49:44.952Z</time></trkpt><trkpt lat="46.6333335" lon="12.4535195"><ele>1372.0</ele><time>2026-04-23T15:49:46.951Z</time></trkpt><trkpt lat="46.6334588" lon="12.453436"><ele>1372.0</ele><time>2026-04-23T15:49:48.95Z</time></trkpt><trkpt lat="46.6335621" lon="12.4533453"><ele>1372.0</ele><time>2026-04-23T15:49:50.952Z</time></trkpt><trkpt lat="46.6336581" lon="12.4532824"><ele>1372.0</ele><time>2026-04-23T15:49:52.952Z</time></trkpt><trkpt lat="46.6337795" lon="12.453232"><ele>1372.0</ele><time>2026-04-23T15:49:54.953Z</time></trkpt><trkpt lat="46.6338759" lon="12.453227"><ele>1372.0</ele><time>2026-04-23T15:49:56.952Z</time></trkpt><trkpt lat="46.63394" lon="12.4532195"><ele>1375.3333333333333</ele><time>2026-04-23T15:49:58.952Z</time></trkpt><trkpt lat="46.6340091" lon="12.453152"><ele>1378.6666666666665</ele><time>2026-04-23T15:50:00.952Z</time></trkpt><trkpt lat="46.6341002" lon="12.4530633"><ele>1382.0</ele><time>2026-04-23T15:50:02.952Z</time></trkpt><trkpt lat="46.6341564" lon="12.4530113"><ele>1385.3333333333333</ele><time>2026-04-23T15:50:05.952Z</time></trkpt><trkpt lat="46.6342067" lon="12.4529475"><ele>1388.6666666666667</ele><time>2026-04-23T15:50:12.953Z</time></trkpt><trkpt lat="46.6342737" lon="12.4528878"><ele>1392.0</ele><time>2026-04-23T15:50:19.952Z</time></trkpt><trkpt lat="46.6343415" lon="12.4528243"><ele>1392.0</ele><time>2026-04-23T15:50:22.953Z</time></trkpt><trkpt lat="46.6343876" lon="12.4527403"><ele>1392.0</ele><time>2026-04-23T15:50:25.953Z</time></trkpt><trkpt lat="46.6344419" lon="12.452668"><ele>1392.0</ele><time>2026-04-23T15:50:28.952Z</time></trkpt><trkpt lat="46.6344879" lon="12.4525881"><ele>1392.0</ele><time>2026-04-23T15:50:32.952Z</time></trkpt><trkpt lat="46.6345344" lon="12.452507"><ele>1392.0</ele><time>2026-04-23T15:50:54.952Z</time></trkpt><trkpt lat="46.6346029" lon="12.4524545"><ele>1392.0</ele><time>2026-04-23T15:50:56.953Z</time></trkpt><trkpt lat="46.6346592" lon="12.4524053"><ele>1392.0</ele><time>2026-04-23T15:50:58.952Z</time></trkpt><trkpt lat="46.6347104" lon="12.4523334"><ele>1394.0</ele><time>2026-04-23T15:51:01.952Z</time></trkpt><trkpt lat="46.6347402" lon="12.4522371"><ele>1396.0</ele><time>2026-04-23T15:51:11.951Z</time></trkpt><trkpt lat="46.6348321" lon="12.4521691"><ele>1398.0</ele><time>2026-04-23T15:51:14.952Z</time></trkpt><trkpt lat="46.634894" lon="12.4521022"><ele>1400.0</ele><time>2026-04-23T15:51:16.951Z</time></trkpt><trkpt lat="46.6349498" lon="12.4520162"><ele>1402.0</ele><time>2026-04-23T15:51:18.952Z</time></trkpt><trkpt lat="46.635024" lon="12.451978"><ele>1404.0</ele><time>2026-04-23T15:51:22.952Z</time></trkpt><trkpt lat="46.6350477" lon="12.4518717"><ele>1404.0000000000002</ele><time>2026-04-23T15:51:24.952Z</time></trkpt><trkpt lat="46.6350854" lon="12.4517852"><ele>1404.0</ele><time>2026-04-23T15:51:26.952Z</time></trkpt><trkpt lat="46.6351439" lon="12.4517123"><ele>1404.0</ele><time>2026-04-23T15:51:28.952Z</time></trkpt><trkpt lat="46.6352039" lon="12.451672"><ele>1404.0</ele><time>2026-04-23T15:51:30.951Z</time></trkpt><trkpt lat="46.6352607" lon="12.4516267"><ele>1404.0</ele><time>2026-04-23T15:51:32.953Z</time></trkpt><trkpt lat="46.6352941" lon="12.4515453"><ele>1404.0000000000002</ele><time>2026-04-23T15:51:35.951Z</time></trkpt><trkpt lat="46.6352252" lon="12.451522"><ele>1404.0</ele><time>2026-04-23T15:51:39.952Z</time></trkpt><trkpt lat="46.6352053" lon="12.4516094"><ele>1404.0000000000002</ele><time>2026-04-23T15:51:45.953Z</time></trkpt><trkpt lat="46.6352641" lon="12.4517107"><ele>1404.0</ele><time>2026-04-23T15:51:47.952Z</time></trkpt><trkpt lat="46.6353155" lon="12.4517669"><ele>1404.0</ele><time>2026-04-23T15:51:49.952Z</time></trkpt><trkpt lat="46.6353674" lon="12.4518281"><ele>1404.0</ele><time>2026-04-23T15:51:52.952Z</time></trkpt><trkpt lat="46.635312" lon="12.451894"><ele>1404.0</ele><time>2026-04-23T15:51:57.952Z</time></trkpt><trkpt lat="46.6353319" lon="12.4519944"><ele>1404.0000000000002</ele><time>2026-04-23T15:52:00.952Z</time></trkpt><trkpt lat="46.6353948" lon="12.4520123"><ele>1404.0</ele><time>2026-04-23T15:52:02.953Z</time></trkpt><trkpt lat="46.6354417" lon="12.4519423"><ele>1404.0000000000002</ele><time>2026-04-23T15:52:07.952Z</time></trkpt><trkpt lat="46.635414" lon="12.4518248"><ele>1404.0</ele><time>2026-04-23T15:52:56.952Z</time></trkpt><trkpt lat="46.6353527" lon="12.4517501"><ele>1404.0</ele><time>2026-04-23T15:53:02.952Z</time></trkpt><trkpt lat="46.6353067" lon="12.4516538"><ele>1404.0</ele><time>2026-04-23T15:53:04.951Z</time></trkpt><trkpt lat="46.6352746" lon="12.4515618"><ele>1404.0</ele><time>2026-04-23T15:53:06.951Z</time></trkpt><trkpt lat="46.6352824" lon="12.4514626"><ele>1404.0000000000002</ele><time>2026-04-23T15:53:11.952Z</time></trkpt><trkpt lat="46.6353417" lon="12.451498"><ele>1404.0</ele><time>2026-04-23T15:53:18.952Z</time></trkpt><trkpt lat="46.6353743" lon="12.4515908"><ele>1408.4</ele><time>2026-04-23T15:53:19.952Z</time></trkpt><trkpt lat="46.6354191" lon="12.4516652"><ele>1412.8000000000002</ele><time>2026-04-23T15:53:20.952Z</time></trkpt><trkpt lat="46.6355235" lon="12.4517748"><ele>1417.1999999999998</ele><time>2026-04-23T15:53:23.952Z</time></trkpt><trkpt lat="46.6355862" lon="12.4517852"><ele>1421.6</ele><time>2026-04-23T15:53:27.952Z</time></trkpt><trkpt lat="46.6355223" lon="12.4517863"><ele>1426.0</ele><time>2026-04-23T15:53:43.952Z</time></trkpt><trkpt lat="46.6353976" lon="12.4516909"><ele>1426.0</ele><time>2026-04-23T15:53:46.952Z</time></trkpt><trkpt lat="46.6353487" lon="12.4516291"><ele>1426.0</ele><time>2026-04-23T15:53:47.953Z</time></trkpt><trkpt lat="46.6353411" lon="12.4515276"><ele>1426.0</ele><time>2026-04-23T15:53:50.952Z</time></trkpt><trkpt lat="46.635396" lon="12.451468"><ele>1426.0</ele><time>2026-04-23T15:53:52.952Z</time></trkpt><trkpt lat="46.6354524" lon="12.4513928"><ele>1426.0</ele><time>2026-04-23T15:53:54.952Z</time></trkpt><trkpt lat="46.6355255" lon="12.4513589"><ele>1426.0</ele><time>2026-04-23T15:53:56.951Z</time></trkpt><trkpt lat="46.6356165" lon="12.4513476"><ele>1426.0</ele><time>2026-04-23T15:53:58.952Z</time></trkpt><trkpt lat="46.6356779" lon="12.4512915"><ele>1424.6666666666665</ele><time>2026-04-23T15:54:05.952Z</time></trkpt><trkpt lat="46.6357479" lon="12.4512783"><ele>1423.3333333333333</ele><time>2026-04-23T15:54:13.953Z</time></trkpt><trkpt lat="46.6358362" lon="12.4512248"><ele>1422.0</ele><time>2026-04-23T15:54:20.952Z</time></trkpt><trkpt lat="46.6359164" lon="12.451145"><ele>1420.6666666666667</ele><time>2026-04-23T15:54:22.952Z</time></trkpt><trkpt lat="46.6359881" lon="12.4511096"><ele>1419.3333333333335</ele><time>2026-04-23T15:54:24.952Z</time></trkpt><trkpt lat="46.6360338" lon="12.4510079"><ele>1418.0</ele><time>2026-04-23T15:54:27.951Z</time></trkpt><trkpt lat="46.6360298" lon="12.4509109"><ele>1418.0</ele><time>2026-04-23T15:54:28.952Z</time></trkpt><trkpt lat="46.6360731" lon="12.4508359"><ele>1418.0</ele><time>2026-04-23T15:54:32.951Z</time></trkpt><trkpt lat="46.6361202" lon="12.4507226"><ele>1418.0</ele><time>2026-04-23T15:54:35.952Z</time></trkpt><trkpt lat="46.6361757" lon="12.4506293"><ele>1418.0</ele><time>2026-04-23T15:54:38.952Z</time></trkpt><trkpt lat="46.6362459" lon="12.450564"><ele>1418.0</ele><time>2026-04-23T15:54:41.952Z</time></trkpt><trkpt lat="46.6363043" lon="12.4505065"><ele>1418.0</ele><time>2026-04-23T15:54:44.952Z</time></trkpt><trkpt lat="46.6363601" lon="12.450446"><ele>1419.1666666666667</ele><time>2026-04-23T15:54:46.953Z</time></trkpt><trkpt lat="46.6362809" lon="12.4504405"><ele>1420.3333333333335</ele><time>2026-04-23T15:54:56.952Z</time></trkpt><trkpt lat="46.6362571" lon="12.4503286"><ele>1421.5</ele><time>2026-04-23T15:55:01.952Z</time></trkpt><trkpt lat="46.6362354" lon="12.4501905"><ele>1422.6666666666667</ele><time>2026-04-23T15:55:04.951Z</time></trkpt><trkpt lat="46.6362506" lon="12.4500788"><ele>1423.8333333333333</ele><time>2026-04-23T15:55:06.952Z</time></trkpt><trkpt lat="46.6363092" lon="12.4500035"><ele>1425.0</ele><time>2026-04-23T15:55:07.952Z</time></trkpt><trkpt lat="46.6363782" lon="12.4498839"><ele>1425.0</ele><time>2026-04-23T15:55:09.952Z</time></trkpt><trkpt lat="46.6364152" lon="12.4497908"><ele>1425.0</ele><time>2026-04-23T15:55:10.952Z</time></trkpt><trkpt lat="46.6364999" lon="12.4496848"><ele>1425.0</ele><time>2026-04-23T15:55:12.952Z</time></trkpt><trkpt lat="46.6366083" lon="12.449612"><ele>1425.0</ele><time>2026-04-23T15:55:14.951Z</time></trkpt><trkpt lat="46.6366964" lon="12.4495922"><ele>1425.0</ele><time>2026-04-23T15:55:15.951Z</time></trkpt><trkpt lat="46.636779" lon="12.4495743"><ele>1426.6</ele><time>2026-04-23T15:55:16.951Z</time></trkpt><trkpt lat="46.636841" lon="12.44955"><ele>1428.2</ele><time>2026-04-23T15:55:17.952Z</time></trkpt><trkpt lat="46.636898" lon="12.4494924"><ele>1429.8000000000002</ele><time>2026-04-23T15:55:18.952Z</time></trkpt><trkpt lat="46.6369601" lon="12.4494168"><ele>1431.4</ele><time>2026-04-23T15:55:19.952Z</time></trkpt><trkpt lat="46.6370566" lon="12.4492976"><ele>1433.0</ele><time>2026-04-23T15:55:21.952Z</time></trkpt><trkpt lat="46.6371662" lon="12.4491973"><ele>1434.6000000000001</ele><time>2026-04-23T15:55:23.952Z</time></trkpt><trkpt lat="46.6372419" lon="12.4490708"><ele>1436.2</ele><time>2026-04-23T15:55:25.952Z</time></trkpt><trkpt lat="46.6373422" lon="12.4490252"><ele>1437.8</ele><time>2026-04-23T15:55:27.952Z</time></trkpt><trkpt lat="46.6374122" lon="12.4489384"><ele>1439.4</ele><time>2026-04-23T15:55:29.952Z</time></trkpt><trkpt lat="46.6375002" lon="12.4488064"><ele>1441.0</ele><time>2026-04-23T15:55:31.952Z</time></trkpt><trkpt lat="46.6375637" lon="12.4487206"><ele>1443.0</ele><time>2026-04-23T15:55:32.951Z</time></trkpt><trkpt lat="46.6376168" lon="12.4486505"><ele>1445.0</ele><time>2026-04-23T15:55:33.953Z</time></trkpt><trkpt lat="46.6376893" lon="12.4485691"><ele>1447.0</ele><time>2026-04-23T15:55:35.951Z</time></trkpt><trkpt lat="46.6377813" lon="12.4484904"><ele>1449.0</ele><time>2026-04-23T15:55:37.953Z</time></trkpt><trkpt lat="46.6378552" lon="12.4484662"><ele>1451.0</ele><time>2026-04-23T15:55:38.953Z</time></trkpt><trkpt lat="46.6378994" lon="12.448392"><ele>1453.0</ele><time>2026-04-23T15:55:41.953Z</time></trkpt><trkpt lat="46.6379282" lon="12.4482426"><ele>1453.0</ele><time>2026-04-23T15:55:45.952Z</time></trkpt><trkpt lat="46.637961" lon="12.4481321"><ele>1453.0</ele><time>2026-04-23T15:55:48.951Z</time></trkpt><trkpt lat="46.6379086" lon="12.4480762"><ele>1453.0</ele><time>2026-04-23T15:55:52.952Z</time></trkpt><trkpt lat="46.6378252" lon="12.4480497"><ele>1453.0</ele><time>2026-04-23T15:56:02.953Z</time></trkpt><trkpt lat="46.6377537" lon="12.4480002"><ele>1453.0</ele><time>2026-04-23T15:56:04.952Z</time></trkpt><trkpt lat="46.6376862" lon="12.4479128"><ele>1453.0</ele><time>2026-04-23T15:56:07.951Z</time></trkpt><trkpt lat="46.6376273" lon="12.4478628"><ele>1454.7142857142858</ele><time>2026-04-23T15:56:10.953Z</time></trkpt><trkpt lat="46.637559" lon="12.4477985"><ele>1456.4285714285716</ele><time>2026-04-23T15:56:13.951Z</time></trkpt><trkpt lat="46.6375144" lon="12.4477319"><ele>1458.1428571428573</ele><time>2026-04-23T15:56:15.952Z</time></trkpt><trkpt lat="46.6374611" lon="12.4476563"><ele>1459.857142857143</ele><time>2026-04-23T15:56:17.952Z</time></trkpt><trkpt lat="46.6373929" lon="12.4476033"><ele>1461.5714285714284</ele><time>2026-04-23T15:56:19.952Z</time></trkpt><trkpt lat="46.6373322" lon="12.4475533"><ele>1463.2857142857144</ele><time>2026-04-23T15:56:21.952Z</time></trkpt><trkpt lat="46.6372851" lon="12.4474801"><ele>1465.0</ele><time>2026-04-23T15:56:23.952Z</time></trkpt><trkpt lat="46.6372032" lon="12.4474839"><ele>1465.0</ele><time>2026-04-23T15:56:25.952Z</time></trkpt><trkpt lat="46.6371081" lon="12.44752"><ele>1465.0</ele><time>2026-04-23T15:56:27.953Z</time></trkpt><trkpt lat="46.6370294" lon="12.4475618"><ele>1465.0</ele><time>2026-04-23T15:56:29.952Z</time></trkpt><trkpt lat="46.6369364" lon="12.4475627"><ele>1465.0</ele><time>2026-04-23T15:56:32.951Z</time></trkpt><trkpt lat="46.6368729" lon="12.4475704"><ele>1465.0</ele><time>2026-04-23T15:56:35.952Z</time></trkpt><trkpt lat="46.6369438" lon="12.4474941"><ele>1465.0</ele><time>2026-04-23T15:56:38.952Z</time></trkpt><trkpt lat="46.6370264" lon="12.4474017"><ele>1465.0</ele><time>2026-04-23T15:56:40.952Z</time></trkpt><trkpt lat="46.6371077" lon="12.4473063"><ele>1465.0</ele><time>2026-04-23T15:56:42.951Z</time></trkpt><trkpt lat="46.6371706" lon="12.4472475"><ele>1465.0</ele><time>2026-04-23T15:56:43.952Z</time></trkpt><trkpt lat="46.6372074" lon="12.4471406"><ele>1465.0</ele><time>2026-04-23T15:56:44.952Z</time></trkpt><trkpt lat="46.6372608" lon="12.4470471"><ele>1465.0</ele><time>2026-04-23T15:56:45.951Z</time></trkpt><trkpt lat="46.6373094" lon="12.4469719"><ele>1465.0</ele><time>2026-04-23T15:56:46.952Z</time></trkpt><trkpt lat="46.6373622" lon="12.4468716"><ele>1468.8</ele><time>2026-04-23T15:56:47.952Z</time></trkpt><trkpt lat="46.63739" lon="12.4467831"><ele>1472.6</ele><time>2026-04-23T15:56:48.952Z</time></trkpt><trkpt lat="46.6374541" lon="12.446698"><ele>1476.4</ele><time>2026-04-23T15:56:49.953Z</time></trkpt><trkpt lat="46.6375434" lon="12.4465734"><ele>1480.2</ele><time>2026-04-23T15:56:51.953Z</time></trkpt><trkpt lat="46.6376739" lon="12.4465054"><ele>1484.0</ele><time>2026-04-23T15:56:53.952Z</time></trkpt><trkpt lat="46.6377709" lon="12.4463744"><ele>1489.4</ele><time>2026-04-23T15:56:55.952Z</time></trkpt><trkpt lat="46.637836" lon="12.446254"><ele>1494.8000000000002</ele><time>2026-04-23T15:56:57.952Z</time></trkpt><trkpt lat="46.637924" lon="12.4461343"><ele>1500.1999999999998</ele><time>2026-04-23T15:56:59.952Z</time></trkpt><trkpt lat="46.6379724" lon="12.4460495"><ele>1505.6</ele><time>2026-04-23T15:57:00.952Z</time></trkpt><trkpt lat="46.6380413" lon="12.4459483"><ele>1511.0</ele><time>2026-04-23T15:57:02.953Z</time></trkpt><trkpt lat="46.6380918" lon="12.4458612"><ele>1511.0</ele><time>2026-04-23T15:57:04.951Z</time></trkpt><trkpt lat="46.63816" lon="12.4457963"><ele>1511.0</ele><time>2026-04-23T15:57:08.952Z</time></trkpt><trkpt lat="46.6382273" lon="12.4457471"><ele>1511.0</ele><time>2026-04-23T15:57:10.952Z</time></trkpt><trkpt lat="46.6383058" lon="12.4456805"><ele>1511.0</ele><time>2026-04-23T15:57:12.952Z</time></trkpt><trkpt lat="46.6383641" lon="12.4456192"><ele>1511.0</ele><time>2026-04-23T15:57:13.952Z</time></trkpt><trkpt lat="46.638456" lon="12.4456126"><ele>1511.0</ele><time>2026-04-23T15:57:15.952Z</time></trkpt><trkpt lat="46.6385852" lon="12.4456028"><ele>1512.4</ele><time>2026-04-23T15:57:18.952Z</time></trkpt><trkpt lat="46.6386826" lon="12.4455727"><ele>1513.8</ele><time>2026-04-23T15:57:20.952Z</time></trkpt><trkpt lat="46.6387845" lon="12.4454974"><ele>1515.2</ele><time>2026-04-23T15:57:22.951Z</time></trkpt><trkpt lat="46.6388419" lon="12.4454365"><ele>1516.6000000000001</ele><time>2026-04-23T15:57:24.952Z</time></trkpt><trkpt lat="46.638911" lon="12.4453817"><ele>1518.0</ele><time>2026-04-23T15:57:26.952Z</time></trkpt><trkpt lat="46.6389921" lon="12.4452971"><ele>1518.8000000000002</ele><time>2026-04-23T15:57:29.952Z</time></trkpt><trkpt lat="46.6390722" lon="12.4452112"><ele>1519.6</ele><time>2026-04-23T15:57:31.952Z</time></trkpt><trkpt lat="46.6391935" lon="12.4451549"><ele>1520.4</ele><time>2026-04-23T15:57:34.953Z</time></trkpt><trkpt lat="46.6393021" lon="12.4450827"><ele>1521.1999999999998</ele><time>2026-04-23T15:57:36.952Z</time></trkpt><trkpt lat="46.6393702" lon="12.4449829"><ele>1522.0</ele><time>2026-04-23T15:57:37.952Z</time></trkpt><trkpt lat="46.6394105" lon="12.4448957"><ele>1522.3333333333333</ele><time>2026-04-23T15:57:38.952Z</time></trkpt><trkpt lat="46.6394713" lon="12.4448073"><ele>1522.6666666666665</ele><time>2026-04-23T15:57:39.952Z</time></trkpt><trkpt lat="46.6395346" lon="12.4447606"><ele>1523.0</ele><time>2026-04-23T15:57:40.953Z</time></trkpt><trkpt lat="46.639586" lon="12.4446799"><ele>1523.3333333333333</ele><time>2026-04-23T15:57:41.951Z</time></trkpt><trkpt lat="46.6396106" lon="12.4445699"><ele>1523.6666666666667</ele><time>2026-04-23T15:57:43.952Z</time></trkpt><trkpt lat="46.6396208" lon="12.4444394"><ele>1524.0</ele><time>2026-04-23T15:57:45.952Z</time></trkpt><trkpt lat="46.6396287" lon="12.4443312"><ele>1524.0</ele><time>2026-04-23T15:57:47.952Z</time></trkpt><trkpt lat="46.639615" lon="12.4441869"><ele>1524.0</ele><time>2026-04-23T15:57:49.951Z</time></trkpt><trkpt lat="46.639575" lon="12.4441045"><ele>1524.0</ele><time>2026-04-23T15:57:50.952Z</time></trkpt><trkpt lat="46.6395675" lon="12.4439349"><ele>1524.0</ele><time>2026-04-23T15:57:52.952Z</time></trkpt><trkpt lat="46.6395921" lon="12.4438405"><ele>1524.0</ele><time>2026-04-23T15:57:53.952Z</time></trkpt><trkpt lat="46.6396135" lon="12.4437528"><ele>1524.0</ele><time>2026-04-23T15:57:54.952Z</time></trkpt><trkpt lat="46.6396035" lon="12.4436543"><ele>1524.4</ele><time>2026-04-23T15:57:57.952Z</time></trkpt><trkpt lat="46.639538" lon="12.4436769"><ele>1524.8000000000002</ele><time>2026-04-23T15:57:58.953Z</time></trkpt><trkpt lat="46.6393916" lon="12.4435945"><ele>1525.1999999999998</ele><time>2026-04-23T15:58:00.951Z</time></trkpt><trkpt lat="46.6392802" lon="12.4435358"><ele>1525.6</ele><time>2026-04-23T15:58:01.952Z</time></trkpt><trkpt lat="46.6391806" lon="12.4435074"><ele>1526.0</ele><time>2026-04-23T15:58:02.952Z</time></trkpt><trkpt lat="46.63908" lon="12.4434563"><ele>1526.0</ele><time>2026-04-23T15:58:03.952Z</time></trkpt><trkpt lat="46.6389892" lon="12.4434074"><ele>1526.0</ele><time>2026-04-23T15:58:04.952Z</time></trkpt><trkpt lat="46.6389255" lon="12.4433418"><ele>1526.0</ele><time>2026-04-23T15:58:05.952Z</time></trkpt><trkpt lat="46.6388762" lon="12.4432741"><ele>1526.0</ele><time>2026-04-23T15:58:06.952Z</time></trkpt><trkpt lat="46.6388682" lon="12.443177"><ele>1526.0</ele><time>2026-04-23T15:58:07.952Z</time></trkpt><trkpt lat="46.638883" lon="12.4430765"><ele>1526.0</ele><time>2026-04-23T15:58:08.953Z</time></trkpt><trkpt lat="46.6388907" lon="12.4429201"><ele>1528.1999999999998</ele><time>2026-04-23T15:58:10.952Z</time></trkpt><trkpt lat="46.6388057" lon="12.4428818"><ele>1530.3999999999999</ele><time>2026-04-23T15:58:11.953Z</time></trkpt><trkpt lat="46.6387271" lon="12.4428588"><ele>1532.6</ele><time>2026-04-23T15:58:12.953Z</time></trkpt><trkpt lat="46.6386314" lon="12.4428739"><ele>1534.8</ele><time>2026-04-23T15:58:13.953Z</time></trkpt><trkpt lat="46.6385433" lon="12.4428963"><ele>1537.0</ele><time>2026-04-23T15:58:14.953Z</time></trkpt><trkpt lat="46.6384524" lon="12.4429567"><ele>1535.1999999999998</ele><time>2026-04-23T15:58:15.953Z</time></trkpt><trkpt lat="46.6383886" lon="12.4431062"><ele>1533.4</ele><time>2026-04-23T15:58:16.952Z</time></trkpt><trkpt lat="46.638304" lon="12.4432126"><ele>1531.6</ele><time>2026-04-23T15:58:17.953Z</time></trkpt><trkpt lat="46.6382082" lon="12.4432527"><ele>1529.8000000000002</ele><time>2026-04-23T15:58:18.953Z</time></trkpt><trkpt lat="46.6381153" lon="12.4433311"><ele>1528.0</ele><time>2026-04-23T15:58:19.953Z</time></trkpt><trkpt lat="46.6380311" lon="12.4433641"><ele>1528.0</ele><time>2026-04-23T15:58:20.954Z</time></trkpt><trkpt lat="46.6379396" lon="12.4433968"><ele>1528.0</ele><time>2026-04-23T15:58:21.954Z</time></trkpt><trkpt lat="46.637855" lon="12.4434224"><ele>1528.0</ele><time>2026-04-23T15:58:22.953Z</time></trkpt><trkpt lat="46.6377508" lon="12.4433621"><ele>1528.0</ele><time>2026-04-23T15:58:24.953Z</time></trkpt><trkpt lat="46.637683" lon="12.4433185"><ele>1528.0</ele><time>2026-04-23T15:58:25.953Z</time></trkpt><trkpt lat="46.6375958" lon="12.443322"><ele>1527.4</ele><time>2026-04-23T15:58:26.952Z</time></trkpt><trkpt lat="46.6374991" lon="12.443343"><ele>1526.8000000000002</ele><time>2026-04-23T15:58:27.952Z</time></trkpt><trkpt lat="46.6374078" lon="12.443351"><ele>1526.2</ele><time>2026-04-23T15:58:28.953Z</time></trkpt><trkpt lat="46.6373074" lon="12.443362"><ele>1525.6</ele><time>2026-04-23T15:58:29.953Z</time></trkpt><trkpt lat="46.6371983" lon="12.4433952"><ele>1525.0</ele><time>2026-04-23T15:58:30.954Z</time></trkpt><trkpt lat="46.6370885" lon="12.4434141"><ele>1525.0</ele><time>2026-04-23T15:58:31.953Z</time></trkpt><trkpt lat="46.6370043" lon="12.4434202"><ele>1525.0</ele><time>2026-04-23T15:58:32.953Z</time></trkpt><trkpt lat="46.6369001" lon="12.4434617"><ele>1525.0</ele><time>2026-04-23T15:58:33.953Z</time></trkpt><trkpt lat="46.6368133" lon="12.4434758"><ele>1525.0</ele><time>2026-04-23T15:58:34.953Z</time></trkpt><trkpt lat="46.6367352" lon="12.4435192"><ele>1525.0</ele><time>2026-04-23T15:58:35.953Z</time></trkpt><trkpt lat="46.6366628" lon="12.4435743"><ele>1525.0</ele><time>2026-04-23T15:58:36.953Z</time></trkpt><trkpt lat="46.6366364" lon="12.4436886"><ele>1522.0</ele><time>2026-04-23T15:58:37.953Z</time></trkpt><trkpt lat="46.636571" lon="12.4437437"><ele>1519.0</ele><time>2026-04-23T15:58:38.953Z</time></trkpt><trkpt lat="46.6365009" lon="12.443796"><ele>1516.0</ele><time>2026-04-23T15:58:39.953Z</time></trkpt><trkpt lat="46.6364308" lon="12.4437836"><ele>1513.0</ele><time>2026-04-23T15:58:40.953Z</time></trkpt><trkpt lat="46.6363656" lon="12.4437875"><ele>1510.0</ele><time>2026-04-23T15:58:41.953Z</time></trkpt><trkpt lat="46.6363031" lon="12.4436381"><ele>1507.0</ele><time>2026-04-23T15:58:43.952Z</time></trkpt><trkpt lat="46.6362793" lon="12.4434948"><ele>1507.0</ele><time>2026-04-23T15:58:44.952Z</time></trkpt><trkpt lat="46.6362809" lon="12.4433196"><ele>1507.0</ele><time>2026-04-23T15:58:45.952Z</time></trkpt><trkpt lat="46.6362682" lon="12.4431747"><ele>1507.0</ele><time>2026-04-23T15:58:46.953Z</time></trkpt><trkpt lat="46.6362398" lon="12.4430207"><ele>1507.0</ele><time>2026-04-23T15:58:47.953Z</time></trkpt><trkpt lat="46.636201" lon="12.4428796"><ele>1507.0</ele><time>2026-04-23T15:58:48.953Z</time></trkpt><trkpt lat="46.6361958" lon="12.4425294"><ele>1506.75</ele><time>2026-04-23T15:58:50.953Z</time></trkpt><trkpt lat="46.6361891" lon="12.4423554"><ele>1506.5</ele><time>2026-04-23T15:58:51.953Z</time></trkpt><trkpt lat="46.6361772" lon="12.4421947"><ele>1506.25</ele><time>2026-04-23T15:58:52.953Z</time></trkpt><trkpt lat="46.6361594" lon="12.4420316"><ele>1506.0</ele><time>2026-04-23T15:58:53.952Z</time></trkpt><trkpt lat="46.6361457" lon="12.4418738"><ele>1505.1999999999998</ele><time>2026-04-23T15:58:54.953Z</time></trkpt><trkpt lat="46.6361549" lon="12.4417502"><ele>1504.3999999999999</ele><time>2026-04-23T15:58:55.953Z</time></trkpt><trkpt lat="46.6361553" lon="12.4416022"><ele>1503.6</ele><time>2026-04-23T15:58:56.953Z</time></trkpt><trkpt lat="46.6362034" lon="12.4414471"><ele>1502.8</ele><time>2026-04-23T15:58:57.954Z</time></trkpt><trkpt lat="46.6362382" lon="12.4413168"><ele>1502.0</ele><time>2026-04-23T15:58:58.952Z</time></trkpt><trkpt lat="46.6362656" lon="12.4411921"><ele>1500.0</ele><time>2026-04-23T15:58:59.953Z</time></trkpt><trkpt lat="46.6362846" lon="12.4410735"><ele>1498.0</ele><time>2026-04-23T15:59:00.952Z</time></trkpt><trkpt lat="46.6362513" lon="12.4409351"><ele>1496.0</ele><time>2026-04-23T15:59:01.953Z</time></trkpt><trkpt lat="46.6362304" lon="12.4408141"><ele>1494.0</ele><time>2026-04-23T15:59:02.953Z</time></trkpt><trkpt lat="46.6362185" lon="12.4407099"><ele>1492.0</ele><time>2026-04-23T15:59:03.953Z</time></trkpt><trkpt lat="46.6362335" lon="12.4405749"><ele>1490.0</ele><time>2026-04-23T15:59:04.954Z</time></trkpt><trkpt lat="46.6362412" lon="12.4404491"><ele>1486.2</ele><time>2026-04-23T15:59:05.953Z</time></trkpt><trkpt lat="46.6362918" lon="12.4403285"><ele>1482.4</ele><time>2026-04-23T15:59:06.953Z</time></trkpt><trkpt lat="46.6364002" lon="12.4402486"><ele>1478.6</ele><time>2026-04-23T15:59:07.953Z</time></trkpt><trkpt lat="46.6364913" lon="12.4401355"><ele>1474.8</ele><time>2026-04-23T15:59:08.952Z</time></trkpt><trkpt lat="46.6365861" lon="12.4400557"><ele>1471.0</ele><time>2026-04-23T15:59:09.954Z</time></trkpt><trkpt lat="46.636672" lon="12.4399647"><ele>1471.0</ele><time>2026-04-23T15:59:10.953Z</time></trkpt><trkpt lat="46.636768" lon="12.4398834"><ele>1471.0</ele><time>2026-04-23T15:59:11.953Z</time></trkpt><trkpt lat="46.6368736" lon="12.4398224"><ele>1471.0</ele><time>2026-04-23T15:59:12.953Z</time></trkpt><trkpt lat="46.6369723" lon="12.4397921"><ele>1471.0</ele><time>2026-04-23T15:59:13.952Z</time></trkpt><trkpt lat="46.637073" lon="12.4397607"><ele>1471.0</ele><time>2026-04-23T15:59:14.952Z</time></trkpt><trkpt lat="46.6371797" lon="12.4397171"><ele>1470.5</ele><time>2026-04-23T15:59:15.953Z</time></trkpt><trkpt lat="46.6372691" lon="12.4396953"><ele>1470.0</ele><time>2026-04-23T15:59:16.953Z</time></trkpt><trkpt lat="46.637364" lon="12.4396399"><ele>1469.5</ele><time>2026-04-23T15:59:17.953Z</time></trkpt><trkpt lat="46.6373864" lon="12.4395381"><ele>1469.0</ele><time>2026-04-23T15:59:18.953Z</time></trkpt><trkpt lat="46.637448" lon="12.4394783"><ele>1468.5</ele><time>2026-04-23T15:59:19.953Z</time></trkpt><trkpt lat="46.6374987" lon="12.4393976"><ele>1468.0</ele><time>2026-04-23T15:59:20.954Z</time></trkpt><trkpt lat="46.6375548" lon="12.4393458"><ele>1468.0</ele><time>2026-04-23T15:59:21.953Z</time></trkpt><trkpt lat="46.6376554" lon="12.4392255"><ele>1468.0</ele><time>2026-04-23T15:59:23.953Z</time></trkpt><trkpt lat="46.6377136" lon="12.4391528"><ele>1468.0</ele><time>2026-04-23T15:59:24.953Z</time></trkpt><trkpt lat="46.6377819" lon="12.4391134"><ele>1468.0</ele><time>2026-04-23T15:59:25.952Z</time></trkpt><trkpt lat="46.6378879" lon="12.4390491"><ele>1468.0</ele><time>2026-04-23T15:59:27.954Z</time></trkpt><trkpt lat="46.6379627" lon="12.4389143"><ele>1467.6666666666665</ele><time>2026-04-23T15:59:29.952Z</time></trkpt><trkpt lat="46.6380369" lon="12.4388588"><ele>1467.3333333333333</ele><time>2026-04-23T15:59:31.953Z</time></trkpt><trkpt lat="46.6381002" lon="12.4388152"><ele>1467.0</ele><time>2026-04-23T15:59:33.954Z</time></trkpt><trkpt lat="46.638134" lon="12.438728"><ele>1466.6666666666667</ele><time>2026-04-23T15:59:37.953Z</time></trkpt><trkpt lat="46.6382156" lon="12.4386878"><ele>1466.3333333333335</ele><time>2026-04-23T15:59:41.954Z</time></trkpt><trkpt lat="46.6382856" lon="12.438774"><ele>1466.0</ele><time>2026-04-23T15:59:43.953Z</time></trkpt><trkpt lat="46.6383403" lon="12.4388379"><ele>1469.8333333333335</ele><time>2026-04-23T15:59:45.953Z</time></trkpt><trkpt lat="46.6383981" lon="12.4388822"><ele>1473.6666666666667</ele><time>2026-04-23T15:59:49.953Z</time></trkpt><trkpt lat="46.6384583" lon="12.4389886"><ele>1477.5</ele><time>2026-04-23T15:59:52.953Z</time></trkpt><trkpt lat="46.6385088" lon="12.4390635"><ele>1481.3333333333333</ele><time>2026-04-23T15:59:53.952Z</time></trkpt><trkpt lat="46.638544" lon="12.4391962"><ele>1485.1666666666665</ele><time>2026-04-23T15:59:55.953Z</time></trkpt><trkpt lat="46.6385978" lon="12.4393464"><ele>1489.0</ele><time>2026-04-23T15:59:57.953Z</time></trkpt><trkpt lat="46.638622" lon="12.4394539"><ele>1492.0</ele><time>2026-04-23T15:59:58.953Z</time></trkpt><trkpt lat="46.6386655" lon="12.439579"><ele>1495.0</ele><time>2026-04-23T16:00:00.953Z</time></trkpt><trkpt lat="46.6386632" lon="12.4396729"><ele>1498.0</ele><time>2026-04-23T16:00:02.952Z</time></trkpt><trkpt lat="46.6387095" lon="12.4397644"><ele>1501.0</ele><time>2026-04-23T16:00:04.954Z</time></trkpt><trkpt lat="46.6387384" lon="12.4398531"><ele>1504.0</ele><time>2026-04-23T16:00:07.952Z</time></trkpt><trkpt lat="46.6387927" lon="12.4397854"><ele>1507.0</ele><time>2026-04-23T16:01:14.953Z</time></trkpt><trkpt lat="46.6388642" lon="12.4397029"><ele>1507.0</ele><time>2026-04-23T16:01:16.952Z</time></trkpt><trkpt lat="46.6389252" lon="12.4396404"><ele>1507.0</ele><time>2026-04-23T16:01:17.953Z</time></trkpt><trkpt lat="46.6389788" lon="12.4395654"><ele>1507.0</ele><time>2026-04-23T16:01:19.953Z</time></trkpt><trkpt lat="46.6390276" lon="12.4395068"><ele>1507.0</ele><time>2026-04-23T16:01:21.953Z</time></trkpt><trkpt lat="46.6390872" lon="12.4394637"><ele>1507.0</ele><time>2026-04-23T16:01:23.953Z</time></trkpt><trkpt lat="46.6391697" lon="12.4394091"><ele>1507.0</ele><time>2026-04-23T16:01:26.953Z</time></trkpt><trkpt lat="46.639241" lon="12.4394249"><ele>1507.0</ele><time>2026-04-23T16:01:29.953Z</time></trkpt><trkpt lat="46.6393098" lon="12.4394562"><ele>1507.0</ele><time>2026-04-23T16:01:32.953Z</time></trkpt><trkpt lat="46.6393995" lon="12.4394937"><ele>1507.0</ele><time>2026-04-23T16:01:34.953Z</time></trkpt><trkpt lat="46.6394861" lon="12.4395381"><ele>1507.0</ele><time>2026-04-23T16:01:36.953Z</time></trkpt><trkpt lat="46.6395615" lon="12.4395903"><ele>1507.0</ele><time>2026-04-23T16:01:38.953Z</time></trkpt><trkpt lat="46.6396522" lon="12.4396358"><ele>1507.0</ele><time>2026-04-23T16:01:40.952Z</time></trkpt><trkpt lat="46.6397138" lon="12.4396812"><ele>1507.0</ele><time>2026-04-23T16:01:42.953Z</time></trkpt><trkpt lat="46.639791" lon="12.4397003"><ele>1512.0</ele><time>2026-04-23T16:01:45.954Z</time></trkpt><trkpt lat="46.6398851" lon="12.4397224"><ele>1517.0</ele><time>2026-04-23T16:01:47.952Z</time></trkpt><trkpt lat="46.6399572" lon="12.4397573"><ele>1522.0</ele><time>2026-04-23T16:01:50.953Z</time></trkpt><trkpt lat="46.6400256" lon="12.4397729"><ele>1527.0</ele><time>2026-04-23T16:01:52.952Z</time></trkpt><trkpt lat="46.6401056" lon="12.439801"><ele>1532.0000000000002</ele><time>2026-04-23T16:01:54.953Z</time></trkpt><trkpt lat="46.6401741" lon="12.4398348"><ele>1537.0</ele><time>2026-04-23T16:01:56.952Z</time></trkpt><trkpt lat="46.6402288" lon="12.4398818"><ele>1537.8333333333335</ele><time>2026-04-23T16:01:59.953Z</time></trkpt><trkpt lat="46.6403078" lon="12.4399417"><ele>1538.6666666666667</ele><time>2026-04-23T16:02:02.952Z</time></trkpt><trkpt lat="46.6403976" lon="12.4400004"><ele>1539.5</ele><time>2026-04-23T16:02:05.953Z</time></trkpt><trkpt lat="46.640454" lon="12.4400507"><ele>1540.3333333333335</ele><time>2026-04-23T16:02:07.954Z</time></trkpt><trkpt lat="46.6405288" lon="12.4400802"><ele>1541.1666666666667</ele><time>2026-04-23T16:02:10.953Z</time></trkpt><trkpt lat="46.6406015" lon="12.4400907"><ele>1542.0</ele><time>2026-04-23T16:02:26.952Z</time></trkpt><trkpt lat="46.6406879" lon="12.4402584"><ele>1542.0</ele><time>2026-04-23T16:02:35.953Z</time></trkpt><trkpt lat="46.6406927" lon="12.4403772"><ele>1542.0</ele><time>2026-04-23T16:02:37.954Z</time></trkpt><trkpt lat="46.6407438" lon="12.4404756"><ele>1542.0</ele><time>2026-04-23T16:02:39.952Z</time></trkpt><trkpt lat="46.6407781" lon="12.4406419"><ele>1542.0</ele><time>2026-04-23T16:02:43.952Z</time></trkpt><trkpt lat="46.6408458" lon="12.4405569"><ele>1542.0</ele><time>2026-04-23T16:02:51.953Z</time></trkpt><trkpt lat="46.6409108" lon="12.4405379"><ele>1542.0</ele><time>2026-04-23T16:02:54.953Z</time></trkpt><trkpt lat="46.6409726" lon="12.4405628"><ele>1547.5</ele><time>2026-04-23T16:02:57.953Z</time></trkpt><trkpt lat="46.6410671" lon="12.4405002"><ele>1553.0</ele><time>2026-04-23T16:03:14.952Z</time></trkpt><trkpt lat="46.6412784" lon="12.4402908"><ele>1558.5</ele><time>2026-04-23T16:03:28.953Z</time></trkpt><trkpt lat="46.6413632" lon="12.4402684"><ele>1564.0</ele><time>2026-04-23T16:03:42.953Z</time></trkpt><trkpt lat="46.6414245" lon="12.4403335"><ele>1564.7142857142856</ele><time>2026-04-23T16:03:45.953Z</time></trkpt><trkpt lat="46.6414827" lon="12.4404298"><ele>1565.4285714285713</ele><time>2026-04-23T16:03:48.952Z</time></trkpt><trkpt lat="46.6415355" lon="12.4404934"><ele>1566.142857142857</ele><time>2026-04-23T16:03:50.952Z</time></trkpt><trkpt lat="46.6415995" lon="12.4404956"><ele>1566.8571428571427</ele><time>2026-04-23T16:03:52.953Z</time></trkpt><trkpt lat="46.6416378" lon="12.440415"><ele>1567.5714285714287</ele><time>2026-04-23T16:03:54.953Z</time></trkpt><trkpt lat="46.6416327" lon="12.440322"><ele>1568.2857142857142</ele><time>2026-04-23T16:04:00.953Z</time></trkpt><trkpt lat="46.641568" lon="12.4402392"><ele>1569.0</ele><time>2026-04-23T16:04:03.953Z</time></trkpt><trkpt lat="46.6415053" lon="12.4401844"><ele>1569.0</ele><time>2026-04-23T16:04:05.953Z</time></trkpt><trkpt lat="46.6414683" lon="12.4400961"><ele>1569.0</ele><time>2026-04-23T16:04:07.952Z</time></trkpt><trkpt lat="46.6414311" lon="12.4400102"><ele>1569.0</ele><time>2026-04-23T16:04:09.953Z</time></trkpt><trkpt lat="46.6414366" lon="12.4398805"><ele>1569.0</ele><time>2026-04-23T16:04:12.953Z</time></trkpt><trkpt lat="46.6414561" lon="12.4397587"><ele>1569.0</ele><time>2026-04-23T16:04:14.953Z</time></trkpt><trkpt lat="46.641472" lon="12.4396502"><ele>1569.0</ele><time>2026-04-23T16:04:16.952Z</time></trkpt><trkpt lat="46.641513" lon="12.4395805"><ele>1565.1666666666667</ele><time>2026-04-23T16:04:19.954Z</time></trkpt><trkpt lat="46.6415901" lon="12.4395618"><ele>1561.3333333333335</ele><time>2026-04-23T16:04:22.952Z</time></trkpt><trkpt lat="46.6416714" lon="12.439465"><ele>1557.5</ele><time>2026-04-23T16:04:25.954Z</time></trkpt><trkpt lat="46.6417485" lon="12.4394247"><ele>1553.6666666666667</ele><time>2026-04-23T16:04:27.953Z</time></trkpt><trkpt lat="46.6418235" lon="12.4394109"><ele>1549.8333333333335</ele><time>2026-04-23T16:04:30.953Z</time></trkpt><trkpt lat="46.6418581" lon="12.4393058"><ele>1546.0</ele><time>2026-04-23T16:04:36.953Z</time></trkpt><trkpt lat="46.6419029" lon="12.4392157"><ele>1546.0</ele><time>2026-04-23T16:04:37.952Z</time></trkpt><trkpt lat="46.641942" lon="12.4390601"><ele>1546.0</ele><time>2026-04-23T16:04:40.953Z</time></trkpt><trkpt lat="46.6419919" lon="12.4389468"><ele>1546.0</ele><time>2026-04-23T16:04:43.953Z</time></trkpt><trkpt lat="46.6420421" lon="12.4388342"><ele>1546.0</ele><time>2026-04-23T16:04:47.953Z</time></trkpt><trkpt lat="46.6420976" lon="12.4387525"><ele>1546.0</ele><time>2026-04-23T16:04:48.953Z</time></trkpt><trkpt lat="46.6421645" lon="12.4386776"><ele>1548.6666666666667</ele><time>2026-04-23T16:04:50.952Z</time></trkpt><trkpt lat="46.6422479" lon="12.4386187"><ele>1551.3333333333335</ele><time>2026-04-23T16:04:52.953Z</time></trkpt><trkpt lat="46.6423147" lon="12.4384802"><ele>1554.0</ele><time>2026-04-23T16:04:54.953Z</time></trkpt><trkpt lat="46.6423836" lon="12.4383795"><ele>1556.6666666666665</ele><time>2026-04-23T16:04:56.953Z</time></trkpt><trkpt lat="46.6424502" lon="12.4383476"><ele>1559.3333333333333</ele><time>2026-04-23T16:04:58.953Z</time></trkpt><trkpt lat="46.6424863" lon="12.4382675"><ele>1562.0</ele><time>2026-04-23T16:05:00.953Z</time></trkpt><trkpt lat="46.6425553" lon="12.4381988"><ele>1561.9999999999998</ele><time>2026-04-23T16:05:02.953Z</time></trkpt><trkpt lat="46.6426462" lon="12.4380786"><ele>1562.0</ele><time>2026-04-23T16:05:04.953Z</time></trkpt><trkpt lat="46.6426733" lon="12.4379942"><ele>1562.0</ele><time>2026-04-23T16:05:05.953Z</time></trkpt><trkpt lat="46.6427117" lon="12.4378758"><ele>1562.0</ele><time>2026-04-23T16:05:07.954Z</time></trkpt><trkpt lat="46.6426991" lon="12.4377624"><ele>1561.9999999999998</ele><time>2026-04-23T16:05:09.953Z</time></trkpt><trkpt lat="46.6426819" lon="12.4376713"><ele>1562.0</ele><time>2026-04-23T16:05:10.953Z</time></trkpt><trkpt lat="46.6426614" lon="12.4375046"><ele>1561.3333333333333</ele><time>2026-04-23T16:05:12.954Z</time></trkpt><trkpt lat="46.6426021" lon="12.4373842"><ele>1560.6666666666665</ele><time>2026-04-23T16:05:13.953Z</time></trkpt><trkpt lat="46.6425743" lon="12.4372842"><ele>1560.0</ele><time>2026-04-23T16:05:14.953Z</time></trkpt><trkpt lat="46.6425589" lon="12.4371911"><ele>1559.3333333333335</ele><time>2026-04-23T16:05:15.953Z</time></trkpt><trkpt lat="46.6425195" lon="12.4370525"><ele>1558.6666666666667</ele><time>2026-04-23T16:05:17.953Z</time></trkpt><trkpt lat="46.6424843" lon="12.4369651"><ele>1558.0</ele><time>2026-04-23T16:05:18.952Z</time></trkpt><trkpt lat="46.6424555" lon="12.4368783"><ele>1557.6000000000001</ele><time>2026-04-23T16:05:19.953Z</time></trkpt><trkpt lat="46.6423902" lon="12.4367985"><ele>1557.2</ele><time>2026-04-23T16:05:20.954Z</time></trkpt><trkpt lat="46.6423502" lon="12.4367153"><ele>1556.8</ele><time>2026-04-23T16:05:21.953Z</time></trkpt><trkpt lat="46.6422874" lon="12.4366191"><ele>1556.4</ele><time>2026-04-23T16:05:23.953Z</time></trkpt><trkpt lat="46.64228" lon="12.4364856"><ele>1556.0</ele><time>2026-04-23T16:05:25.953Z</time></trkpt><trkpt lat="46.6423794" lon="12.4364015"><ele>1555.9999999999998</ele><time>2026-04-23T16:05:27.953Z</time></trkpt><trkpt lat="46.6424301" lon="12.4363422"><ele>1556.0</ele><time>2026-04-23T16:05:28.953Z</time></trkpt><trkpt lat="46.6424933" lon="12.4363013"><ele>1556.0</ele><time>2026-04-23T16:05:29.952Z</time></trkpt><trkpt lat="46.6425519" lon="12.4361981"><ele>1556.0</ele><time>2026-04-23T16:05:31.953Z</time></trkpt><trkpt lat="46.6425493" lon="12.4360977"><ele>1555.9999999999998</ele><time>2026-04-23T16:05:33.952Z</time></trkpt><trkpt lat="46.6425999" lon="12.4360102"><ele>1556.0</ele><time>2026-04-23T16:05:35.952Z</time></trkpt><trkpt lat="46.6426562" lon="12.4359287"><ele>1553.8</ele><time>2026-04-23T16:05:38.953Z</time></trkpt><trkpt lat="46.6426599" lon="12.4357443"><ele>1551.6</ele><time>2026-04-23T16:05:41.953Z</time></trkpt><trkpt lat="46.6426318" lon="12.4355998"><ele>1549.4</ele><time>2026-04-23T16:05:43.953Z</time></trkpt><trkpt lat="46.6425905" lon="12.4355305"><ele>1547.2</ele><time>2026-04-23T16:05:45.953Z</time></trkpt><trkpt lat="46.6425287" lon="12.4355041"><ele>1545.0</ele><time>2026-04-23T16:05:48.953Z</time></trkpt><trkpt lat="46.6424316" lon="12.4355471"><ele>1545.0</ele><time>2026-04-23T16:05:50.955Z</time></trkpt><trkpt lat="46.6423455" lon="12.4356143"><ele>1545.0</ele><time>2026-04-23T16:05:52.953Z</time></trkpt><trkpt lat="46.6422284" lon="12.4356612"><ele>1545.0</ele><time>2026-04-23T16:05:54.954Z</time></trkpt><trkpt lat="46.6421608" lon="12.435675"><ele>1545.0</ele><time>2026-04-23T16:05:55.953Z</time></trkpt><trkpt lat="46.6420475" lon="12.4356608"><ele>1545.0</ele><time>2026-04-23T16:05:57.955Z</time></trkpt><trkpt lat="46.641996" lon="12.4355677"><ele>1544.8</ele><time>2026-04-23T16:05:59.954Z</time></trkpt><trkpt lat="46.6419401" lon="12.435488"><ele>1544.6</ele><time>2026-04-23T16:06:01.955Z</time></trkpt><trkpt lat="46.6418689" lon="12.4354627"><ele>1544.4</ele><time>2026-04-23T16:06:03.955Z</time></trkpt><trkpt lat="46.6417691" lon="12.4355023"><ele>1544.2</ele><time>2026-04-23T16:06:05.954Z</time></trkpt><trkpt lat="46.6416731" lon="12.4355109"><ele>1544.0</ele><time>2026-04-23T16:06:07.953Z</time></trkpt><trkpt lat="46.6415678" lon="12.4355592"><ele>1542.1666666666665</ele><time>2026-04-23T16:06:09.954Z</time></trkpt><trkpt lat="46.6414712" lon="12.4356356"><ele>1540.3333333333333</ele><time>2026-04-23T16:06:11.954Z</time></trkpt><trkpt lat="46.6413767" lon="12.435726"><ele>1538.5</ele><time>2026-04-23T16:06:13.954Z</time></trkpt><trkpt lat="46.6413205" lon="12.4357687"><ele>1536.6666666666665</ele><time>2026-04-23T16:06:14.955Z</time></trkpt><trkpt lat="46.6412585" lon="12.435817"><ele>1534.8333333333333</ele><time>2026-04-23T16:06:15.954Z</time></trkpt><trkpt lat="46.6411919" lon="12.4358708"><ele>1533.0</ele><time>2026-04-23T16:06:16.954Z</time></trkpt><trkpt lat="46.6411293" lon="12.4359406"><ele>1533.0</ele><time>2026-04-23T16:06:17.954Z</time></trkpt><trkpt lat="46.6410664" lon="12.4359847"><ele>1533.0</ele><time>2026-04-23T16:06:18.954Z</time></trkpt><trkpt lat="46.641007" lon="12.4360581"><ele>1533.0</ele><time>2026-04-23T16:06:19.954Z</time></trkpt><trkpt lat="46.6409597" lon="12.4361866"><ele>1533.0</ele><time>2026-04-23T16:06:21.954Z</time></trkpt><trkpt lat="46.6409378" lon="12.4363123"><ele>1533.0</ele><time>2026-04-23T16:06:23.954Z</time></trkpt><trkpt lat="46.640918" lon="12.4364593"><ele>1533.0</ele><time>2026-04-23T16:06:26.954Z</time></trkpt><trkpt lat="46.6408365" lon="12.4365489"><ele>1529.8000000000002</ele><time>2026-04-23T16:06:28.954Z</time></trkpt><trkpt lat="46.640795" lon="12.4366501"><ele>1526.6</ele><time>2026-04-23T16:06:30.953Z</time></trkpt><trkpt lat="46.640756" lon="12.4367899"><ele>1523.4</ele><time>2026-04-23T16:06:32.953Z</time></trkpt><trkpt lat="46.6406865" lon="12.4369462"><ele>1520.1999999999998</ele><time>2026-04-23T16:06:34.953Z</time></trkpt><trkpt lat="46.6406121" lon="12.4370232"><ele>1517.0</ele><time>2026-04-23T16:06:36.954Z</time></trkpt><trkpt lat="46.6405338" lon="12.4371276"><ele>1517.0</ele><time>2026-04-23T16:06:38.954Z</time></trkpt><trkpt lat="46.6404685" lon="12.4371356"><ele>1517.0</ele><time>2026-04-23T16:06:39.954Z</time></trkpt><trkpt lat="46.6403418" lon="12.4372097"><ele>1517.0</ele><time>2026-04-23T16:06:41.954Z</time></trkpt><trkpt lat="46.6402846" lon="12.4372625"><ele>1517.0</ele><time>2026-04-23T16:06:42.953Z</time></trkpt><trkpt lat="46.6401991" lon="12.4373941"><ele>1517.0</ele><time>2026-04-23T16:06:44.954Z</time></trkpt><trkpt lat="46.6401603" lon="12.4374715"><ele>1513.1666666666667</ele><time>2026-04-23T16:06:45.954Z</time></trkpt><trkpt lat="46.6400667" lon="12.4376096"><ele>1509.3333333333335</ele><time>2026-04-23T16:06:47.953Z</time></trkpt><trkpt lat="46.6399973" lon="12.4376532"><ele>1505.5</ele><time>2026-04-23T16:06:48.954Z</time></trkpt><trkpt lat="46.6399262" lon="12.4376832"><ele>1501.6666666666667</ele><time>2026-04-23T16:06:49.954Z</time></trkpt><trkpt lat="46.639854" lon="12.4376951"><ele>1497.8333333333333</ele><time>2026-04-23T16:06:50.954Z</time></trkpt><trkpt lat="46.6397829" lon="12.4376989"><ele>1494.0</ele><time>2026-04-23T16:06:51.954Z</time></trkpt><trkpt lat="46.6396593" lon="12.4376899"><ele>1494.0</ele><time>2026-04-23T16:06:53.954Z</time></trkpt><trkpt lat="46.6395637" lon="12.4377028"><ele>1494.0</ele><time>2026-04-23T16:06:55.954Z</time></trkpt><trkpt lat="46.6396043" lon="12.4375839"><ele>1494.0</ele><time>2026-04-23T16:06:56.953Z</time></trkpt><trkpt lat="46.6395684" lon="12.437492"><ele>1494.0</ele><time>2026-04-23T16:06:58.953Z</time></trkpt><trkpt lat="46.6395982" lon="12.437346"><ele>1494.0</ele><time>2026-04-23T16:07:02.954Z</time></trkpt><trkpt lat="46.6395919" lon="12.4372241"><ele>1494.0</ele><time>2026-04-23T16:07:04.953Z</time></trkpt><trkpt lat="46.6395827" lon="12.4370798"><ele>1496.5</ele><time>2026-04-23T16:07:07.954Z</time></trkpt><trkpt lat="46.6395786" lon="12.4369678"><ele>1499.0</ele><time>2026-04-23T16:07:09.954Z</time></trkpt><trkpt lat="46.6395668" lon="12.4368656"><ele>1501.5</ele><time>2026-04-23T16:07:10.954Z</time></trkpt><trkpt lat="46.6395505" lon="12.4367523"><ele>1504.0</ele><time>2026-04-23T16:07:12.954Z</time></trkpt><trkpt lat="46.6395287" lon="12.4366531"><ele>1506.5</ele><time>2026-04-23T16:07:15.953Z</time></trkpt><trkpt lat="46.6395406" lon="12.4365484"><ele>1509.0</ele><time>2026-04-23T16:07:17.954Z</time></trkpt><trkpt lat="46.6394838" lon="12.4364671"><ele>1510.6666666666667</ele><time>2026-04-23T16:07:21.953Z</time></trkpt><trkpt lat="46.6394482" lon="12.4363801"><ele>1512.3333333333333</ele><time>2026-04-23T16:07:30.954Z</time></trkpt><trkpt lat="46.6395064" lon="12.4362653"><ele>1514.0</ele><time>2026-04-23T16:07:35.954Z</time></trkpt><trkpt lat="46.6395479" lon="12.4361454"><ele>1515.6666666666665</ele><time>2026-04-23T16:07:37.954Z</time></trkpt><trkpt lat="46.639542" lon="12.4360445"><ele>1517.3333333333333</ele><time>2026-04-23T16:07:39.954Z</time></trkpt><trkpt lat="46.6395819" lon="12.4359663"><ele>1519.0</ele><time>2026-04-23T16:07:42.953Z</time></trkpt><trkpt lat="46.639628" lon="12.4358133"><ele>1519.0</ele><time>2026-04-23T16:07:45.953Z</time></trkpt><trkpt lat="46.639693" lon="12.4356363"><ele>1519.0</ele><time>2026-04-23T16:07:47.954Z</time></trkpt><trkpt lat="46.6397319" lon="12.4355316"><ele>1519.0</ele><time>2026-04-23T16:07:48.954Z</time></trkpt><trkpt lat="46.6397605" lon="12.4354202"><ele>1519.0</ele><time>2026-04-23T16:07:49.953Z</time></trkpt><trkpt lat="46.6397671" lon="12.435272"><ele>1519.0</ele><time>2026-04-23T16:07:50.953Z</time></trkpt><trkpt lat="46.6397513" lon="12.4351334"><ele>1521.5</ele><time>2026-04-23T16:07:51.954Z</time></trkpt><trkpt lat="46.639699" lon="12.4350144"><ele>1524.0</ele><time>2026-04-23T16:07:52.953Z</time></trkpt><trkpt lat="46.6396523" lon="12.4348931"><ele>1526.5</ele><time>2026-04-23T16:07:53.954Z</time></trkpt><trkpt lat="46.6396044" lon="12.4347685"><ele>1529.0</ele><time>2026-04-23T16:07:54.953Z</time></trkpt><trkpt lat="46.6395614" lon="12.4346667"><ele>1531.5</ele><time>2026-04-23T16:07:55.954Z</time></trkpt><trkpt lat="46.6395164" lon="12.4345759"><ele>1534.0</ele><time>2026-04-23T16:07:56.954Z</time></trkpt><trkpt lat="46.6394713" lon="12.4344997"><ele>1534.3333333333333</ele><time>2026-04-23T16:07:57.954Z</time></trkpt><trkpt lat="46.6394168" lon="12.4345543"><ele>1534.6666666666665</ele><time>2026-04-23T16:07:58.954Z</time></trkpt><trkpt lat="46.639351" lon="12.4345799"><ele>1535.0</ele><time>2026-04-23T16:07:59.954Z</time></trkpt><trkpt lat="46.6392656" lon="12.4344983"><ele>1535.3333333333333</ele><time>2026-04-23T16:08:01.954Z</time></trkpt><trkpt lat="46.6392176" lon="12.4344214"><ele>1535.6666666666667</ele><time>2026-04-23T16:08:02.955Z</time></trkpt><trkpt lat="46.639159" lon="12.4343692"><ele>1536.0</ele><time>2026-04-23T16:08:03.954Z</time></trkpt><trkpt lat="46.6391074" lon="12.4342193"><ele>1536.0</ele><time>2026-04-23T16:08:05.954Z</time></trkpt><trkpt lat="46.6391092" lon="12.4340538"><ele>1536.0</ele><time>2026-04-23T16:08:07.954Z</time></trkpt><trkpt lat="46.6390853" lon="12.4339615"><ele>1536.0</ele><time>2026-04-23T16:08:08.954Z</time></trkpt><trkpt lat="46.6389992" lon="12.433896"><ele>1536.0</ele><time>2026-04-23T16:08:09.954Z</time></trkpt><trkpt lat="46.6389503" lon="12.433815"><ele>1536.0</ele><time>2026-04-23T16:08:10.953Z</time></trkpt><trkpt lat="46.6388708" lon="12.4337274"><ele>1538.1666666666667</ele><time>2026-04-23T16:08:11.955Z</time></trkpt><trkpt lat="46.638799" lon="12.4336515"><ele>1540.3333333333335</ele><time>2026-04-23T16:08:12.953Z</time></trkpt><trkpt lat="46.6387185" lon="12.4335972"><ele>1542.5</ele><time>2026-04-23T16:08:13.953Z</time></trkpt><trkpt lat="46.6386323" lon="12.4335334"><ele>1544.6666666666667</ele><time>2026-04-23T16:08:14.955Z</time></trkpt><trkpt lat="46.6385457" lon="12.4335224"><ele>1546.8333333333335</ele><time>2026-04-23T16:08:15.954Z</time></trkpt><trkpt lat="46.6384708" lon="12.4334749"><ele>1549.0</ele><time>2026-04-23T16:08:16.954Z</time></trkpt><trkpt lat="46.6383826" lon="12.4333625"><ele>1549.0000000000002</ele><time>2026-04-23T16:08:18.953Z</time></trkpt><trkpt lat="46.6382577" lon="12.4333026"><ele>1549.0</ele><time>2026-04-23T16:08:20.954Z</time></trkpt><trkpt lat="46.6381907" lon="12.4332429"><ele>1549.0</ele><time>2026-04-23T16:08:21.954Z</time></trkpt><trkpt lat="46.6381169" lon="12.4331901"><ele>1549.0</ele><time>2026-04-23T16:08:22.954Z</time></trkpt><trkpt lat="46.6380511" lon="12.4331446"><ele>1549.0000000000002</ele><time>2026-04-23T16:08:23.953Z</time></trkpt><trkpt lat="46.637979" lon="12.4330829"><ele>1549.0</ele><time>2026-04-23T16:08:24.955Z</time></trkpt><trkpt lat="46.637908" lon="12.4330363"><ele>1549.0000000000002</ele><time>2026-04-23T16:08:25.953Z</time></trkpt><trkpt lat="46.6378479" lon="12.4329912"><ele>1549.0</ele><time>2026-04-23T16:08:26.954Z</time></trkpt><trkpt lat="46.6377868" lon="12.432933"><ele>1549.0</ele><time>2026-04-23T16:08:27.954Z</time></trkpt><trkpt lat="46.6377312" lon="12.4328722"><ele>1549.0</ele><time>2026-04-23T16:08:28.954Z</time></trkpt><trkpt lat="46.637667" lon="12.4327361"><ele>1549.0000000000002</ele><time>2026-04-23T16:08:30.954Z</time></trkpt><trkpt lat="46.6375858" lon="12.4326492"><ele>1549.0</ele><time>2026-04-23T16:08:31.953Z</time></trkpt><trkpt lat="46.6375291" lon="12.4325754"><ele>1554.8000000000002</ele><time>2026-04-23T16:08:32.953Z</time></trkpt><trkpt lat="46.6374661" lon="12.4324903"><ele>1560.6000000000001</ele><time>2026-04-23T16:08:33.953Z</time></trkpt><trkpt lat="46.6373956" lon="12.4324151"><ele>1566.4</ele><time>2026-04-23T16:08:34.954Z</time></trkpt><trkpt lat="46.6373262" lon="12.4322952"><ele>1572.2</ele><time>2026-04-23T16:08:36.954Z</time></trkpt><trkpt lat="46.6372397" lon="12.4322053"><ele>1578.0</ele><time>2026-04-23T16:08:38.954Z</time></trkpt><trkpt lat="46.6371594" lon="12.4321093"><ele>1584.5</ele><time>2026-04-23T16:08:40.953Z</time></trkpt><trkpt lat="46.637116" lon="12.4320413"><ele>1591.0</ele><time>2026-04-23T16:08:42.954Z</time></trkpt><trkpt lat="46.637164" lon="12.4319323"><ele>1597.5</ele><time>2026-04-23T16:08:44.954Z</time></trkpt><trkpt lat="46.6372356" lon="12.4318781"><ele>1604.0</ele><time>2026-04-23T16:08:45.954Z</time></trkpt><trkpt lat="46.6373019" lon="12.4318049"><ele>1610.5</ele><time>2026-04-23T16:08:47.954Z</time></trkpt><trkpt lat="46.6372991" lon="12.4317022"><ele>1617.0</ele><time>2026-04-23T16:08:51.953Z</time></trkpt><trkpt lat="46.6373286" lon="12.4316203"><ele>1617.0</ele><time>2026-04-23T16:08:54.954Z</time></trkpt><trkpt lat="46.637324" lon="12.4317156"><ele>1617.0</ele><time>2026-04-23T16:09:27.954Z</time></trkpt><trkpt lat="46.6372703" lon="12.4317724"><ele>1617.0</ele><time>2026-04-23T16:09:32.954Z</time></trkpt><trkpt lat="46.6372526" lon="12.4318757"><ele>1617.0</ele><time>2026-04-23T16:09:36.955Z</time></trkpt><trkpt lat="46.6372143" lon="12.431956"><ele>1617.0</ele><time>2026-04-23T16:09:39.954Z</time></trkpt><trkpt lat="46.6371596" lon="12.4320175"><ele>1617.0</ele><time>2026-04-23T16:09:41.955Z</time></trkpt><trkpt lat="46.6371817" lon="12.4321429"><ele>1617.0</ele><time>2026-04-23T16:09:45.954Z</time></trkpt><trkpt lat="46.6372562" lon="12.4321844"><ele>1609.1999999999998</ele><time>2026-04-23T16:11:49.954Z</time></trkpt><trkpt lat="46.6373298" lon="12.432281"><ele>1601.4</ele><time>2026-04-23T16:11:51.954Z</time></trkpt><trkpt lat="46.6373726" lon="12.4323734"><ele>1593.6</ele><time>2026-04-23T16:11:53.954Z</time></trkpt><trkpt lat="46.637439" lon="12.4324716"><ele>1585.8000000000002</ele><time>2026-04-23T16:11:55.954Z</time></trkpt><trkpt lat="46.6375603" lon="12.4325858"><ele>1578.0</ele><time>2026-04-23T16:11:57.954Z</time></trkpt><trkpt lat="46.6376325" lon="12.4326718"><ele>1578.0</ele><time>2026-04-23T16:11:58.954Z</time></trkpt><trkpt lat="46.6376864" lon="12.4327419"><ele>1578.0</ele><time>2026-04-23T16:11:59.954Z</time></trkpt><trkpt lat="46.637759" lon="12.432854"><ele>1578.0</ele><time>2026-04-23T16:12:01.954Z</time></trkpt><trkpt lat="46.6378152" lon="12.4329196"><ele>1578.0</ele><time>2026-04-23T16:12:02.954Z</time></trkpt><trkpt lat="46.6378678" lon="12.4329787"><ele>1578.0</ele><time>2026-04-23T16:12:03.954Z</time></trkpt><trkpt lat="46.6379329" lon="12.4330089"><ele>1578.0</ele><time>2026-04-23T16:12:04.955Z</time></trkpt><trkpt lat="46.6380017" lon="12.433043"><ele>1573.1666666666667</ele><time>2026-04-23T16:12:05.954Z</time></trkpt><trkpt lat="46.6380722" lon="12.43312"><ele>1568.3333333333335</ele><time>2026-04-23T16:12:06.954Z</time></trkpt><trkpt lat="46.6381617" lon="12.43318"><ele>1563.5</ele><time>2026-04-23T16:12:07.954Z</time></trkpt><trkpt lat="46.6382352" lon="12.4332451"><ele>1558.6666666666667</ele><time>2026-04-23T16:12:08.954Z</time></trkpt><trkpt lat="46.6383091" lon="12.4332806"><ele>1553.8333333333335</ele><time>2026-04-23T16:12:09.954Z</time></trkpt><trkpt lat="46.6383829" lon="12.4333545"><ele>1549.0</ele><time>2026-04-23T16:12:10.953Z</time></trkpt><trkpt lat="46.638451" lon="12.4334084"><ele>1549.0000000000002</ele><time>2026-04-23T16:12:11.953Z</time></trkpt><trkpt lat="46.6385266" lon="12.4334769"><ele>1549.0</ele><time>2026-04-23T16:12:13.954Z</time></trkpt><trkpt lat="46.6386003" lon="12.4335159"><ele>1549.0</ele><time>2026-04-23T16:12:14.953Z</time></trkpt><trkpt lat="46.6386673" lon="12.4335657"><ele>1549.0</ele><time>2026-04-23T16:12:15.954Z</time></trkpt><trkpt lat="46.638756" lon="12.433589"><ele>1549.0000000000002</ele><time>2026-04-23T16:12:16.954Z</time></trkpt><trkpt lat="46.6388159" lon="12.4336985"><ele>1549.0</ele><time>2026-04-23T16:12:17.954Z</time></trkpt><trkpt lat="46.638888" lon="12.4337815"><ele>1547.142857142857</ele><time>2026-04-23T16:12:18.953Z</time></trkpt><trkpt lat="46.638965" lon="12.4338549"><ele>1545.2857142857142</ele><time>2026-04-23T16:12:19.955Z</time></trkpt><trkpt lat="46.6390312" lon="12.4338978"><ele>1543.4285714285713</ele><time>2026-04-23T16:12:20.954Z</time></trkpt><trkpt lat="46.6390701" lon="12.4340038"><ele>1541.5714285714284</ele><time>2026-04-23T16:12:21.954Z</time></trkpt><trkpt lat="46.6390785" lon="12.4340982"><ele>1539.7142857142858</ele><time>2026-04-23T16:12:22.954Z</time></trkpt><trkpt lat="46.6390975" lon="12.4341908"><ele>1537.8571428571427</ele><time>2026-04-23T16:12:23.954Z</time></trkpt><trkpt lat="46.6391049" lon="12.4342926"><ele>1536.0</ele><time>2026-04-23T16:12:24.954Z</time></trkpt><trkpt lat="46.6391428" lon="12.4344308"><ele>1536.0</ele><time>2026-04-23T16:12:26.954Z</time></trkpt><trkpt lat="46.6392478" lon="12.4345187"><ele>1536.0</ele><time>2026-04-23T16:12:28.954Z</time></trkpt><trkpt lat="46.6393097" lon="12.4345987"><ele>1536.0</ele><time>2026-04-23T16:12:30.953Z</time></trkpt><trkpt lat="46.6393827" lon="12.4346134"><ele>1536.0</ele><time>2026-04-23T16:12:32.953Z</time></trkpt><trkpt lat="46.6394733" lon="12.4345656"><ele>1536.0</ele><time>2026-04-23T16:12:34.954Z</time></trkpt><trkpt lat="46.6395605" lon="12.4346989"><ele>1535.6</ele><time>2026-04-23T16:12:36.955Z</time></trkpt><trkpt lat="46.6396139" lon="12.4348086"><ele>1535.1999999999998</ele><time>2026-04-23T16:12:37.953Z</time></trkpt><trkpt lat="46.6396458" lon="12.4349569"><ele>1534.8000000000002</ele><time>2026-04-23T16:12:38.954Z</time></trkpt><trkpt lat="46.6396909" lon="12.4350735"><ele>1534.4</ele><time>2026-04-23T16:12:39.954Z</time></trkpt><trkpt lat="46.6397317" lon="12.4351979"><ele>1534.0</ele><time>2026-04-23T16:12:40.953Z</time></trkpt><trkpt lat="46.6397173" lon="12.4353045"><ele>1534.0</ele><time>2026-04-23T16:12:41.954Z</time></trkpt><trkpt lat="46.6397064" lon="12.4354177"><ele>1534.0</ele><time>2026-04-23T16:12:42.954Z</time></trkpt><trkpt lat="46.6396836" lon="12.4355201"><ele>1534.0</ele><time>2026-04-23T16:12:43.955Z</time></trkpt><trkpt lat="46.6396591" lon="12.4356282"><ele>1534.0</ele><time>2026-04-23T16:12:44.954Z</time></trkpt><trkpt lat="46.6396277" lon="12.4357383"><ele>1534.0</ele><time>2026-04-23T16:12:45.954Z</time></trkpt><trkpt lat="46.6395912" lon="12.435845"><ele>1534.0</ele><time>2026-04-23T16:12:46.954Z</time></trkpt><trkpt lat="46.6395001" lon="12.4359817"><ele>1529.0</ele><time>2026-04-23T16:12:48.954Z</time></trkpt><trkpt lat="46.6394096" lon="12.4360279"><ele>1524.0</ele><time>2026-04-23T16:12:49.954Z</time></trkpt><trkpt lat="46.6393443" lon="12.4360815"><ele>1519.0</ele><time>2026-04-23T16:12:50.954Z</time></trkpt><trkpt lat="46.6392589" lon="12.4360871"><ele>1514.0</ele><time>2026-04-23T16:12:51.954Z</time></trkpt><trkpt lat="46.6392179" lon="12.4361661"><ele>1509.0</ele><time>2026-04-23T16:12:52.953Z</time></trkpt><trkpt lat="46.6391522" lon="12.4362197"><ele>1504.0</ele><time>2026-04-23T16:12:53.954Z</time></trkpt><trkpt lat="46.6390984" lon="12.4362688"><ele>1499.0</ele><time>2026-04-23T16:12:54.953Z</time></trkpt><trkpt lat="46.6390445" lon="12.4363554"><ele>1494.0</ele><time>2026-04-23T16:12:56.954Z</time></trkpt><trkpt lat="46.6390701" lon="12.4365494"><ele>1489.0</ele><time>2026-04-23T16:12:58.954Z</time></trkpt><trkpt lat="46.6390808" lon="12.4366708"><ele>1484.0</ele><time>2026-04-23T16:12:59.954Z</time></trkpt><trkpt lat="46.6390298" lon="12.4368073"><ele>1479.0</ele><time>2026-04-23T16:13:00.954Z</time></trkpt><trkpt lat="46.638995" lon="12.4369204"><ele>1479.0</ele><time>2026-04-23T16:13:01.954Z</time></trkpt><trkpt lat="46.6389365" lon="12.4370056"><ele>1479.0</ele><time>2026-04-23T16:13:02.954Z</time></trkpt><trkpt lat="46.6388775" lon="12.4371123"><ele>1479.0</ele><time>2026-04-23T16:13:03.954Z</time></trkpt><trkpt lat="46.6387793" lon="12.437116"><ele>1479.0</ele><time>2026-04-23T16:13:04.953Z</time></trkpt><trkpt lat="46.6387185" lon="12.4371614"><ele>1479.0</ele><time>2026-04-23T16:13:05.953Z</time></trkpt><trkpt lat="46.6386509" lon="12.4372203"><ele>1479.0</ele><time>2026-04-23T16:13:09.954Z</time></trkpt><trkpt lat="46.6385855" lon="12.437231"><ele>1476.2</ele><time>2026-04-23T16:13:14.955Z</time></trkpt><trkpt lat="46.6384663" lon="12.4371805"><ele>1473.4</ele><time>2026-04-23T16:13:16.955Z</time></trkpt><trkpt lat="46.6383688" lon="12.4370871"><ele>1470.6</ele><time>2026-04-23T16:13:17.955Z</time></trkpt><trkpt lat="46.6383077" lon="12.4370276"><ele>1467.8</ele><time>2026-04-23T16:13:18.955Z</time></trkpt><trkpt lat="46.63822" lon="12.4369556"><ele>1465.0</ele><time>2026-04-23T16:13:20.955Z</time></trkpt><trkpt lat="46.6381789" lon="12.4368816"><ele>1465.0</ele><time>2026-04-23T16:14:07.956Z</time></trkpt><trkpt lat="46.6380276" lon="12.4366862"><ele>1465.0</ele><time>2026-04-23T16:14:10.955Z</time></trkpt><trkpt lat="46.6379515" lon="12.4366167"><ele>1465.0</ele><time>2026-04-23T16:14:11.955Z</time></trkpt><trkpt lat="46.6378751" lon="12.4365794"><ele>1465.0</ele><time>2026-04-23T16:14:12.954Z</time></trkpt><trkpt lat="46.6378006" lon="12.4365573"><ele>1465.0</ele><time>2026-04-23T16:14:13.955Z</time></trkpt><trkpt lat="46.6377287" lon="12.4365487"><ele>1463.0</ele><time>2026-04-23T16:14:14.955Z</time></trkpt><trkpt lat="46.6375948" lon="12.4365501"><ele>1461.0</ele><time>2026-04-23T16:14:16.955Z</time></trkpt><trkpt lat="46.6375246" lon="12.4365341"><ele>1459.0</ele><time>2026-04-23T16:14:17.955Z</time></trkpt><trkpt lat="46.6374519" lon="12.4364786"><ele>1457.0</ele><time>2026-04-23T16:14:18.955Z</time></trkpt><trkpt lat="46.6373786" lon="12.4364545"><ele>1455.0</ele><time>2026-04-23T16:14:19.955Z</time></trkpt><trkpt lat="46.6373019" lon="12.4364274"><ele>1453.0</ele><time>2026-04-23T16:14:20.955Z</time></trkpt><trkpt lat="46.6372225" lon="12.4364042"><ele>1453.0</ele><time>2026-04-23T16:14:21.955Z</time></trkpt><trkpt lat="46.6371303" lon="12.4363945"><ele>1453.0</ele><time>2026-04-23T16:14:22.954Z</time></trkpt><trkpt lat="46.6370155" lon="12.436434"><ele>1453.0</ele><time>2026-04-23T16:14:23.955Z</time></trkpt><trkpt lat="46.636906" lon="12.436543"><ele>1453.0</ele><time>2026-04-23T16:14:24.955Z</time></trkpt><trkpt lat="46.6368083" lon="12.4366026"><ele>1453.0</ele><time>2026-04-23T16:14:25.955Z</time></trkpt><trkpt lat="46.6367435" lon="12.4367317"><ele>1450.5</ele><time>2026-04-23T16:14:26.955Z</time></trkpt><trkpt lat="46.6366871" lon="12.436841"><ele>1448.0</ele><time>2026-04-23T16:14:27.955Z</time></trkpt><trkpt lat="46.6365998" lon="12.4369519"><ele>1445.5</ele><time>2026-04-23T16:14:28.955Z</time></trkpt><trkpt lat="46.6364792" lon="12.4370598"><ele>1443.0</ele><time>2026-04-23T16:14:29.954Z</time></trkpt><trkpt lat="46.6363445" lon="12.4371668"><ele>1441.5</ele><time>2026-04-23T16:14:30.955Z</time></trkpt><trkpt lat="46.6362082" lon="12.437214"><ele>1440.0</ele><time>2026-04-23T16:14:31.955Z</time></trkpt><trkpt lat="46.6360679" lon="12.4372898"><ele>1438.5</ele><time>2026-04-23T16:14:32.955Z</time></trkpt><trkpt lat="46.6359225" lon="12.4373399"><ele>1437.0</ele><time>2026-04-23T16:14:33.955Z</time></trkpt><trkpt lat="46.635746" lon="12.4373926"><ele>1434.0</ele><time>2026-04-23T16:14:34.955Z</time></trkpt><trkpt lat="46.635579" lon="12.4374367"><ele>1431.0</ele><time>2026-04-23T16:14:35.955Z</time></trkpt><trkpt lat="46.6354359" lon="12.4374564"><ele>1428.0</ele><time>2026-04-23T16:14:36.956Z</time></trkpt><trkpt lat="46.6352877" lon="12.4374931"><ele>1426.5</ele><time>2026-04-23T16:14:37.955Z</time></trkpt><trkpt lat="46.6351416" lon="12.4375347"><ele>1425.0</ele><time>2026-04-23T16:14:38.954Z</time></trkpt><trkpt lat="46.6350089" lon="12.4375961"><ele>1423.5</ele><time>2026-04-23T16:14:39.955Z</time></trkpt><trkpt lat="46.6348638" lon="12.4376354"><ele>1422.0</ele><time>2026-04-23T16:14:40.955Z</time></trkpt><trkpt lat="46.6347201" lon="12.4376272"><ele>1422.0</ele><time>2026-04-23T16:14:41.955Z</time></trkpt><trkpt lat="46.6345996" lon="12.4376771"><ele>1422.0</ele><time>2026-04-23T16:14:42.955Z</time></trkpt><trkpt lat="46.6344829" lon="12.4376729"><ele>1422.0</ele><time>2026-04-23T16:14:43.954Z</time></trkpt><trkpt lat="46.634354" lon="12.4377023"><ele>1422.0</ele><time>2026-04-23T16:14:44.955Z</time></trkpt><trkpt lat="46.6342257" lon="12.4377681"><ele>1420.0</ele><time>2026-04-23T16:14:45.955Z</time></trkpt><trkpt lat="46.6340963" lon="12.43787"><ele>1418.0</ele><time>2026-04-23T16:14:46.954Z</time></trkpt><trkpt lat="46.633978" lon="12.4379742"><ele>1416.0</ele><time>2026-04-23T16:14:47.954Z</time></trkpt><trkpt lat="46.6338561" lon="12.438084"><ele>1414.0</ele><time>2026-04-23T16:14:48.955Z</time></trkpt><trkpt lat="46.6337337" lon="12.4381973"><ele>1410.6666666666665</ele><time>2026-04-23T16:14:49.955Z</time></trkpt><trkpt lat="46.6336367" lon="12.4383734"><ele>1407.3333333333333</ele><time>2026-04-23T16:14:50.955Z</time></trkpt><trkpt lat="46.6335268" lon="12.4385178"><ele>1404.0</ele><time>2026-04-23T16:14:51.955Z</time></trkpt><trkpt lat="46.6334222" lon="12.4386962"><ele>1400.3333333333333</ele><time>2026-04-23T16:14:52.955Z</time></trkpt><trkpt lat="46.6333894" lon="12.4389671"><ele>1396.6666666666665</ele><time>2026-04-23T16:14:53.955Z</time></trkpt><trkpt lat="46.6333185" lon="12.4391872"><ele>1393.0</ele><time>2026-04-23T16:14:54.955Z</time></trkpt><trkpt lat="46.6332727" lon="12.4393913"><ele>1393.0</ele><time>2026-04-23T16:14:55.955Z</time></trkpt><trkpt lat="46.6332308" lon="12.4395977"><ele>1393.0</ele><time>2026-04-23T16:14:56.955Z</time></trkpt><trkpt lat="46.6331831" lon="12.4397879"><ele>1393.0</ele><time>2026-04-23T16:14:57.955Z</time></trkpt><trkpt lat="46.6331071" lon="12.4399645"><ele>1393.0</ele><time>2026-04-23T16:14:58.955Z</time></trkpt><trkpt lat="46.6330067" lon="12.440145"><ele>1391.75</ele><time>2026-04-23T16:14:59.955Z</time></trkpt><trkpt lat="46.6329033" lon="12.4403099"><ele>1390.5</ele><time>2026-04-23T16:15:00.955Z</time></trkpt><trkpt lat="46.6328079" lon="12.4404648"><ele>1389.25</ele><time>2026-04-23T16:15:01.955Z</time></trkpt><trkpt lat="46.6327191" lon="12.4406163"><ele>1388.0</ele><time>2026-04-23T16:15:02.955Z</time></trkpt><trkpt lat="46.6326503" lon="12.4407748"><ele>1384.75</ele><time>2026-04-23T16:15:03.954Z</time></trkpt><trkpt lat="46.6326034" lon="12.4409424"><ele>1381.5</ele><time>2026-04-23T16:15:04.955Z</time></trkpt><trkpt lat="46.6325697" lon="12.4411423"><ele>1378.25</ele><time>2026-04-23T16:15:05.955Z</time></trkpt><trkpt lat="46.6325474" lon="12.4413857"><ele>1375.0</ele><time>2026-04-23T16:15:06.955Z</time></trkpt><trkpt lat="46.6325234" lon="12.4416394"><ele>1374.0</ele><time>2026-04-23T16:15:07.954Z</time></trkpt><trkpt lat="46.6324963" lon="12.4418683"><ele>1373.0</ele><time>2026-04-23T16:15:08.955Z</time></trkpt><trkpt lat="46.6324728" lon="12.4420937"><ele>1372.0</ele><time>2026-04-23T16:15:09.955Z</time></trkpt><trkpt lat="46.632451" lon="12.4423098"><ele>1369.5</ele><time>2026-04-23T16:15:10.955Z</time></trkpt><trkpt lat="46.6324474" lon="12.4425174"><ele>1367.0</ele><time>2026-04-23T16:15:11.955Z</time></trkpt><trkpt lat="46.6324533" lon="12.4427453"><ele>1364.5</ele><time>2026-04-23T16:15:12.955Z</time></trkpt><trkpt lat="46.6324664" lon="12.4429447"><ele>1362.0</ele><time>2026-04-23T16:15:13.955Z</time></trkpt><trkpt lat="46.6324728" lon="12.4431447"><ele>1359.3333333333333</ele><time>2026-04-23T16:15:14.955Z</time></trkpt><trkpt lat="46.6324781" lon="12.443348"><ele>1356.6666666666665</ele><time>2026-04-23T16:15:15.955Z</time></trkpt><trkpt lat="46.6324914" lon="12.4437353"><ele>1354.0</ele><time>2026-04-23T16:15:17.955Z</time></trkpt><trkpt lat="46.6324682" lon="12.443932"><ele>1353.6666666666665</ele><time>2026-04-23T16:15:18.955Z</time></trkpt><trkpt lat="46.6324472" lon="12.4441537"><ele>1353.3333333333333</ele><time>2026-04-23T16:15:19.955Z</time></trkpt><trkpt lat="46.6323951" lon="12.4443659"><ele>1353.0</ele><time>2026-04-23T16:15:20.955Z</time></trkpt><trkpt lat="46.6323543" lon="12.4445921"><ele>1351.3333333333333</ele><time>2026-04-23T16:15:21.954Z</time></trkpt><trkpt lat="46.6323069" lon="12.4448084"><ele>1349.6666666666665</ele><time>2026-04-23T16:15:22.954Z</time></trkpt><trkpt lat="46.6322709" lon="12.4450239"><ele>1348.0</ele><time>2026-04-23T16:15:23.955Z</time></trkpt><trkpt lat="46.6322372" lon="12.4452309"><ele>1348.0</ele><time>2026-04-23T16:15:24.955Z</time></trkpt><trkpt lat="46.6322218" lon="12.4454371"><ele>1348.0</ele><time>2026-04-23T16:15:25.954Z</time></trkpt><trkpt lat="46.6322268" lon="12.4456353"><ele>1348.0</ele><time>2026-04-23T16:15:26.955Z</time></trkpt><trkpt lat="46.6322385" lon="12.4458398"><ele>1348.0</ele><time>2026-04-23T16:15:27.956Z</time></trkpt><trkpt lat="46.632253" lon="12.4460324"><ele>1346.25</ele><time>2026-04-23T16:15:28.955Z</time></trkpt><trkpt lat="46.6322824" lon="12.4462174"><ele>1344.5</ele><time>2026-04-23T16:15:29.955Z</time></trkpt><trkpt lat="46.6323133" lon="12.4463981"><ele>1342.75</ele><time>2026-04-23T16:15:30.954Z</time></trkpt><trkpt lat="46.6323461" lon="12.4465816"><ele>1341.0</ele><time>2026-04-23T16:15:31.955Z</time></trkpt><trkpt lat="46.6323766" lon="12.4467744"><ele>1338.6666666666667</ele><time>2026-04-23T16:15:32.955Z</time></trkpt><trkpt lat="46.6324069" lon="12.4469812"><ele>1336.3333333333335</ele><time>2026-04-23T16:15:33.954Z</time></trkpt><trkpt lat="46.6324204" lon="12.4472077"><ele>1334.0</ele><time>2026-04-23T16:15:34.955Z</time></trkpt><trkpt lat="46.6324154" lon="12.4474389"><ele>1333.3333333333335</ele><time>2026-04-23T16:15:35.955Z</time></trkpt><trkpt lat="46.6324025" lon="12.4476885"><ele>1332.6666666666667</ele><time>2026-04-23T16:15:36.955Z</time></trkpt><trkpt lat="46.6323869" lon="12.4479466"><ele>1332.0</ele><time>2026-04-23T16:15:37.955Z</time></trkpt><trkpt lat="46.632368" lon="12.4482098"><ele>1331.0</ele><time>2026-04-23T16:15:38.955Z</time></trkpt><trkpt lat="46.6323531" lon="12.4484753"><ele>1330.0</ele><time>2026-04-23T16:15:39.955Z</time></trkpt><trkpt lat="46.6323434" lon="12.4487373"><ele>1329.0</ele><time>2026-04-23T16:15:40.954Z</time></trkpt><trkpt lat="46.6323371" lon="12.448954"><ele>1328.3333333333333</ele><time>2026-04-23T16:15:41.955Z</time></trkpt><trkpt lat="46.6323292" lon="12.4491645"><ele>1327.6666666666665</ele><time>2026-04-23T16:15:42.954Z</time></trkpt><trkpt lat="46.6323072" lon="12.4494044"><ele>1327.0</ele><time>2026-04-23T16:15:43.955Z</time></trkpt><trkpt lat="46.6322919" lon="12.4496447"><ele>1326.75</ele><time>2026-04-23T16:15:44.956Z</time></trkpt><trkpt lat="46.6322683" lon="12.4498607"><ele>1326.5</ele><time>2026-04-23T16:15:45.955Z</time></trkpt><trkpt lat="46.6322347" lon="12.4500734"><ele>1326.25</ele><time>2026-04-23T16:15:46.955Z</time></trkpt><trkpt lat="46.6322035" lon="12.4502582"><ele>1326.0</ele><time>2026-04-23T16:15:47.956Z</time></trkpt><trkpt lat="46.632031" lon="12.4505623"><ele>1316.0</ele><time>2026-04-23T16:15:49.955Z</time></trkpt><trkpt lat="46.6318974" lon="12.4506967"><ele>1306.0</ele><time>2026-04-23T16:15:50.955Z</time></trkpt><trkpt lat="46.6316043" lon="12.4509932"><ele>1306.0</ele><time>2026-04-23T16:15:52.956Z</time></trkpt><trkpt lat="46.6314552" lon="12.4511406"><ele>1306.0</ele><time>2026-04-23T16:15:53.955Z</time></trkpt><trkpt lat="46.6313133" lon="12.451309"><ele>1306.0</ele><time>2026-04-23T16:15:54.954Z</time></trkpt><trkpt lat="46.6311699" lon="12.4514757"><ele>1303.0</ele><time>2026-04-23T16:15:55.955Z</time></trkpt><trkpt lat="46.6310528" lon="12.4516209"><ele>1300.0</ele><time>2026-04-23T16:15:56.955Z</time></trkpt><trkpt lat="46.6309202" lon="12.4517763"><ele>1297.0</ele><time>2026-04-23T16:15:57.954Z</time></trkpt><trkpt lat="46.6308548" lon="12.4520206"><ele>1298.6666666666665</ele><time>2026-04-23T16:15:58.955Z</time></trkpt><trkpt lat="46.6307784" lon="12.4522319"><ele>1300.3333333333333</ele><time>2026-04-23T16:15:59.955Z</time></trkpt><trkpt lat="46.6306703" lon="12.4524384"><ele>1302.0</ele><time>2026-04-23T16:16:00.956Z</time></trkpt><trkpt lat="46.630535" lon="12.4526581"><ele>1302.0</ele><time>2026-04-23T16:16:01.954Z</time></trkpt><trkpt lat="46.6303934" lon="12.4528795"><ele>1302.0</ele><time>2026-04-23T16:16:02.955Z</time></trkpt><trkpt lat="46.6302703" lon="12.4530771"><ele>1302.0</ele><time>2026-04-23T16:16:03.955Z</time></trkpt><trkpt lat="46.6301517" lon="12.4532679"><ele>1297.6666666666667</ele><time>2026-04-23T16:16:04.955Z</time></trkpt><trkpt lat="46.6300365" lon="12.453445"><ele>1293.3333333333335</ele><time>2026-04-23T16:16:05.955Z</time></trkpt><trkpt lat="46.6299392" lon="12.4536162"><ele>1289.0</ele><time>2026-04-23T16:16:06.955Z</time></trkpt><trkpt lat="46.6298508" lon="12.4537837"><ele>1287.6666666666667</ele><time>2026-04-23T16:16:07.956Z</time></trkpt><trkpt lat="46.6297684" lon="12.4539499"><ele>1286.3333333333333</ele><time>2026-04-23T16:16:08.955Z</time></trkpt><trkpt lat="46.6297015" lon="12.4541577"><ele>1285.0</ele><time>2026-04-23T16:16:09.956Z</time></trkpt><trkpt lat="46.6296418" lon="12.454402"><ele>1285.0</ele><time>2026-04-23T16:16:10.954Z</time></trkpt><trkpt lat="46.6295705" lon="12.4546189"><ele>1285.0</ele><time>2026-04-23T16:16:11.956Z</time></trkpt><trkpt lat="46.6295292" lon="12.4547879"><ele>1285.0</ele><time>2026-04-23T16:16:12.955Z</time></trkpt><trkpt lat="46.6294833" lon="12.4549413"><ele>1285.0</ele><time>2026-04-23T16:16:13.955Z</time></trkpt><trkpt lat="46.6294477" lon="12.4550529"><ele>1285.0</ele><time>2026-04-23T16:16:14.955Z</time></trkpt><trkpt lat="46.6293803" lon="12.4551746"><ele>1285.0</ele><time>2026-04-23T16:16:16.956Z</time></trkpt><trkpt lat="46.6293069" lon="12.4551297"><ele>1285.0</ele><time>2026-04-23T16:16:18.955Z</time></trkpt><trkpt lat="46.6292563" lon="12.4550578"><ele>1285.0</ele><time>2026-04-23T16:16:19.955Z</time></trkpt><trkpt lat="46.6291914" lon="12.4549563"><ele>1285.0</ele><time>2026-04-23T16:16:20.955Z</time></trkpt><trkpt lat="46.6291089" lon="12.4548395"><ele>1285.0</ele><time>2026-04-23T16:16:21.955Z</time></trkpt><trkpt lat="46.6290152" lon="12.4547003"><ele>1285.0</ele><time>2026-04-23T16:16:22.955Z</time></trkpt><trkpt lat="46.6289048" lon="12.4545441"><ele>1285.0</ele><time>2026-04-23T16:16:23.954Z</time></trkpt><trkpt lat="46.6287896" lon="12.4543745"><ele>1285.0</ele><time>2026-04-23T16:16:24.955Z</time></trkpt><trkpt lat="46.6286727" lon="12.4542117"><ele>1285.0</ele><time>2026-04-23T16:16:25.954Z</time></trkpt><trkpt lat="46.6285575" lon="12.4540648"><ele>1285.0</ele><time>2026-04-23T16:16:26.955Z</time></trkpt><trkpt lat="46.6284604" lon="12.4539331"><ele>1285.0</ele><time>2026-04-23T16:16:27.954Z</time></trkpt><trkpt lat="46.6283776" lon="12.4538207"><ele>1285.0</ele><time>2026-04-23T16:16:28.955Z</time></trkpt><trkpt lat="46.6283114" lon="12.4537383"><ele>1285.0</ele><time>2026-04-23T16:16:29.954Z</time></trkpt><trkpt lat="46.6282462" lon="12.453668"><ele>1285.0</ele><time>2026-04-23T16:16:30.956Z</time></trkpt><trkpt lat="46.6281555" lon="12.4538677"><ele>1285.0</ele><time>2026-04-23T16:16:32.955Z</time></trkpt><trkpt lat="46.6281166" lon="12.4539423"><ele>1285.0</ele><time>2026-04-23T16:16:33.956Z</time></trkpt><trkpt lat="46.6280756" lon="12.4540706"><ele>1285.0</ele><time>2026-04-23T16:16:34.955Z</time></trkpt><trkpt lat="46.6280265" lon="12.4542379"><ele>1285.0</ele><time>2026-04-23T16:16:35.956Z</time></trkpt><trkpt lat="46.6279781" lon="12.4544109"><ele>1285.0</ele><time>2026-04-23T16:16:36.955Z</time></trkpt><trkpt lat="46.6279187" lon="12.4546127"><ele>1285.0</ele><time>2026-04-23T16:16:37.954Z</time></trkpt><trkpt lat="46.6278389" lon="12.4547976"><ele>1285.3333333333333</ele><time>2026-04-23T16:16:38.954Z</time></trkpt><trkpt lat="46.6277517" lon="12.4549671"><ele>1285.6666666666667</ele><time>2026-04-23T16:16:39.955Z</time></trkpt><trkpt lat="46.6276288" lon="12.4551228"><ele>1286.0</ele><time>2026-04-23T16:16:40.955Z</time></trkpt><trkpt lat="46.6274901" lon="12.4552829"><ele>1286.0</ele><time>2026-04-23T16:16:41.955Z</time></trkpt><trkpt lat="46.6273436" lon="12.4554254"><ele>1286.0</ele><time>2026-04-23T16:16:42.955Z</time></trkpt><trkpt lat="46.6272046" lon="12.4555521"><ele>1286.0</ele><time>2026-04-23T16:16:43.955Z</time></trkpt><trkpt lat="46.6270993" lon="12.4557121"><ele>1285.0</ele><time>2026-04-23T16:16:44.955Z</time></trkpt><trkpt lat="46.6269874" lon="12.4559048"><ele>1284.0</ele><time>2026-04-23T16:16:45.955Z</time></trkpt><trkpt lat="46.6269059" lon="12.4560966"><ele>1283.0</ele><time>2026-04-23T16:16:46.955Z</time></trkpt><trkpt lat="46.6268204" lon="12.4562551"><ele>1282.0</ele><time>2026-04-23T16:16:47.956Z</time></trkpt><trkpt lat="46.626712" lon="12.4563666"><ele>1281.0</ele><time>2026-04-23T16:16:48.954Z</time></trkpt><trkpt lat="46.6266042" lon="12.4564919"><ele>1280.0</ele><time>2026-04-23T16:16:49.955Z</time></trkpt><trkpt lat="46.6265119" lon="12.456633"><ele>1279.0</ele><time>2026-04-23T16:16:50.956Z</time></trkpt><trkpt lat="46.6264173" lon="12.4567782"><ele>1279.0</ele><time>2026-04-23T16:16:51.955Z</time></trkpt><trkpt lat="46.6263191" lon="12.4570204"><ele>1279.0</ele><time>2026-04-23T16:16:52.954Z</time></trkpt><trkpt lat="46.6262802" lon="12.4572812"><ele>1279.0</ele><time>2026-04-23T16:16:53.955Z</time></trkpt><trkpt lat="46.6261796" lon="12.4574813"><ele>1280.0</ele><time>2026-04-23T16:16:54.955Z</time></trkpt><trkpt lat="46.6260752" lon="12.4576804"><ele>1281.0</ele><time>2026-04-23T16:16:55.956Z</time></trkpt><trkpt lat="46.6259752" lon="12.4578673"><ele>1282.0</ele><time>2026-04-23T16:16:56.955Z</time></trkpt><trkpt lat="46.6258893" lon="12.4580864"><ele>1279.0</ele><time>2026-04-23T16:16:57.955Z</time></trkpt><trkpt lat="46.6257928" lon="12.4583219"><ele>1276.0</ele><time>2026-04-23T16:16:58.955Z</time></trkpt><trkpt lat="46.6257013" lon="12.4586013"><ele>1273.0</ele><time>2026-04-23T16:16:59.955Z</time></trkpt><trkpt lat="46.625656" lon="12.4588821"><ele>1271.0</ele><time>2026-04-23T16:17:00.955Z</time></trkpt><trkpt lat="46.6255822" lon="12.4591464"><ele>1269.0</ele><time>2026-04-23T16:17:01.955Z</time></trkpt><trkpt lat="46.6255002" lon="12.4594077"><ele>1267.0</ele><time>2026-04-23T16:17:02.955Z</time></trkpt><trkpt lat="46.6254395" lon="12.459628"><ele>1265.0</ele><time>2026-04-23T16:17:03.954Z</time></trkpt><trkpt lat="46.6253656" lon="12.459836"><ele>1263.0</ele><time>2026-04-23T16:17:04.955Z</time></trkpt><trkpt lat="46.6251728" lon="12.4602362"><ele>1262.6666666666667</ele><time>2026-04-23T16:17:06.954Z</time></trkpt><trkpt lat="46.625017" lon="12.4604454"><ele>1262.3333333333335</ele><time>2026-04-23T16:17:07.955Z</time></trkpt><trkpt lat="46.6248404" lon="12.4606547"><ele>1262.0</ele><time>2026-04-23T16:17:08.955Z</time></trkpt><trkpt lat="46.6246907" lon="12.4608756"><ele>1262.0</ele><time>2026-04-23T16:17:09.955Z</time></trkpt><trkpt lat="46.6245463" lon="12.4610757"><ele>1262.0</ele><time>2026-04-23T16:17:10.955Z</time></trkpt><trkpt lat="46.6243987" lon="12.4612588"><ele>1262.0</ele><time>2026-04-23T16:17:11.956Z</time></trkpt><trkpt lat="46.6242466" lon="12.4614391"><ele>1262.25</ele><time>2026-04-23T16:17:12.956Z</time></trkpt><trkpt lat="46.624099" lon="12.4615992"><ele>1262.5</ele><time>2026-04-23T16:17:13.955Z</time></trkpt><trkpt lat="46.623989" lon="12.4616802"><ele>1262.75</ele><time>2026-04-23T16:17:14.954Z</time></trkpt><trkpt lat="46.623892" lon="12.4617879"><ele>1263.0</ele><time>2026-04-23T16:17:15.955Z</time></trkpt><trkpt lat="46.6238664" lon="12.461918"><ele>1260.25</ele><time>2026-04-23T16:17:16.956Z</time></trkpt><trkpt lat="46.6238618" lon="12.4621384"><ele>1257.5</ele><time>2026-04-23T16:17:17.955Z</time></trkpt><trkpt lat="46.6238037" lon="12.4623197"><ele>1254.75</ele><time>2026-04-23T16:17:18.955Z</time></trkpt><trkpt lat="46.6237666" lon="12.462546"><ele>1252.0</ele><time>2026-04-23T16:17:19.956Z</time></trkpt><trkpt lat="46.6237014" lon="12.4627605"><ele>1257.3333333333333</ele><time>2026-04-23T16:17:20.955Z</time></trkpt><trkpt lat="46.6236284" lon="12.4630108"><ele>1262.6666666666667</ele><time>2026-04-23T16:17:21.955Z</time></trkpt><trkpt lat="46.6235588" lon="12.4632502"><ele>1268.0</ele><time>2026-04-23T16:17:22.956Z</time></trkpt><trkpt lat="46.6235012" lon="12.4634485"><ele>1268.0</ele><time>2026-04-23T16:17:23.955Z</time></trkpt><trkpt lat="46.6234514" lon="12.4636221"><ele>1268.0</ele><time>2026-04-23T16:17:24.955Z</time></trkpt><trkpt lat="46.6233893" lon="12.4637695"><ele>1268.0</ele><time>2026-04-23T16:17:25.954Z</time></trkpt><trkpt lat="46.623319" lon="12.4639341"><ele>1268.0</ele><time>2026-04-23T16:17:26.954Z</time></trkpt><trkpt lat="46.6232359" lon="12.4640836"><ele>1264.5</ele><time>2026-04-23T16:17:27.954Z</time></trkpt><trkpt lat="46.6231559" lon="12.4642364"><ele>1261.0</ele><time>2026-04-23T16:17:28.955Z</time></trkpt><trkpt lat="46.6230759" lon="12.4644365"><ele>1257.5</ele><time>2026-04-23T16:17:29.956Z</time></trkpt><trkpt lat="46.6229829" lon="12.4646148"><ele>1254.0</ele><time>2026-04-23T16:17:30.955Z</time></trkpt><trkpt lat="46.6228503" lon="12.464792"><ele>1254.3333333333333</ele><time>2026-04-23T16:17:31.955Z</time></trkpt><trkpt lat="46.622726" lon="12.4649659"><ele>1254.6666666666665</ele><time>2026-04-23T16:17:32.956Z</time></trkpt><trkpt lat="46.6226061" lon="12.4651163"><ele>1255.0</ele><time>2026-04-23T16:17:33.955Z</time></trkpt><trkpt lat="46.6224813" lon="12.4652584"><ele>1255.0</ele><time>2026-04-23T16:17:34.955Z</time></trkpt><trkpt lat="46.622377" lon="12.4653666"><ele>1255.0</ele><time>2026-04-23T16:17:35.955Z</time></trkpt><trkpt lat="46.6222992" lon="12.4655253"><ele>1255.0</ele><time>2026-04-23T16:17:36.955Z</time></trkpt><trkpt lat="46.6222133" lon="12.4656957"><ele>1255.0</ele><time>2026-04-23T16:17:37.955Z</time></trkpt><trkpt lat="46.6221126" lon="12.4658503"><ele>1252.25</ele><time>2026-04-23T16:17:38.955Z</time></trkpt><trkpt lat="46.6220149" lon="12.4659906"><ele>1249.5</ele><time>2026-04-23T16:17:39.955Z</time></trkpt><trkpt lat="46.6219301" lon="12.4661391"><ele>1246.75</ele><time>2026-04-23T16:17:40.955Z</time></trkpt><trkpt lat="46.62186" lon="12.4662802"><ele>1244.0</ele><time>2026-04-23T16:17:41.954Z</time></trkpt><trkpt lat="46.6217863" lon="12.4664086"><ele>1242.6000000000001</ele><time>2026-04-23T16:17:42.955Z</time></trkpt><trkpt lat="46.6216995" lon="12.4665452"><ele>1241.2</ele><time>2026-04-23T16:17:43.955Z</time></trkpt><trkpt lat="46.6216047" lon="12.4666569"><ele>1239.8000000000002</ele><time>2026-04-23T16:17:44.955Z</time></trkpt><trkpt lat="46.6215389" lon="12.4667091"><ele>1238.4</ele><time>2026-04-23T16:17:45.955Z</time></trkpt><trkpt lat="46.6215073" lon="12.4668264"><ele>1237.0</ele><time>2026-04-23T16:17:47.954Z</time></trkpt><trkpt lat="46.621452" lon="12.4669091"><ele>1237.0</ele><time>2026-04-23T16:17:49.954Z</time></trkpt><trkpt lat="46.6213557" lon="12.46696"><ele>1237.0</ele><time>2026-04-23T16:17:51.954Z</time></trkpt><trkpt lat="46.6212261" lon="12.4669891"><ele>1237.0</ele><time>2026-04-23T16:17:53.955Z</time></trkpt><trkpt lat="46.6211321" lon="12.4669669"><ele>1237.0</ele><time>2026-04-23T16:17:54.954Z</time></trkpt><trkpt lat="46.6210223" lon="12.4669486"><ele>1237.0</ele><time>2026-04-23T16:17:55.955Z</time></trkpt><trkpt lat="46.6208902" lon="12.4668976"><ele>1238.25</ele><time>2026-04-23T16:17:56.955Z</time></trkpt><trkpt lat="46.6207645" lon="12.4668565"><ele>1239.5</ele><time>2026-04-23T16:17:57.954Z</time></trkpt><trkpt lat="46.620645" lon="12.4667867"><ele>1240.75</ele><time>2026-04-23T16:17:58.956Z</time></trkpt><trkpt lat="46.6205535" lon="12.4666714"><ele>1242.0</ele><time>2026-04-23T16:17:59.955Z</time></trkpt><trkpt lat="46.6204518" lon="12.4665992"><ele>1242.0</ele><time>2026-04-23T16:18:00.955Z</time></trkpt><trkpt lat="46.6203748" lon="12.4665462"><ele>1242.0</ele><time>2026-04-23T16:18:01.955Z</time></trkpt><trkpt lat="46.6202886" lon="12.4665454"><ele>1242.0</ele><time>2026-04-23T16:18:02.955Z</time></trkpt><trkpt lat="46.620199" lon="12.4665414"><ele>1242.0</ele><time>2026-04-23T16:18:03.955Z</time></trkpt><trkpt lat="46.6201223" lon="12.4666702"><ele>1242.0</ele><time>2026-04-23T16:18:04.955Z</time></trkpt><trkpt lat="46.6200454" lon="12.4667639"><ele>1240.25</ele><time>2026-04-23T16:18:05.955Z</time></trkpt><trkpt lat="46.6199672" lon="12.4668645"><ele>1238.5</ele><time>2026-04-23T16:18:06.955Z</time></trkpt><trkpt lat="46.619893" lon="12.4670561"><ele>1236.75</ele><time>2026-04-23T16:18:07.954Z</time></trkpt><trkpt lat="46.6198169" lon="12.4671632"><ele>1235.0</ele><time>2026-04-23T16:18:08.956Z</time></trkpt><trkpt lat="46.6197237" lon="12.467252"><ele>1235.0</ele><time>2026-04-23T16:18:09.955Z</time></trkpt><trkpt lat="46.6196082" lon="12.4672982"><ele>1235.0</ele><time>2026-04-23T16:18:10.955Z</time></trkpt><trkpt lat="46.6194648" lon="12.4673604"><ele>1235.0</ele><time>2026-04-23T16:18:11.955Z</time></trkpt><trkpt lat="46.6193196" lon="12.4674248"><ele>1235.0</ele><time>2026-04-23T16:18:12.954Z</time></trkpt><trkpt lat="46.6191716" lon="12.4674879"><ele>1236.75</ele><time>2026-04-23T16:18:13.954Z</time></trkpt><trkpt lat="46.6190097" lon="12.4675484"><ele>1238.5</ele><time>2026-04-23T16:18:14.955Z</time></trkpt><trkpt lat="46.6189167" lon="12.4675644"><ele>1240.25</ele><time>2026-04-23T16:18:15.955Z</time></trkpt><trkpt lat="46.6187566" lon="12.4676602"><ele>1242.0</ele><time>2026-04-23T16:18:16.955Z</time></trkpt><trkpt lat="46.6186525" lon="12.4677813"><ele>1245.0</ele><time>2026-04-23T16:18:17.954Z</time></trkpt><trkpt lat="46.6185822" lon="12.4679066"><ele>1248.0</ele><time>2026-04-23T16:18:18.955Z</time></trkpt><trkpt lat="46.6183587" lon="12.4680919"><ele>1251.0</ele><time>2026-04-23T16:18:20.955Z</time></trkpt><trkpt lat="46.6182411" lon="12.4681992"><ele>1251.0</ele><time>2026-04-23T16:18:21.955Z</time></trkpt><trkpt lat="46.6181298" lon="12.4683068"><ele>1251.0</ele><time>2026-04-23T16:18:22.955Z</time></trkpt><trkpt lat="46.6180363" lon="12.4684041"><ele>1251.0</ele><time>2026-04-23T16:18:23.955Z</time></trkpt><trkpt lat="46.6179088" lon="12.4684735"><ele>1251.0</ele><time>2026-04-23T16:18:24.954Z</time></trkpt><trkpt lat="46.617804" lon="12.4685588"><ele>1251.25</ele><time>2026-04-23T16:18:25.955Z</time></trkpt><trkpt lat="46.6176832" lon="12.4686485"><ele>1251.5</ele><time>2026-04-23T16:18:26.955Z</time></trkpt><trkpt lat="46.6175645" lon="12.4687484"><ele>1251.75</ele><time>2026-04-23T16:18:27.955Z</time></trkpt><trkpt lat="46.6174402" lon="12.4688335"><ele>1252.0</ele><time>2026-04-23T16:18:28.955Z</time></trkpt><trkpt lat="46.6173011" lon="12.4689153"><ele>1252.0</ele><time>2026-04-23T16:18:29.955Z</time></trkpt><trkpt lat="46.6171693" lon="12.4689989"><ele>1252.0</ele><time>2026-04-23T16:18:30.955Z</time></trkpt><trkpt lat="46.6170417" lon="12.4690872"><ele>1252.0</ele><time>2026-04-23T16:18:31.955Z</time></trkpt><trkpt lat="46.616895" lon="12.4691757"><ele>1252.0</ele><time>2026-04-23T16:18:32.955Z</time></trkpt><trkpt lat="46.6167533" lon="12.4692691"><ele>1251.75</ele><time>2026-04-23T16:18:33.955Z</time></trkpt><trkpt lat="46.6166356" lon="12.4693949"><ele>1251.5</ele><time>2026-04-23T16:18:34.956Z</time></trkpt><trkpt lat="46.6165157" lon="12.4694999"><ele>1251.25</ele><time>2026-04-23T16:18:35.955Z</time></trkpt><trkpt lat="46.6163931" lon="12.4695972"><ele>1251.0</ele><time>2026-04-23T16:18:36.955Z</time></trkpt><trkpt lat="46.6162726" lon="12.4697542"><ele>1251.75</ele><time>2026-04-23T16:18:37.955Z</time></trkpt><trkpt lat="46.616138" lon="12.4698646"><ele>1252.5</ele><time>2026-04-23T16:18:38.955Z</time></trkpt><trkpt lat="46.6160065" lon="12.4699638"><ele>1253.25</ele><time>2026-04-23T16:18:39.955Z</time></trkpt><trkpt lat="46.615891" lon="12.4700524"><ele>1254.0</ele><time>2026-04-23T16:18:40.955Z</time></trkpt><trkpt lat="46.6157753" lon="12.4701792"><ele>1254.0</ele><time>2026-04-23T16:18:41.955Z</time></trkpt><trkpt lat="46.6156596" lon="12.4702921"><ele>1254.0</ele><time>2026-04-23T16:18:42.955Z</time></trkpt><trkpt lat="46.6155403" lon="12.4703708"><ele>1254.0</ele><time>2026-04-23T16:18:43.956Z</time></trkpt><trkpt lat="46.6154208" lon="12.4704637"><ele>1254.0</ele><time>2026-04-23T16:18:44.955Z</time></trkpt><trkpt lat="46.6152874" lon="12.4705893"><ele>1251.25</ele><time>2026-04-23T16:18:45.955Z</time></trkpt><trkpt lat="46.6151561" lon="12.4707263"><ele>1248.5</ele><time>2026-04-23T16:18:46.955Z</time></trkpt><trkpt lat="46.6150362" lon="12.4708489"><ele>1245.75</ele><time>2026-04-23T16:18:47.955Z</time></trkpt><trkpt lat="46.6149194" lon="12.4709363"><ele>1243.0</ele><time>2026-04-23T16:18:48.955Z</time></trkpt><trkpt lat="46.6147923" lon="12.4710518"><ele>1243.0</ele><time>2026-04-23T16:18:49.955Z</time></trkpt><trkpt lat="46.6146668" lon="12.4711391"><ele>1243.0</ele><time>2026-04-23T16:18:50.955Z</time></trkpt><trkpt lat="46.614586" lon="12.4712292"><ele>1243.0</ele><time>2026-04-23T16:18:51.955Z</time></trkpt><trkpt lat="46.614504" lon="12.47133"><ele>1243.0</ele><time>2026-04-23T16:18:52.955Z</time></trkpt><trkpt lat="46.6144167" lon="12.4714126"><ele>1241.5</ele><time>2026-04-23T16:18:53.954Z</time></trkpt><trkpt lat="46.6143588" lon="12.4714587"><ele>1240.0</ele><time>2026-04-23T16:18:54.954Z</time></trkpt><trkpt lat="46.6142962" lon="12.4715163"><ele>1238.5</ele><time>2026-04-23T16:18:55.955Z</time></trkpt><trkpt lat="46.6142361" lon="12.4715952"><ele>1237.0</ele><time>2026-04-23T16:18:56.955Z</time></trkpt><trkpt lat="46.6141768" lon="12.4716782"><ele>1235.5</ele><time>2026-04-23T16:18:57.954Z</time></trkpt><trkpt lat="46.6141052" lon="12.4717539"><ele>1234.0</ele><time>2026-04-23T16:18:58.955Z</time></trkpt><trkpt lat="46.6140305" lon="12.4718399"><ele>1234.0</ele><time>2026-04-23T16:18:59.955Z</time></trkpt><trkpt lat="46.613955" lon="12.4719304"><ele>1234.0</ele><time>2026-04-23T16:19:00.955Z</time></trkpt><trkpt lat="46.6138892" lon="12.4720332"><ele>1234.0</ele><time>2026-04-23T16:19:01.954Z</time></trkpt><trkpt lat="46.6138232" lon="12.4721318"><ele>1234.0</ele><time>2026-04-23T16:19:02.955Z</time></trkpt><trkpt lat="46.6137643" lon="12.4722237"><ele>1234.0</ele><time>2026-04-23T16:19:03.955Z</time></trkpt><trkpt lat="46.6136981" lon="12.4722931"><ele>1234.6000000000001</ele><time>2026-04-23T16:19:04.955Z</time></trkpt><trkpt lat="46.6136359" lon="12.4723391"><ele>1235.2</ele><time>2026-04-23T16:19:05.954Z</time></trkpt><trkpt lat="46.613549" lon="12.4724265"><ele>1235.8000000000002</ele><time>2026-04-23T16:19:07.955Z</time></trkpt><trkpt lat="46.6134806" lon="12.4725244"><ele>1236.4</ele><time>2026-04-23T16:19:09.955Z</time></trkpt><trkpt lat="46.6133685" lon="12.4726236"><ele>1237.0</ele><time>2026-04-23T16:19:11.956Z</time></trkpt><trkpt lat="46.6133074" lon="12.4726718"><ele>1237.0</ele><time>2026-04-23T16:19:12.955Z</time></trkpt><trkpt lat="46.6132543" lon="12.4727866"><ele>1237.0</ele><time>2026-04-23T16:19:13.954Z</time></trkpt><trkpt lat="46.6131956" lon="12.4728889"><ele>1237.0</ele><time>2026-04-23T16:19:14.956Z</time></trkpt><trkpt lat="46.6131299" lon="12.4729947"><ele>1237.0</ele><time>2026-04-23T16:19:15.955Z</time></trkpt><trkpt lat="46.6130532" lon="12.4730874"><ele>1237.0</ele><time>2026-04-23T16:19:16.955Z</time></trkpt><trkpt lat="46.6129807" lon="12.4731732"><ele>1237.4</ele><time>2026-04-23T16:19:17.955Z</time></trkpt><trkpt lat="46.6129097" lon="12.4732512"><ele>1237.8000000000002</ele><time>2026-04-23T16:19:18.955Z</time></trkpt><trkpt lat="46.6128527" lon="12.4733524"><ele>1238.2</ele><time>2026-04-23T16:19:19.955Z</time></trkpt><trkpt lat="46.6127725" lon="12.4734776"><ele>1238.6000000000001</ele><time>2026-04-23T16:19:20.956Z</time></trkpt><trkpt lat="46.6126912" lon="12.4736198"><ele>1239.0</ele><time>2026-04-23T16:19:21.955Z</time></trkpt><trkpt lat="46.6126086" lon="12.4737692"><ele>1236.0</ele><time>2026-04-23T16:19:22.954Z</time></trkpt><trkpt lat="46.6125196" lon="12.473961"><ele>1233.0</ele><time>2026-04-23T16:19:23.955Z</time></trkpt><trkpt lat="46.6124076" lon="12.4741199"><ele>1230.0</ele><time>2026-04-23T16:19:24.955Z</time></trkpt><trkpt lat="46.6122867" lon="12.4742585"><ele>1230.0</ele><time>2026-04-23T16:19:25.954Z</time></trkpt><trkpt lat="46.6121957" lon="12.4743673"><ele>1230.0</ele><time>2026-04-23T16:19:26.955Z</time></trkpt><trkpt lat="46.6120966" lon="12.4745008"><ele>1230.0</ele><time>2026-04-23T16:19:27.954Z</time></trkpt><trkpt lat="46.6120083" lon="12.4746536"><ele>1230.0</ele><time>2026-04-23T16:19:28.954Z</time></trkpt><trkpt lat="46.6119166" lon="12.4747988"><ele>1228.0</ele><time>2026-04-23T16:19:29.955Z</time></trkpt><trkpt lat="46.6117928" lon="12.4749257"><ele>1226.0</ele><time>2026-04-23T16:19:30.955Z</time></trkpt><trkpt lat="46.6116602" lon="12.4750542"><ele>1224.0</ele><time>2026-04-23T16:19:31.955Z</time></trkpt><trkpt lat="46.6115112" lon="12.4751259"><ele>1224.0</ele><time>2026-04-23T16:19:32.955Z</time></trkpt><trkpt lat="46.6113642" lon="12.4752024"><ele>1224.0</ele><time>2026-04-23T16:19:33.955Z</time></trkpt><trkpt lat="46.6112001" lon="12.4752896"><ele>1224.0</ele><time>2026-04-23T16:19:34.955Z</time></trkpt><trkpt lat="46.6110032" lon="12.4753775"><ele>1222.3333333333333</ele><time>2026-04-23T16:19:35.954Z</time></trkpt><trkpt lat="46.6108124" lon="12.4754664"><ele>1220.6666666666665</ele><time>2026-04-23T16:19:36.955Z</time></trkpt><trkpt lat="46.610637" lon="12.4755553"><ele>1219.0</ele><time>2026-04-23T16:19:37.954Z</time></trkpt><trkpt lat="46.6104682" lon="12.4756422"><ele>1220.3333333333333</ele><time>2026-04-23T16:19:38.955Z</time></trkpt><trkpt lat="46.610291" lon="12.4757397"><ele>1221.6666666666667</ele><time>2026-04-23T16:19:39.955Z</time></trkpt><trkpt lat="46.6101008" lon="12.4758384"><ele>1223.0</ele><time>2026-04-23T16:19:40.954Z</time></trkpt><trkpt lat="46.609915" lon="12.4759393"><ele>1223.0</ele><time>2026-04-23T16:19:41.954Z</time></trkpt><trkpt lat="46.6097044" lon="12.4760514"><ele>1223.0</ele><time>2026-04-23T16:19:42.954Z</time></trkpt><trkpt lat="46.6095017" lon="12.4761509"><ele>1223.0</ele><time>2026-04-23T16:19:43.956Z</time></trkpt><trkpt lat="46.6093126" lon="12.4762458"><ele>1221.3333333333335</ele><time>2026-04-23T16:19:44.955Z</time></trkpt><trkpt lat="46.6091374" lon="12.4763349"><ele>1219.6666666666667</ele><time>2026-04-23T16:19:45.955Z</time></trkpt><trkpt lat="46.6089775" lon="12.4763837"><ele>1218.0</ele><time>2026-04-23T16:19:46.955Z</time></trkpt><trkpt lat="46.6088266" lon="12.476405"><ele>1218.0</ele><time>2026-04-23T16:19:47.956Z</time></trkpt><trkpt lat="46.6084927" lon="12.4764359"><ele>1218.0</ele><time>2026-04-23T16:19:49.955Z</time></trkpt><trkpt lat="46.6082843" lon="12.4764525"><ele>1218.0</ele><time>2026-04-23T16:19:50.956Z</time></trkpt><trkpt lat="46.6080517" lon="12.4764813"><ele>1218.0</ele><time>2026-04-23T16:19:51.955Z</time></trkpt><trkpt lat="46.6078298" lon="12.47652"><ele>1215.6666666666667</ele><time>2026-04-23T16:19:52.955Z</time></trkpt><trkpt lat="46.607629" lon="12.4765742"><ele>1213.3333333333335</ele><time>2026-04-23T16:19:53.956Z</time></trkpt><trkpt lat="46.6074368" lon="12.4766291"><ele>1211.0</ele><time>2026-04-23T16:19:54.956Z</time></trkpt><trkpt lat="46.6072647" lon="12.4766639"><ele>1211.0</ele><time>2026-04-23T16:19:55.956Z</time></trkpt><trkpt lat="46.6071006" lon="12.476675"><ele>1211.0</ele><time>2026-04-23T16:19:56.956Z</time></trkpt><trkpt lat="46.6069305" lon="12.47667"><ele>1211.0</ele><time>2026-04-23T16:19:57.956Z</time></trkpt><trkpt lat="46.6067455" lon="12.4766785"><ele>1210.6666666666667</ele><time>2026-04-23T16:19:58.956Z</time></trkpt><trkpt lat="46.6065812" lon="12.4766945"><ele>1210.3333333333333</ele><time>2026-04-23T16:19:59.956Z</time></trkpt><trkpt lat="46.6064214" lon="12.4767148"><ele>1210.0</ele><time>2026-04-23T16:20:00.955Z</time></trkpt><trkpt lat="46.6062554" lon="12.4767382"><ele>1209.6666666666665</ele><time>2026-04-23T16:20:01.956Z</time></trkpt><trkpt lat="46.6060799" lon="12.4767618"><ele>1209.3333333333333</ele><time>2026-04-23T16:20:02.957Z</time></trkpt><trkpt lat="46.6059181" lon="12.4767721"><ele>1209.0</ele><time>2026-04-23T16:20:03.956Z</time></trkpt><trkpt lat="46.6057685" lon="12.4767955"><ele>1209.0</ele><time>2026-04-23T16:20:04.956Z</time></trkpt><trkpt lat="46.6054824" lon="12.4768726"><ele>1209.0</ele><time>2026-04-23T16:20:06.956Z</time></trkpt><trkpt lat="46.6053512" lon="12.476946"><ele>1209.0</ele><time>2026-04-23T16:20:07.957Z</time></trkpt><trkpt lat="46.6052106" lon="12.4770479"><ele>1207.0</ele><time>2026-04-23T16:20:08.957Z</time></trkpt><trkpt lat="46.6050678" lon="12.4771677"><ele>1205.0</ele><time>2026-04-23T16:20:09.956Z</time></trkpt><trkpt lat="46.6048965" lon="12.477308"><ele>1203.0</ele><time>2026-04-23T16:20:10.956Z</time></trkpt><trkpt lat="46.6047004" lon="12.4774402"><ele>1203.0</ele><time>2026-04-23T16:20:11.956Z</time></trkpt><trkpt lat="46.6045181" lon="12.4775514"><ele>1203.0</ele><time>2026-04-23T16:20:12.955Z</time></trkpt><trkpt lat="46.6043456" lon="12.4776458"><ele>1203.0</ele><time>2026-04-23T16:20:13.956Z</time></trkpt><trkpt lat="46.6041859" lon="12.4777236"><ele>1204.0</ele><time>2026-04-23T16:20:14.956Z</time></trkpt><trkpt lat="46.6040351" lon="12.477782"><ele>1205.0</ele><time>2026-04-23T16:20:15.956Z</time></trkpt><trkpt lat="46.6038896" lon="12.4778009"><ele>1206.0</ele><time>2026-04-23T16:20:16.956Z</time></trkpt><trkpt lat="46.6037441" lon="12.4777965"><ele>1207.0</ele><time>2026-04-23T16:20:17.956Z</time></trkpt><trkpt lat="46.6036071" lon="12.4777903"><ele>1206.6</ele><time>2026-04-23T16:20:18.956Z</time></trkpt><trkpt lat="46.6035017" lon="12.4777991"><ele>1206.2</ele><time>2026-04-23T16:20:19.956Z</time></trkpt><trkpt lat="46.6034037" lon="12.4778301"><ele>1205.8</ele><time>2026-04-23T16:20:20.955Z</time></trkpt><trkpt lat="46.6032968" lon="12.477877"><ele>1205.4</ele><time>2026-04-23T16:20:21.956Z</time></trkpt><trkpt lat="46.60319" lon="12.4779318"><ele>1205.0</ele><time>2026-04-23T16:20:22.956Z</time></trkpt><trkpt lat="46.6030789" lon="12.4779934"><ele>1205.0</ele><time>2026-04-23T16:20:23.955Z</time></trkpt><trkpt lat="46.6029608" lon="12.4780673"><ele>1205.0</ele><time>2026-04-23T16:20:24.955Z</time></trkpt><trkpt lat="46.6028404" lon="12.4781252"><ele>1205.0</ele><time>2026-04-23T16:20:25.957Z</time></trkpt><trkpt lat="46.6027068" lon="12.4781951"><ele>1205.0</ele><time>2026-04-23T16:20:26.956Z</time></trkpt><trkpt lat="46.6025809" lon="12.4782576"><ele>1207.3333333333335</ele><time>2026-04-23T16:20:27.956Z</time></trkpt><trkpt lat="46.6024633" lon="12.4783013"><ele>1209.6666666666667</ele><time>2026-04-23T16:20:28.957Z</time></trkpt><trkpt lat="46.6022727" lon="12.4784688"><ele>1212.0</ele><time>2026-04-23T16:20:30.956Z</time></trkpt><trkpt lat="46.60221" lon="12.4786076"><ele>1212.0</ele><time>2026-04-23T16:20:31.956Z</time></trkpt><trkpt lat="46.6021629" lon="12.478739"><ele>1212.0</ele><time>2026-04-23T16:20:32.957Z</time></trkpt><trkpt lat="46.6021083" lon="12.4788209"><ele>1212.0</ele><time>2026-04-23T16:20:33.955Z</time></trkpt><trkpt lat="46.6020358" lon="12.4788826"><ele>1212.0</ele><time>2026-04-23T16:20:34.957Z</time></trkpt><trkpt lat="46.6018981" lon="12.4790523"><ele>1212.0</ele><time>2026-04-23T16:20:36.956Z</time></trkpt><trkpt lat="46.6018486" lon="12.4791671"><ele>1213.1666666666667</ele><time>2026-04-23T16:20:38.956Z</time></trkpt><trkpt lat="46.6017918" lon="12.4792292"><ele>1214.3333333333333</ele><time>2026-04-23T16:20:46.957Z</time></trkpt><trkpt lat="46.6016857" lon="12.4791914"><ele>1215.5</ele><time>2026-04-23T16:20:48.955Z</time></trkpt><trkpt lat="46.6016182" lon="12.4792351"><ele>1216.6666666666665</ele><time>2026-04-23T16:20:50.956Z</time></trkpt><trkpt lat="46.6015777" lon="12.4793363"><ele>1217.8333333333333</ele><time>2026-04-23T16:20:52.955Z</time></trkpt><trkpt lat="46.6015363" lon="12.4794127"><ele>1219.0</ele><time>2026-04-23T16:20:54.956Z</time></trkpt><trkpt lat="46.6015934" lon="12.4794569"><ele>1219.0</ele><time>2026-04-23T16:21:09.956Z</time></trkpt><trkpt lat="46.6016218" lon="12.4793926"><ele>1219.0</ele><time>2026-04-23T16:31:07.957Z</time></trkpt><trkpt lat="46.6016214" lon="12.4792564"><ele>1219.0</ele><time>2026-04-23T16:31:11.957Z</time></trkpt><trkpt lat="46.6015921" lon="12.4791512"><ele>1219.0</ele><time>2026-04-23T16:31:13.957Z</time></trkpt><trkpt lat="46.6015" lon="12.4790377"><ele>1219.0</ele><time>2026-04-23T16:31:15.957Z</time></trkpt><trkpt lat="46.6014328" lon="12.4789791"><ele>1219.0</ele><time>2026-04-23T16:31:16.957Z</time></trkpt><trkpt lat="46.6013648" lon="12.4788653"><ele>1219.0</ele><time>2026-04-23T16:31:17.957Z</time></trkpt><trkpt lat="46.6013008" lon="12.4787786"><ele>1219.0</ele><time>2026-04-23T16:31:18.957Z</time></trkpt><trkpt lat="46.6012285" lon="12.4786981"><ele>1219.0</ele><time>2026-04-23T16:31:19.957Z</time></trkpt><trkpt lat="46.6011617" lon="12.4786293"><ele>1219.0</ele><time>2026-04-23T16:31:20.956Z</time></trkpt><trkpt lat="46.601098" lon="12.4785673"><ele>1219.0</ele><time>2026-04-23T16:31:21.957Z</time></trkpt><trkpt lat="46.6010339" lon="12.4785098"><ele>1219.0</ele><time>2026-04-23T16:31:22.956Z</time></trkpt><trkpt lat="46.6009776" lon="12.4784369"><ele>1220.142857142857</ele><time>2026-04-23T16:31:23.957Z</time></trkpt><trkpt lat="46.6009096" lon="12.478373"><ele>1221.2857142857142</ele><time>2026-04-23T16:31:24.956Z</time></trkpt><trkpt lat="46.6008449" lon="12.4783108"><ele>1222.4285714285716</ele><time>2026-04-23T16:31:25.957Z</time></trkpt><trkpt lat="46.6007819" lon="12.4782449"><ele>1223.5714285714284</ele><time>2026-04-23T16:31:26.957Z</time></trkpt><trkpt lat="46.6007206" lon="12.4781842"><ele>1224.7142857142856</ele><time>2026-04-23T16:31:27.957Z</time></trkpt><trkpt lat="46.6006608" lon="12.4781265"><ele>1225.857142857143</ele><time>2026-04-23T16:31:28.956Z</time></trkpt><trkpt lat="46.6006059" lon="12.4780805"><ele>1227.0</ele><time>2026-04-23T16:31:29.957Z</time></trkpt><trkpt lat="46.6005497" lon="12.4780309"><ele>1227.0</ele><time>2026-04-23T16:31:30.957Z</time></trkpt><trkpt lat="46.6004666" lon="12.4779475"><ele>1227.0</ele><time>2026-04-23T16:31:32.956Z</time></trkpt><trkpt lat="46.6004055" lon="12.4778759"><ele>1227.0</ele><time>2026-04-23T16:31:34.957Z</time></trkpt><trkpt lat="46.6003293" lon="12.4778008"><ele>1227.0</ele><time>2026-04-23T16:31:36.957Z</time></trkpt><trkpt lat="46.6002513" lon="12.4777201"><ele>1227.0</ele><time>2026-04-23T16:31:38.957Z</time></trkpt><trkpt lat="46.6001713" lon="12.4776098"><ele>1228.8</ele><time>2026-04-23T16:31:40.957Z</time></trkpt><trkpt lat="46.6000838" lon="12.4775028"><ele>1230.6</ele><time>2026-04-23T16:31:42.958Z</time></trkpt><trkpt lat="46.6000225" lon="12.4773791"><ele>1232.3999999999999</ele><time>2026-04-23T16:31:44.956Z</time></trkpt><trkpt lat="46.5999904" lon="12.4772454"><ele>1234.2</ele><time>2026-04-23T16:31:46.957Z</time></trkpt><trkpt lat="46.5999598" lon="12.4771274"><ele>1236.0</ele><time>2026-04-23T16:31:48.957Z</time></trkpt><trkpt lat="46.5999285" lon="12.4770131"><ele>1238.0</ele><time>2026-04-23T16:31:50.957Z</time></trkpt><trkpt lat="46.5998991" lon="12.4768835"><ele>1240.0</ele><time>2026-04-23T16:31:52.958Z</time></trkpt><trkpt lat="46.5998694" lon="12.4767487"><ele>1242.0</ele><time>2026-04-23T16:31:54.956Z</time></trkpt><trkpt lat="46.5998463" lon="12.4766095"><ele>1244.0</ele><time>2026-04-23T16:31:56.957Z</time></trkpt><trkpt lat="46.5998172" lon="12.4764767"><ele>1246.0</ele><time>2026-04-23T16:31:58.957Z</time></trkpt><trkpt lat="46.5997927" lon="12.4763365"><ele>1247.0</ele><time>2026-04-23T16:32:00.957Z</time></trkpt><trkpt lat="46.5997629" lon="12.476199"><ele>1248.0</ele><time>2026-04-23T16:32:02.956Z</time></trkpt><trkpt lat="46.5997525" lon="12.4760286"><ele>1249.0</ele><time>2026-04-23T16:32:04.957Z</time></trkpt><trkpt lat="46.5997785" lon="12.4758576"><ele>1250.0</ele><time>2026-04-23T16:32:06.957Z</time></trkpt><trkpt lat="46.5998084" lon="12.4757007"><ele>1251.0</ele><time>2026-04-23T16:32:08.957Z</time></trkpt><trkpt lat="46.5998444" lon="12.4755324"><ele>1252.0</ele><time>2026-04-23T16:32:10.957Z</time></trkpt><trkpt lat="46.5998806" lon="12.4753528"><ele>1253.0</ele><time>2026-04-23T16:32:12.957Z</time></trkpt><trkpt lat="46.5998957" lon="12.4752481"><ele>1254.0</ele><time>2026-04-23T16:32:13.956Z</time></trkpt><trkpt lat="46.5999288" lon="12.4751518"><ele>1255.0</ele><time>2026-04-23T16:32:14.956Z</time></trkpt><trkpt lat="46.5999599" lon="12.475047"><ele>1256.0</ele><time>2026-04-23T16:32:15.957Z</time></trkpt><trkpt lat="46.5999786" lon="12.474938"><ele>1257.0</ele><time>2026-04-23T16:32:16.956Z</time></trkpt><trkpt lat="46.5999864" lon="12.4748253"><ele>1257.0</ele><time>2026-04-23T16:32:17.957Z</time></trkpt><trkpt lat="46.5999868" lon="12.4747211"><ele>1257.0</ele><time>2026-04-23T16:32:18.957Z</time></trkpt><trkpt lat="46.5999757" lon="12.4746244"><ele>1257.0</ele><time>2026-04-23T16:32:19.957Z</time></trkpt><trkpt lat="46.5999447" lon="12.4744543"><ele>1257.0</ele><time>2026-04-23T16:32:21.957Z</time></trkpt><trkpt lat="46.5999311" lon="12.4743534"><ele>1257.0</ele><time>2026-04-23T16:32:22.958Z</time></trkpt><trkpt lat="46.5999153" lon="12.474257"><ele>1257.0</ele><time>2026-04-23T16:32:23.957Z</time></trkpt><trkpt lat="46.5999006" lon="12.4741617"><ele>1259.1666666666667</ele><time>2026-04-23T16:32:24.958Z</time></trkpt><trkpt lat="46.5998728" lon="12.474058"><ele>1261.3333333333333</ele><time>2026-04-23T16:32:25.957Z</time></trkpt><trkpt lat="46.5998465" lon="12.4739565"><ele>1263.5</ele><time>2026-04-23T16:32:26.957Z</time></trkpt><trkpt lat="46.5998101" lon="12.4738522"><ele>1265.6666666666665</ele><time>2026-04-23T16:32:27.957Z</time></trkpt><trkpt lat="46.5997733" lon="12.4737438"><ele>1267.8333333333333</ele><time>2026-04-23T16:32:28.957Z</time></trkpt><trkpt lat="46.5997362" lon="12.4736473"><ele>1270.0</ele><time>2026-04-23T16:32:29.957Z</time></trkpt><trkpt lat="46.5996843" lon="12.4735401"><ele>1271.5</ele><time>2026-04-23T16:32:30.957Z</time></trkpt><trkpt lat="46.5996383" lon="12.4734454"><ele>1273.0</ele><time>2026-04-23T16:32:31.957Z</time></trkpt><trkpt lat="46.5995896" lon="12.4733534"><ele>1274.5</ele><time>2026-04-23T16:32:32.957Z</time></trkpt><trkpt lat="46.5995398" lon="12.4732625"><ele>1276.0</ele><time>2026-04-23T16:32:33.957Z</time></trkpt><trkpt lat="46.5994946" lon="12.4731636"><ele>1277.5</ele><time>2026-04-23T16:32:34.958Z</time></trkpt><trkpt lat="46.5994486" lon="12.473071"><ele>1279.0</ele><time>2026-04-23T16:32:35.957Z</time></trkpt><trkpt lat="46.5994013" lon="12.4729774"><ele>1281.3333333333333</ele><time>2026-04-23T16:32:36.957Z</time></trkpt><trkpt lat="46.5993537" lon="12.4728815"><ele>1283.6666666666665</ele><time>2026-04-23T16:32:37.957Z</time></trkpt><trkpt lat="46.5993052" lon="12.4727832"><ele>1286.0</ele><time>2026-04-23T16:32:38.956Z</time></trkpt><trkpt lat="46.5992539" lon="12.4726821"><ele>1288.3333333333333</ele><time>2026-04-23T16:32:39.957Z</time></trkpt><trkpt lat="46.5992003" lon="12.4725735"><ele>1290.6666666666667</ele><time>2026-04-23T16:32:40.957Z</time></trkpt><trkpt lat="46.5991497" lon="12.4724677"><ele>1293.0</ele><time>2026-04-23T16:32:41.957Z</time></trkpt><trkpt lat="46.5991045" lon="12.4723635"><ele>1293.0</ele><time>2026-04-23T16:32:42.956Z</time></trkpt><trkpt lat="46.5990596" lon="12.4722546"><ele>1293.0</ele><time>2026-04-23T16:32:43.957Z</time></trkpt><trkpt lat="46.5990176" lon="12.4721434"><ele>1293.0</ele><time>2026-04-23T16:32:44.957Z</time></trkpt><trkpt lat="46.5989778" lon="12.4720327"><ele>1293.0</ele><time>2026-04-23T16:32:45.956Z</time></trkpt><trkpt lat="46.5989406" lon="12.4719218"><ele>1293.0</ele><time>2026-04-23T16:32:46.957Z</time></trkpt><trkpt lat="46.5989063" lon="12.4718052"><ele>1293.0</ele><time>2026-04-23T16:32:47.956Z</time></trkpt><trkpt lat="46.59887" lon="12.4716901"><ele>1296.3333333333333</ele><time>2026-04-23T16:32:48.957Z</time></trkpt><trkpt lat="46.5988377" lon="12.4715661"><ele>1299.6666666666667</ele><time>2026-04-23T16:32:49.958Z</time></trkpt><trkpt lat="46.5988086" lon="12.4714411"><ele>1303.0</ele><time>2026-04-23T16:32:50.958Z</time></trkpt><trkpt lat="46.5987864" lon="12.4713149"><ele>1306.3333333333335</ele><time>2026-04-23T16:32:51.959Z</time></trkpt><trkpt lat="46.5987753" lon="12.4711823"><ele>1309.6666666666667</ele><time>2026-04-23T16:32:52.958Z</time></trkpt><trkpt lat="46.5987655" lon="12.4710622"><ele>1313.0</ele><time>2026-04-23T16:32:53.958Z</time></trkpt><trkpt lat="46.5987602" lon="12.4709364"><ele>1315.6666666666667</ele><time>2026-04-23T16:32:54.957Z</time></trkpt><trkpt lat="46.5987526" lon="12.4708106"><ele>1318.3333333333335</ele><time>2026-04-23T16:32:55.958Z</time></trkpt><trkpt lat="46.598743" lon="12.4706864"><ele>1321.0</ele><time>2026-04-23T16:32:56.957Z</time></trkpt><trkpt lat="46.5987242" lon="12.470557"><ele>1323.6666666666667</ele><time>2026-04-23T16:32:57.958Z</time></trkpt><trkpt lat="46.5987031" lon="12.4704306"><ele>1326.3333333333333</ele><time>2026-04-23T16:32:58.958Z</time></trkpt><trkpt lat="46.5986697" lon="12.4703067"><ele>1329.0</ele><time>2026-04-23T16:32:59.958Z</time></trkpt><trkpt lat="46.5986365" lon="12.470193"><ele>1329.0</ele><time>2026-04-23T16:33:00.957Z</time></trkpt><trkpt lat="46.5986138" lon="12.4700759"><ele>1329.0</ele><time>2026-04-23T16:33:01.958Z</time></trkpt><trkpt lat="46.5986008" lon="12.4699468"><ele>1329.0</ele><time>2026-04-23T16:33:02.958Z</time></trkpt><trkpt lat="46.5985949" lon="12.4698102"><ele>1329.0</ele><time>2026-04-23T16:33:03.958Z</time></trkpt><trkpt lat="46.5985869" lon="12.4696787"><ele>1329.0</ele><time>2026-04-23T16:33:04.958Z</time></trkpt><trkpt lat="46.5985728" lon="12.4695259"><ele>1331.75</ele><time>2026-04-23T16:33:05.958Z</time></trkpt><trkpt lat="46.5985578" lon="12.4693782"><ele>1334.5</ele><time>2026-04-23T16:33:06.958Z</time></trkpt><trkpt lat="46.598544" lon="12.4692379"><ele>1337.25</ele><time>2026-04-23T16:33:07.958Z</time></trkpt><trkpt lat="46.5985281" lon="12.4689628"><ele>1340.0</ele><time>2026-04-23T16:33:09.958Z</time></trkpt><trkpt lat="46.5985321" lon="12.4688319"><ele>1344.0</ele><time>2026-04-23T16:33:10.958Z</time></trkpt><trkpt lat="46.5985444" lon="12.4686963"><ele>1348.0</ele><time>2026-04-23T16:33:11.958Z</time></trkpt><trkpt lat="46.5985568" lon="12.4685528"><ele>1352.0</ele><time>2026-04-23T16:33:12.958Z</time></trkpt><trkpt lat="46.5985683" lon="12.4684047"><ele>1356.0</ele><time>2026-04-23T16:33:13.958Z</time></trkpt><trkpt lat="46.5985836" lon="12.468266"><ele>1360.0</ele><time>2026-04-23T16:33:14.959Z</time></trkpt><trkpt lat="46.5985937" lon="12.4681608"><ele>1360.0</ele><time>2026-04-23T16:33:15.958Z</time></trkpt><trkpt lat="46.5985974" lon="12.4680406"><ele>1360.0</ele><time>2026-04-23T16:33:17.958Z</time></trkpt><trkpt lat="46.5986447" lon="12.4679499"><ele>1360.0</ele><time>2026-04-23T16:33:22.958Z</time></trkpt><trkpt lat="46.5987095" lon="12.4679546"><ele>1360.0</ele><time>2026-04-23T16:33:25.958Z</time></trkpt><trkpt lat="46.5987409" lon="12.4680447"><ele>1360.0</ele><time>2026-04-23T16:33:30.958Z</time></trkpt><trkpt lat="46.5987479" lon="12.4681404"><ele>1360.0</ele><time>2026-04-23T16:33:35.957Z</time></trkpt><trkpt lat="46.598756" lon="12.4682379"><ele>1360.0</ele><time>2026-04-23T16:33:58.958Z</time></trkpt><trkpt lat="46.5988332" lon="12.4682792"><ele>1362.2</ele><time>2026-04-23T16:34:01.958Z</time></trkpt><trkpt lat="46.5988904" lon="12.4682144"><ele>1364.4</ele><time>2026-04-23T16:34:03.958Z</time></trkpt><trkpt lat="46.5989201" lon="12.4680651"><ele>1366.6</ele><time>2026-04-23T16:34:05.958Z</time></trkpt><trkpt lat="46.5989461" lon="12.4678896"><ele>1368.8</ele><time>2026-04-23T16:34:07.959Z</time></trkpt><trkpt lat="46.5989608" lon="12.467783"><ele>1371.0</ele><time>2026-04-23T16:34:08.958Z</time></trkpt><trkpt lat="46.5989769" lon="12.4676719"><ele>1373.5</ele><time>2026-04-23T16:34:09.958Z</time></trkpt><trkpt lat="46.5989896" lon="12.467568"><ele>1376.0</ele><time>2026-04-23T16:34:10.958Z</time></trkpt><trkpt lat="46.5990022" lon="12.4674503"><ele>1378.5</ele><time>2026-04-23T16:34:11.958Z</time></trkpt><trkpt lat="46.5990173" lon="12.4673408"><ele>1381.0</ele><time>2026-04-23T16:34:12.958Z</time></trkpt><trkpt lat="46.5990327" lon="12.4672518"><ele>1383.5</ele><time>2026-04-23T16:34:13.958Z</time></trkpt><trkpt lat="46.5990414" lon="12.4671029"><ele>1386.0</ele><time>2026-04-23T16:34:14.958Z</time></trkpt><trkpt lat="46.5990524" lon="12.4669562"><ele>1388.0</ele><time>2026-04-23T16:34:15.958Z</time></trkpt><trkpt lat="46.5990548" lon="12.4667915"><ele>1390.0</ele><time>2026-04-23T16:34:16.959Z</time></trkpt><trkpt lat="46.5990834" lon="12.4664713"><ele>1392.0</ele><time>2026-04-23T16:34:18.958Z</time></trkpt><trkpt lat="46.5991163" lon="12.4662994"><ele>1394.8</ele><time>2026-04-23T16:34:19.958Z</time></trkpt><trkpt lat="46.5991434" lon="12.4661405"><ele>1397.6</ele><time>2026-04-23T16:34:20.959Z</time></trkpt><trkpt lat="46.5991622" lon="12.4659854"><ele>1400.3999999999999</ele><time>2026-04-23T16:34:21.958Z</time></trkpt><trkpt lat="46.5991809" lon="12.4658203"><ele>1403.1999999999998</ele><time>2026-04-23T16:34:22.958Z</time></trkpt><trkpt lat="46.5992238" lon="12.465687"><ele>1406.0</ele><time>2026-04-23T16:34:23.957Z</time></trkpt><trkpt lat="46.5992571" lon="12.4655521"><ele>1406.8</ele><time>2026-04-23T16:34:24.958Z</time></trkpt><trkpt lat="46.5992831" lon="12.4654234"><ele>1407.6</ele><time>2026-04-23T16:34:25.958Z</time></trkpt><trkpt lat="46.5993129" lon="12.465273"><ele>1408.4</ele><time>2026-04-23T16:34:26.957Z</time></trkpt><trkpt lat="46.5993367" lon="12.4651146"><ele>1409.2</ele><time>2026-04-23T16:34:27.958Z</time></trkpt><trkpt lat="46.5993665" lon="12.4649658"><ele>1410.0</ele><time>2026-04-23T16:34:28.959Z</time></trkpt><trkpt lat="46.5994029" lon="12.4648422"><ele>1410.0</ele><time>2026-04-23T16:34:29.958Z</time></trkpt><trkpt lat="46.5994178" lon="12.4647169"><ele>1410.0</ele><time>2026-04-23T16:34:30.958Z</time></trkpt><trkpt lat="46.5994204" lon="12.4645948"><ele>1410.0</ele><time>2026-04-23T16:34:31.958Z</time></trkpt><trkpt lat="46.5994122" lon="12.4644808"><ele>1410.0</ele><time>2026-04-23T16:34:32.958Z</time></trkpt><trkpt lat="46.5993849" lon="12.4643372"><ele>1410.0</ele><time>2026-04-23T16:34:33.958Z</time></trkpt><trkpt lat="46.5993463" lon="12.464211"><ele>1410.0</ele><time>2026-04-23T16:34:34.958Z</time></trkpt><trkpt lat="46.5993103" lon="12.4640573"><ele>1413.4</ele><time>2026-04-23T16:34:35.958Z</time></trkpt><trkpt lat="46.5992777" lon="12.4639041"><ele>1416.8</ele><time>2026-04-23T16:34:36.958Z</time></trkpt><trkpt lat="46.5992516" lon="12.4637597"><ele>1420.1999999999998</ele><time>2026-04-23T16:34:37.958Z</time></trkpt><trkpt lat="46.5992261" lon="12.4636192"><ele>1423.6</ele><time>2026-04-23T16:34:38.957Z</time></trkpt><trkpt lat="46.599224" lon="12.4634851"><ele>1427.0</ele><time>2026-04-23T16:34:39.958Z</time></trkpt><trkpt lat="46.599219" lon="12.4633661"><ele>1430.0</ele><time>2026-04-23T16:34:40.958Z</time></trkpt><trkpt lat="46.5991695" lon="12.4632661"><ele>1433.0</ele><time>2026-04-23T16:34:42.957Z</time></trkpt><trkpt lat="46.5991039" lon="12.4632333"><ele>1436.0</ele><time>2026-04-23T16:34:44.958Z</time></trkpt><trkpt lat="46.5989854" lon="12.4633383"><ele>1439.0</ele><time>2026-04-23T16:34:46.958Z</time></trkpt><trkpt lat="46.5989168" lon="12.4634484"><ele>1442.0</ele><time>2026-04-23T16:34:47.957Z</time></trkpt><trkpt lat="46.5988271" lon="12.4636064"><ele>1442.0</ele><time>2026-04-23T16:34:48.957Z</time></trkpt><trkpt lat="46.5987458" lon="12.463746"><ele>1442.0</ele><time>2026-04-23T16:34:49.958Z</time></trkpt><trkpt lat="46.5986515" lon="12.4638463"><ele>1442.0</ele><time>2026-04-23T16:34:50.957Z</time></trkpt><trkpt lat="46.5985719" lon="12.4639337"><ele>1442.0</ele><time>2026-04-23T16:34:51.957Z</time></trkpt><trkpt lat="46.598493" lon="12.4640062"><ele>1442.0</ele><time>2026-04-23T16:34:52.958Z</time></trkpt><trkpt lat="46.5984173" lon="12.4640881"><ele>1445.0</ele><time>2026-04-23T16:34:53.958Z</time></trkpt><trkpt lat="46.5983134" lon="12.4641705"><ele>1448.0</ele><time>2026-04-23T16:34:54.957Z</time></trkpt><trkpt lat="46.598223" lon="12.4643078"><ele>1451.0</ele><time>2026-04-23T16:34:55.957Z</time></trkpt><trkpt lat="46.5981557" lon="12.4644454"><ele>1454.0</ele><time>2026-04-23T16:34:56.959Z</time></trkpt><trkpt lat="46.5980786" lon="12.4645979"><ele>1454.0</ele><time>2026-04-23T16:34:57.958Z</time></trkpt><trkpt lat="46.5980391" lon="12.4646819"><ele>1454.0</ele><time>2026-04-23T16:34:58.957Z</time></trkpt><trkpt lat="46.5979481" lon="12.4647094"><ele>1454.0</ele><time>2026-04-23T16:35:00.958Z</time></trkpt><trkpt lat="46.5978656" lon="12.4645765"><ele>1454.0</ele><time>2026-04-23T16:35:02.958Z</time></trkpt><trkpt lat="46.5978333" lon="12.4644671"><ele>1454.0</ele><time>2026-04-23T16:35:03.958Z</time></trkpt><trkpt lat="46.5977954" lon="12.4643417"><ele>1457.2</ele><time>2026-04-23T16:35:04.958Z</time></trkpt><trkpt lat="46.5977419" lon="12.4642337"><ele>1460.4</ele><time>2026-04-23T16:35:05.957Z</time></trkpt><trkpt lat="46.5976693" lon="12.4641669"><ele>1463.6</ele><time>2026-04-23T16:35:06.958Z</time></trkpt><trkpt lat="46.5975973" lon="12.4641094"><ele>1466.8</ele><time>2026-04-23T16:35:07.958Z</time></trkpt><trkpt lat="46.5974966" lon="12.4640778"><ele>1470.0</ele><time>2026-04-23T16:35:08.957Z</time></trkpt><trkpt lat="46.5974086" lon="12.4640372"><ele>1470.0</ele><time>2026-04-23T16:35:09.959Z</time></trkpt><trkpt lat="46.5973078" lon="12.4640228"><ele>1470.0</ele><time>2026-04-23T16:35:10.958Z</time></trkpt><trkpt lat="46.5972221" lon="12.4639892"><ele>1470.0</ele><time>2026-04-23T16:35:11.958Z</time></trkpt><trkpt lat="46.597116" lon="12.4639163"><ele>1470.0</ele><time>2026-04-23T16:35:12.957Z</time></trkpt><trkpt lat="46.5970071" lon="12.463862"><ele>1470.0</ele><time>2026-04-23T16:35:13.958Z</time></trkpt><trkpt lat="46.5968957" lon="12.4637748"><ele>1471.2</ele><time>2026-04-23T16:35:14.958Z</time></trkpt><trkpt lat="46.596791" lon="12.4637341"><ele>1472.4</ele><time>2026-04-23T16:35:15.958Z</time></trkpt><trkpt lat="46.5966904" lon="12.4638128"><ele>1473.6</ele><time>2026-04-23T16:35:16.958Z</time></trkpt><trkpt lat="46.5965953" lon="12.4638678"><ele>1474.8</ele><time>2026-04-23T16:35:17.959Z</time></trkpt><trkpt lat="46.5964978" lon="12.4639386"><ele>1476.0</ele><time>2026-04-23T16:35:18.957Z</time></trkpt><trkpt lat="46.5963843" lon="12.4640578"><ele>1476.0</ele><time>2026-04-23T16:35:19.958Z</time></trkpt><trkpt lat="46.596255" lon="12.4641697"><ele>1476.0</ele><time>2026-04-23T16:35:20.957Z</time></trkpt><trkpt lat="46.596097" lon="12.4643088"><ele>1476.0</ele><time>2026-04-23T16:35:21.958Z</time></trkpt><trkpt lat="46.595954" lon="12.4644646"><ele>1475.0</ele><time>2026-04-23T16:35:22.958Z</time></trkpt><trkpt lat="46.5958351" lon="12.4645763"><ele>1474.0</ele><time>2026-04-23T16:35:23.959Z</time></trkpt><trkpt lat="46.5957072" lon="12.4646989"><ele>1473.0</ele><time>2026-04-23T16:35:24.958Z</time></trkpt><trkpt lat="46.5956298" lon="12.464747"><ele>1472.0</ele><time>2026-04-23T16:35:25.958Z</time></trkpt><trkpt lat="46.5955616" lon="12.4646987"><ele>1475.6</ele><time>2026-04-23T16:35:26.958Z</time></trkpt><trkpt lat="46.595515" lon="12.4646065"><ele>1479.1999999999998</ele><time>2026-04-23T16:35:27.959Z</time></trkpt><trkpt lat="46.5954503" lon="12.4645059"><ele>1482.8</ele><time>2026-04-23T16:35:28.957Z</time></trkpt><trkpt lat="46.5953917" lon="12.4643667"><ele>1486.4</ele><time>2026-04-23T16:35:29.958Z</time></trkpt><trkpt lat="46.5953277" lon="12.4641941"><ele>1490.0</ele><time>2026-04-23T16:35:30.958Z</time></trkpt><trkpt lat="46.5952587" lon="12.464005"><ele>1490.0</ele><time>2026-04-23T16:35:31.958Z</time></trkpt><trkpt lat="46.5951914" lon="12.4638195"><ele>1490.0</ele><time>2026-04-23T16:35:32.958Z</time></trkpt><trkpt lat="46.5951509" lon="12.4636371"><ele>1490.0</ele><time>2026-04-23T16:35:33.958Z</time></trkpt><trkpt lat="46.5951025" lon="12.4634638"><ele>1490.0</ele><time>2026-04-23T16:35:34.958Z</time></trkpt><trkpt lat="46.5950677" lon="12.4633298"><ele>1493.6666666666667</ele><time>2026-04-23T16:35:35.957Z</time></trkpt><trkpt lat="46.5950237" lon="12.4632501"><ele>1497.3333333333335</ele><time>2026-04-23T16:35:36.959Z</time></trkpt><trkpt lat="46.5949861" lon="12.4631639"><ele>1501.0</ele><time>2026-04-23T16:35:37.957Z</time></trkpt><trkpt lat="46.5949126" lon="12.4631586"><ele>1504.6666666666667</ele><time>2026-04-23T16:35:38.958Z</time></trkpt><trkpt lat="46.5948428" lon="12.4631351"><ele>1508.3333333333333</ele><time>2026-04-23T16:35:39.958Z</time></trkpt><trkpt lat="46.5947495" lon="12.4631999"><ele>1512.0</ele><time>2026-04-23T16:35:40.958Z</time></trkpt><trkpt lat="46.5946656" lon="12.4632973"><ele>1512.0</ele><time>2026-04-23T16:35:41.958Z</time></trkpt><trkpt lat="46.5945947" lon="12.4633667"><ele>1512.0</ele><time>2026-04-23T16:35:42.958Z</time></trkpt><trkpt lat="46.5945319" lon="12.463383"><ele>1512.0</ele><time>2026-04-23T16:35:43.959Z</time></trkpt><trkpt lat="46.5944527" lon="12.4633063"><ele>1512.0</ele><time>2026-04-23T16:35:45.957Z</time></trkpt><trkpt lat="46.5944419" lon="12.4631973"><ele>1512.0</ele><time>2026-04-23T16:35:46.958Z</time></trkpt><trkpt lat="46.5944493" lon="12.4630793"><ele>1512.0</ele><time>2026-04-23T16:35:47.958Z</time></trkpt><trkpt lat="46.5944584" lon="12.4629749"><ele>1511.8</ele><time>2026-04-23T16:35:48.958Z</time></trkpt><trkpt lat="46.5944467" lon="12.4628067"><ele>1511.6</ele><time>2026-04-23T16:35:50.959Z</time></trkpt><trkpt lat="46.5943637" lon="12.4627898"><ele>1511.3999999999999</ele><time>2026-04-23T16:35:52.957Z</time></trkpt><trkpt lat="46.5942456" lon="12.4628719"><ele>1511.1999999999998</ele><time>2026-04-23T16:35:54.958Z</time></trkpt><trkpt lat="46.5941602" lon="12.4629468"><ele>1511.0</ele><time>2026-04-23T16:35:55.958Z</time></trkpt><trkpt lat="46.5940757" lon="12.4630193"><ele>1511.0</ele><time>2026-04-23T16:35:56.958Z</time></trkpt><trkpt lat="46.5939942" lon="12.4631072"><ele>1511.0</ele><time>2026-04-23T16:35:57.958Z</time></trkpt><trkpt lat="46.5939258" lon="12.4632094"><ele>1511.0</ele><time>2026-04-23T16:35:58.957Z</time></trkpt><trkpt lat="46.5938688" lon="12.4632978"><ele>1511.0</ele><time>2026-04-23T16:35:59.958Z</time></trkpt><trkpt lat="46.593809" lon="12.4633341"><ele>1511.0</ele><time>2026-04-23T16:36:00.959Z</time></trkpt><trkpt lat="46.5937386" lon="12.4633302"><ele>1511.0</ele><time>2026-04-23T16:36:01.958Z</time></trkpt><trkpt lat="46.5936566" lon="12.4632792"><ele>1512.1666666666667</ele><time>2026-04-23T16:36:02.958Z</time></trkpt><trkpt lat="46.5935762" lon="12.4632396"><ele>1513.3333333333335</ele><time>2026-04-23T16:36:03.957Z</time></trkpt><trkpt lat="46.5934989" lon="12.4632217"><ele>1514.5</ele><time>2026-04-23T16:36:04.958Z</time></trkpt><trkpt lat="46.5934229" lon="12.4632617"><ele>1515.6666666666667</ele><time>2026-04-23T16:36:05.958Z</time></trkpt><trkpt lat="46.5933648" lon="12.4633024"><ele>1516.8333333333333</ele><time>2026-04-23T16:36:06.957Z</time></trkpt><trkpt lat="46.5933421" lon="12.4634971"><ele>1518.0</ele><time>2026-04-23T16:36:08.958Z</time></trkpt><trkpt lat="46.5933334" lon="12.4636527"><ele>1516.4</ele><time>2026-04-23T16:36:09.959Z</time></trkpt><trkpt lat="46.5932933" lon="12.4637853"><ele>1514.8000000000002</ele><time>2026-04-23T16:36:10.958Z</time></trkpt><trkpt lat="46.5932483" lon="12.4638955"><ele>1513.2</ele><time>2026-04-23T16:36:11.958Z</time></trkpt><trkpt lat="46.5931854" lon="12.4639986"><ele>1511.6</ele><time>2026-04-23T16:36:12.957Z</time></trkpt><trkpt lat="46.5931289" lon="12.4641317"><ele>1510.0</ele><time>2026-04-23T16:36:13.958Z</time></trkpt><trkpt lat="46.5930626" lon="12.4642596"><ele>1510.0</ele><time>2026-04-23T16:36:14.958Z</time></trkpt><trkpt lat="46.5930087" lon="12.4643879"><ele>1510.0</ele><time>2026-04-23T16:36:15.958Z</time></trkpt><trkpt lat="46.5929664" lon="12.4645021"><ele>1510.0</ele><time>2026-04-23T16:36:16.958Z</time></trkpt><trkpt lat="46.59294" lon="12.4646499"><ele>1510.0</ele><time>2026-04-23T16:36:17.957Z</time></trkpt><trkpt lat="46.5928948" lon="12.4648017"><ele>1510.0</ele><time>2026-04-23T16:36:18.958Z</time></trkpt><trkpt lat="46.5928484" lon="12.4649387"><ele>1511.4</ele><time>2026-04-23T16:36:19.958Z</time></trkpt><trkpt lat="46.5927965" lon="12.4650624"><ele>1512.8</ele><time>2026-04-23T16:36:20.957Z</time></trkpt><trkpt lat="46.59274" lon="12.4651685"><ele>1514.1999999999998</ele><time>2026-04-23T16:36:21.958Z</time></trkpt><trkpt lat="46.5926751" lon="12.4652495"><ele>1515.6</ele><time>2026-04-23T16:36:22.958Z</time></trkpt><trkpt lat="46.592587" lon="12.4653054"><ele>1517.0</ele><time>2026-04-23T16:36:23.958Z</time></trkpt><trkpt lat="46.5924983" lon="12.465373"><ele>1515.8333333333335</ele><time>2026-04-23T16:36:24.958Z</time></trkpt><trkpt lat="46.5924368" lon="12.4654621"><ele>1514.6666666666667</ele><time>2026-04-23T16:36:25.958Z</time></trkpt><trkpt lat="46.5923862" lon="12.4655674"><ele>1513.5</ele><time>2026-04-23T16:36:26.958Z</time></trkpt><trkpt lat="46.5923614" lon="12.4656615"><ele>1512.3333333333333</ele><time>2026-04-23T16:36:27.957Z</time></trkpt><trkpt lat="46.592347" lon="12.4657674"><ele>1511.1666666666665</ele><time>2026-04-23T16:36:28.958Z</time></trkpt><trkpt lat="46.5924006" lon="12.4658723"><ele>1510.0</ele><time>2026-04-23T16:36:29.958Z</time></trkpt><trkpt lat="46.5924582" lon="12.4659835"><ele>1510.0</ele><time>2026-04-23T16:36:30.958Z</time></trkpt><trkpt lat="46.5925332" lon="12.4661131"><ele>1510.0</ele><time>2026-04-23T16:36:31.958Z</time></trkpt><trkpt lat="46.5926124" lon="12.4662442"><ele>1510.0</ele><time>2026-04-23T16:36:32.958Z</time></trkpt><trkpt lat="46.5926662" lon="12.4663521"><ele>1510.0</ele><time>2026-04-23T16:36:33.959Z</time></trkpt><trkpt lat="46.5927064" lon="12.4664287"><ele>1510.0</ele><time>2026-04-23T16:36:34.958Z</time></trkpt><trkpt lat="46.5927562" lon="12.4665244"><ele>1511.5</ele><time>2026-04-23T16:36:36.957Z</time></trkpt><trkpt lat="46.5927354" lon="12.466613"><ele>1513.0</ele><time>2026-04-23T16:37:34.958Z</time></trkpt><trkpt lat="46.5926706" lon="12.4666356"><ele>1514.5</ele><time>2026-04-23T16:37:36.957Z</time></trkpt><trkpt lat="46.5926038" lon="12.4666736"><ele>1516.0</ele><time>2026-04-23T16:37:37.957Z</time></trkpt><trkpt lat="46.5924909" lon="12.4667244"><ele>1517.5</ele><time>2026-04-23T16:37:39.959Z</time></trkpt><trkpt lat="46.592434" lon="12.4667701"><ele>1519.0</ele><time>2026-04-23T16:37:40.957Z</time></trkpt><trkpt lat="46.592381" lon="12.4668578"><ele>1519.0</ele><time>2026-04-23T16:37:41.957Z</time></trkpt><trkpt lat="46.592302" lon="12.4669561"><ele>1519.0</ele><time>2026-04-23T16:37:43.958Z</time></trkpt><trkpt lat="46.5922307" lon="12.4670186"><ele>1519.0</ele><time>2026-04-23T16:37:45.958Z</time></trkpt><trkpt lat="46.5921783" lon="12.4671091"><ele>1519.0</ele><time>2026-04-23T16:37:46.958Z</time></trkpt><trkpt lat="46.5921236" lon="12.4671767"><ele>1519.0</ele><time>2026-04-23T16:37:48.959Z</time></trkpt><trkpt lat="46.5920624" lon="12.4672519"><ele>1519.0</ele><time>2026-04-23T16:38:03.959Z</time></trkpt><trkpt lat="46.5920049" lon="12.4672132"><ele>1524.0</ele><time>2026-04-23T16:38:06.959Z</time></trkpt><trkpt lat="46.5918851" lon="12.4671207"><ele>1529.0</ele><time>2026-04-23T16:38:08.957Z</time></trkpt><trkpt lat="46.5918181" lon="12.467054"><ele>1534.0</ele><time>2026-04-23T16:38:09.957Z</time></trkpt><trkpt lat="46.5917401" lon="12.4670235"><ele>1539.0</ele><time>2026-04-23T16:38:10.959Z</time></trkpt><trkpt lat="46.5916728" lon="12.4669798"><ele>1544.0</ele><time>2026-04-23T16:38:11.958Z</time></trkpt><trkpt lat="46.5915795" lon="12.4669408"><ele>1544.1666666666665</ele><time>2026-04-23T16:38:12.958Z</time></trkpt><trkpt lat="46.5915104" lon="12.4668899"><ele>1544.3333333333333</ele><time>2026-04-23T16:38:13.958Z</time></trkpt><trkpt lat="46.5914315" lon="12.4669036"><ele>1544.5</ele><time>2026-04-23T16:38:14.958Z</time></trkpt><trkpt lat="46.5913314" lon="12.4669043"><ele>1544.6666666666665</ele><time>2026-04-23T16:38:16.957Z</time></trkpt><trkpt lat="46.5912692" lon="12.4668421"><ele>1544.8333333333333</ele><time>2026-04-23T16:38:18.958Z</time></trkpt><trkpt lat="46.5912345" lon="12.4667245"><ele>1545.0</ele><time>2026-04-23T16:38:20.958Z</time></trkpt><trkpt lat="46.591208" lon="12.4666295"><ele>1547.1666666666667</ele><time>2026-04-23T16:38:21.958Z</time></trkpt><trkpt lat="46.5911732" lon="12.4665321"><ele>1549.3333333333335</ele><time>2026-04-23T16:38:22.958Z</time></trkpt><trkpt lat="46.5911113" lon="12.4664298"><ele>1551.5</ele><time>2026-04-23T16:38:23.959Z</time></trkpt><trkpt lat="46.5910654" lon="12.4663276"><ele>1553.6666666666667</ele><time>2026-04-23T16:38:24.958Z</time></trkpt><trkpt lat="46.591006" lon="12.4662322"><ele>1555.8333333333335</ele><time>2026-04-23T16:38:25.958Z</time></trkpt><trkpt lat="46.5909387" lon="12.4661312"><ele>1558.0</ele><time>2026-04-23T16:38:26.957Z</time></trkpt><trkpt lat="46.5908686" lon="12.4660154"><ele>1558.75</ele><time>2026-04-23T16:38:27.957Z</time></trkpt><trkpt lat="46.5907883" lon="12.4658898"><ele>1559.5</ele><time>2026-04-23T16:38:28.958Z</time></trkpt><trkpt lat="46.5906967" lon="12.465773"><ele>1560.25</ele><time>2026-04-23T16:38:29.957Z</time></trkpt><trkpt lat="46.5906235" lon="12.4656491"><ele>1561.0</ele><time>2026-04-23T16:38:30.958Z</time></trkpt><trkpt lat="46.5905468" lon="12.4655093"><ele>1561.3333333333335</ele><time>2026-04-23T16:38:31.958Z</time></trkpt><trkpt lat="46.5904862" lon="12.4653333"><ele>1561.6666666666665</ele><time>2026-04-23T16:38:32.958Z</time></trkpt><trkpt lat="46.5903982" lon="12.4650163"><ele>1562.0</ele><time>2026-04-23T16:38:34.958Z</time></trkpt><trkpt lat="46.5903591" lon="12.4648683"><ele>1563.5</ele><time>2026-04-23T16:38:35.957Z</time></trkpt><trkpt lat="46.5903349" lon="12.4647328"><ele>1565.0</ele><time>2026-04-23T16:38:36.958Z</time></trkpt><trkpt lat="46.5903173" lon="12.4645729"><ele>1566.5</ele><time>2026-04-23T16:38:37.958Z</time></trkpt><trkpt lat="46.590308" lon="12.4644054"><ele>1568.0</ele><time>2026-04-23T16:38:38.958Z</time></trkpt><trkpt lat="46.5903335" lon="12.4642168"><ele>1567.5</ele><time>2026-04-23T16:38:39.957Z</time></trkpt><trkpt lat="46.5903675" lon="12.4640523"><ele>1567.0</ele><time>2026-04-23T16:38:40.957Z</time></trkpt><trkpt lat="46.5904089" lon="12.4638611"><ele>1566.5</ele><time>2026-04-23T16:38:41.958Z</time></trkpt><trkpt lat="46.5904393" lon="12.4636751"><ele>1566.0</ele><time>2026-04-23T16:38:42.959Z</time></trkpt><trkpt lat="46.5904629" lon="12.4635124"><ele>1566.0</ele><time>2026-04-23T16:38:43.958Z</time></trkpt><trkpt lat="46.5905025" lon="12.4633633"><ele>1566.0</ele><time>2026-04-23T16:38:44.958Z</time></trkpt><trkpt lat="46.590553" lon="12.4632298"><ele>1566.0</ele><time>2026-04-23T16:38:45.958Z</time></trkpt><trkpt lat="46.5906264" lon="12.4631017"><ele>1566.0</ele><time>2026-04-23T16:38:46.958Z</time></trkpt><trkpt lat="46.5907093" lon="12.4629774"><ele>1566.0</ele><time>2026-04-23T16:38:47.958Z</time></trkpt><trkpt lat="46.5907842" lon="12.4628602"><ele>1566.5</ele><time>2026-04-23T16:38:48.958Z</time></trkpt><trkpt lat="46.5908672" lon="12.4627443"><ele>1567.0</ele><time>2026-04-23T16:38:49.958Z</time></trkpt><trkpt lat="46.5909645" lon="12.4626125"><ele>1567.5</ele><time>2026-04-23T16:38:50.957Z</time></trkpt><trkpt lat="46.5910766" lon="12.4625397"><ele>1568.0</ele><time>2026-04-23T16:38:51.957Z</time></trkpt><trkpt lat="46.5911723" lon="12.4624473"><ele>1569.0</ele><time>2026-04-23T16:38:52.959Z</time></trkpt><trkpt lat="46.5912763" lon="12.4623535"><ele>1570.0</ele><time>2026-04-23T16:38:53.957Z</time></trkpt><trkpt lat="46.5913838" lon="12.462284"><ele>1571.0</ele><time>2026-04-23T16:38:54.958Z</time></trkpt><trkpt lat="46.5914932" lon="12.4621976"><ele>1572.0</ele><time>2026-04-23T16:38:55.957Z</time></trkpt><trkpt lat="46.5915558" lon="12.462089"><ele>1572.0</ele><time>2026-04-23T16:38:56.958Z</time></trkpt><trkpt lat="46.591672" lon="12.4619914"><ele>1572.0</ele><time>2026-04-23T16:38:57.958Z</time></trkpt><trkpt lat="46.5917787" lon="12.4618792"><ele>1572.0</ele><time>2026-04-23T16:38:58.958Z</time></trkpt><trkpt lat="46.5918745" lon="12.4617565"><ele>1572.0</ele><time>2026-04-23T16:38:59.958Z</time></trkpt><trkpt lat="46.591968" lon="12.4616359"><ele>1570.75</ele><time>2026-04-23T16:39:00.958Z</time></trkpt><trkpt lat="46.592035" lon="12.4615117"><ele>1569.5</ele><time>2026-04-23T16:39:01.957Z</time></trkpt><trkpt lat="46.5921108" lon="12.4613974"><ele>1568.25</ele><time>2026-04-23T16:39:02.958Z</time></trkpt><trkpt lat="46.5922272" lon="12.4613003"><ele>1567.0</ele><time>2026-04-23T16:39:03.957Z</time></trkpt><trkpt lat="46.5923505" lon="12.4612195"><ele>1569.1999999999998</ele><time>2026-04-23T16:39:04.958Z</time></trkpt><trkpt lat="46.5924628" lon="12.4611525"><ele>1571.4</ele><time>2026-04-23T16:39:05.957Z</time></trkpt><trkpt lat="46.592518" lon="12.461091"><ele>1573.6</ele><time>2026-04-23T16:39:06.958Z</time></trkpt><trkpt lat="46.5925998" lon="12.4610055"><ele>1575.8000000000002</ele><time>2026-04-23T16:39:07.957Z</time></trkpt><trkpt lat="46.5926938" lon="12.460885"><ele>1578.0</ele><time>2026-04-23T16:39:08.957Z</time></trkpt><trkpt lat="46.5927831" lon="12.4607759"><ele>1578.25</ele><time>2026-04-23T16:39:09.958Z</time></trkpt><trkpt lat="46.592889" lon="12.4606558"><ele>1578.5</ele><time>2026-04-23T16:39:10.958Z</time></trkpt><trkpt lat="46.5929845" lon="12.4605157"><ele>1578.75</ele><time>2026-04-23T16:39:11.958Z</time></trkpt><trkpt lat="46.5930787" lon="12.4603932"><ele>1579.0</ele><time>2026-04-23T16:39:12.958Z</time></trkpt><trkpt lat="46.5931662" lon="12.4602484"><ele>1581.25</ele><time>2026-04-23T16:39:13.957Z</time></trkpt><trkpt lat="46.5932193" lon="12.4600977"><ele>1583.5</ele><time>2026-04-23T16:39:14.958Z</time></trkpt><trkpt lat="46.5932953" lon="12.4599645"><ele>1585.75</ele><time>2026-04-23T16:39:15.959Z</time></trkpt><trkpt lat="46.5933393" lon="12.4598224"><ele>1588.0</ele><time>2026-04-23T16:39:16.958Z</time></trkpt><trkpt lat="46.5934073" lon="12.4596815"><ele>1590.2</ele><time>2026-04-23T16:39:17.958Z</time></trkpt><trkpt lat="46.5934896" lon="12.459549"><ele>1592.4</ele><time>2026-04-23T16:39:18.958Z</time></trkpt><trkpt lat="46.5935756" lon="12.4594584"><ele>1594.6000000000001</ele><time>2026-04-23T16:39:19.958Z</time></trkpt><trkpt lat="46.5936631" lon="12.4593953"><ele>1596.8000000000002</ele><time>2026-04-23T16:39:20.958Z</time></trkpt><trkpt lat="46.5937589" lon="12.4593823"><ele>1599.0</ele><time>2026-04-23T16:39:21.958Z</time></trkpt><trkpt lat="46.5938523" lon="12.4593972"><ele>1599.2</ele><time>2026-04-23T16:39:22.957Z</time></trkpt><trkpt lat="46.5939556" lon="12.4594146"><ele>1599.4</ele><time>2026-04-23T16:39:23.958Z</time></trkpt><trkpt lat="46.5940542" lon="12.4594486"><ele>1599.6</ele><time>2026-04-23T16:39:24.958Z</time></trkpt><trkpt lat="46.5941331" lon="12.4595117"><ele>1599.8</ele><time>2026-04-23T16:39:25.957Z</time></trkpt><trkpt lat="46.5942281" lon="12.4595454"><ele>1600.0</ele><time>2026-04-23T16:39:26.957Z</time></trkpt><trkpt lat="46.5943332" lon="12.459547"><ele>1600.0</ele><time>2026-04-23T16:39:27.959Z</time></trkpt><trkpt lat="46.5944397" lon="12.4595105"><ele>1600.0</ele><time>2026-04-23T16:39:28.958Z</time></trkpt><trkpt lat="46.5945429" lon="12.4594875"><ele>1600.0</ele><time>2026-04-23T16:39:29.958Z</time></trkpt><trkpt lat="46.5946122" lon="12.4594082"><ele>1600.0</ele><time>2026-04-23T16:39:30.959Z</time></trkpt><trkpt lat="46.5947011" lon="12.4593576"><ele>1600.0</ele><time>2026-04-23T16:39:31.958Z</time></trkpt><trkpt lat="46.5947856" lon="12.459304"><ele>1599.8</ele><time>2026-04-23T16:39:32.957Z</time></trkpt><trkpt lat="46.5948217" lon="12.4592222"><ele>1599.6</ele><time>2026-04-23T16:39:33.957Z</time></trkpt><trkpt lat="46.5948738" lon="12.4591325"><ele>1599.4</ele><time>2026-04-23T16:39:34.958Z</time></trkpt><trkpt lat="46.59492" lon="12.4590389"><ele>1599.2</ele><time>2026-04-23T16:39:35.959Z</time></trkpt><trkpt lat="46.5948878" lon="12.4588277"><ele>1599.0</ele><time>2026-04-23T16:39:36.957Z</time></trkpt><trkpt lat="46.5948895" lon="12.4586965"><ele>1600.6</ele><time>2026-04-23T16:39:37.958Z</time></trkpt><trkpt lat="46.5948956" lon="12.4585589"><ele>1602.2</ele><time>2026-04-23T16:39:38.958Z</time></trkpt><trkpt lat="46.594944" lon="12.4584643"><ele>1603.8</ele><time>2026-04-23T16:39:39.959Z</time></trkpt><trkpt lat="46.5949703" lon="12.4583528"><ele>1605.3999999999999</ele><time>2026-04-23T16:39:40.958Z</time></trkpt><trkpt lat="46.5951151" lon="12.4584016"><ele>1607.0</ele><time>2026-04-23T16:39:41.958Z</time></trkpt><trkpt lat="46.5951931" lon="12.4583603"><ele>1607.0</ele><time>2026-04-23T16:39:42.959Z</time></trkpt><trkpt lat="46.5952776" lon="12.4583258"><ele>1607.0</ele><time>2026-04-23T16:39:43.958Z</time></trkpt><trkpt lat="46.5952824" lon="12.4582236"><ele>1607.0</ele><time>2026-04-23T16:39:44.958Z</time></trkpt><trkpt lat="46.5953781" lon="12.4580175"><ele>1607.0</ele><time>2026-04-23T16:39:46.957Z</time></trkpt><trkpt lat="46.5954307" lon="12.4579196"><ele>1607.0</ele><time>2026-04-23T16:39:47.957Z</time></trkpt><trkpt lat="46.5954945" lon="12.4578428"><ele>1607.8333333333333</ele><time>2026-04-23T16:39:48.958Z</time></trkpt><trkpt lat="46.5955494" lon="12.4577532"><ele>1608.6666666666665</ele><time>2026-04-23T16:39:49.957Z</time></trkpt><trkpt lat="46.595622" lon="12.4577206"><ele>1609.5</ele><time>2026-04-23T16:39:50.958Z</time></trkpt><trkpt lat="46.5956923" lon="12.457678"><ele>1610.3333333333335</ele><time>2026-04-23T16:39:51.958Z</time></trkpt><trkpt lat="46.5957526" lon="12.4576219"><ele>1611.1666666666667</ele><time>2026-04-23T16:39:52.957Z</time></trkpt><trkpt lat="46.5958137" lon="12.4575592"><ele>1612.0</ele><time>2026-04-23T16:39:53.957Z</time></trkpt><trkpt lat="46.5958692" lon="12.4574908"><ele>1612.0000000000002</ele><time>2026-04-23T16:39:54.958Z</time></trkpt><trkpt lat="46.5959215" lon="12.4574154"><ele>1612.0</ele><time>2026-04-23T16:39:55.958Z</time></trkpt><trkpt lat="46.595978" lon="12.4573368"><ele>1612.0</ele><time>2026-04-23T16:39:56.958Z</time></trkpt><trkpt lat="46.5960443" lon="12.4572481"><ele>1612.0</ele><time>2026-04-23T16:39:57.959Z</time></trkpt><trkpt lat="46.5961105" lon="12.4571535"><ele>1612.0000000000002</ele><time>2026-04-23T16:39:58.958Z</time></trkpt><trkpt lat="46.5961717" lon="12.4570621"><ele>1612.0</ele><time>2026-04-23T16:39:59.958Z</time></trkpt><trkpt lat="46.5962219" lon="12.456958"><ele>1610.8333333333335</ele><time>2026-04-23T16:40:00.958Z</time></trkpt><trkpt lat="46.5962202" lon="12.4568478"><ele>1609.6666666666667</ele><time>2026-04-23T16:40:01.958Z</time></trkpt><trkpt lat="46.596243" lon="12.4567456"><ele>1608.5</ele><time>2026-04-23T16:40:02.957Z</time></trkpt><trkpt lat="46.596288" lon="12.456648"><ele>1607.3333333333335</ele><time>2026-04-23T16:40:04.958Z</time></trkpt><trkpt lat="46.5962367" lon="12.4567066"><ele>1606.1666666666667</ele><time>2026-04-23T16:40:22.959Z</time></trkpt><trkpt lat="46.5962154" lon="12.4568751"><ele>1605.0</ele><time>2026-04-23T16:40:24.959Z</time></trkpt><trkpt lat="46.5962108" lon="12.4569728"><ele>1605.0</ele><time>2026-04-23T16:40:25.96Z</time></trkpt><trkpt lat="46.5961922" lon="12.4570858"><ele>1605.0</ele><time>2026-04-23T16:40:26.959Z</time></trkpt><trkpt lat="46.5961804" lon="12.457211"><ele>1605.0</ele><time>2026-04-23T16:40:27.96Z</time></trkpt><trkpt lat="46.5961548" lon="12.4573138"><ele>1605.0</ele><time>2026-04-23T16:40:28.958Z</time></trkpt><trkpt lat="46.5961404" lon="12.4574164"><ele>1605.0</ele><time>2026-04-23T16:40:29.959Z</time></trkpt><trkpt lat="46.5960919" lon="12.4574819"><ele>1605.0</ele><time>2026-04-23T16:40:31.958Z</time></trkpt><trkpt lat="46.5960442" lon="12.4573724"><ele>1605.0</ele><time>2026-04-23T16:40:34.959Z</time></trkpt><trkpt lat="46.5960978" lon="12.4572012"><ele>1605.0</ele><time>2026-04-23T16:40:36.958Z</time></trkpt><trkpt lat="46.596169" lon="12.457073"><ele>1605.0</ele><time>2026-04-23T16:40:37.959Z</time></trkpt><trkpt lat="46.5962165" lon="12.4569392"><ele>1605.0</ele><time>2026-04-23T16:40:38.959Z</time></trkpt><trkpt lat="46.5962522" lon="12.4568094"><ele>1605.0</ele><time>2026-04-23T16:40:39.96Z</time></trkpt><trkpt lat="46.5962798" lon="12.456615"><ele>1605.0</ele><time>2026-04-23T16:40:41.959Z</time></trkpt><trkpt lat="46.5963517" lon="12.4565292"><ele>1605.0</ele><time>2026-04-23T16:40:43.959Z</time></trkpt><trkpt lat="46.5962908" lon="12.4565892"><ele>1605.0</ele><time>2026-04-23T16:40:49.959Z</time></trkpt><trkpt lat="46.5963087" lon="12.4567474"><ele>1605.0</ele><time>2026-04-23T16:40:51.959Z</time></trkpt><trkpt lat="46.5962864" lon="12.4568681"><ele>1605.0</ele><time>2026-04-23T16:40:53.959Z</time></trkpt><trkpt lat="46.5962517" lon="12.4570056"><ele>1605.0</ele><time>2026-04-23T16:40:55.959Z</time></trkpt><trkpt lat="46.5962093" lon="12.4570857"><ele>1605.0</ele><time>2026-04-23T16:40:56.959Z</time></trkpt><trkpt lat="46.5961523" lon="12.4571816"><ele>1605.0</ele><time>2026-04-23T16:40:58.959Z</time></trkpt><trkpt lat="46.5960792" lon="12.45724"><ele>1605.0</ele><time>2026-04-23T16:41:00.958Z</time></trkpt><trkpt lat="46.5960154" lon="12.4572375"><ele>1605.0</ele><time>2026-04-23T16:41:02.959Z</time></trkpt><trkpt lat="46.5959692" lon="12.4573174"><ele>1605.0</ele><time>2026-04-23T16:41:04.959Z</time></trkpt><trkpt lat="46.5959094" lon="12.4573858"><ele>1605.0</ele><time>2026-04-23T16:41:06.959Z</time></trkpt><trkpt lat="46.5958698" lon="12.4574617"><ele>1605.0</ele><time>2026-04-23T16:41:08.958Z</time></trkpt><trkpt lat="46.5959383" lon="12.4575256"><ele>1605.0</ele><time>2026-04-23T16:41:20.959Z</time></trkpt><trkpt lat="46.5960526" lon="12.457323"><ele>1605.0</ele><time>2026-04-23T16:41:21.96Z</time></trkpt><trkpt lat="46.5961217" lon="12.4571965"><ele>1605.0</ele><time>2026-04-23T16:41:22.959Z</time></trkpt><trkpt lat="46.5962095" lon="12.4570428"><ele>1605.0</ele><time>2026-04-23T16:41:23.959Z</time></trkpt><trkpt lat="46.596224" lon="12.456903"><ele>1605.0</ele><time>2026-04-23T16:41:24.959Z</time></trkpt><trkpt lat="46.5962522" lon="12.4567968"><ele>1605.0</ele><time>2026-04-23T16:41:25.959Z</time></trkpt><trkpt lat="46.5963108" lon="12.4566477"><ele>1605.0</ele><time>2026-04-23T16:41:27.959Z</time></trkpt><trkpt lat="46.5963609" lon="12.4565663"><ele>1605.0</ele><time>2026-04-23T16:45:26.96Z</time></trkpt><trkpt lat="46.5964125" lon="12.4564951"><ele>1605.0</ele><time>2026-04-23T16:48:21.96Z</time></trkpt><trkpt lat="46.5964693" lon="12.4563945"><ele>1605.0</ele><time>2026-04-23T16:48:24.96Z</time></trkpt><trkpt lat="46.5965106" lon="12.4563218"><ele>1605.0</ele><time>2026-04-23T16:48:26.96Z</time></trkpt><trkpt lat="46.5965532" lon="12.4562529"><ele>1605.0</ele><time>2026-04-23T16:48:28.961Z</time></trkpt><trkpt lat="46.5966027" lon="12.4561594"><ele>1605.0</ele><time>2026-04-23T16:48:30.96Z</time></trkpt><trkpt lat="46.596654" lon="12.4560673"><ele>1605.0</ele><time>2026-04-23T16:48:32.96Z</time></trkpt><trkpt lat="46.5966971" lon="12.4559575"><ele>1605.0</ele><time>2026-04-23T16:48:34.96Z</time></trkpt><trkpt lat="46.5966895" lon="12.4558253"><ele>1604.4</ele><time>2026-04-23T16:48:37.96Z</time></trkpt><trkpt lat="46.5966576" lon="12.4557136"><ele>1603.8</ele><time>2026-04-23T16:48:39.961Z</time></trkpt><trkpt lat="46.5965996" lon="12.4555797"><ele>1603.1999999999998</ele><time>2026-04-23T16:48:41.96Z</time></trkpt><trkpt lat="46.596548" lon="12.4554567"><ele>1602.6</ele><time>2026-04-23T16:48:43.96Z</time></trkpt><trkpt lat="46.5965893" lon="12.4553488"><ele>1602.0</ele><time>2026-04-23T16:48:45.96Z</time></trkpt><trkpt lat="46.5966792" lon="12.4553106"><ele>1603.8</ele><time>2026-04-23T16:48:47.961Z</time></trkpt><trkpt lat="46.5967714" lon="12.4552939"><ele>1605.6</ele><time>2026-04-23T16:48:49.96Z</time></trkpt><trkpt lat="46.5968553" lon="12.45521"><ele>1607.3999999999999</ele><time>2026-04-23T16:48:51.96Z</time></trkpt><trkpt lat="46.5969301" lon="12.4550824"><ele>1609.1999999999998</ele><time>2026-04-23T16:48:53.96Z</time></trkpt><trkpt lat="46.5969864" lon="12.4549896"><ele>1611.0</ele><time>2026-04-23T16:48:55.96Z</time></trkpt><trkpt lat="46.5970117" lon="12.4548983"><ele>1612.8333333333333</ele><time>2026-04-23T16:49:11.96Z</time></trkpt><trkpt lat="46.5970739" lon="12.4548094"><ele>1614.6666666666665</ele><time>2026-04-23T16:49:13.96Z</time></trkpt><trkpt lat="46.5971196" lon="12.4547335"><ele>1616.5</ele><time>2026-04-23T16:49:14.96Z</time></trkpt><trkpt lat="46.5971592" lon="12.4546504"><ele>1618.3333333333333</ele><time>2026-04-23T16:49:15.96Z</time></trkpt><trkpt lat="46.5972001" lon="12.4545691"><ele>1620.1666666666665</ele><time>2026-04-23T16:49:16.959Z</time></trkpt><trkpt lat="46.597241" lon="12.4544959"><ele>1622.0</ele><time>2026-04-23T16:49:17.96Z</time></trkpt><trkpt lat="46.597313" lon="12.4543452"><ele>1624.1999999999998</ele><time>2026-04-23T16:49:19.96Z</time></trkpt><trkpt lat="46.5973475" lon="12.4542393"><ele>1626.4</ele><time>2026-04-23T16:49:20.96Z</time></trkpt><trkpt lat="46.5974039" lon="12.454136"><ele>1628.6</ele><time>2026-04-23T16:49:21.96Z</time></trkpt><trkpt lat="46.5974337" lon="12.4540376"><ele>1630.8000000000002</ele><time>2026-04-23T16:49:22.96Z</time></trkpt><trkpt lat="46.5975428" lon="12.4539222"><ele>1633.0</ele><time>2026-04-23T16:49:24.96Z</time></trkpt><trkpt lat="46.5976206" lon="12.4538782"><ele>1633.0</ele><time>2026-04-23T16:49:25.961Z</time></trkpt><trkpt lat="46.597702" lon="12.4538349"><ele>1633.0</ele><time>2026-04-23T16:49:26.96Z</time></trkpt><trkpt lat="46.597793" lon="12.4537534"><ele>1633.0</ele><time>2026-04-23T16:49:27.96Z</time></trkpt><trkpt lat="46.5978672" lon="12.4536969"><ele>1633.0</ele><time>2026-04-23T16:49:28.96Z</time></trkpt><trkpt lat="46.5980123" lon="12.453613"><ele>1633.0</ele><time>2026-04-23T16:49:30.96Z</time></trkpt><trkpt lat="46.5980787" lon="12.4535325"><ele>1637.5000000000002</ele><time>2026-04-23T16:49:32.96Z</time></trkpt><trkpt lat="46.5980654" lon="12.4534177"><ele>1642.0</ele><time>2026-04-23T16:49:34.959Z</time></trkpt><trkpt lat="46.5980833" lon="12.453296"><ele>1646.5</ele><time>2026-04-23T16:49:36.96Z</time></trkpt><trkpt lat="46.5981115" lon="12.4531884"><ele>1651.0</ele><time>2026-04-23T16:49:38.96Z</time></trkpt><trkpt lat="46.5981302" lon="12.4530667"><ele>1655.5000000000002</ele><time>2026-04-23T16:49:40.959Z</time></trkpt><trkpt lat="46.5981399" lon="12.4529432"><ele>1660.0</ele><time>2026-04-23T16:49:42.96Z</time></trkpt><trkpt lat="46.5982071" lon="12.4527866"><ele>1663.0</ele><time>2026-04-23T16:49:45.96Z</time></trkpt><trkpt lat="46.5982234" lon="12.4526949"><ele>1666.0</ele><time>2026-04-23T16:49:47.961Z</time></trkpt><trkpt lat="46.5982716" lon="12.45263"><ele>1669.0</ele><time>2026-04-23T16:49:51.961Z</time></trkpt><trkpt lat="46.5983036" lon="12.4525063"><ele>1672.0</ele><time>2026-04-23T16:49:54.959Z</time></trkpt><trkpt lat="46.5983085" lon="12.4523472"><ele>1675.0</ele><time>2026-04-23T16:49:56.96Z</time></trkpt><trkpt lat="46.5983234" lon="12.4521738"><ele>1676.6666666666667</ele><time>2026-04-23T16:49:58.96Z</time></trkpt><trkpt lat="46.5983423" lon="12.4520756"><ele>1678.3333333333335</ele><time>2026-04-23T16:49:59.959Z</time></trkpt><trkpt lat="46.5983675" lon="12.4519269"><ele>1680.0</ele><time>2026-04-23T16:50:01.96Z</time></trkpt><trkpt lat="46.598364" lon="12.4518348"><ele>1681.6666666666665</ele><time>2026-04-23T16:50:03.961Z</time></trkpt><trkpt lat="46.5983258" lon="12.451751"><ele>1683.3333333333333</ele><time>2026-04-23T16:50:05.96Z</time></trkpt><trkpt lat="46.5983515" lon="12.4516214"><ele>1685.0</ele><time>2026-04-23T16:50:08.959Z</time></trkpt><trkpt lat="46.5983736" lon="12.4515193"><ele>1684.9999999999998</ele><time>2026-04-23T16:50:10.96Z</time></trkpt><trkpt lat="46.5984059" lon="12.4514117"><ele>1685.0</ele><time>2026-04-23T16:50:12.96Z</time></trkpt><trkpt lat="46.5984518" lon="12.4512827"><ele>1685.0</ele><time>2026-04-23T16:50:14.959Z</time></trkpt><trkpt lat="46.5984455" lon="12.4511867"><ele>1685.0</ele><time>2026-04-23T16:50:16.959Z</time></trkpt><trkpt lat="46.5984418" lon="12.451083"><ele>1684.9999999999998</ele><time>2026-04-23T16:50:21.96Z</time></trkpt><trkpt lat="46.5984555" lon="12.4509778"><ele>1685.0</ele><time>2026-04-23T16:50:31.96Z</time></trkpt><trkpt lat="46.5984943" lon="12.4508752"><ele>1687.4285714285713</ele><time>2026-04-23T16:50:40.96Z</time></trkpt><trkpt lat="46.5985197" lon="12.4507683"><ele>1689.857142857143</ele><time>2026-04-23T16:50:56.96Z</time></trkpt><trkpt lat="46.5985398" lon="12.4506709"><ele>1692.2857142857142</ele><time>2026-04-23T16:51:00.959Z</time></trkpt><trkpt lat="46.5985073" lon="12.4505667"><ele>1694.7142857142858</ele><time>2026-04-23T16:51:36.96Z</time></trkpt><trkpt lat="46.5984475" lon="12.4505345"><ele>1697.1428571428573</ele><time>2026-04-23T16:53:50.96Z</time></trkpt><trkpt lat="46.5984114" lon="12.4504534"><ele>1699.5714285714287</ele><time>2026-04-23T16:54:10.961Z</time></trkpt><trkpt lat="46.5983838" lon="12.4503495"><ele>1702.0</ele><time>2026-04-23T16:54:26.961Z</time></trkpt><trkpt lat="46.5983578" lon="12.4502404"><ele>1705.3333333333335</ele><time>2026-04-23T16:54:44.96Z</time></trkpt><trkpt lat="46.5983369" lon="12.4501179"><ele>1708.6666666666667</ele><time>2026-04-23T16:54:46.961Z</time></trkpt><trkpt lat="46.5982932" lon="12.4500473"><ele>1712.0</ele><time>2026-04-23T16:54:49.961Z</time></trkpt><trkpt lat="46.5983091" lon="12.449951"><ele>1715.3333333333335</ele><time>2026-04-23T16:55:41.962Z</time></trkpt><trkpt lat="46.5983044" lon="12.4498225"><ele>1718.6666666666667</ele><time>2026-04-23T16:55:44.961Z</time></trkpt><trkpt lat="46.5983095" lon="12.4497304"><ele>1722.0</ele><time>2026-04-23T16:55:55.961Z</time></trkpt><trkpt lat="46.5983387" lon="12.4496199"><ele>1726.1666666666667</ele><time>2026-04-23T16:56:07.961Z</time></trkpt><trkpt lat="46.5983341" lon="12.4495118"><ele>1730.3333333333335</ele><time>2026-04-23T16:56:10.962Z</time></trkpt><trkpt lat="46.5983402" lon="12.4493847"><ele>1734.5</ele><time>2026-04-23T16:56:14.961Z</time></trkpt><trkpt lat="46.598321" lon="12.4492829"><ele>1738.6666666666667</ele><time>2026-04-23T16:56:19.961Z</time></trkpt><trkpt lat="46.5983223" lon="12.4491784"><ele>1742.8333333333335</ele><time>2026-04-23T16:56:22.961Z</time></trkpt><trkpt lat="46.5982986" lon="12.4490507"><ele>1747.0</ele><time>2026-04-23T16:56:25.961Z</time></trkpt><trkpt lat="46.5983205" lon="12.4489155"><ele>1750.3999999999999</ele><time>2026-04-23T16:56:27.96Z</time></trkpt><trkpt lat="46.5983379" lon="12.4487465"><ele>1753.7999999999997</ele><time>2026-04-23T16:56:30.961Z</time></trkpt><trkpt lat="46.598308" lon="12.4486079"><ele>1757.2</ele><time>2026-04-23T16:56:32.961Z</time></trkpt><trkpt lat="46.598279" lon="12.4485077"><ele>1760.6</ele><time>2026-04-23T16:56:34.96Z</time></trkpt><trkpt lat="46.5982737" lon="12.448382"><ele>1764.0</ele><time>2026-04-23T16:56:37.961Z</time></trkpt><trkpt lat="46.5982495" lon="12.4482337"><ele>1764.0</ele><time>2026-04-23T16:56:39.961Z</time></trkpt><trkpt lat="46.5982156" lon="12.4481528"><ele>1764.0</ele><time>2026-04-23T16:56:55.96Z</time></trkpt><trkpt lat="46.5981399" lon="12.4481088"><ele>1764.0</ele><time>2026-04-23T16:57:15.962Z</time></trkpt><trkpt lat="46.5981813" lon="12.4481911"><ele>1764.0</ele><time>2026-04-23T16:57:39.961Z</time></trkpt><trkpt lat="46.598187" lon="12.4482882"><ele>1764.0</ele><time>2026-04-23T16:57:43.961Z</time></trkpt><trkpt lat="46.5981641" lon="12.4481642"><ele>1764.0</ele><time>2026-04-23T16:58:31.961Z</time></trkpt><trkpt lat="46.5981481" lon="12.4480361"><ele>1769.0</ele><time>2026-04-23T16:58:33.96Z</time></trkpt><trkpt lat="46.5981626" lon="12.447868"><ele>1774.0</ele><time>2026-04-23T16:58:35.961Z</time></trkpt><trkpt lat="46.5981709" lon="12.4477732"><ele>1779.0</ele><time>2026-04-23T16:58:36.962Z</time></trkpt><trkpt lat="46.5981853" lon="12.4476783"><ele>1784.0</ele><time>2026-04-23T16:58:37.961Z</time></trkpt><trkpt lat="46.5982031" lon="12.4475148"><ele>1789.0</ele><time>2026-04-23T16:58:39.96Z</time></trkpt><trkpt lat="46.5982082" lon="12.4473566"><ele>1789.0000000000002</ele><time>2026-04-23T16:58:41.961Z</time></trkpt><trkpt lat="46.5982169" lon="12.447204"><ele>1789.0</ele><time>2026-04-23T16:58:43.96Z</time></trkpt><trkpt lat="46.5982126" lon="12.4470524"><ele>1789.0</ele><time>2026-04-23T16:58:45.961Z</time></trkpt><trkpt lat="46.5982309" lon="12.4469264"><ele>1789.0</ele><time>2026-04-23T16:58:47.961Z</time></trkpt><trkpt lat="46.5982889" lon="12.4468724"><ele>1789.0000000000002</ele><time>2026-04-23T16:59:00.96Z</time></trkpt><trkpt lat="46.5983409" lon="12.4469386"><ele>1789.0</ele><time>2026-04-23T17:00:06.973Z</time></trkpt><trkpt lat="46.5983465" lon="12.4470542"><ele>1789.0000000000002</ele><time>2026-04-23T17:00:11.007Z</time></trkpt><trkpt lat="46.5983322" lon="12.4471505"><ele>1789.0</ele><time>2026-04-23T17:00:15.962Z</time></trkpt><trkpt lat="46.5983033" lon="12.4472321"><ele>1789.0</ele><time>2026-04-23T17:00:20.981Z</time></trkpt><trkpt lat="46.5983068" lon="12.447345"><ele>1789.0</ele><time>2026-04-23T17:00:24.967Z</time></trkpt><trkpt lat="46.5983165" lon="12.4474451"><ele>1789.0</ele><time>2026-04-23T17:00:28.979Z</time></trkpt><trkpt lat="46.5983322" lon="12.4475425"><ele>1789.0000000000002</ele><time>2026-04-23T17:00:32.962Z</time></trkpt><trkpt lat="46.5983198" lon="12.4476495"><ele>1789.0</ele><time>2026-04-23T17:00:36.976Z</time></trkpt><trkpt lat="46.5982827" lon="12.4477588"><ele>1789.0000000000002</ele><time>2026-04-23T17:00:39.968Z</time></trkpt><trkpt lat="46.5982777" lon="12.4478576"><ele>1789.0</ele><time>2026-04-23T17:00:43.972Z</time></trkpt><trkpt lat="46.5983046" lon="12.4479664"><ele>1789.0</ele><time>2026-04-23T17:00:52.974Z</time></trkpt><trkpt lat="46.5982812" lon="12.4480547"><ele>1789.0</ele><time>2026-04-23T17:02:43.969Z</time></trkpt><trkpt lat="46.5982781" lon="12.4481492"><ele>1789.0</ele><time>2026-04-23T17:02:47.962Z</time></trkpt><trkpt lat="46.5983008" lon="12.4482419"><ele>1789.0000000000002</ele><time>2026-04-23T17:02:52.962Z</time></trkpt><trkpt lat="46.5982993" lon="12.448334"><ele>1789.0</ele><time>2026-04-23T17:03:06.985Z</time></trkpt><trkpt lat="46.5983121" lon="12.4484343"><ele>1785.4285714285716</ele><time>2026-04-23T17:03:11.961Z</time></trkpt><trkpt lat="46.5983162" lon="12.4485299"><ele>1781.857142857143</ele><time>2026-04-23T17:03:35.961Z</time></trkpt><trkpt lat="46.5983433" lon="12.4486312"><ele>1778.2857142857142</ele><time>2026-04-23T17:03:39.962Z</time></trkpt><trkpt lat="46.5983756" lon="12.4487283"><ele>1774.7142857142858</ele><time>2026-04-23T17:03:42.939Z</time></trkpt><trkpt lat="46.5984253" lon="12.448806"><ele>1771.142857142857</ele><time>2026-04-23T17:03:47.863Z</time></trkpt><trkpt lat="46.598458" lon="12.4488854"><ele>1767.5714285714287</ele><time>2026-04-23T17:03:59.899Z</time></trkpt><trkpt lat="46.598466" lon="12.4489777"><ele>1764.0</ele><time>2026-04-23T17:04:05.961Z</time></trkpt><trkpt lat="46.5984712" lon="12.4490813"><ele>1764.0</ele><time>2026-04-23T17:04:09.963Z</time></trkpt><trkpt lat="46.5984675" lon="12.4491854"><ele>1764.0</ele><time>2026-04-23T17:04:13.962Z</time></trkpt><trkpt lat="46.5984834" lon="12.4492934"><ele>1764.0</ele><time>2026-04-23T17:04:17.877Z</time></trkpt><trkpt lat="46.5984877" lon="12.4493929"><ele>1764.0</ele><time>2026-04-23T17:04:20.978Z</time></trkpt><trkpt lat="46.5985393" lon="12.4494641"><ele>1764.0</ele><time>2026-04-23T17:06:39.963Z</time></trkpt><trkpt lat="46.5985904" lon="12.4495195"><ele>1764.0</ele><time>2026-04-23T17:06:45.003Z</time></trkpt><trkpt lat="46.5986887" lon="12.4496718"><ele>1764.0</ele><time>2026-04-23T17:07:23.978Z</time></trkpt><trkpt lat="46.5987326" lon="12.4497548"><ele>1764.0</ele><time>2026-04-23T17:07:33.995Z</time></trkpt><trkpt lat="46.5987429" lon="12.4498594"><ele>1764.0</ele><time>2026-04-23T17:07:39.969Z</time></trkpt><trkpt lat="46.598775" lon="12.4499595"><ele>1764.0</ele><time>2026-04-23T17:07:48.964Z</time></trkpt><trkpt lat="46.5987706" lon="12.4500802"><ele>1764.0</ele><time>2026-04-23T17:07:52.965Z</time></trkpt><trkpt lat="46.5988013" lon="12.4501834"><ele>1764.0</ele><time>2026-04-23T17:07:55.978Z</time></trkpt><trkpt lat="46.5986863" lon="12.450253"><ele>1757.0</ele><time>2026-04-23T17:07:57.976Z</time></trkpt><trkpt lat="46.5985978" lon="12.4503452"><ele>1750.0</ele><time>2026-04-23T17:07:59.97Z</time></trkpt><trkpt lat="46.5985687" lon="12.4504311"><ele>1743.0</ele><time>2026-04-23T17:08:01.994Z</time></trkpt><trkpt lat="46.5985294" lon="12.4505241"><ele>1736.0</ele><time>2026-04-23T17:08:04.975Z</time></trkpt><trkpt lat="46.5985304" lon="12.4506387"><ele>1729.0</ele><time>2026-04-23T17:08:31.973Z</time></trkpt><trkpt lat="46.5985676" lon="12.4507349"><ele>1722.0</ele><time>2026-04-23T17:08:35.009Z</time></trkpt><trkpt lat="46.5985507" lon="12.4508253"><ele>1718.6666666666667</ele><time>2026-04-23T17:08:41.006Z</time></trkpt><trkpt lat="46.5985162" lon="12.4509331"><ele>1715.3333333333335</ele><time>2026-04-23T17:08:46.98Z</time></trkpt><trkpt lat="46.5984877" lon="12.451029"><ele>1712.0</ele><time>2026-04-23T17:08:55.963Z</time></trkpt><trkpt lat="46.5984484" lon="12.4511092"><ele>1708.6666666666667</ele><time>2026-04-23T17:08:59.973Z</time></trkpt><trkpt lat="46.5984274" lon="12.4512132"><ele>1705.3333333333335</ele><time>2026-04-23T17:09:02.977Z</time></trkpt><trkpt lat="46.5984304" lon="12.4513255"><ele>1702.0</ele><time>2026-04-23T17:09:05.973Z</time></trkpt><trkpt lat="46.5984115" lon="12.4514446"><ele>1699.1666666666667</ele><time>2026-04-23T17:09:09.004Z</time></trkpt><trkpt lat="46.5983816" lon="12.4515513"><ele>1696.3333333333335</ele><time>2026-04-23T17:09:10.976Z</time></trkpt><trkpt lat="46.598362" lon="12.4516557"><ele>1693.5</ele><time>2026-04-23T17:09:12.973Z</time></trkpt><trkpt lat="46.5983633" lon="12.4517638"><ele>1690.6666666666665</ele><time>2026-04-23T17:09:14.965Z</time></trkpt><trkpt lat="46.598366" lon="12.4518868"><ele>1687.8333333333333</ele><time>2026-04-23T17:09:17.979Z</time></trkpt><trkpt lat="46.5983625" lon="12.4520217"><ele>1685.0</ele><time>2026-04-23T17:09:20.974Z</time></trkpt><trkpt lat="46.5983344" lon="12.452137"><ele>1683.3333333333333</ele><time>2026-04-23T17:09:22.973Z</time></trkpt><trkpt lat="46.5983053" lon="12.452245"><ele>1681.6666666666665</ele><time>2026-04-23T17:09:25.006Z</time></trkpt><trkpt lat="46.5983024" lon="12.4523377"><ele>1680.0</ele><time>2026-04-23T17:09:25.962Z</time></trkpt><trkpt lat="46.5983086" lon="12.4524875"><ele>1678.3333333333335</ele><time>2026-04-23T17:09:27.963Z</time></trkpt><trkpt lat="46.5982946" lon="12.4526053"><ele>1676.6666666666667</ele><time>2026-04-23T17:09:29.962Z</time></trkpt><trkpt lat="46.5982345" lon="12.4526876"><ele>1675.0</ele><time>2026-04-23T17:09:31.963Z</time></trkpt><trkpt lat="46.5981947" lon="12.4527801"><ele>1672.0</ele><time>2026-04-23T17:09:33.963Z</time></trkpt><trkpt lat="46.5981799" lon="12.4529602"><ele>1669.0</ele><time>2026-04-23T17:09:36.963Z</time></trkpt><trkpt lat="46.5981858" lon="12.4530642"><ele>1666.0</ele><time>2026-04-23T17:09:37.963Z</time></trkpt><trkpt lat="46.598165" lon="12.453222"><ele>1663.0</ele><time>2026-04-23T17:09:39.964Z</time></trkpt><trkpt lat="46.5981721" lon="12.4533609"><ele>1660.0</ele><time>2026-04-23T17:09:41.963Z</time></trkpt><trkpt lat="46.5981935" lon="12.4534622"><ele>1660.0</ele><time>2026-04-23T17:09:44.963Z</time></trkpt><trkpt lat="46.598256" lon="12.4535005"><ele>1660.0</ele><time>2026-04-23T17:09:54.963Z</time></trkpt><trkpt lat="46.5983687" lon="12.453419"><ele>1660.0</ele><time>2026-04-23T17:09:56.964Z</time></trkpt><trkpt lat="46.5984932" lon="12.4533676"><ele>1660.0</ele><time>2026-04-23T17:09:58.964Z</time></trkpt><trkpt lat="46.5985606" lon="12.4533498"><ele>1660.0</ele><time>2026-04-23T17:09:59.963Z</time></trkpt><trkpt lat="46.5986788" lon="12.4533627"><ele>1661.0</ele><time>2026-04-23T17:10:01.962Z</time></trkpt><trkpt lat="46.5987793" lon="12.4533344"><ele>1662.0</ele><time>2026-04-23T17:10:03.962Z</time></trkpt><trkpt lat="46.5988707" lon="12.453217"><ele>1663.0</ele><time>2026-04-23T17:10:05.963Z</time></trkpt><trkpt lat="46.5989234" lon="12.4531601"><ele>1664.0</ele><time>2026-04-23T17:10:06.962Z</time></trkpt><trkpt lat="46.5989873" lon="12.4531017"><ele>1665.0</ele><time>2026-04-23T17:10:07.963Z</time></trkpt><trkpt lat="46.599075" lon="12.4530328"><ele>1665.0</ele><time>2026-04-23T17:10:08.963Z</time></trkpt><trkpt lat="46.5991629" lon="12.4529489"><ele>1665.0</ele><time>2026-04-23T17:10:09.962Z</time></trkpt><trkpt lat="46.5992619" lon="12.4529309"><ele>1665.0</ele><time>2026-04-23T17:10:10.963Z</time></trkpt><trkpt lat="46.5993623" lon="12.4529626"><ele>1665.0</ele><time>2026-04-23T17:10:11.964Z</time></trkpt><trkpt lat="46.599454" lon="12.4530127"><ele>1665.0</ele><time>2026-04-23T17:10:12.963Z</time></trkpt><trkpt lat="46.599555" lon="12.4530502"><ele>1667.2</ele><time>2026-04-23T17:10:13.962Z</time></trkpt><trkpt lat="46.5996497" lon="12.4530946"><ele>1669.4</ele><time>2026-04-23T17:10:14.962Z</time></trkpt><trkpt lat="46.5997418" lon="12.453139"><ele>1671.6</ele><time>2026-04-23T17:10:15.962Z</time></trkpt><trkpt lat="46.5998171" lon="12.4532379"><ele>1673.8</ele><time>2026-04-23T17:10:16.963Z</time></trkpt><trkpt lat="46.5998911" lon="12.4533248"><ele>1676.0</ele><time>2026-04-23T17:10:17.963Z</time></trkpt><trkpt lat="46.5999676" lon="12.4534071"><ele>1676.0</ele><time>2026-04-23T17:10:18.962Z</time></trkpt><trkpt lat="46.6000497" lon="12.4534887"><ele>1676.0</ele><time>2026-04-23T17:10:19.963Z</time></trkpt><trkpt lat="46.6001313" lon="12.4535796"><ele>1676.0</ele><time>2026-04-23T17:10:20.963Z</time></trkpt><trkpt lat="46.6001903" lon="12.4536785"><ele>1676.0</ele><time>2026-04-23T17:10:21.963Z</time></trkpt><trkpt lat="46.600244" lon="12.4537845"><ele>1676.0</ele><time>2026-04-23T17:10:22.963Z</time></trkpt><trkpt lat="46.6002581" lon="12.4539035"><ele>1674.6666666666665</ele><time>2026-04-23T17:10:23.963Z</time></trkpt><trkpt lat="46.6002864" lon="12.4540083"><ele>1673.3333333333333</ele><time>2026-04-23T17:10:24.964Z</time></trkpt><trkpt lat="46.600318" lon="12.4541043"><ele>1672.0</ele><time>2026-04-23T17:10:25.963Z</time></trkpt><trkpt lat="46.6003503" lon="12.4542022"><ele>1670.6666666666665</ele><time>2026-04-23T17:10:26.963Z</time></trkpt><trkpt lat="46.6003797" lon="12.454328"><ele>1669.3333333333333</ele><time>2026-04-23T17:10:27.962Z</time></trkpt><trkpt lat="46.6004143" lon="12.4544357"><ele>1668.0</ele><time>2026-04-23T17:10:28.963Z</time></trkpt><trkpt lat="46.6004596" lon="12.4545291"><ele>1672.4</ele><time>2026-04-23T17:10:29.963Z</time></trkpt><trkpt lat="46.6005017" lon="12.4546024"><ele>1676.8000000000002</ele><time>2026-04-23T17:10:30.963Z</time></trkpt><trkpt lat="46.6005761" lon="12.4547088"><ele>1681.2</ele><time>2026-04-23T17:10:32.963Z</time></trkpt><trkpt lat="46.6006528" lon="12.4547556"><ele>1685.6</ele><time>2026-04-23T17:10:34.964Z</time></trkpt><trkpt lat="46.6007841" lon="12.4547371"><ele>1690.0</ele><time>2026-04-23T17:10:36.963Z</time></trkpt><trkpt lat="46.6008674" lon="12.454778"><ele>1689.9999999999998</ele><time>2026-04-23T17:10:37.963Z</time></trkpt><trkpt lat="46.6009395" lon="12.4548077"><ele>1690.0</ele><time>2026-04-23T17:10:38.964Z</time></trkpt><trkpt lat="46.6010052" lon="12.4548414"><ele>1690.0</ele><time>2026-04-23T17:10:39.963Z</time></trkpt><trkpt lat="46.6010508" lon="12.4549094"><ele>1690.0</ele><time>2026-04-23T17:10:40.963Z</time></trkpt><trkpt lat="46.601101" lon="12.4549756"><ele>1690.0</ele><time>2026-04-23T17:10:41.963Z</time></trkpt><trkpt lat="46.601142" lon="12.4550572"><ele>1689.9999999999998</ele><time>2026-04-23T17:10:42.963Z</time></trkpt><trkpt lat="46.6011932" lon="12.4551286"><ele>1690.0</ele><time>2026-04-23T17:10:43.964Z</time></trkpt><trkpt lat="46.6012442" lon="12.4551911"><ele>1690.4</ele><time>2026-04-23T17:10:44.963Z</time></trkpt><trkpt lat="46.6013505" lon="12.4552807"><ele>1690.8</ele><time>2026-04-23T17:10:46.963Z</time></trkpt><trkpt lat="46.601405" lon="12.4553287"><ele>1691.1999999999998</ele><time>2026-04-23T17:10:47.963Z</time></trkpt><trkpt lat="46.6014602" lon="12.4553945"><ele>1691.6</ele><time>2026-04-23T17:10:48.963Z</time></trkpt><trkpt lat="46.6015725" lon="12.4554736"><ele>1692.0</ele><time>2026-04-23T17:10:50.963Z</time></trkpt><trkpt lat="46.6016321" lon="12.4555224"><ele>1692.0</ele><time>2026-04-23T17:10:51.963Z</time></trkpt><trkpt lat="46.6017335" lon="12.4556"><ele>1692.0</ele><time>2026-04-23T17:10:53.963Z</time></trkpt><trkpt lat="46.6017989" lon="12.4556125"><ele>1692.0</ele><time>2026-04-23T17:10:54.963Z</time></trkpt><trkpt lat="46.6018677" lon="12.4556286"><ele>1692.0</ele><time>2026-04-23T17:10:55.963Z</time></trkpt><trkpt lat="46.6019413" lon="12.4556205"><ele>1692.0</ele><time>2026-04-23T17:10:56.963Z</time></trkpt><trkpt lat="46.6020048" lon="12.4556096"><ele>1692.0</ele><time>2026-04-23T17:10:57.963Z</time></trkpt><trkpt lat="46.6020899" lon="12.4556176"><ele>1692.0</ele><time>2026-04-23T17:10:59.962Z</time></trkpt><trkpt lat="46.6021466" lon="12.4556623"><ele>1692.0</ele><time>2026-04-23T17:11:44.963Z</time></trkpt><trkpt lat="46.6021777" lon="12.4555692"><ele>1692.0</ele><time>2026-04-23T17:12:02.963Z</time></trkpt><trkpt lat="46.6021106" lon="12.4555553"><ele>1692.0</ele><time>2026-04-23T17:12:22.963Z</time></trkpt><trkpt lat="46.6020444" lon="12.4555809"><ele>1692.0</ele><time>2026-04-23T17:12:29.964Z</time></trkpt><trkpt lat="46.6019959" lon="12.455645"><ele>1692.0</ele><time>2026-04-23T17:12:37.965Z</time></trkpt><trkpt lat="46.602071" lon="12.4556399"><ele>1692.0</ele><time>2026-04-23T17:13:30.964Z</time></trkpt><trkpt lat="46.6021327" lon="12.4556812"><ele>1694.8333333333333</ele><time>2026-04-23T17:13:31.964Z</time></trkpt><trkpt lat="46.6021666" lon="12.4557714"><ele>1697.6666666666665</ele><time>2026-04-23T17:13:32.964Z</time></trkpt><trkpt lat="46.6021916" lon="12.4558727"><ele>1700.5</ele><time>2026-04-23T17:13:33.964Z</time></trkpt><trkpt lat="46.6022141" lon="12.4559696"><ele>1703.3333333333333</ele><time>2026-04-23T17:13:34.964Z</time></trkpt><trkpt lat="46.6022155" lon="12.4561121"><ele>1706.1666666666665</ele><time>2026-04-23T17:13:36.964Z</time></trkpt><trkpt lat="46.6022196" lon="12.4562579"><ele>1709.0</ele><time>2026-04-23T17:13:38.964Z</time></trkpt><trkpt lat="46.6022215" lon="12.4563995"><ele>1709.0</ele><time>2026-04-23T17:13:40.964Z</time></trkpt><trkpt lat="46.6022449" lon="12.456544"><ele>1709.0</ele><time>2026-04-23T17:13:42.963Z</time></trkpt><trkpt lat="46.6023221" lon="12.4566518"><ele>1709.0</ele><time>2026-04-23T17:13:44.964Z</time></trkpt><trkpt lat="46.6024076" lon="12.4567193"><ele>1709.0</ele><time>2026-04-23T17:13:46.964Z</time></trkpt><trkpt lat="46.602493" lon="12.4568081"><ele>1709.0</ele><time>2026-04-23T17:13:48.964Z</time></trkpt><trkpt lat="46.6025764" lon="12.4569157"><ele>1709.0</ele><time>2026-04-23T17:13:50.964Z</time></trkpt><trkpt lat="46.6026706" lon="12.4570146"><ele>1709.0</ele><time>2026-04-23T17:13:52.963Z</time></trkpt><trkpt lat="46.6027909" lon="12.4570804"><ele>1709.0</ele><time>2026-04-23T17:13:54.964Z</time></trkpt><trkpt lat="46.602855" lon="12.4571067"><ele>1709.0</ele><time>2026-04-23T17:13:55.964Z</time></trkpt><trkpt lat="46.6029724" lon="12.4571676"><ele>1709.0</ele><time>2026-04-23T17:13:57.964Z</time></trkpt><trkpt lat="46.6031036" lon="12.4571656"><ele>1707.2</ele><time>2026-04-23T17:13:59.964Z</time></trkpt><trkpt lat="46.6031688" lon="12.4571439"><ele>1705.4</ele><time>2026-04-23T17:14:00.963Z</time></trkpt><trkpt lat="46.6032341" lon="12.4571272"><ele>1703.6</ele><time>2026-04-23T17:14:01.964Z</time></trkpt><trkpt lat="46.6033621" lon="12.4571671"><ele>1701.8</ele><time>2026-04-23T17:14:03.964Z</time></trkpt><trkpt lat="46.6034783" lon="12.4572389"><ele>1700.0</ele><time>2026-04-23T17:14:05.965Z</time></trkpt><trkpt lat="46.6036013" lon="12.4572645"><ele>1701.8333333333333</ele><time>2026-04-23T17:14:07.964Z</time></trkpt><trkpt lat="46.6036652" lon="12.4572546"><ele>1703.6666666666665</ele><time>2026-04-23T17:14:08.964Z</time></trkpt><trkpt lat="46.6037478" lon="12.4573665"><ele>1705.5</ele><time>2026-04-23T17:14:10.963Z</time></trkpt><trkpt lat="46.6038293" lon="12.4574428"><ele>1707.3333333333335</ele><time>2026-04-23T17:14:12.964Z</time></trkpt><trkpt lat="46.6039223" lon="12.4574131"><ele>1709.1666666666667</ele><time>2026-04-23T17:14:14.964Z</time></trkpt><trkpt lat="46.6039885" lon="12.4573721"><ele>1711.0</ele><time>2026-04-23T17:14:16.964Z</time></trkpt><trkpt lat="46.6040545" lon="12.4573468"><ele>1710.9999999999998</ele><time>2026-04-23T17:14:42.964Z</time></trkpt><trkpt lat="46.6041339" lon="12.457291"><ele>1711.0</ele><time>2026-04-23T17:14:44.964Z</time></trkpt><trkpt lat="46.6041874" lon="12.4572348"><ele>1711.0</ele><time>2026-04-23T17:14:45.964Z</time></trkpt><trkpt lat="46.6042397" lon="12.4571713"><ele>1711.0</ele><time>2026-04-23T17:14:46.964Z</time></trkpt><trkpt lat="46.6043012" lon="12.4571076"><ele>1711.0</ele><time>2026-04-23T17:14:47.963Z</time></trkpt><trkpt lat="46.6043679" lon="12.4570615"><ele>1710.9999999999998</ele><time>2026-04-23T17:14:48.963Z</time></trkpt><trkpt lat="46.6044319" lon="12.4570266"><ele>1711.0</ele><time>2026-04-23T17:14:49.964Z</time></trkpt><trkpt lat="46.6045032" lon="12.456981"><ele>1715.6666666666667</ele><time>2026-04-23T17:14:50.964Z</time></trkpt><trkpt lat="46.6045707" lon="12.4569342"><ele>1720.3333333333335</ele><time>2026-04-23T17:14:51.964Z</time></trkpt><trkpt lat="46.6046438" lon="12.4568824"><ele>1725.0</ele><time>2026-04-23T17:14:52.964Z</time></trkpt><trkpt lat="46.604711" lon="12.4568289"><ele>1729.6666666666665</ele><time>2026-04-23T17:14:53.964Z</time></trkpt><trkpt lat="46.6047755" lon="12.4567761"><ele>1734.3333333333333</ele><time>2026-04-23T17:14:54.963Z</time></trkpt><trkpt lat="46.6048276" lon="12.4567239"><ele>1739.0</ele><time>2026-04-23T17:14:55.963Z</time></trkpt><trkpt lat="46.6049241" lon="12.4566278"><ele>1738.9999999999998</ele><time>2026-04-23T17:14:57.964Z</time></trkpt><trkpt lat="46.6050237" lon="12.4565775"><ele>1739.0</ele><time>2026-04-23T17:14:59.965Z</time></trkpt><trkpt lat="46.6050983" lon="12.4565928"><ele>1739.0</ele><time>2026-04-23T17:15:01.964Z</time></trkpt><trkpt lat="46.6051522" lon="12.4566579"><ele>1739.0</ele><time>2026-04-23T17:15:03.965Z</time></trkpt><trkpt lat="46.6051972" lon="12.4567225"><ele>1738.9999999999998</ele><time>2026-04-23T17:15:07.964Z</time></trkpt><trkpt lat="46.6051153" lon="12.4567458"><ele>1739.0</ele><time>2026-04-23T17:15:10.963Z</time></trkpt><trkpt lat="46.6050792" lon="12.456644"><ele>1738.9999999999998</ele><time>2026-04-23T17:15:12.964Z</time></trkpt><trkpt lat="46.6051349" lon="12.4565221"><ele>1739.0</ele><time>2026-04-23T17:15:14.963Z</time></trkpt><trkpt lat="46.6052287" lon="12.4564579"><ele>1739.0</ele><time>2026-04-23T17:15:16.965Z</time></trkpt><trkpt lat="46.605314" lon="12.4564129"><ele>1739.0</ele><time>2026-04-23T17:15:18.964Z</time></trkpt><trkpt lat="46.6053921" lon="12.4563847"><ele>1738.9999999999998</ele><time>2026-04-23T17:15:20.963Z</time></trkpt><trkpt lat="46.6054438" lon="12.4563253"><ele>1739.0</ele><time>2026-04-23T17:15:22.964Z</time></trkpt><trkpt lat="46.60546" lon="12.4562341"><ele>1738.9999999999998</ele><time>2026-04-23T17:15:24.963Z</time></trkpt><trkpt lat="46.6054002" lon="12.4561895"><ele>1739.0</ele><time>2026-04-23T17:15:57.964Z</time></trkpt><trkpt lat="46.6053464" lon="12.4562629"><ele>1739.0</ele><time>2026-04-23T17:15:59.963Z</time></trkpt><trkpt lat="46.6052957" lon="12.4563297"><ele>1739.0</ele><time>2026-04-23T17:16:02.964Z</time></trkpt><trkpt lat="46.6053219" lon="12.4562244"><ele>1738.9999999999998</ele><time>2026-04-23T17:16:05.964Z</time></trkpt><trkpt lat="46.6053994" lon="12.4560663"><ele>1739.0</ele><time>2026-04-23T17:16:08.964Z</time></trkpt><trkpt lat="46.6054574" lon="12.4559292"><ele>1741.2857142857142</ele><time>2026-04-23T17:16:10.964Z</time></trkpt><trkpt lat="46.6054589" lon="12.4558252"><ele>1743.5714285714284</ele><time>2026-04-23T17:16:12.964Z</time></trkpt><trkpt lat="46.6054719" lon="12.4556917"><ele>1745.8571428571427</ele><time>2026-04-23T17:16:15.964Z</time></trkpt><trkpt lat="46.6054899" lon="12.4556008"><ele>1748.142857142857</ele><time>2026-04-23T17:16:17.963Z</time></trkpt><trkpt lat="46.6054886" lon="12.455509"><ele>1750.4285714285716</ele><time>2026-04-23T17:16:19.964Z</time></trkpt><trkpt lat="46.6054886" lon="12.4554166"><ele>1752.7142857142856</ele><time>2026-04-23T17:16:21.965Z</time></trkpt><trkpt lat="46.6054899" lon="12.4552988"><ele>1755.0</ele><time>2026-04-23T17:16:24.964Z</time></trkpt><trkpt lat="46.6055101" lon="12.4552064"><ele>1759.7142857142856</ele><time>2026-04-23T17:17:14.963Z</time></trkpt><trkpt lat="46.6055579" lon="12.4551329"><ele>1764.4285714285716</ele><time>2026-04-23T17:17:19.964Z</time></trkpt><trkpt lat="46.6055752" lon="12.4550394"><ele>1769.142857142857</ele><time>2026-04-23T17:17:31.963Z</time></trkpt><trkpt lat="46.6055203" lon="12.4549849"><ele>1773.8571428571427</ele><time>2026-04-23T17:18:35.965Z</time></trkpt><trkpt lat="46.6055626" lon="12.4548989"><ele>1778.5714285714284</ele><time>2026-04-23T17:18:53.964Z</time></trkpt><trkpt lat="46.6054994" lon="12.4548699"><ele>1783.2857142857142</ele><time>2026-04-23T17:19:01.966Z</time></trkpt><trkpt lat="46.6055253" lon="12.4547622"><ele>1788.0</ele><time>2026-04-23T17:19:16.965Z</time></trkpt><trkpt lat="46.6055868" lon="12.454733"><ele>1788.0</ele><time>2026-04-23T17:19:34.964Z</time></trkpt><trkpt lat="46.6056608" lon="12.4547041"><ele>1788.0</ele><time>2026-04-23T17:19:38.966Z</time></trkpt><trkpt lat="46.6057322" lon="12.4547049"><ele>1788.0</ele><time>2026-04-23T17:19:40.965Z</time></trkpt><trkpt lat="46.6058036" lon="12.4547272"><ele>1788.0</ele><time>2026-04-23T17:19:42.965Z</time></trkpt><trkpt lat="46.6058907" lon="12.4547507"><ele>1788.0</ele><time>2026-04-23T17:19:44.965Z</time></trkpt><trkpt lat="46.6059946" lon="12.4547382"><ele>1788.0</ele><time>2026-04-23T17:19:46.965Z</time></trkpt><trkpt lat="46.6061113" lon="12.4546891"><ele>1787.2</ele><time>2026-04-23T17:19:48.965Z</time></trkpt><trkpt lat="46.6062295" lon="12.4546371"><ele>1786.4</ele><time>2026-04-23T17:19:50.966Z</time></trkpt><trkpt lat="46.6063447" lon="12.4546062"><ele>1785.6000000000001</ele><time>2026-04-23T17:19:52.965Z</time></trkpt><trkpt lat="46.6064391" lon="12.4545941"><ele>1784.8000000000002</ele><time>2026-04-23T17:19:54.965Z</time></trkpt><trkpt lat="46.6064914" lon="12.454648"><ele>1784.0</ele><time>2026-04-23T17:19:56.965Z</time></trkpt><trkpt lat="46.6065329" lon="12.4547531"><ele>1781.3333333333333</ele><time>2026-04-23T17:19:58.966Z</time></trkpt><trkpt lat="46.6065558" lon="12.4548833"><ele>1778.6666666666665</ele><time>2026-04-23T17:20:00.964Z</time></trkpt><trkpt lat="46.6065557" lon="12.4550395"><ele>1776.0</ele><time>2026-04-23T17:20:02.965Z</time></trkpt><trkpt lat="46.6065478" lon="12.4551331"><ele>1773.3333333333335</ele><time>2026-04-23T17:20:03.964Z</time></trkpt><trkpt lat="46.6065276" lon="12.4552281"><ele>1770.6666666666667</ele><time>2026-04-23T17:20:04.964Z</time></trkpt><trkpt lat="46.6064978" lon="12.4553137"><ele>1768.0</ele><time>2026-04-23T17:20:05.966Z</time></trkpt><trkpt lat="46.6064541" lon="12.4554012"><ele>1765.8333333333335</ele><time>2026-04-23T17:20:06.964Z</time></trkpt><trkpt lat="46.6063968" lon="12.4554818"><ele>1763.6666666666667</ele><time>2026-04-23T17:20:07.964Z</time></trkpt><trkpt lat="46.606327" lon="12.4555491"><ele>1761.5</ele><time>2026-04-23T17:20:08.965Z</time></trkpt><trkpt lat="46.6062512" lon="12.4556109"><ele>1759.3333333333335</ele><time>2026-04-23T17:20:09.965Z</time></trkpt><trkpt lat="46.6061733" lon="12.4556781"><ele>1757.1666666666667</ele><time>2026-04-23T17:20:10.965Z</time></trkpt><trkpt lat="46.6060903" lon="12.4557551"><ele>1755.0</ele><time>2026-04-23T17:20:11.965Z</time></trkpt><trkpt lat="46.6060039" lon="12.4558239"><ele>1755.0</ele><time>2026-04-23T17:20:12.965Z</time></trkpt><trkpt lat="46.6059206" lon="12.4558837"><ele>1755.0</ele><time>2026-04-23T17:20:13.965Z</time></trkpt><trkpt lat="46.6058462" lon="12.4559361"><ele>1755.0</ele><time>2026-04-23T17:20:14.965Z</time></trkpt><trkpt lat="46.6057801" lon="12.4559827"><ele>1755.0</ele><time>2026-04-23T17:20:15.965Z</time></trkpt><trkpt lat="46.6056819" lon="12.4560457"><ele>1755.0</ele><time>2026-04-23T17:20:17.966Z</time></trkpt><trkpt lat="46.6056073" lon="12.4560903"><ele>1755.0</ele><time>2026-04-23T17:20:19.964Z</time></trkpt><trkpt lat="46.6055423" lon="12.4561296"><ele>1755.0</ele><time>2026-04-23T17:20:22.965Z</time></trkpt><trkpt lat="46.6054838" lon="12.4561686"><ele>1755.0</ele><time>2026-04-23T17:20:39.965Z</time></trkpt><trkpt lat="46.6054119" lon="12.4562184"><ele>1755.0</ele><time>2026-04-23T17:20:45.965Z</time></trkpt><trkpt lat="46.6053507" lon="12.4562749"><ele>1755.0</ele><time>2026-04-23T17:20:50.966Z</time></trkpt><trkpt lat="46.6053017" lon="12.4563335"><ele>1755.0</ele><time>2026-04-23T17:20:53.964Z</time></trkpt><trkpt lat="46.6052443" lon="12.4564125"><ele>1755.0</ele><time>2026-04-23T17:20:56.965Z</time></trkpt><trkpt lat="46.6051955" lon="12.4564761"><ele>1755.0</ele><time>2026-04-23T17:20:59.964Z</time></trkpt><trkpt lat="46.6051431" lon="12.4565357"><ele>1752.7142857142856</ele><time>2026-04-23T17:21:02.965Z</time></trkpt><trkpt lat="46.6051214" lon="12.4566282"><ele>1750.4285714285716</ele><time>2026-04-23T17:21:05.965Z</time></trkpt><trkpt lat="46.6051691" lon="12.4567212"><ele>1748.142857142857</ele><time>2026-04-23T17:21:08.964Z</time></trkpt><trkpt lat="46.6052415" lon="12.4567289"><ele>1745.8571428571427</ele><time>2026-04-23T17:21:11.964Z</time></trkpt><trkpt lat="46.6053068" lon="12.4567307"><ele>1743.5714285714284</ele><time>2026-04-23T17:21:14.964Z</time></trkpt><trkpt lat="46.6053752" lon="12.4567158"><ele>1741.2857142857142</ele><time>2026-04-23T17:21:17.965Z</time></trkpt><trkpt lat="46.605448" lon="12.4567181"><ele>1739.0</ele><time>2026-04-23T17:21:20.966Z</time></trkpt><trkpt lat="46.6055221" lon="12.4566809"><ele>1736.2</ele><time>2026-04-23T17:21:23.965Z</time></trkpt><trkpt lat="46.6056071" lon="12.4566445"><ele>1733.4</ele><time>2026-04-23T17:21:25.965Z</time></trkpt><trkpt lat="46.6057189" lon="12.4566049"><ele>1730.6</ele><time>2026-04-23T17:21:27.964Z</time></trkpt><trkpt lat="46.6058166" lon="12.4565809"><ele>1727.8</ele><time>2026-04-23T17:21:29.966Z</time></trkpt><trkpt lat="46.6058983" lon="12.4565669"><ele>1725.0</ele><time>2026-04-23T17:21:31.966Z</time></trkpt><trkpt lat="46.605962" lon="12.456548"><ele>1725.0</ele><time>2026-04-23T17:21:33.965Z</time></trkpt><trkpt lat="46.6060279" lon="12.456549"><ele>1725.0</ele><time>2026-04-23T17:21:37.965Z</time></trkpt><trkpt lat="46.6060913" lon="12.4565193"><ele>1725.0</ele><time>2026-04-23T17:21:56.966Z</time></trkpt><trkpt lat="46.6061723" lon="12.4565026"><ele>1725.0</ele><time>2026-04-23T17:22:01.965Z</time></trkpt><trkpt lat="46.6062676" lon="12.4564801"><ele>1725.0</ele><time>2026-04-23T17:22:04.965Z</time></trkpt><trkpt lat="46.6063484" lon="12.4564649"><ele>1725.0</ele><time>2026-04-23T17:22:06.965Z</time></trkpt><trkpt lat="46.6064558" lon="12.4564454"><ele>1721.5</ele><time>2026-04-23T17:22:08.965Z</time></trkpt><trkpt lat="46.6065807" lon="12.4564346"><ele>1718.0</ele><time>2026-04-23T17:22:10.965Z</time></trkpt><trkpt lat="46.6066971" lon="12.4564373"><ele>1714.5</ele><time>2026-04-23T17:22:12.965Z</time></trkpt><trkpt lat="46.6068089" lon="12.4564795"><ele>1711.0</ele><time>2026-04-23T17:22:14.964Z</time></trkpt><trkpt lat="46.6069312" lon="12.4565132"><ele>1711.0000000000002</ele><time>2026-04-23T17:22:16.965Z</time></trkpt><trkpt lat="46.606994" lon="12.4565292"><ele>1711.0</ele><time>2026-04-23T17:22:17.965Z</time></trkpt><trkpt lat="46.6070623" lon="12.4565432"><ele>1711.0</ele><time>2026-04-23T17:22:18.965Z</time></trkpt><trkpt lat="46.6071261" lon="12.4565573"><ele>1711.0</ele><time>2026-04-23T17:22:19.966Z</time></trkpt><trkpt lat="46.607231" lon="12.4565765"><ele>1711.0000000000002</ele><time>2026-04-23T17:22:21.964Z</time></trkpt><trkpt lat="46.6073521" lon="12.4566192"><ele>1711.0</ele><time>2026-04-23T17:22:23.965Z</time></trkpt><trkpt lat="46.6074284" lon="12.4566374"><ele>1707.3333333333335</ele><time>2026-04-23T17:22:24.965Z</time></trkpt><trkpt lat="46.6075133" lon="12.4566606"><ele>1703.6666666666667</ele><time>2026-04-23T17:22:25.965Z</time></trkpt><trkpt lat="46.6075995" lon="12.456682"><ele>1700.0</ele><time>2026-04-23T17:22:26.965Z</time></trkpt><trkpt lat="46.6076839" lon="12.4566958"><ele>1696.3333333333335</ele><time>2026-04-23T17:22:27.965Z</time></trkpt><trkpt lat="46.6077663" lon="12.4567053"><ele>1692.6666666666667</ele><time>2026-04-23T17:22:28.965Z</time></trkpt><trkpt lat="46.6078558" lon="12.4567032"><ele>1689.0</ele><time>2026-04-23T17:22:29.965Z</time></trkpt><trkpt lat="46.6079447" lon="12.4566977"><ele>1686.1666666666667</ele><time>2026-04-23T17:22:30.965Z</time></trkpt><trkpt lat="46.6080422" lon="12.4566689"><ele>1683.3333333333335</ele><time>2026-04-23T17:22:31.965Z</time></trkpt><trkpt lat="46.6081234" lon="12.4566423"><ele>1680.5</ele><time>2026-04-23T17:22:32.965Z</time></trkpt><trkpt lat="46.6081985" lon="12.4566113"><ele>1677.6666666666667</ele><time>2026-04-23T17:22:33.965Z</time></trkpt><trkpt lat="46.6082733" lon="12.456589"><ele>1674.8333333333335</ele><time>2026-04-23T17:22:34.964Z</time></trkpt><trkpt lat="46.6083481" lon="12.4565693"><ele>1672.0</ele><time>2026-04-23T17:22:35.966Z</time></trkpt><trkpt lat="46.6085018" lon="12.4565425"><ele>1672.0000000000002</ele><time>2026-04-23T17:22:37.965Z</time></trkpt><trkpt lat="46.6085808" lon="12.4565303"><ele>1672.0</ele><time>2026-04-23T17:22:38.965Z</time></trkpt><trkpt lat="46.6086636" lon="12.4565294"><ele>1672.0</ele><time>2026-04-23T17:22:39.964Z</time></trkpt><trkpt lat="46.6087423" lon="12.4565422"><ele>1672.0</ele><time>2026-04-23T17:22:40.965Z</time></trkpt><trkpt lat="46.608817" lon="12.4565567"><ele>1672.0000000000002</ele><time>2026-04-23T17:22:41.966Z</time></trkpt><trkpt lat="46.6088864" lon="12.4565767"><ele>1672.0</ele><time>2026-04-23T17:22:42.965Z</time></trkpt><trkpt lat="46.6089884" lon="12.4566379"><ele>1669.1666666666667</ele><time>2026-04-23T17:22:44.964Z</time></trkpt><trkpt lat="46.6090191" lon="12.4567569"><ele>1666.3333333333335</ele><time>2026-04-23T17:22:46.965Z</time></trkpt><trkpt lat="46.6089989" lon="12.4569251"><ele>1663.5</ele><time>2026-04-23T17:22:48.965Z</time></trkpt><trkpt lat="46.6089683" lon="12.4570074"><ele>1660.6666666666665</ele><time>2026-04-23T17:22:49.965Z</time></trkpt><trkpt lat="46.6089204" lon="12.4570845"><ele>1657.8333333333333</ele><time>2026-04-23T17:22:50.966Z</time></trkpt><trkpt lat="46.6088604" lon="12.457161"><ele>1655.0</ele><time>2026-04-23T17:22:51.965Z</time></trkpt><trkpt lat="46.6087909" lon="12.4572465"><ele>1651.6</ele><time>2026-04-23T17:22:52.965Z</time></trkpt><trkpt lat="46.6087086" lon="12.4573245"><ele>1648.2</ele><time>2026-04-23T17:22:53.964Z</time></trkpt><trkpt lat="46.608615" lon="12.4573953"><ele>1644.8000000000002</ele><time>2026-04-23T17:22:54.965Z</time></trkpt><trkpt lat="46.6085175" lon="12.4574626"><ele>1641.4</ele><time>2026-04-23T17:22:55.965Z</time></trkpt><trkpt lat="46.608418" lon="12.4575364"><ele>1638.0</ele><time>2026-04-23T17:22:56.965Z</time></trkpt><trkpt lat="46.6082063" lon="12.4576886"><ele>1638.0</ele><time>2026-04-23T17:22:58.965Z</time></trkpt><trkpt lat="46.6080927" lon="12.4577633"><ele>1638.0</ele><time>2026-04-23T17:22:59.964Z</time></trkpt><trkpt lat="46.6079744" lon="12.4578345"><ele>1638.0</ele><time>2026-04-23T17:23:00.965Z</time></trkpt><trkpt lat="46.6078515" lon="12.4578976"><ele>1638.0</ele><time>2026-04-23T17:23:01.965Z</time></trkpt><trkpt lat="46.6077309" lon="12.4579659"><ele>1631.25</ele><time>2026-04-23T17:23:02.965Z</time></trkpt><trkpt lat="46.6076079" lon="12.4580489"><ele>1624.5</ele><time>2026-04-23T17:23:03.964Z</time></trkpt><trkpt lat="46.607495" lon="12.4581375"><ele>1617.75</ele><time>2026-04-23T17:23:04.965Z</time></trkpt><trkpt lat="46.6073901" lon="12.4582301"><ele>1611.0</ele><time>2026-04-23T17:23:05.964Z</time></trkpt><trkpt lat="46.6072879" lon="12.4583108"><ele>1611.0</ele><time>2026-04-23T17:23:06.964Z</time></trkpt><trkpt lat="46.6071166" lon="12.4584994"><ele>1611.0</ele><time>2026-04-23T17:23:08.965Z</time></trkpt><trkpt lat="46.6070513" lon="12.4586209"><ele>1611.0</ele><time>2026-04-23T17:23:09.965Z</time></trkpt><trkpt lat="46.6069889" lon="12.4587424"><ele>1611.0</ele><time>2026-04-23T17:23:10.964Z</time></trkpt><trkpt lat="46.6069284" lon="12.4588489"><ele>1609.6</ele><time>2026-04-23T17:23:11.964Z</time></trkpt><trkpt lat="46.6068637" lon="12.4589467"><ele>1608.1999999999998</ele><time>2026-04-23T17:23:12.965Z</time></trkpt><trkpt lat="46.6067973" lon="12.4590379"><ele>1606.8000000000002</ele><time>2026-04-23T17:23:13.965Z</time></trkpt><trkpt lat="46.6067307" lon="12.4591337"><ele>1605.4</ele><time>2026-04-23T17:23:14.965Z</time></trkpt><trkpt lat="46.6066616" lon="12.4592315"><ele>1604.0</ele><time>2026-04-23T17:23:15.965Z</time></trkpt><trkpt lat="46.6065898" lon="12.4593358"><ele>1604.0</ele><time>2026-04-23T17:23:16.966Z</time></trkpt><trkpt lat="46.6065215" lon="12.4594476"><ele>1604.0</ele><time>2026-04-23T17:23:17.965Z</time></trkpt><trkpt lat="46.6064577" lon="12.4595685"><ele>1604.0</ele><time>2026-04-23T17:23:18.965Z</time></trkpt><trkpt lat="46.60639" lon="12.459695"><ele>1604.0</ele><time>2026-04-23T17:23:19.965Z</time></trkpt><trkpt lat="46.6063124" lon="12.4598181"><ele>1604.0</ele><time>2026-04-23T17:23:20.965Z</time></trkpt><trkpt lat="46.606231" lon="12.4599342"><ele>1602.4</ele><time>2026-04-23T17:23:21.964Z</time></trkpt><trkpt lat="46.6061579" lon="12.4600569"><ele>1600.8000000000002</ele><time>2026-04-23T17:23:22.965Z</time></trkpt><trkpt lat="46.6060857" lon="12.460174"><ele>1599.1999999999998</ele><time>2026-04-23T17:23:23.965Z</time></trkpt><trkpt lat="46.6060124" lon="12.4602869"><ele>1597.6</ele><time>2026-04-23T17:23:24.964Z</time></trkpt><trkpt lat="46.6059411" lon="12.4603945"><ele>1596.0</ele><time>2026-04-23T17:23:25.965Z</time></trkpt><trkpt lat="46.6058756" lon="12.4604936"><ele>1592.8333333333333</ele><time>2026-04-23T17:23:26.964Z</time></trkpt><trkpt lat="46.6058107" lon="12.4605881"><ele>1589.6666666666665</ele><time>2026-04-23T17:23:27.965Z</time></trkpt><trkpt lat="46.6057551" lon="12.460676"><ele>1586.5</ele><time>2026-04-23T17:23:28.965Z</time></trkpt><trkpt lat="46.6057011" lon="12.460765"><ele>1583.3333333333333</ele><time>2026-04-23T17:23:29.966Z</time></trkpt><trkpt lat="46.6056541" lon="12.4608545"><ele>1580.1666666666665</ele><time>2026-04-23T17:23:30.964Z</time></trkpt><trkpt lat="46.6056204" lon="12.4609496"><ele>1577.0</ele><time>2026-04-23T17:23:31.965Z</time></trkpt><trkpt lat="46.6056012" lon="12.4610541"><ele>1577.0</ele><time>2026-04-23T17:23:32.965Z</time></trkpt><trkpt lat="46.605596" lon="12.4611579"><ele>1577.0</ele><time>2026-04-23T17:23:33.964Z</time></trkpt><trkpt lat="46.6056015" lon="12.4612554"><ele>1577.0</ele><time>2026-04-23T17:23:34.965Z</time></trkpt><trkpt lat="46.6056081" lon="12.4613525"><ele>1577.0</ele><time>2026-04-23T17:23:35.966Z</time></trkpt><trkpt lat="46.6056175" lon="12.4614526"><ele>1577.0</ele><time>2026-04-23T17:23:36.965Z</time></trkpt><trkpt lat="46.6056226" lon="12.4615614"><ele>1577.0</ele><time>2026-04-23T17:23:37.965Z</time></trkpt><trkpt lat="46.6056085" lon="12.4616791"><ele>1577.0</ele><time>2026-04-23T17:23:38.965Z</time></trkpt><trkpt lat="46.6055809" lon="12.4618054"><ele>1574.0</ele><time>2026-04-23T17:23:39.966Z</time></trkpt><trkpt lat="46.605538" lon="12.4619208"><ele>1571.0</ele><time>2026-04-23T17:23:40.965Z</time></trkpt><trkpt lat="46.6054836" lon="12.4620234"><ele>1568.0</ele><time>2026-04-23T17:23:41.965Z</time></trkpt><trkpt lat="46.6054257" lon="12.4621123"><ele>1565.0</ele><time>2026-04-23T17:23:42.965Z</time></trkpt><trkpt lat="46.6053585" lon="12.4622078"><ele>1562.0</ele><time>2026-04-23T17:23:43.966Z</time></trkpt><trkpt lat="46.6052959" lon="12.4623194"><ele>1560.8</ele><time>2026-04-23T17:23:44.965Z</time></trkpt><trkpt lat="46.6052371" lon="12.4624368"><ele>1559.6</ele><time>2026-04-23T17:23:45.965Z</time></trkpt><trkpt lat="46.6051864" lon="12.4625661"><ele>1558.3999999999999</ele><time>2026-04-23T17:23:46.964Z</time></trkpt><trkpt lat="46.6051412" lon="12.462706"><ele>1557.1999999999998</ele><time>2026-04-23T17:23:47.964Z</time></trkpt><trkpt lat="46.6050947" lon="12.4628414"><ele>1556.0</ele><time>2026-04-23T17:23:48.965Z</time></trkpt><trkpt lat="46.6050512" lon="12.4629646"><ele>1552.6666666666665</ele><time>2026-04-23T17:23:49.965Z</time></trkpt><trkpt lat="46.6050167" lon="12.4630605"><ele>1549.3333333333333</ele><time>2026-04-23T17:23:50.965Z</time></trkpt><trkpt lat="46.6049519" lon="12.4631789"><ele>1546.0</ele><time>2026-04-23T17:23:52.965Z</time></trkpt><trkpt lat="46.6048929" lon="12.4632338"><ele>1542.6666666666665</ele><time>2026-04-23T17:23:54.965Z</time></trkpt><trkpt lat="46.6048263" lon="12.4632909"><ele>1539.3333333333333</ele><time>2026-04-23T17:23:56.965Z</time></trkpt><trkpt lat="46.604762" lon="12.4633124"><ele>1536.0</ele><time>2026-04-23T17:23:58.966Z</time></trkpt><trkpt lat="46.6046967" lon="12.4633485"><ele>1536.0</ele><time>2026-04-23T17:24:01.966Z</time></trkpt><trkpt lat="46.6046372" lon="12.4633868"><ele>1536.0</ele><time>2026-04-23T17:24:04.965Z</time></trkpt><trkpt lat="46.6045599" lon="12.4634423"><ele>1536.0</ele><time>2026-04-23T17:24:07.967Z</time></trkpt><trkpt lat="46.6044958" lon="12.4635016"><ele>1536.0</ele><time>2026-04-23T17:24:09.966Z</time></trkpt><trkpt lat="46.6044283" lon="12.4635948"><ele>1536.0</ele><time>2026-04-23T17:24:11.967Z</time></trkpt><trkpt lat="46.6043459" lon="12.4637005"><ele>1536.0</ele><time>2026-04-23T17:24:13.966Z</time></trkpt><trkpt lat="46.6042624" lon="12.4638338"><ele>1533.6666666666667</ele><time>2026-04-23T17:24:15.966Z</time></trkpt><trkpt lat="46.6041843" lon="12.4639731"><ele>1531.3333333333333</ele><time>2026-04-23T17:24:17.966Z</time></trkpt><trkpt lat="46.6041401" lon="12.4640413"><ele>1529.0</ele><time>2026-04-23T17:24:18.967Z</time></trkpt><trkpt lat="46.604105" lon="12.4641269"><ele>1526.6666666666665</ele><time>2026-04-23T17:24:19.966Z</time></trkpt><trkpt lat="46.6040587" lon="12.4642055"><ele>1524.3333333333333</ele><time>2026-04-23T17:24:20.966Z</time></trkpt><trkpt lat="46.6040175" lon="12.4642835"><ele>1522.0</ele><time>2026-04-23T17:24:21.966Z</time></trkpt><trkpt lat="46.6039721" lon="12.4643639"><ele>1522.0</ele><time>2026-04-23T17:24:22.966Z</time></trkpt><trkpt lat="46.6039332" lon="12.4644421"><ele>1522.0</ele><time>2026-04-23T17:24:23.966Z</time></trkpt><trkpt lat="46.6038941" lon="12.4645215"><ele>1522.0</ele><time>2026-04-23T17:24:24.967Z</time></trkpt><trkpt lat="46.6038513" lon="12.4645961"><ele>1522.0</ele><time>2026-04-23T17:24:25.966Z</time></trkpt><trkpt lat="46.6037775" lon="12.4647233"><ele>1522.0</ele><time>2026-04-23T17:24:27.966Z</time></trkpt><trkpt lat="46.6037195" lon="12.4648067"><ele>1522.0</ele><time>2026-04-23T17:24:29.966Z</time></trkpt><trkpt lat="46.6036848" lon="12.4648861"><ele>1518.5</ele><time>2026-04-23T17:24:31.966Z</time></trkpt><trkpt lat="46.6036524" lon="12.4649792"><ele>1515.0</ele><time>2026-04-23T17:24:34.966Z</time></trkpt><trkpt lat="46.6036184" lon="12.4650698"><ele>1511.5</ele><time>2026-04-23T17:25:19.965Z</time></trkpt><trkpt lat="46.6036298" lon="12.4651792"><ele>1508.0</ele><time>2026-04-23T17:25:23.966Z</time></trkpt><trkpt lat="46.6036374" lon="12.4652872"><ele>1504.5</ele><time>2026-04-23T17:25:26.966Z</time></trkpt><trkpt lat="46.6036268" lon="12.4654002"><ele>1501.0</ele><time>2026-04-23T17:25:29.966Z</time></trkpt><trkpt lat="46.6036102" lon="12.46553"><ele>1497.6</ele><time>2026-04-23T17:25:32.965Z</time></trkpt><trkpt lat="46.6035945" lon="12.4656195"><ele>1494.1999999999998</ele><time>2026-04-23T17:25:34.966Z</time></trkpt><trkpt lat="46.6035769" lon="12.4657096"><ele>1490.8000000000002</ele><time>2026-04-23T17:25:36.966Z</time></trkpt><trkpt lat="46.6035676" lon="12.4658137"><ele>1487.4</ele><time>2026-04-23T17:25:38.966Z</time></trkpt><trkpt lat="46.6034946" lon="12.4660955"><ele>1484.0</ele><time>2026-04-23T17:25:43.966Z</time></trkpt><trkpt lat="46.6034444" lon="12.4661897"><ele>1482.1666666666667</ele><time>2026-04-23T17:25:45.965Z</time></trkpt><trkpt lat="46.6033941" lon="12.4662878"><ele>1480.3333333333335</ele><time>2026-04-23T17:25:47.966Z</time></trkpt><trkpt lat="46.6033372" lon="12.4663993"><ele>1478.5</ele><time>2026-04-23T17:25:49.966Z</time></trkpt><trkpt lat="46.6032846" lon="12.466488"><ele>1476.6666666666667</ele><time>2026-04-23T17:25:51.966Z</time></trkpt><trkpt lat="46.6032339" lon="12.4665723"><ele>1474.8333333333333</ele><time>2026-04-23T17:25:53.966Z</time></trkpt><trkpt lat="46.6031822" lon="12.466678"><ele>1473.0</ele><time>2026-04-23T17:25:55.967Z</time></trkpt><trkpt lat="46.6031261" lon="12.4667893"><ele>1473.0</ele><time>2026-04-23T17:25:57.966Z</time></trkpt><trkpt lat="46.6030765" lon="12.4668977"><ele>1473.0</ele><time>2026-04-23T17:25:59.965Z</time></trkpt><trkpt lat="46.6030194" lon="12.4670218"><ele>1473.0</ele><time>2026-04-23T17:26:01.966Z</time></trkpt><trkpt lat="46.6029602" lon="12.4671581"><ele>1473.0</ele><time>2026-04-23T17:26:03.966Z</time></trkpt><trkpt lat="46.6029234" lon="12.4672338"><ele>1473.0</ele><time>2026-04-23T17:26:04.966Z</time></trkpt><trkpt lat="46.6028777" lon="12.4673196"><ele>1473.0</ele><time>2026-04-23T17:26:05.966Z</time></trkpt><trkpt lat="46.6028307" lon="12.4674091"><ele>1470.2857142857142</ele><time>2026-04-23T17:26:06.967Z</time></trkpt><trkpt lat="46.6027844" lon="12.4675036"><ele>1467.5714285714284</ele><time>2026-04-23T17:26:07.965Z</time></trkpt><trkpt lat="46.6027431" lon="12.4675979"><ele>1464.8571428571427</ele><time>2026-04-23T17:26:08.966Z</time></trkpt><trkpt lat="46.6027071" lon="12.4676841"><ele>1462.142857142857</ele><time>2026-04-23T17:26:09.966Z</time></trkpt><trkpt lat="46.6026704" lon="12.4677604"><ele>1459.4285714285716</ele><time>2026-04-23T17:26:10.966Z</time></trkpt><trkpt lat="46.602639" lon="12.4678537"><ele>1456.7142857142856</ele><time>2026-04-23T17:26:11.966Z</time></trkpt><trkpt lat="46.6026071" lon="12.467943"><ele>1454.0</ele><time>2026-04-23T17:26:12.967Z</time></trkpt><trkpt lat="46.6025722" lon="12.4680322"><ele>1451.8333333333335</ele><time>2026-04-23T17:26:13.965Z</time></trkpt><trkpt lat="46.6025141" lon="12.468148"><ele>1449.6666666666667</ele><time>2026-04-23T17:26:15.965Z</time></trkpt><trkpt lat="46.6024541" lon="12.468248"><ele>1447.5</ele><time>2026-04-23T17:26:17.966Z</time></trkpt><trkpt lat="46.6024141" lon="12.4683434"><ele>1445.3333333333333</ele><time>2026-04-23T17:26:19.966Z</time></trkpt><trkpt lat="46.6023724" lon="12.46845"><ele>1443.1666666666665</ele><time>2026-04-23T17:26:21.967Z</time></trkpt><trkpt lat="46.6023224" lon="12.4685534"><ele>1441.0</ele><time>2026-04-23T17:26:23.965Z</time></trkpt><trkpt lat="46.6022763" lon="12.4686749"><ele>1437.5</ele><time>2026-04-23T17:26:25.966Z</time></trkpt><trkpt lat="46.6022135" lon="12.468809"><ele>1434.0</ele><time>2026-04-23T17:26:27.965Z</time></trkpt><trkpt lat="46.6021291" lon="12.4689419"><ele>1430.5</ele><time>2026-04-23T17:26:29.965Z</time></trkpt><trkpt lat="46.6020523" lon="12.4690583"><ele>1427.0</ele><time>2026-04-23T17:26:31.966Z</time></trkpt><trkpt lat="46.6019809" lon="12.469189"><ele>1425.8</ele><time>2026-04-23T17:26:33.966Z</time></trkpt><trkpt lat="46.6019273" lon="12.4693359"><ele>1424.6</ele><time>2026-04-23T17:26:35.966Z</time></trkpt><trkpt lat="46.6018604" lon="12.4694567"><ele>1423.3999999999999</ele><time>2026-04-23T17:26:37.967Z</time></trkpt><trkpt lat="46.6018081" lon="12.469553"><ele>1422.1999999999998</ele><time>2026-04-23T17:26:39.966Z</time></trkpt><trkpt lat="46.6017644" lon="12.4696344"><ele>1421.0</ele><time>2026-04-23T17:26:41.965Z</time></trkpt><trkpt lat="46.6016912" lon="12.4696914"><ele>1418.5</ele><time>2026-04-23T17:26:44.966Z</time></trkpt><trkpt lat="46.601639" lon="12.4697431"><ele>1416.0</ele><time>2026-04-23T17:26:46.966Z</time></trkpt><trkpt lat="46.6015827" lon="12.469786"><ele>1413.5</ele><time>2026-04-23T17:26:48.965Z</time></trkpt><trkpt lat="46.6014859" lon="12.4698056"><ele>1411.0</ele><time>2026-04-23T17:26:51.966Z</time></trkpt><trkpt lat="46.6014149" lon="12.4699229"><ele>1408.5</ele><time>2026-04-23T17:26:53.967Z</time></trkpt><trkpt lat="46.6013346" lon="12.4700091"><ele>1406.0</ele><time>2026-04-23T17:26:55.965Z</time></trkpt><trkpt lat="46.6012347" lon="12.4700431"><ele>1404.4</ele><time>2026-04-23T17:26:57.965Z</time></trkpt><trkpt lat="46.6011331" lon="12.4700292"><ele>1402.8</ele><time>2026-04-23T17:26:59.966Z</time></trkpt><trkpt lat="46.6010329" lon="12.4700238"><ele>1401.2</ele><time>2026-04-23T17:27:01.966Z</time></trkpt><trkpt lat="46.600968" lon="12.4700169"><ele>1399.6000000000001</ele><time>2026-04-23T17:27:02.966Z</time></trkpt><trkpt lat="46.6008541" lon="12.4700599"><ele>1398.0</ele><time>2026-04-23T17:27:04.966Z</time></trkpt><trkpt lat="46.6007625" lon="12.470135"><ele>1398.0</ele><time>2026-04-23T17:27:06.965Z</time></trkpt><trkpt lat="46.60069" lon="12.4701317"><ele>1398.0</ele><time>2026-04-23T17:27:11.966Z</time></trkpt><trkpt lat="46.6006232" lon="12.470174"><ele>1398.0</ele><time>2026-04-23T17:27:23.966Z</time></trkpt><trkpt lat="46.6005621" lon="12.4702364"><ele>1398.0</ele><time>2026-04-23T17:27:27.966Z</time></trkpt><trkpt lat="46.6005676" lon="12.4703854"><ele>1398.0</ele><time>2026-04-23T17:27:33.965Z</time></trkpt><trkpt lat="46.6005595" lon="12.4704969"><ele>1398.0</ele><time>2026-04-23T17:27:36.966Z</time></trkpt><trkpt lat="46.6005498" lon="12.4705876"><ele>1394.5</ele><time>2026-04-23T17:27:38.966Z</time></trkpt><trkpt lat="46.6005449" lon="12.4707213"><ele>1391.0</ele><time>2026-04-23T17:27:41.966Z</time></trkpt><trkpt lat="46.6005296" lon="12.4708189"><ele>1387.5</ele><time>2026-04-23T17:27:43.966Z</time></trkpt><trkpt lat="46.6005241" lon="12.470912"><ele>1384.0</ele><time>2026-04-23T17:27:45.966Z</time></trkpt><trkpt lat="46.6006015" lon="12.4709177"><ele>1380.5</ele><time>2026-04-23T17:27:49.966Z</time></trkpt><trkpt lat="46.600684" lon="12.4709127"><ele>1377.0</ele><time>2026-04-23T17:27:51.965Z</time></trkpt><trkpt lat="46.6007564" lon="12.4708824"><ele>1377.0</ele><time>2026-04-23T17:27:52.965Z</time></trkpt><trkpt lat="46.6008308" lon="12.4708887"><ele>1377.0</ele><time>2026-04-23T17:27:54.966Z</time></trkpt><trkpt lat="46.6008995" lon="12.4709449"><ele>1377.0</ele><time>2026-04-23T17:27:56.966Z</time></trkpt><trkpt lat="46.600938" lon="12.4710341"><ele>1377.0</ele><time>2026-04-23T17:27:58.966Z</time></trkpt><trkpt lat="46.600961" lon="12.4711475"><ele>1377.0</ele><time>2026-04-23T17:28:02.967Z</time></trkpt><trkpt lat="46.6009825" lon="12.4713111"><ele>1377.0</ele><time>2026-04-23T17:28:04.966Z</time></trkpt><trkpt lat="46.6010006" lon="12.4714465"><ele>1372.3999999999999</ele><time>2026-04-23T17:28:06.966Z</time></trkpt><trkpt lat="46.6010175" lon="12.4715557"><ele>1367.8</ele><time>2026-04-23T17:28:07.967Z</time></trkpt><trkpt lat="46.6010252" lon="12.4717102"><ele>1363.2</ele><time>2026-04-23T17:28:09.966Z</time></trkpt><trkpt lat="46.6010163" lon="12.4718312"><ele>1358.6</ele><time>2026-04-23T17:28:11.966Z</time></trkpt><trkpt lat="46.6010391" lon="12.4719577"><ele>1354.0</ele><time>2026-04-23T17:28:13.965Z</time></trkpt><trkpt lat="46.6010814" lon="12.4721021"><ele>1350.5</ele><time>2026-04-23T17:28:15.966Z</time></trkpt><trkpt lat="46.6011016" lon="12.4721983"><ele>1347.0</ele><time>2026-04-23T17:28:16.966Z</time></trkpt><trkpt lat="46.6010992" lon="12.472335"><ele>1343.5</ele><time>2026-04-23T17:28:18.966Z</time></trkpt><trkpt lat="46.6011367" lon="12.4724144"><ele>1340.0</ele><time>2026-04-23T17:28:20.966Z</time></trkpt><trkpt lat="46.6011721" lon="12.4725171"><ele>1336.5</ele><time>2026-04-23T17:28:23.967Z</time></trkpt><trkpt lat="46.6011536" lon="12.4726289"><ele>1333.0</ele><time>2026-04-23T17:28:27.965Z</time></trkpt><trkpt lat="46.6011966" lon="12.4726998"><ele>1333.0</ele><time>2026-04-23T17:28:43.966Z</time></trkpt><trkpt lat="46.6012029" lon="12.4728033"><ele>1333.0</ele><time>2026-04-23T17:28:48.966Z</time></trkpt><trkpt lat="46.6011617" lon="12.4729165"><ele>1333.0</ele><time>2026-04-23T17:28:51.966Z</time></trkpt><trkpt lat="46.6011594" lon="12.4730157"><ele>1333.0</ele><time>2026-04-23T17:28:53.967Z</time></trkpt><trkpt lat="46.601158" lon="12.4731123"><ele>1333.0</ele><time>2026-04-23T17:28:55.965Z</time></trkpt><trkpt lat="46.6011477" lon="12.4732312"><ele>1333.0</ele><time>2026-04-23T17:28:57.966Z</time></trkpt><trkpt lat="46.6011582" lon="12.473348"><ele>1330.0</ele><time>2026-04-23T17:28:59.966Z</time></trkpt><trkpt lat="46.6012132" lon="12.4735125"><ele>1327.0</ele><time>2026-04-23T17:29:02.966Z</time></trkpt><trkpt lat="46.6012743" lon="12.473599"><ele>1324.0</ele><time>2026-04-23T17:29:04.966Z</time></trkpt><trkpt lat="46.6013442" lon="12.4737193"><ele>1321.0</ele><time>2026-04-23T17:29:07.966Z</time></trkpt><trkpt lat="46.6013391" lon="12.473816"><ele>1318.0</ele><time>2026-04-23T17:29:10.966Z</time></trkpt><trkpt lat="46.6013638" lon="12.4739009"><ele>1315.0</ele><time>2026-04-23T17:29:12.966Z</time></trkpt><trkpt lat="46.6013824" lon="12.4740313"><ele>1312.142857142857</ele><time>2026-04-23T17:29:15.966Z</time></trkpt><trkpt lat="46.6014214" lon="12.4741223"><ele>1309.2857142857142</ele><time>2026-04-23T17:29:17.966Z</time></trkpt><trkpt lat="46.601443" lon="12.4742133"><ele>1306.4285714285716</ele><time>2026-04-23T17:29:20.966Z</time></trkpt><trkpt lat="46.6014685" lon="12.4743027"><ele>1303.5714285714284</ele><time>2026-04-23T17:29:23.965Z</time></trkpt><trkpt lat="46.6015078" lon="12.4744161"><ele>1300.7142857142858</ele><time>2026-04-23T17:29:26.967Z</time></trkpt><trkpt lat="46.6015628" lon="12.4744906"><ele>1297.857142857143</ele><time>2026-04-23T17:29:29.966Z</time></trkpt><trkpt lat="46.6015966" lon="12.4745793"><ele>1295.0</ele><time>2026-04-23T17:29:37.966Z</time></trkpt><trkpt lat="46.6015583" lon="12.4746633"><ele>1291.3333333333335</ele><time>2026-04-23T17:29:40.966Z</time></trkpt><trkpt lat="46.6016189" lon="12.4747106"><ele>1287.6666666666667</ele><time>2026-04-23T17:29:44.966Z</time></trkpt><trkpt lat="46.6016848" lon="12.4747392"><ele>1284.0</ele><time>2026-04-23T17:29:47.966Z</time></trkpt><trkpt lat="46.6017568" lon="12.4747379"><ele>1280.3333333333333</ele><time>2026-04-23T17:29:49.966Z</time></trkpt><trkpt lat="46.6018726" lon="12.4747819"><ele>1276.6666666666665</ele><time>2026-04-23T17:29:53.965Z</time></trkpt><trkpt lat="46.6018321" lon="12.4748787"><ele>1273.0</ele><time>2026-04-23T17:29:56.966Z</time></trkpt><trkpt lat="46.601755" lon="12.4749692"><ele>1273.0</ele><time>2026-04-23T17:29:58.966Z</time></trkpt><trkpt lat="46.6016652" lon="12.4750455"><ele>1273.0</ele><time>2026-04-23T17:30:00.966Z</time></trkpt><trkpt lat="46.6015555" lon="12.4750519"><ele>1273.0</ele><time>2026-04-23T17:30:02.968Z</time></trkpt><trkpt lat="46.6014913" lon="12.4750766"><ele>1273.0</ele><time>2026-04-23T17:30:03.966Z</time></trkpt><trkpt lat="46.6014235" lon="12.4750892"><ele>1273.0</ele><time>2026-04-23T17:30:04.967Z</time></trkpt><trkpt lat="46.6013443" lon="12.475106"><ele>1273.0</ele><time>2026-04-23T17:30:05.967Z</time></trkpt><trkpt lat="46.6012783" lon="12.4751262"><ele>1273.0</ele><time>2026-04-23T17:30:06.968Z</time></trkpt><trkpt lat="46.6012121" lon="12.4751813"><ele>1273.0</ele><time>2026-04-23T17:30:07.967Z</time></trkpt><trkpt lat="46.6011493" lon="12.4752215"><ele>1273.0</ele><time>2026-04-23T17:30:08.967Z</time></trkpt><trkpt lat="46.6010897" lon="12.475276"><ele>1273.0</ele><time>2026-04-23T17:30:09.967Z</time></trkpt><trkpt lat="46.6010439" lon="12.4753605"><ele>1273.0</ele><time>2026-04-23T17:30:10.966Z</time></trkpt><trkpt lat="46.6009991" lon="12.4754297"><ele>1273.0</ele><time>2026-04-23T17:30:11.966Z</time></trkpt><trkpt lat="46.6009527" lon="12.4755015"><ele>1273.0</ele><time>2026-04-23T17:30:12.966Z</time></trkpt><trkpt lat="46.6008549" lon="12.4755803"><ele>1267.8333333333333</ele><time>2026-04-23T17:30:14.967Z</time></trkpt><trkpt lat="46.6007595" lon="12.4755742"><ele>1262.6666666666665</ele><time>2026-04-23T17:30:16.967Z</time></trkpt><trkpt lat="46.6006867" lon="12.4755402"><ele>1257.5</ele><time>2026-04-23T17:30:18.966Z</time></trkpt><trkpt lat="46.6005945" lon="12.4755321"><ele>1252.3333333333333</ele><time>2026-04-23T17:30:20.967Z</time></trkpt><trkpt lat="46.6005298" lon="12.4755582"><ele>1247.1666666666667</ele><time>2026-04-23T17:30:21.967Z</time></trkpt><trkpt lat="46.6004615" lon="12.4755814"><ele>1242.0</ele><time>2026-04-23T17:30:22.967Z</time></trkpt><trkpt lat="46.6003965" lon="12.4755999"><ele>1243.5</ele><time>2026-04-23T17:30:23.967Z</time></trkpt><trkpt lat="46.600284" lon="12.4755723"><ele>1245.0</ele><time>2026-04-23T17:30:25.967Z</time></trkpt><trkpt lat="46.6002182" lon="12.4754224"><ele>1246.5</ele><time>2026-04-23T17:30:27.966Z</time></trkpt><trkpt lat="46.6001857" lon="12.475331"><ele>1248.0</ele><time>2026-04-23T17:30:28.967Z</time></trkpt><trkpt lat="46.6001505" lon="12.4752518"><ele>1249.5</ele><time>2026-04-23T17:30:29.967Z</time></trkpt><trkpt lat="46.6001042" lon="12.475181"><ele>1251.0</ele><time>2026-04-23T17:30:30.967Z</time></trkpt><trkpt lat="46.6000172" lon="12.4751313"><ele>1251.0</ele><time>2026-04-23T17:30:32.967Z</time></trkpt><trkpt lat="46.5999429" lon="12.4751888"><ele>1251.0</ele><time>2026-04-23T17:30:34.968Z</time></trkpt><trkpt lat="46.5999114" lon="12.4752722"><ele>1251.0</ele><time>2026-04-23T17:30:35.967Z</time></trkpt><trkpt lat="46.5998857" lon="12.4753769"><ele>1251.0</ele><time>2026-04-23T17:30:36.967Z</time></trkpt><trkpt lat="46.5998619" lon="12.4754884"><ele>1251.0</ele><time>2026-04-23T17:30:37.967Z</time></trkpt><trkpt lat="46.5998423" lon="12.475603"><ele>1251.0</ele><time>2026-04-23T17:30:38.967Z</time></trkpt><trkpt lat="46.5998226" lon="12.4757209"><ele>1251.0</ele><time>2026-04-23T17:30:39.967Z</time></trkpt><trkpt lat="46.5998056" lon="12.4758426"><ele>1251.0</ele><time>2026-04-23T17:30:40.967Z</time></trkpt><trkpt lat="46.5997883" lon="12.4759684"><ele>1251.0</ele><time>2026-04-23T17:30:41.966Z</time></trkpt><trkpt lat="46.5997782" lon="12.4760989"><ele>1251.0</ele><time>2026-04-23T17:30:42.966Z</time></trkpt><trkpt lat="46.5997857" lon="12.4762179"><ele>1251.0</ele><time>2026-04-23T17:30:43.966Z</time></trkpt><trkpt lat="46.5997968" lon="12.4763098"><ele>1251.0</ele><time>2026-04-23T17:30:44.967Z</time></trkpt><trkpt lat="46.5998121" lon="12.4764752"><ele>1250.1666666666667</ele><time>2026-04-23T17:30:46.967Z</time></trkpt><trkpt lat="46.5998552" lon="12.4765866"><ele>1249.3333333333333</ele><time>2026-04-23T17:30:48.966Z</time></trkpt><trkpt lat="46.5998818" lon="12.476673"><ele>1248.5</ele><time>2026-04-23T17:30:49.967Z</time></trkpt><trkpt lat="46.5999011" lon="12.4767836"><ele>1247.6666666666665</ele><time>2026-04-23T17:30:50.967Z</time></trkpt><trkpt lat="46.5999307" lon="12.4769082"><ele>1246.8333333333333</ele><time>2026-04-23T17:30:51.966Z</time></trkpt><trkpt lat="46.5999661" lon="12.4770488"><ele>1246.0</ele><time>2026-04-23T17:30:52.967Z</time></trkpt><trkpt lat="46.5999988" lon="12.4771894"><ele>1244.0</ele><time>2026-04-23T17:30:53.967Z</time></trkpt><trkpt lat="46.6000279" lon="12.4773246"><ele>1242.0</ele><time>2026-04-23T17:30:54.967Z</time></trkpt><trkpt lat="46.6000692" lon="12.4774457"><ele>1240.0</ele><time>2026-04-23T17:30:55.967Z</time></trkpt><trkpt lat="46.6001363" lon="12.477548"><ele>1238.0</ele><time>2026-04-23T17:30:56.968Z</time></trkpt><trkpt lat="46.600221" lon="12.4776433"><ele>1236.0</ele><time>2026-04-23T17:30:57.967Z</time></trkpt><trkpt lat="46.6003109" lon="12.4777325"><ele>1234.2</ele><time>2026-04-23T17:30:58.967Z</time></trkpt><trkpt lat="46.6004" lon="12.4778294"><ele>1232.3999999999999</ele><time>2026-04-23T17:30:59.967Z</time></trkpt><trkpt lat="46.600489" lon="12.4779264"><ele>1230.6</ele><time>2026-04-23T17:31:00.966Z</time></trkpt><trkpt lat="46.6005791" lon="12.4780166"><ele>1228.8</ele><time>2026-04-23T17:31:01.967Z</time></trkpt><trkpt lat="46.6006646" lon="12.4781082"><ele>1227.0</ele><time>2026-04-23T17:31:02.967Z</time></trkpt><trkpt lat="46.6007511" lon="12.4781953"><ele>1227.0</ele><time>2026-04-23T17:31:03.966Z</time></trkpt><trkpt lat="46.6008377" lon="12.4782786"><ele>1227.0</ele><time>2026-04-23T17:31:04.967Z</time></trkpt><trkpt lat="46.6009184" lon="12.4783628"><ele>1227.0</ele><time>2026-04-23T17:31:05.967Z</time></trkpt><trkpt lat="46.600996" lon="12.4784444"><ele>1227.0</ele><time>2026-04-23T17:31:06.967Z</time></trkpt><trkpt lat="46.6010734" lon="12.4785213"><ele>1227.0</ele><time>2026-04-23T17:31:07.966Z</time></trkpt><trkpt lat="46.6011482" lon="12.4785987"><ele>1225.8333333333333</ele><time>2026-04-23T17:31:08.967Z</time></trkpt><trkpt lat="46.60122" lon="12.4786708"><ele>1224.6666666666667</ele><time>2026-04-23T17:31:09.967Z</time></trkpt><trkpt lat="46.6012824" lon="12.4787443"><ele>1223.5</ele><time>2026-04-23T17:31:10.967Z</time></trkpt><trkpt lat="46.6013266" lon="12.478811"><ele>1222.3333333333335</ele><time>2026-04-23T17:31:11.966Z</time></trkpt><trkpt lat="46.6013904" lon="12.4789502"><ele>1221.1666666666667</ele><time>2026-04-23T17:31:13.967Z</time></trkpt><trkpt lat="46.6014467" lon="12.4790046"><ele>1220.0</ele><time>2026-04-23T17:31:14.966Z</time></trkpt><trkpt lat="46.6015063" lon="12.4790481"><ele>1219.0</ele><time>2026-04-23T17:31:15.968Z</time></trkpt><trkpt lat="46.6015909" lon="12.4791404"><ele>1219.0</ele><time>2026-04-23T17:31:17.967Z</time></trkpt><trkpt lat="46.6015993" lon="12.4792585"><ele>1219.0</ele><time>2026-04-23T17:31:19.967Z</time></trkpt><trkpt lat="46.6015709" lon="12.479355"><ele>1219.0</ele><time>2026-04-23T17:31:21.967Z</time></trkpt><trkpt lat="46.601582" lon="12.4794577"><ele>1219.0</ele><time>2026-04-23T17:31:24.967Z</time></trkpt><trkpt lat="46.6016605" lon="12.4794856"><ele>1219.0</ele><time>2026-04-23T17:32:22.967Z</time></trkpt></trkseg></trk></gpx>